Wetterdaten: Sonntag, 24.09.2017
Datum Zeit Temp. A. Temp. A. max Feuchte A. Luftdruck Regen Wind Richtung Richtung Sonnenschein ET UV Solar Taupunkt Windchill Windböen
24.09.2017 00:00 11,6 °C 11,6 °C 90 % 1019,2 hPa 0,0 mm 0,0 km/h (0 Bft) W-SW 244 ° 0 min 0,000 mm 0,0 UV-I 0 W/m² 10,0 °C 11,6 °C 0,0 km/h (0 Bft)
24.09.2017 00:01 11,5 °C 11,6 °C 90 % 1019,2 hPa 0,0 mm 0,0 km/h (0 Bft) W-SW 244 ° 0 min 0,000 mm 0,0 UV-I 0 W/m² 9,9 °C 11,5 °C 0,0 km/h (0 Bft)
24.09.2017 00:02 11,5 °C 11,5 °C 90 % 1019,2 hPa 0,0 mm 0,0 km/h (0 Bft) W-SW 244 ° 0 min 0,000 mm 0,0 UV-I 0 W/m² 9,9 °C 11,5 °C 0,0 km/h (0 Bft)
24.09.2017 00:03 11,4 °C 11,5 °C 90 % 1019,3 hPa 0,0 mm 0,4 km/h (0 Bft) W-SW 244 ° 0 min 0,000 mm 0,0 UV-I 0 W/m² 9,8 °C 11,4 °C 1,6 km/h (1 Bft)
24.09.2017 00:04 11,3 °C 11,4 °C 90 % 1019,3 hPa 0,0 mm 1,3 km/h (1 Bft) W-SW 244 ° 0 min 0,000 mm 0,0 UV-I 0 W/m² 9,7 °C 11,3 °C 3,2 km/h (1 Bft)
24.09.2017 00:05 11,3 °C 11,3 °C 90 % 1019,3 hPa 0,0 mm 1,6 km/h (1 Bft) W-SW 244 ° 0 min 0,000 mm 0,0 UV-I 0 W/m² 9,7 °C 11,3 °C 3,2 km/h (1 Bft)
24.09.2017 00:06 11,3 °C 11,3 °C 90 % 1019,3 hPa 0,0 mm 0,0 km/h (0 Bft) W-SW 244 ° 0 min 0,000 mm 0,0 UV-I 0 W/m² 9,7 °C 11,3 °C 0,0 km/h (0 Bft)
24.09.2017 00:07 11,2 °C 11,3 °C 90 % 1019,3 hPa 0,0 mm 0,0 km/h (0 Bft) W-SW 244 ° 0 min 0,000 mm 0,0 UV-I 0 W/m² 9,6 °C 11,2 °C 0,0 km/h (0 Bft)
24.09.2017 00:08 11,0 °C 11,2 °C 90 % 1019,3 hPa 0,0 mm 0,0 km/h (0 Bft) W-SW 244 ° 0 min 0,000 mm 0,0 UV-I 0 W/m² 9,4 °C 11,0 °C 0,0 km/h (0 Bft)
24.09.2017 00:09 10,9 °C 11,0 °C 90 % 1019,3 hPa 0,0 mm 0,0 km/h (0 Bft) W-SW 244 ° 0 min 0,000 mm 0,0 UV-I 0 W/m² 9,3 °C 10,9 °C 0,0 km/h (0 Bft)
24.09.2017 00:10 10,8 °C 10,9 °C 91 % 1019,3 hPa 0,0 mm 0,0 km/h (0 Bft) W-SW 244 ° 0 min 0,000 mm 0,0 UV-I 0 W/m² 9,4 °C 10,8 °C 0,0 km/h (0 Bft)
24.09.2017 00:11 10,8 °C 10,8 °C 91 % 1019,3 hPa 0,0 mm 0,0 km/h (0 Bft) W-SW 244 ° 0 min 0,000 mm 0,0 UV-I 0 W/m² 9,4 °C 10,8 °C 0,0 km/h (0 Bft)
24.09.2017 00:12 10,7 °C 10,8 °C 91 % 1019,2 hPa 0,0 mm 0,0 km/h (0 Bft) W-SW 244 ° 0 min 0,000 mm 0,0 UV-I 0 W/m² 9,3 °C 10,7 °C 0,0 km/h (0 Bft)
24.09.2017 00:13 10,6 °C 10,7 °C 91 % 1019,3 hPa 0,0 mm 0,0 km/h (0 Bft) W-SW 244 ° 0 min 0,000 mm 0,0 UV-I 0 W/m² 9,2 °C 10,6 °C 0,0 km/h (0 Bft)
24.09.2017 00:14 10,5 °C 10,6 °C 91 % 1019,3 hPa 0,0 mm 0,0 km/h (0 Bft) W-SW 244 ° 0 min 0,000 mm 0,0 UV-I 0 W/m² 9,1 °C 10,5 °C 0,0 km/h (0 Bft)
24.09.2017 00:15 10,5 °C 10,6 °C 92 % 1019,2 hPa 0,0 mm 0,0 km/h (0 Bft) W-SW 244 ° 0 min 0,000 mm 0,0 UV-I 0 W/m² 9,3 °C 10,5 °C 0,0 km/h (0 Bft)
24.09.2017 00:16 10,5 °C 10,5 °C 92 % 1019,1 hPa 0,0 mm 0,0 km/h (0 Bft) W-SW 244 ° 0 min 0,000 mm 0,0 UV-I 0 W/m² 9,3 °C 10,5 °C 0,0 km/h (0 Bft)
24.09.2017 00:17 10,5 °C 10,6 °C 92 % 1019,1 hPa 0,0 mm 0,0 km/h (0 Bft) W-SW 244 ° 0 min 0,000 mm 0,0 UV-I 0 W/m² 9,3 °C 10,5 °C 0,0 km/h (0 Bft)
24.09.2017 00:18 10,6 °C 10,6 °C 92 % 1019,1 hPa 0,0 mm 0,0 km/h (0 Bft) W-SW 244 ° 0 min 0,000 mm 0,0 UV-I 0 W/m² 9,4 °C 10,6 °C 0,0 km/h (0 Bft)
24.09.2017 00:19 10,4 °C 10,6 °C 92 % 1019,1 hPa 0,0 mm 0,0 km/h (0 Bft) W-SW 244 ° 0 min 0,000 mm 0,0 UV-I 0 W/m² 9,2 °C 10,4 °C 0,0 km/h (0 Bft)
24.09.2017 00:20 10,3 °C 10,4 °C 92 % 1019,2 hPa 0,0 mm 0,0 km/h (0 Bft) W-SW 244 ° 0 min 0,000 mm 0,0 UV-I 0 W/m² 9,1 °C 10,3 °C 0,0 km/h (0 Bft)
24.09.2017 00:21 10,3 °C 10,3 °C 92 % 1019,2 hPa 0,0 mm 0,0 km/h (0 Bft) W-SW 244 ° 0 min 0,000 mm 0,0 UV-I 0 W/m² 9,1 °C 10,3 °C 0,0 km/h (0 Bft)
24.09.2017 00:22 10,3 °C 10,3 °C 92 % 1019,1 hPa 0,0 mm 0,0 km/h (0 Bft) W-SW 244 ° 0 min 0,000 mm 0,0 UV-I 0 W/m² 9,1 °C 10,3 °C 0,0 km/h (0 Bft)
24.09.2017 00:23 10,3 °C 10,3 °C 93 % 1019,1 hPa 0,0 mm 0,0 km/h (0 Bft) W-SW 244 ° 0 min 0,000 mm 0,0 UV-I 0 W/m² 9,2 °C 10,3 °C 0,0 km/h (0 Bft)
24.09.2017 00:24 10,3 °C 10,3 °C 93 % 1019,1 hPa 0,0 mm 0,0 km/h (0 Bft) W-SW 244 ° 0 min 0,000 mm 0,0 UV-I 0 W/m² 9,2 °C 10,3 °C 0,0 km/h (0 Bft)
24.09.2017 00:25 10,4 °C 10,4 °C 93 % 1019,1 hPa 0,0 mm 0,0 km/h (0 Bft) W-SW 244 ° 0 min 0,000 mm 0,0 UV-I 0 W/m² 9,3 °C 10,4 °C 0,0 km/h (0 Bft)
24.09.2017 00:26 10,4 °C 10,5 °C 93 % 1019,1 hPa 0,0 mm 0,1 km/h (0 Bft) W-SW 244 ° 0 min 0,000 mm 0,0 UV-I 0 W/m² 9,3 °C 10,4 °C 1,6 km/h (1 Bft)
24.09.2017 00:27 10,6 °C 10,6 °C 93 % 1019,1 hPa 0,0 mm 2,5 km/h (1 Bft) W-SW 243 ° 0 min 0,000 mm 0,0 UV-I 0 W/m² 9,5 °C 10,6 °C 3,2 km/h (1 Bft)
24.09.2017 00:28 10,7 °C 10,7 °C 93 % 1019,1 hPa 0,0 mm 1,5 km/h (1 Bft) W-SW 243 ° 0 min 0,000 mm 0,0 UV-I 0 W/m² 9,6 °C 10,7 °C 3,2 km/h (1 Bft)
24.09.2017 00:29 10,7 °C 10,7 °C 92 % 1019,1 hPa 0,0 mm 1,9 km/h (1 Bft) W-SW 243 ° 0 min 0,000 mm 0,0 UV-I 0 W/m² 9,5 °C 10,7 °C 3,2 km/h (1 Bft)
24.09.2017 00:30 10,7 °C 10,7 °C 92 % 1019,1 hPa 0,0 mm 1,7 km/h (1 Bft) W-SW 243 ° 0 min 0,000 mm 0,0 UV-I 0 W/m² 9,5 °C 10,7 °C 3,2 km/h (1 Bft)
24.09.2017 00:31 10,7 °C 10,7 °C 92 % 1019,1 hPa 0,0 mm 1,5 km/h (1 Bft) W-SW 243 ° 0 min 0,000 mm 0,0 UV-I 0 W/m² 9,5 °C 10,7 °C 1,6 km/h (1 Bft)
24.09.2017 00:32 10,7 °C 10,8 °C 92 % 1019,1 hPa 0,0 mm 0,3 km/h (0 Bft) W-SW 243 ° 0 min 0,000 mm 0,0 UV-I 0 W/m² 9,5 °C 10,7 °C 1,6 km/h (1 Bft)
24.09.2017 00:33 10,7 °C 10,7 °C 92 % 1019,1 hPa 0,0 mm 0,0 km/h (0 Bft) W-SW 243 ° 0 min 0,000 mm 0,0 UV-I 0 W/m² 9,5 °C 10,7 °C 0,0 km/h (0 Bft)
24.09.2017 00:34 10,7 °C 10,7 °C 91 % 1019,1 hPa 0,0 mm 0,0 km/h (0 Bft) W-SW 243 ° 0 min 0,000 mm 0,0 UV-I 0 W/m² 9,3 °C 10,7 °C 0,0 km/h (0 Bft)
24.09.2017 00:35 10,6 °C 10,7 °C 92 % 1019,1 hPa 0,0 mm 0,0 km/h (0 Bft) W-SW 243 ° 0 min 0,000 mm 0,0 UV-I 0 W/m² 9,4 °C 10,6 °C 0,0 km/h (0 Bft)
24.09.2017 00:36 10,6 °C 10,7 °C 92 % 1019,1 hPa 0,0 mm 0,0 km/h (0 Bft) W-SW 243 ° 0 min 0,000 mm 0,0 UV-I 0 W/m² 9,4 °C 10,6 °C 0,0 km/h (0 Bft)
24.09.2017 00:37 10,5 °C 10,6 °C 91 % 1019,1 hPa 0,0 mm 0,0 km/h (0 Bft) W-SW 243 ° 0 min 0,000 mm 0,0 UV-I 0 W/m² 9,1 °C 10,5 °C 0,0 km/h (0 Bft)
24.09.2017 00:38 10,4 °C 10,5 °C 92 % 1019,1 hPa 0,0 mm 0,0 km/h (0 Bft) W-SW 243 ° 0 min 0,000 mm 0,0 UV-I 0 W/m² 9,2 °C 10,4 °C 0,0 km/h (0 Bft)
24.09.2017 00:39 10,4 °C 10,4 °C 92 % 1019,1 hPa 0,0 mm 0,0 km/h (0 Bft) W-SW 243 ° 0 min 0,000 mm 0,0 UV-I 0 W/m² 9,2 °C 10,4 °C 0,0 km/h (0 Bft)
24.09.2017 00:40 10,3 °C 10,4 °C 92 % 1019,1 hPa 0,0 mm 0,0 km/h (0 Bft) W-SW 243 ° 0 min 0,000 mm 0,0 UV-I 0 W/m² 9,1 °C 10,3 °C 0,0 km/h (0 Bft)
24.09.2017 00:41 10,3 °C 10,3 °C 92 % 1019,1 hPa 0,0 mm 0,0 km/h (0 Bft) W-SW 243 ° 0 min 0,000 mm 0,0 UV-I 0 W/m² 9,1 °C 10,3 °C 0,0 km/h (0 Bft)
24.09.2017 00:42 10,2 °C 10,3 °C 92 % 1019,1 hPa 0,0 mm 0,0 km/h (0 Bft) W-SW 243 ° 0 min 0,000 mm 0,0 UV-I 0 W/m² 9,0 °C 10,2 °C 0,0 km/h (0 Bft)
24.09.2017 00:43 10,2 °C 10,2 °C 92 % 1019,1 hPa 0,0 mm 0,0 km/h (0 Bft) W-SW 243 ° 0 min 0,000 mm 0,0 UV-I 0 W/m² 9,0 °C 10,2 °C 0,0 km/h (0 Bft)
24.09.2017 00:44 10,2 °C 10,2 °C 92 % 1019,2 hPa 0,0 mm 0,0 km/h (0 Bft) W-SW 243 ° 0 min 0,000 mm 0,0 UV-I 0 W/m² 9,0 °C 10,2 °C 0,0 km/h (0 Bft)
24.09.2017 00:45 10,1 °C 10,2 °C 92 % 1019,2 hPa 0,0 mm 0,0 km/h (0 Bft) W-SW 243 ° 0 min 0,000 mm 0,0 UV-I 0 W/m² 8,9 °C 10,1 °C 0,0 km/h (0 Bft)
24.09.2017 00:46 10,1 °C 10,1 °C 92 % 1019,2 hPa 0,0 mm 0,0 km/h (0 Bft) W-SW 243 ° 0 min 0,000 mm 0,0 UV-I 0 W/m² 8,9 °C 10,1 °C 0,0 km/h (0 Bft)
24.09.2017 00:47 10,0 °C 10,1 °C 92 % 1019,2 hPa 0,0 mm 0,0 km/h (0 Bft) W-SW 243 ° 0 min 0,000 mm 0,0 UV-I 0 W/m² 8,8 °C 10,0 °C 0,0 km/h (0 Bft)
24.09.2017 00:48 9,9 °C 10,0 °C 92 % 1019,2 hPa 0,0 mm 0,0 km/h (0 Bft) W-SW 243 ° 0 min 0,000 mm 0,0 UV-I 0 W/m² 8,7 °C 9,9 °C 0,0 km/h (0 Bft)
24.09.2017 00:49 9,8 °C 9,9 °C 92 % 1019,2 hPa 0,0 mm 0,0 km/h (0 Bft) W-SW 243 ° 0 min 0,000 mm 0,0 UV-I 0 W/m² 8,6 °C 9,8 °C 0,0 km/h (0 Bft)
24.09.2017 00:50 9,8 °C 9,9 °C 92 % 1019,3 hPa 0,0 mm 0,0 km/h (0 Bft) W-SW 243 ° 0 min 0,000 mm 0,0 UV-I 0 W/m² 8,6 °C 9,8 °C 0,0 km/h (0 Bft)
24.09.2017 00:51 9,8 °C 9,8 °C 92 % 1019,3 hPa 0,0 mm 0,0 km/h (0 Bft) W-SW 243 ° 0 min 0,000 mm 0,0 UV-I 0 W/m² 8,6 °C 9,8 °C 0,0 km/h (0 Bft)
24.09.2017 00:52 9,7 °C 9,8 °C 93 % 1019,3 hPa 0,0 mm 0,0 km/h (0 Bft) W-SW 243 ° 0 min 0,000 mm 0,0 UV-I 0 W/m² 8,6 °C 9,7 °C 0,0 km/h (0 Bft)
24.09.2017 00:53 9,7 °C 9,7 °C 93 % 1019,4 hPa 0,0 mm 0,0 km/h (0 Bft) W-SW 243 ° 0 min 0,000 mm 0,0 UV-I 0 W/m² 8,6 °C 9,7 °C 0,0 km/h (0 Bft)
24.09.2017 00:54 9,7 °C 9,7 °C 93 % 1019,3 hPa 0,0 mm 0,0 km/h (0 Bft) W-SW 243 ° 0 min 0,000 mm 0,0 UV-I 0 W/m² 8,6 °C 9,7 °C 0,0 km/h (0 Bft)
24.09.2017 00:55 9,7 °C 9,7 °C 93 % 1019,3 hPa 0,0 mm 0,0 km/h (0 Bft) W-SW 243 ° 0 min 0,000 mm 0,0 UV-I 0 W/m² 8,6 °C 9,7 °C 0,0 km/h (0 Bft)
24.09.2017 00:56 9,7 °C 9,7 °C 93 % 1019,3 hPa 0,0 mm 0,0 km/h (0 Bft) W-SW 243 ° 0 min 0,000 mm 0,0 UV-I 0 W/m² 8,6 °C 9,7 °C 0,0 km/h (0 Bft)
24.09.2017 00:57 9,7 °C 9,7 °C 93 % 1019,3 hPa 0,0 mm 0,0 km/h (0 Bft) W-SW 243 ° 0 min 0,000 mm 0,0 UV-I 0 W/m² 8,6 °C 9,7 °C 0,0 km/h (0 Bft)
24.09.2017 00:58 9,7 °C 9,7 °C 93 % 1019,3 hPa 0,0 mm 0,0 km/h (0 Bft) W-SW 243 ° 0 min 0,000 mm 0,0 UV-I 0 W/m² 8,6 °C 9,7 °C 0,0 km/h (0 Bft)
24.09.2017 00:59 9,7 °C 9,7 °C 93 % 1019,3 hPa 0,0 mm 0,0 km/h (0 Bft) W-SW 243 ° 0 min 0,000 mm 0,0 UV-I 0 W/m² 8,6 °C 9,7 °C 0,0 km/h (0 Bft)
24.09.2017 01:00 9,7 °C 9,7 °C 93 % 1019,3 hPa 0,0 mm 0,0 km/h (0 Bft) W-SW 243 ° 0 min 0,000 mm 0,0 UV-I 0 W/m² 8,6 °C 9,7 °C 0,0 km/h (0 Bft)
24.09.2017 01:01 9,7 °C 9,7 °C 93 % 1019,3 hPa 0,0 mm 0,0 km/h (0 Bft) W-SW 243 ° 0 min 0,000 mm 0,0 UV-I 0 W/m² 8,6 °C 9,7 °C 0,0 km/h (0 Bft)
24.09.2017 01:02 9,8 °C 9,8 °C 93 % 1019,3 hPa 0,0 mm 0,0 km/h (0 Bft) W-SW 243 ° 0 min 0,000 mm 0,0 UV-I 0 W/m² 8,7 °C 9,8 °C 0,0 km/h (0 Bft)
24.09.2017 01:03 9,8 °C 9,8 °C 94 % 1019,3 hPa 0,0 mm 0,0 km/h (0 Bft) W-SW 243 ° 0 min 0,000 mm 0,0 UV-I 0 W/m² 8,9 °C 9,8 °C 0,0 km/h (0 Bft)
24.09.2017 01:04 9,8 °C 9,9 °C 94 % 1019,2 hPa 0,0 mm 0,0 km/h (0 Bft) W-SW 243 ° 0 min 0,000 mm 0,0 UV-I 0 W/m² 8,9 °C 9,8 °C 0,0 km/h (0 Bft)
24.09.2017 01:05 9,8 °C 9,8 °C 94 % 1019,2 hPa 0,0 mm 0,0 km/h (0 Bft) W-SW 243 ° 0 min 0,000 mm 0,0 UV-I 0 W/m² 8,9 °C 9,8 °C 0,0 km/h (0 Bft)
24.09.2017 01:06 9,9 °C 9,9 °C 94 % 1019,2 hPa 0,0 mm 0,0 km/h (0 Bft) W-SW 243 ° 0 min 0,000 mm 0,0 UV-I 0 W/m² 9,0 °C 9,9 °C 0,0 km/h (0 Bft)
24.09.2017 01:07 9,9 °C 9,9 °C 94 % 1019,2 hPa 0,0 mm 0,0 km/h (0 Bft) W-SW 243 ° 0 min 0,000 mm 0,0 UV-I 0 W/m² 9,0 °C 9,9 °C 0,0 km/h (0 Bft)
24.09.2017 01:08 9,9 °C 9,9 °C 94 % 1019,2 hPa 0,0 mm 0,0 km/h (0 Bft) W-SW 243 ° 0 min 0,000 mm 0,0 UV-I 0 W/m² 9,0 °C 9,9 °C 0,0 km/h (0 Bft)
24.09.2017 01:09 9,8 °C 9,9 °C 94 % 1019,2 hPa 0,0 mm 0,0 km/h (0 Bft) W-SW 243 ° 0 min 0,000 mm 0,0 UV-I 0 W/m² 8,9 °C 9,8 °C 0,0 km/h (0 Bft)
24.09.2017 01:10 9,8 °C 9,8 °C 93 % 1019,2 hPa 0,0 mm 0,0 km/h (0 Bft) W-SW 243 ° 0 min 0,000 mm 0,0 UV-I 0 W/m² 8,7 °C 9,8 °C 0,0 km/h (0 Bft)
24.09.2017 01:11 9,8 °C 9,8 °C 93 % 1019,2 hPa 0,0 mm 0,0 km/h (0 Bft) W-SW 243 ° 0 min 0,000 mm 0,0 UV-I 0 W/m² 8,7 °C 9,8 °C 0,0 km/h (0 Bft)
24.09.2017 01:12 9,8 °C 9,8 °C 94 % 1019,2 hPa 0,0 mm 0,0 km/h (0 Bft) W-SW 243 ° 0 min 0,000 mm 0,0 UV-I 0 W/m² 8,9 °C 9,8 °C 0,0 km/h (0 Bft)
24.09.2017 01:13 9,9 °C 9,9 °C 94 % 1019,2 hPa 0,0 mm 0,0 km/h (0 Bft) W-SW 243 ° 0 min 0,000 mm 0,0 UV-I 0 W/m² 9,0 °C 9,9 °C 0,0 km/h (0 Bft)
24.09.2017 01:14 9,9 °C 9,9 °C 94 % 1019,2 hPa 0,0 mm 0,0 km/h (0 Bft) W-SW 243 ° 0 min 0,000 mm 0,0 UV-I 0 W/m² 9,0 °C 9,9 °C 0,0 km/h (0 Bft)
24.09.2017 01:15 9,9 °C 9,9 °C 94 % 1019,1 hPa 0,0 mm 0,0 km/h (0 Bft) W-SW 243 ° 0 min 0,000 mm 0,0 UV-I 0 W/m² 9,0 °C 9,9 °C 0,0 km/h (0 Bft)
24.09.2017 01:16 9,9 °C 9,9 °C 94 % 1019,1 hPa 0,0 mm 0,0 km/h (0 Bft) W-SW 243 ° 0 min 0,000 mm 0,0 UV-I 0 W/m² 9,0 °C 9,9 °C 0,0 km/h (0 Bft)
24.09.2017 01:17 9,9 °C 9,9 °C 94 % 1019,2 hPa 0,0 mm 0,0 km/h (0 Bft) W-SW 243 ° 0 min 0,000 mm 0,0 UV-I 0 W/m² 9,0 °C 9,9 °C 0,0 km/h (0 Bft)
24.09.2017 01:18 9,9 °C 9,9 °C 93 % 1019,2 hPa 0,0 mm 0,0 km/h (0 Bft) W-SW 243 ° 0 min 0,000 mm 0,0 UV-I 0 W/m² 8,8 °C 9,9 °C 0,0 km/h (0 Bft)
24.09.2017 01:19 9,8 °C 9,9 °C 93 % 1019,2 hPa 0,0 mm 0,0 km/h (0 Bft) W-SW 243 ° 0 min 0,000 mm 0,0 UV-I 0 W/m² 8,7 °C 9,8 °C 0,0 km/h (0 Bft)
24.09.2017 01:20 9,8 °C 9,8 °C 93 % 1019,2 hPa 0,0 mm 0,0 km/h (0 Bft) W-SW 243 ° 0 min 0,000 mm 0,0 UV-I 0 W/m² 8,7 °C 9,8 °C 0,0 km/h (0 Bft)
24.09.2017 01:21 9,8 °C 9,8 °C 93 % 1019,2 hPa 0,0 mm 0,0 km/h (0 Bft) W-SW 243 ° 0 min 0,000 mm 0,0 UV-I 0 W/m² 8,7 °C 9,8 °C 0,0 km/h (0 Bft)
24.09.2017 01:22 9,7 °C 9,8 °C 93 % 1019,2 hPa 0,0 mm 0,0 km/h (0 Bft) W-SW 243 ° 0 min 0,000 mm 0,0 UV-I 0 W/m² 8,6 °C 9,7 °C 0,0 km/h (0 Bft)
24.09.2017 01:23 9,8 °C 9,8 °C 94 % 1019,2 hPa 0,0 mm 0,0 km/h (0 Bft) W-SW 243 ° 0 min 0,000 mm 0,0 UV-I 0 W/m² 8,9 °C 9,8 °C 0,0 km/h (0 Bft)
24.09.2017 01:24 9,8 °C 9,8 °C 94 % 1019,2 hPa 0,0 mm 0,0 km/h (0 Bft) W-SW 243 ° 0 min 0,000 mm 0,0 UV-I 0 W/m² 8,9 °C 9,8 °C 0,0 km/h (0 Bft)
24.09.2017 01:25 9,8 °C 9,8 °C 94 % 1019,2 hPa 0,0 mm 0,0 km/h (0 Bft) W-SW 243 ° 0 min 0,000 mm 0,0 UV-I 0 W/m² 8,9 °C 9,8 °C 0,0 km/h (0 Bft)
24.09.2017 01:26 9,9 °C 9,9 °C 94 % 1019,2 hPa 0,0 mm 0,0 km/h (0 Bft) W-SW 243 ° 0 min 0,000 mm 0,0 UV-I 0 W/m² 9,0 °C 9,9 °C 0,0 km/h (0 Bft)
24.09.2017 01:27 9,9 °C 9,9 °C 94 % 1019,1 hPa 0,0 mm 0,0 km/h (0 Bft) W-SW 243 ° 0 min 0,000 mm 0,0 UV-I 0 W/m² 9,0 °C 9,9 °C 0,0 km/h (0 Bft)
24.09.2017 01:28 9,9 °C 9,9 °C 94 % 1019,1 hPa 0,0 mm 0,0 km/h (0 Bft) W-SW 243 ° 0 min 0,000 mm 0,0 UV-I 0 W/m² 9,0 °C 9,9 °C 0,0 km/h (0 Bft)
24.09.2017 01:29 10,0 °C 10,0 °C 94 % 1019,1 hPa 0,0 mm 0,0 km/h (0 Bft) W-SW 243 ° 0 min 0,000 mm 0,0 UV-I 0 W/m² 9,1 °C 10,0 °C 0,0 km/h (0 Bft)
24.09.2017 01:30 10,1 °C 10,1 °C 94 % 1019,1 hPa 0,0 mm 0,3 km/h (0 Bft) W-SW 243 ° 0 min 0,000 mm 0,0 UV-I 0 W/m² 9,2 °C 10,1 °C 1,6 km/h (1 Bft)
24.09.2017 01:31 10,1 °C 10,1 °C 94 % 1019,1 hPa 0,0 mm 2,1 km/h (1 Bft) W-SW 243 ° 0 min 0,000 mm 0,0 UV-I 0 W/m² 9,2 °C 10,1 °C 3,2 km/h (1 Bft)
24.09.2017 01:32 10,1 °C 10,1 °C 94 % 1019,1 hPa 0,0 mm 1,8 km/h (1 Bft) W-SW 243 ° 0 min 0,000 mm 0,0 UV-I 0 W/m² 9,2 °C 10,1 °C 3,2 km/h (1 Bft)
24.09.2017 01:33 10,1 °C 10,1 °C 94 % 1019,1 hPa 0,0 mm 2,3 km/h (1 Bft) W-SW 243 ° 0 min 0,000 mm 0,0 UV-I 0 W/m² 9,2 °C 10,1 °C 3,2 km/h (1 Bft)
24.09.2017 01:34 10,1 °C 10,1 °C 94 % 1019,1 hPa 0,0 mm 0,9 km/h (0 Bft) W-SW 243 ° 0 min 0,000 mm 0,0 UV-I 0 W/m² 9,2 °C 10,1 °C 3,2 km/h (1 Bft)
24.09.2017 01:35 10,2 °C 10,2 °C 94 % 1019,1 hPa 0,0 mm 1,8 km/h (1 Bft) W-SW 243 ° 0 min 0,000 mm 0,0 UV-I 0 W/m² 9,3 °C 10,2 °C 3,2 km/h (1 Bft)
24.09.2017 01:36 10,2 °C 10,2 °C 94 % 1019,1 hPa 0,0 mm 2,5 km/h (1 Bft) W-SW 243 ° 0 min 0,000 mm 0,0 UV-I 0 W/m² 9,3 °C 10,2 °C 3,2 km/h (1 Bft)
24.09.2017 01:37 10,2 °C 10,2 °C 94 % 1019,1 hPa 0,0 mm 3,1 km/h (1 Bft) W-SW 243 ° 0 min 0,000 mm 0,0 UV-I 0 W/m² 9,3 °C 10,2 °C 4,8 km/h (1 Bft)
24.09.2017 01:38 10,2 °C 10,2 °C 93 % 1019,1 hPa 0,0 mm 3,2 km/h (1 Bft) W-SW 243 ° 0 min 0,000 mm 0,0 UV-I 0 W/m² 9,1 °C 10,2 °C 3,2 km/h (1 Bft)
24.09.2017 01:39 10,2 °C 10,2 °C 93 % 1019,1 hPa 0,0 mm 2,3 km/h (1 Bft) W-SW 243 ° 0 min 0,000 mm 0,0 UV-I 0 W/m² 9,1 °C 10,2 °C 3,2 km/h (1 Bft)
24.09.2017 01:40 10,2 °C 10,2 °C 93 % 1019,1 hPa 0,0 mm 3,1 km/h (1 Bft) W-SW 243 ° 0 min 0,000 mm 0,0 UV-I 0 W/m² 9,1 °C 10,2 °C 4,8 km/h (1 Bft)
24.09.2017 01:41 10,2 °C 10,2 °C 93 % 1019,1 hPa 0,0 mm 3,2 km/h (1 Bft) W-SW 243 ° 0 min 0,000 mm 0,0 UV-I 0 W/m² 9,1 °C 10,2 °C 4,8 km/h (1 Bft)
24.09.2017 01:42 10,2 °C 10,2 °C 93 % 1019,1 hPa 0,0 mm 3,1 km/h (1 Bft) W-SW 243 ° 0 min 0,000 mm 0,0 UV-I 0 W/m² 9,1 °C 10,2 °C 4,8 km/h (1 Bft)
24.09.2017 01:43 10,2 °C 10,2 °C 93 % 1019,1 hPa 0,0 mm 2,9 km/h (1 Bft) W-SW 243 ° 0 min 0,000 mm 0,0 UV-I 0 W/m² 9,1 °C 10,2 °C 4,8 km/h (1 Bft)
24.09.2017 01:44 10,2 °C 10,3 °C 93 % 1019,1 hPa 0,0 mm 3,0 km/h (1 Bft) W-SW 243 ° 0 min 0,000 mm 0,0 UV-I 0 W/m² 9,1 °C 10,2 °C 4,8 km/h (1 Bft)
24.09.2017 01:45 10,3 °C 10,3 °C 93 % 1019,1 hPa 0,0 mm 2,7 km/h (1 Bft) W-SW 243 ° 0 min 0,000 mm 0,0 UV-I 0 W/m² 9,2 °C 10,3 °C 4,8 km/h (1 Bft)
24.09.2017 01:46 10,3 °C 10,3 °C 93 % 1019,0 hPa 0,0 mm 2,5 km/h (1 Bft) W-SW 243 ° 0 min 0,000 mm 0,0 UV-I 0 W/m² 9,2 °C 10,3 °C 3,2 km/h (1 Bft)
24.09.2017 01:47 10,3 °C 10,3 °C 93 % 1019,0 hPa 0,0 mm 1,6 km/h (1 Bft) W-SW 243 ° 0 min 0,000 mm 0,0 UV-I 0 W/m² 9,2 °C 10,3 °C 3,2 km/h (1 Bft)
24.09.2017 01:48 10,3 °C 10,3 °C 93 % 1019,0 hPa 0,0 mm 1,3 km/h (1 Bft) W-SW 243 ° 0 min 0,000 mm 0,0 UV-I 0 W/m² 9,2 °C 10,3 °C 3,2 km/h (1 Bft)
24.09.2017 01:49 10,3 °C 10,3 °C 93 % 1019,0 hPa 0,0 mm 0,0 km/h (0 Bft) W-SW 243 ° 0 min 0,000 mm 0,0 UV-I 0 W/m² 9,2 °C 10,3 °C 0,0 km/h (0 Bft)
24.09.2017 01:50 10,3 °C 10,3 °C 93 % 1019,0 hPa 0,0 mm 0,0 km/h (0 Bft) W-SW 243 ° 0 min 0,000 mm 0,0 UV-I 0 W/m² 9,2 °C 10,3 °C 0,0 km/h (0 Bft)
24.09.2017 01:51 10,2 °C 10,3 °C 93 % 1019,0 hPa 0,0 mm 0,0 km/h (0 Bft) W-SW 243 ° 0 min 0,000 mm 0,0 UV-I 0 W/m² 9,1 °C 10,2 °C 0,0 km/h (0 Bft)
24.09.2017 01:52 10,3 °C 10,3 °C 93 % 1019,0 hPa 0,0 mm 0,0 km/h (0 Bft) W-SW 243 ° 0 min 0,000 mm 0,0 UV-I 0 W/m² 9,2 °C 10,3 °C 0,0 km/h (0 Bft)
24.09.2017 01:53 10,2 °C 10,3 °C 93 % 1019,0 hPa 0,0 mm 0,0 km/h (0 Bft) W-SW 243 ° 0 min 0,000 mm 0,0 UV-I 0 W/m² 9,1 °C 10,2 °C 0,0 km/h (0 Bft)
24.09.2017 01:54 10,2 °C 10,2 °C 93 % 1019,0 hPa 0,0 mm 0,0 km/h (0 Bft) W-SW 243 ° 0 min 0,000 mm 0,0 UV-I 0 W/m² 9,1 °C 10,2 °C 0,0 km/h (0 Bft)
24.09.2017 01:55 10,2 °C 10,2 °C 93 % 1019,0 hPa 0,0 mm 0,0 km/h (0 Bft) W-SW 243 ° 0 min 0,000 mm 0,0 UV-I 0 W/m² 9,1 °C 10,2 °C 0,0 km/h (0 Bft)
24.09.2017 01:56 10,2 °C 10,2 °C 93 % 1019,0 hPa 0,0 mm 0,0 km/h (0 Bft) W-SW 243 ° 0 min 0,000 mm 0,0 UV-I 0 W/m² 9,1 °C 10,2 °C 0,0 km/h (0 Bft)
24.09.2017 01:57 10,2 °C 10,2 °C 93 % 1019,0 hPa 0,0 mm 0,0 km/h (0 Bft) W-SW 243 ° 0 min 0,000 mm 0,0 UV-I 0 W/m² 9,1 °C 10,2 °C 0,0 km/h (0 Bft)
24.09.2017 01:58 10,2 °C 10,2 °C 93 % 1018,9 hPa 0,0 mm 0,0 km/h (0 Bft) W-SW 243 ° 0 min 0,000 mm 0,0 UV-I 0 W/m² 9,1 °C 10,2 °C 0,0 km/h (0 Bft)
24.09.2017 01:59 10,2 °C 10,2 °C 93 % 1018,9 hPa 0,0 mm 0,0 km/h (0 Bft) W-SW 243 ° 0 min 0,000 mm 0,0 UV-I 0 W/m² 9,1 °C 10,2 °C 0,0 km/h (0 Bft)
24.09.2017 02:00 10,1 °C 10,2 °C 93 % 1018,9 hPa 0,0 mm 0,0 km/h (0 Bft) W-SW 243 ° 0 min 0,000 mm 0,0 UV-I 0 W/m² 9,0 °C 10,1 °C 0,0 km/h (0 Bft)
24.09.2017 02:01 10,0 °C 10,1 °C 93 % 1018,9 hPa 0,0 mm 0,0 km/h (0 Bft) W-SW 243 ° 0 min 0,000 mm 0,0 UV-I 0 W/m² 8,9 °C 10,0 °C 0,0 km/h (0 Bft)
24.09.2017 02:02 9,9 °C 10,0 °C 93 % 1018,8 hPa 0,0 mm 0,0 km/h (0 Bft) W-SW 243 ° 0 min 0,000 mm 0,0 UV-I 0 W/m² 8,8 °C 9,9 °C 0,0 km/h (0 Bft)
24.09.2017 02:03 9,8 °C 9,9 °C 93 % 1018,8 hPa 0,0 mm 0,0 km/h (0 Bft) W-SW 243 ° 0 min 0,000 mm 0,0 UV-I 0 W/m² 8,7 °C 9,8 °C 0,0 km/h (0 Bft)
24.09.2017 02:04 9,8 °C 9,8 °C 93 % 1018,8 hPa 0,0 mm 0,0 km/h (0 Bft) W-SW 243 ° 0 min 0,000 mm 0,0 UV-I 0 W/m² 8,7 °C 9,8 °C 0,0 km/h (0 Bft)
24.09.2017 02:05 9,8 °C 9,8 °C 93 % 1018,8 hPa 0,0 mm 0,0 km/h (0 Bft) W-SW 243 ° 0 min 0,000 mm 0,0 UV-I 0 W/m² 8,7 °C 9,8 °C 0,0 km/h (0 Bft)
24.09.2017 02:06 9,8 °C 9,8 °C 93 % 1018,8 hPa 0,0 mm 0,0 km/h (0 Bft) W-SW 243 ° 0 min 0,000 mm 0,0 UV-I 0 W/m² 8,7 °C 9,8 °C 0,0 km/h (0 Bft)
24.09.2017 02:07 9,8 °C 9,8 °C 93 % 1018,8 hPa 0,0 mm 0,0 km/h (0 Bft) W-SW 243 ° 0 min 0,000 mm 0,0 UV-I 0 W/m² 8,7 °C 9,8 °C 0,0 km/h (0 Bft)
24.09.2017 02:08 9,8 °C 9,8 °C 93 % 1018,8 hPa 0,0 mm 0,0 km/h (0 Bft) W-SW 243 ° 0 min 0,000 mm 0,0 UV-I 0 W/m² 8,7 °C 9,8 °C 0,0 km/h (0 Bft)
24.09.2017 02:09 9,8 °C 9,8 °C 94 % 1018,8 hPa 0,0 mm 0,0 km/h (0 Bft) W-SW 243 ° 0 min 0,000 mm 0,0 UV-I 0 W/m² 8,9 °C 9,8 °C 0,0 km/h (0 Bft)
24.09.2017 02:10 9,8 °C 9,8 °C 94 % 1018,8 hPa 0,0 mm 0,0 km/h (0 Bft) W-SW 243 ° 0 min 0,000 mm 0,0 UV-I 0 W/m² 8,9 °C 9,8 °C 0,0 km/h (0 Bft)
24.09.2017 02:11 9,8 °C 9,8 °C 94 % 1018,9 hPa 0,0 mm 0,0 km/h (0 Bft) W-SW 243 ° 0 min 0,000 mm 0,0 UV-I 0 W/m² 8,9 °C 9,8 °C 0,0 km/h (0 Bft)
24.09.2017 02:12 9,9 °C 9,9 °C 94 % 1018,9 hPa 0,0 mm 0,0 km/h (0 Bft) W-SW 243 ° 0 min 0,000 mm 0,0 UV-I 0 W/m² 9,0 °C 9,9 °C 0,0 km/h (0 Bft)
24.09.2017 02:13 9,9 °C 9,9 °C 94 % 1018,8 hPa 0,0 mm 0,0 km/h (0 Bft) W-SW 243 ° 0 min 0,000 mm 0,0 UV-I 0 W/m² 9,0 °C 9,9 °C 0,0 km/h (0 Bft)
24.09.2017 02:14 10,0 °C 10,0 °C 94 % 1018,8 hPa 0,0 mm 0,0 km/h (0 Bft) W-SW 243 ° 0 min 0,000 mm 0,0 UV-I 0 W/m² 9,1 °C 10,0 °C 0,0 km/h (0 Bft)
24.09.2017 02:15 9,9 °C 10,0 °C 94 % 1018,7 hPa 0,0 mm 0,0 km/h (0 Bft) W-SW 243 ° 0 min 0,000 mm 0,0 UV-I 0 W/m² 9,0 °C 9,9 °C 0,0 km/h (0 Bft)
24.09.2017 02:16 10,0 °C 10,0 °C 94 % 1018,8 hPa 0,0 mm 0,0 km/h (0 Bft) W-SW 243 ° 0 min 0,000 mm 0,0 UV-I 0 W/m² 9,1 °C 10,0 °C 0,0 km/h (0 Bft)
24.09.2017 02:17 10,1 °C 10,1 °C 94 % 1018,7 hPa 0,0 mm 0,0 km/h (0 Bft) W-SW 243 ° 0 min 0,000 mm 0,0 UV-I 0 W/m² 9,2 °C 10,1 °C 0,0 km/h (0 Bft)
24.09.2017 02:18 10,2 °C 10,2 °C 94 % 1018,7 hPa 0,0 mm 0,0 km/h (0 Bft) W-SW 243 ° 0 min 0,000 mm 0,0 UV-I 0 W/m² 9,3 °C 10,2 °C 0,0 km/h (0 Bft)
24.09.2017 02:19 10,2 °C 10,2 °C 94 % 1018,7 hPa 0,0 mm 0,0 km/h (0 Bft) W-SW 243 ° 0 min 0,000 mm 0,0 UV-I 0 W/m² 9,3 °C 10,2 °C 0,0 km/h (0 Bft)
24.09.2017 02:20 10,2 °C 10,2 °C 94 % 1018,7 hPa 0,0 mm 0,0 km/h (0 Bft) W-SW 243 ° 0 min 0,000 mm 0,0 UV-I 0 W/m² 9,3 °C 10,2 °C 0,0 km/h (0 Bft)
24.09.2017 02:21 10,2 °C 10,2 °C 94 % 1018,7 hPa 0,0 mm 0,0 km/h (0 Bft) W-SW 243 ° 0 min 0,000 mm 0,0 UV-I 0 W/m² 9,3 °C 10,2 °C 0,0 km/h (0 Bft)
24.09.2017 02:22 10,2 °C 10,2 °C 94 % 1018,7 hPa 0,0 mm 0,0 km/h (0 Bft) W-SW 243 ° 0 min 0,000 mm 0,0 UV-I 0 W/m² 9,3 °C 10,2 °C 0,0 km/h (0 Bft)
24.09.2017 02:23 10,2 °C 10,2 °C 94 % 1018,7 hPa 0,0 mm 0,0 km/h (0 Bft) W-SW 243 ° 0 min 0,000 mm 0,0 UV-I 0 W/m² 9,3 °C 10,2 °C 0,0 km/h (0 Bft)
24.09.2017 02:24 10,2 °C 10,2 °C 94 % 1018,7 hPa 0,0 mm 0,0 km/h (0 Bft) W-SW 243 ° 0 min 0,000 mm 0,0 UV-I 0 W/m² 9,3 °C 10,2 °C 0,0 km/h (0 Bft)
24.09.2017 02:25 10,2 °C 10,2 °C 94 % 1018,7 hPa 0,0 mm 0,0 km/h (0 Bft) W-SW 243 ° 0 min 0,000 mm 0,0 UV-I 0 W/m² 9,3 °C 10,2 °C 0,0 km/h (0 Bft)
24.09.2017 02:26 10,2 °C 10,2 °C 94 % 1018,7 hPa 0,0 mm 0,0 km/h (0 Bft) W-SW 243 ° 0 min 0,000 mm 0,0 UV-I 0 W/m² 9,3 °C 10,2 °C 0,0 km/h (0 Bft)
24.09.2017 02:27 10,2 °C 10,2 °C 94 % 1018,6 hPa 0,0 mm 0,0 km/h (0 Bft) W-SW 243 ° 0 min 0,000 mm 0,0 UV-I 0 W/m² 9,3 °C 10,2 °C 0,0 km/h (0 Bft)
24.09.2017 02:28 10,1 °C 10,2 °C 94 % 1018,6 hPa 0,0 mm 0,0 km/h (0 Bft) W-SW 243 ° 0 min 0,000 mm 0,0 UV-I 0 W/m² 9,2 °C 10,1 °C 0,0 km/h (0 Bft)
24.09.2017 02:29 10,1 °C 10,1 °C 93 % 1018,6 hPa 0,0 mm 0,0 km/h (0 Bft) W-SW 243 ° 0 min 0,000 mm 0,0 UV-I 0 W/m² 9,0 °C 10,1 °C 0,0 km/h (0 Bft)
24.09.2017 02:30 10,1 °C 10,1 °C 94 % 1018,6 hPa 0,0 mm 0,0 km/h (0 Bft) W-SW 243 ° 0 min 0,000 mm 0,0 UV-I 0 W/m² 9,2 °C 10,1 °C 0,0 km/h (0 Bft)
24.09.2017 02:31 10,1 °C 10,1 °C 93 % 1018,6 hPa 0,0 mm 0,0 km/h (0 Bft) W-SW 243 ° 0 min 0,000 mm 0,0 UV-I 0 W/m² 9,0 °C 10,1 °C 0,0 km/h (0 Bft)
24.09.2017 02:32 10,0 °C 10,1 °C 94 % 1018,6 hPa 0,0 mm 0,0 km/h (0 Bft) W-SW 243 ° 0 min 0,000 mm 0,0 UV-I 0 W/m² 9,1 °C 10,0 °C 0,0 km/h (0 Bft)
24.09.2017 02:33 9,9 °C 10,0 °C 94 % 1018,6 hPa 0,0 mm 0,0 km/h (0 Bft) W-SW 243 ° 0 min 0,000 mm 0,0 UV-I 0 W/m² 9,0 °C 9,9 °C 0,0 km/h (0 Bft)
24.09.2017 02:34 9,9 °C 9,9 °C 94 % 1018,6 hPa 0,0 mm 0,0 km/h (0 Bft) W-SW 243 ° 0 min 0,000 mm 0,0 UV-I 0 W/m² 9,0 °C 9,9 °C 0,0 km/h (0 Bft)
24.09.2017 02:35 9,9 °C 9,9 °C 94 % 1018,6 hPa 0,0 mm 0,0 km/h (0 Bft) W-SW 243 ° 0 min 0,000 mm 0,0 UV-I 0 W/m² 9,0 °C 9,9 °C 0,0 km/h (0 Bft)
24.09.2017 02:36 9,9 °C 9,9 °C 94 % 1018,6 hPa 0,0 mm 0,0 km/h (0 Bft) W-SW 243 ° 0 min 0,000 mm 0,0 UV-I 0 W/m² 9,0 °C 9,9 °C 0,0 km/h (0 Bft)
24.09.2017 02:37 9,8 °C 9,9 °C 94 % 1018,7 hPa 0,0 mm 0,0 km/h (0 Bft) W-SW 243 ° 0 min 0,000 mm 0,0 UV-I 0 W/m² 8,9 °C 9,8 °C 0,0 km/h (0 Bft)
24.09.2017 02:38 9,8 °C 9,8 °C 94 % 1018,7 hPa 0,0 mm 0,0 km/h (0 Bft) W-SW 243 ° 0 min 0,000 mm 0,0 UV-I 0 W/m² 8,9 °C 9,8 °C 0,0 km/h (0 Bft)
24.09.2017 02:39 9,8 °C 9,8 °C 94 % 1018,7 hPa 0,0 mm 0,0 km/h (0 Bft) W-SW 243 ° 0 min 0,000 mm 0,0 UV-I 0 W/m² 8,9 °C 9,8 °C 0,0 km/h (0 Bft)
24.09.2017 02:40 9,8 °C 9,8 °C 94 % 1018,6 hPa 0,0 mm 0,0 km/h (0 Bft) W-SW 243 ° 0 min 0,000 mm 0,0 UV-I 0 W/m² 8,9 °C 9,8 °C 0,0 km/h (0 Bft)
24.09.2017 02:41 9,8 °C 9,8 °C 94 % 1018,7 hPa 0,0 mm 0,0 km/h (0 Bft) W-SW 243 ° 0 min 0,000 mm 0,0 UV-I 0 W/m² 8,9 °C 9,8 °C 0,0 km/h (0 Bft)
24.09.2017 02:42 9,7 °C 9,8 °C 94 % 1018,7 hPa 0,0 mm 0,0 km/h (0 Bft) W-SW 243 ° 0 min 0,000 mm 0,0 UV-I 0 W/m² 8,8 °C 9,7 °C 0,0 km/h (0 Bft)
24.09.2017 02:43 9,8 °C 9,8 °C 94 % 1018,6 hPa 0,0 mm 0,0 km/h (0 Bft) W-SW 243 ° 0 min 0,000 mm 0,0 UV-I 0 W/m² 8,9 °C 9,8 °C 0,0 km/h (0 Bft)
24.09.2017 02:44 9,8 °C 9,8 °C 94 % 1018,6 hPa 0,0 mm 0,0 km/h (0 Bft) W-SW 243 ° 0 min 0,000 mm 0,0 UV-I 0 W/m² 8,9 °C 9,8 °C 0,0 km/h (0 Bft)
24.09.2017 02:45 9,8 °C 9,8 °C 94 % 1018,6 hPa 0,0 mm 0,0 km/h (0 Bft) W-SW 243 ° 0 min 0,000 mm 0,0 UV-I 0 W/m² 8,9 °C 9,8 °C 0,0 km/h (0 Bft)
24.09.2017 02:46 9,8 °C 9,8 °C 94 % 1018,6 hPa 0,0 mm 0,0 km/h (0 Bft) W-SW 243 ° 0 min 0,000 mm 0,0 UV-I 0 W/m² 8,9 °C 9,8 °C 0,0 km/h (0 Bft)
24.09.2017 02:47 9,8 °C 9,8 °C 94 % 1018,6 hPa 0,0 mm 0,0 km/h (0 Bft) W-SW 243 ° 0 min 0,000 mm 0,0 UV-I 0 W/m² 8,9 °C 9,8 °C 0,0 km/h (0 Bft)
24.09.2017 02:48 9,8 °C 9,8 °C 94 % 1018,6 hPa 0,0 mm 0,0 km/h (0 Bft) W-SW 243 ° 0 min 0,000 mm 0,0 UV-I 0 W/m² 8,9 °C 9,8 °C 0,0 km/h (0 Bft)
24.09.2017 02:49 9,8 °C 9,9 °C 94 % 1018,6 hPa 0,0 mm 0,0 km/h (0 Bft) W-SW 243 ° 0 min 0,000 mm 0,0 UV-I 0 W/m² 8,9 °C 9,8 °C 0,0 km/h (0 Bft)
24.09.2017 02:50 9,9 °C 9,9 °C 94 % 1018,6 hPa 0,0 mm 0,0 km/h (0 Bft) W-SW 243 ° 0 min 0,000 mm 0,0 UV-I 0 W/m² 9,0 °C 9,9 °C 0,0 km/h (0 Bft)
24.09.2017 02:51 9,9 °C 9,9 °C 94 % 1018,6 hPa 0,0 mm 0,0 km/h (0 Bft) W-SW 243 ° 0 min 0,000 mm 0,0 UV-I 0 W/m² 9,0 °C 9,9 °C 0,0 km/h (0 Bft)
24.09.2017 02:52 9,9 °C 9,9 °C 94 % 1018,5 hPa 0,0 mm 0,0 km/h (0 Bft) W-SW 243 ° 0 min 0,000 mm 0,0 UV-I 0 W/m² 9,0 °C 9,9 °C 0,0 km/h (0 Bft)
24.09.2017 02:53 10,0 °C 10,0 °C 94 % 1018,6 hPa 0,0 mm 0,0 km/h (0 Bft) W-SW 243 ° 0 min 0,000 mm 0,0 UV-I 0 W/m² 9,1 °C 10,0 °C 0,0 km/h (0 Bft)
24.09.2017 02:54 10,0 °C 10,0 °C 95 % 1018,5 hPa 0,0 mm 0,0 km/h (0 Bft) W-SW 243 ° 0 min 0,000 mm 0,0 UV-I 0 W/m² 9,2 °C 10,0 °C 0,0 km/h (0 Bft)
24.09.2017 02:55 10,0 °C 10,1 °C 94 % 1018,5 hPa 0,0 mm 0,0 km/h (0 Bft) W-SW 243 ° 0 min 0,000 mm 0,0 UV-I 0 W/m² 9,1 °C 10,0 °C 0,0 km/h (0 Bft)
24.09.2017 02:56 10,1 °C 10,1 °C 94 % 1018,6 hPa 0,0 mm 0,0 km/h (0 Bft) W-SW 243 ° 0 min 0,000 mm 0,0 UV-I 0 W/m² 9,2 °C 10,1 °C 0,0 km/h (0 Bft)
24.09.2017 02:57 10,0 °C 10,1 °C 94 % 1018,6 hPa 0,0 mm 0,0 km/h (0 Bft) W-SW 243 ° 0 min 0,000 mm 0,0 UV-I 0 W/m² 9,1 °C 10,0 °C 0,0 km/h (0 Bft)
24.09.2017 02:58 10,0 °C 10,0 °C 94 % 1018,6 hPa 0,0 mm 0,0 km/h (0 Bft) W-SW 243 ° 0 min 0,000 mm 0,0 UV-I 0 W/m² 9,1 °C 10,0 °C 0,0 km/h (0 Bft)
24.09.2017 02:59 9,9 °C 10,0 °C 94 % 1018,6 hPa 0,0 mm 0,0 km/h (0 Bft) W-SW 243 ° 0 min 0,000 mm 0,0 UV-I 0 W/m² 9,0 °C 9,9 °C 0,0 km/h (0 Bft)
24.09.2017 03:00 10,0 °C 10,0 °C 94 % 1018,6 hPa 0,0 mm 0,0 km/h (0 Bft) W-SW 243 ° 0 min 0,000 mm 0,0 UV-I 0 W/m² 9,1 °C 10,0 °C 0,0 km/h (0 Bft)
24.09.2017 03:01 9,9 °C 10,0 °C 94 % 1018,6 hPa 0,0 mm 0,0 km/h (0 Bft) W-SW 243 ° 0 min 0,000 mm 0,0 UV-I 0 W/m² 9,0 °C 9,9 °C 0,0 km/h (0 Bft)
24.09.2017 03:02 9,9 °C 10,0 °C 94 % 1018,6 hPa 0,0 mm 0,0 km/h (0 Bft) W-SW 243 ° 0 min 0,000 mm 0,0 UV-I 0 W/m² 9,0 °C 9,9 °C 0,0 km/h (0 Bft)
24.09.2017 03:03 9,9 °C 9,9 °C 94 % 1018,6 hPa 0,0 mm 0,0 km/h (0 Bft) W-SW 243 ° 0 min 0,000 mm 0,0 UV-I 0 W/m² 9,0 °C 9,9 °C 0,0 km/h (0 Bft)
24.09.2017 03:04 9,9 °C 10,0 °C 94 % 1018,6 hPa 0,0 mm 0,0 km/h (0 Bft) W-SW 243 ° 0 min 0,000 mm 0,0 UV-I 0 W/m² 9,0 °C 9,9 °C 0,0 km/h (0 Bft)
24.09.2017 03:05 10,0 °C 10,0 °C 94 % 1018,6 hPa 0,0 mm 0,0 km/h (0 Bft) W-SW 243 ° 0 min 0,000 mm 0,0 UV-I 0 W/m² 9,1 °C 10,0 °C 0,0 km/h (0 Bft)
24.09.2017 03:06 9,9 °C 10,0 °C 94 % 1018,5 hPa 0,0 mm 0,0 km/h (0 Bft) W-SW 243 ° 0 min 0,000 mm 0,0 UV-I 0 W/m² 9,0 °C 9,9 °C 0,0 km/h (0 Bft)
24.09.2017 03:07 10,0 °C 10,0 °C 94 % 1018,5 hPa 0,0 mm 0,0 km/h (0 Bft) W-SW 243 ° 0 min 0,000 mm 0,0 UV-I 0 W/m² 9,1 °C 10,0 °C 0,0 km/h (0 Bft)
24.09.2017 03:08 10,0 °C 10,0 °C 94 % 1018,6 hPa 0,0 mm 0,0 km/h (0 Bft) W-SW 243 ° 0 min 0,000 mm 0,0 UV-I 0 W/m² 9,1 °C 10,0 °C 0,0 km/h (0 Bft)
24.09.2017 03:09 10,0 °C 10,0 °C 94 % 1018,5 hPa 0,0 mm 0,0 km/h (0 Bft) W-SW 243 ° 0 min 0,000 mm 0,0 UV-I 0 W/m² 9,1 °C 10,0 °C 0,0 km/h (0 Bft)
24.09.2017 03:10 10,0 °C 10,0 °C 94 % 1018,6 hPa 0,0 mm 0,0 km/h (0 Bft) W-SW 243 ° 0 min 0,000 mm 0,0 UV-I 0 W/m² 9,1 °C 10,0 °C 0,0 km/h (0 Bft)
24.09.2017 03:11 10,0 °C 10,0 °C 94 % 1018,6 hPa 0,0 mm 0,0 km/h (0 Bft) W-SW 243 ° 0 min 0,000 mm 0,0 UV-I 0 W/m² 9,1 °C 10,0 °C 0,0 km/h (0 Bft)
24.09.2017 03:12 9,9 °C 10,0 °C 94 % 1018,6 hPa 0,0 mm 0,0 km/h (0 Bft) W-SW 243 ° 0 min 0,000 mm 0,0 UV-I 0 W/m² 9,0 °C 9,9 °C 0,0 km/h (0 Bft)
24.09.2017 03:13 9,9 °C 9,9 °C 94 % 1018,6 hPa 0,0 mm 0,0 km/h (0 Bft) W-SW 243 ° 0 min 0,000 mm 0,0 UV-I 0 W/m² 9,0 °C 9,9 °C 0,0 km/h (0 Bft)
24.09.2017 03:14 9,9 °C 9,9 °C 94 % 1018,7 hPa 0,0 mm 0,0 km/h (0 Bft) W-SW 243 ° 0 min 0,000 mm 0,0 UV-I 0 W/m² 9,0 °C 9,9 °C 0,0 km/h (0 Bft)
24.09.2017 03:15 9,9 °C 9,9 °C 94 % 1018,7 hPa 0,0 mm 0,0 km/h (0 Bft) W-SW 243 ° 0 min 0,000 mm 0,0 UV-I 0 W/m² 9,0 °C 9,9 °C 0,0 km/h (0 Bft)
24.09.2017 03:16 9,9 °C 9,9 °C 94 % 1018,7 hPa 0,0 mm 0,0 km/h (0 Bft) W-SW 243 ° 0 min 0,000 mm 0,0 UV-I 0 W/m² 9,0 °C 9,9 °C 0,0 km/h (0 Bft)
24.09.2017 03:17 9,9 °C 9,9 °C 94 % 1018,7 hPa 0,0 mm 0,0 km/h (0 Bft) W-SW 243 ° 0 min 0,000 mm 0,0 UV-I 0 W/m² 9,0 °C 9,9 °C 0,0 km/h (0 Bft)
24.09.2017 03:18 9,9 °C 9,9 °C 94 % 1018,7 hPa 0,0 mm 0,0 km/h (0 Bft) W-SW 243 ° 0 min 0,000 mm 0,0 UV-I 0 W/m² 9,0 °C 9,9 °C 0,0 km/h (0 Bft)
24.09.2017 03:19 9,8 °C 9,9 °C 94 % 1018,6 hPa 0,0 mm 0,0 km/h (0 Bft) W-SW 243 ° 0 min 0,000 mm 0,0 UV-I 0 W/m² 8,9 °C 9,8 °C 0,0 km/h (0 Bft)
24.09.2017 03:20 9,8 °C 9,8 °C 94 % 1018,6 hPa 0,0 mm 0,0 km/h (0 Bft) W-SW 243 ° 0 min 0,000 mm 0,0 UV-I 0 W/m² 8,9 °C 9,8 °C 0,0 km/h (0 Bft)
24.09.2017 03:21 9,8 °C 9,8 °C 94 % 1018,6 hPa 0,0 mm 0,0 km/h (0 Bft) W-SW 243 ° 0 min 0,000 mm 0,0 UV-I 0 W/m² 8,9 °C 9,8 °C 0,0 km/h (0 Bft)
24.09.2017 03:22 9,8 °C 9,8 °C 94 % 1018,6 hPa 0,0 mm 0,0 km/h (0 Bft) W-SW 243 ° 0 min 0,000 mm 0,0 UV-I 0 W/m² 8,9 °C 9,8 °C 0,0 km/h (0 Bft)
24.09.2017 03:23 9,8 °C 9,8 °C 94 % 1018,6 hPa 0,0 mm 0,0 km/h (0 Bft) W-SW 243 ° 0 min 0,000 mm 0,0 UV-I 0 W/m² 8,9 °C 9,8 °C 0,0 km/h (0 Bft)
24.09.2017 03:24 9,8 °C 9,8 °C 94 % 1018,6 hPa 0,0 mm 0,0 km/h (0 Bft) W-SW 243 ° 0 min 0,000 mm 0,0 UV-I 0 W/m² 8,9 °C 9,8 °C 0,0 km/h (0 Bft)
24.09.2017 03:25 9,8 °C 9,8 °C 94 % 1018,6 hPa 0,0 mm 0,0 km/h (0 Bft) W-SW 243 ° 0 min 0,000 mm 0,0 UV-I 0 W/m² 8,9 °C 9,8 °C 0,0 km/h (0 Bft)
24.09.2017 03:26 9,8 °C 9,8 °C 94 % 1018,6 hPa 0,0 mm 0,0 km/h (0 Bft) W-SW 243 ° 0 min 0,000 mm 0,0 UV-I 0 W/m² 8,9 °C 9,8 °C 0,0 km/h (0 Bft)
24.09.2017 03:27 9,8 °C 9,8 °C 94 % 1018,5 hPa 0,0 mm 0,0 km/h (0 Bft) W-SW 243 ° 0 min 0,000 mm 0,0 UV-I 0 W/m² 8,9 °C 9,8 °C 0,0 km/h (0 Bft)
24.09.2017 03:28 9,8 °C 9,8 °C 94 % 1018,5 hPa 0,0 mm 0,0 km/h (0 Bft) W-SW 243 ° 0 min 0,000 mm 0,0 UV-I 0 W/m² 8,9 °C 9,8 °C 0,0 km/h (0 Bft)
24.09.2017 03:29 9,8 °C 9,8 °C 94 % 1018,5 hPa 0,0 mm 0,0 km/h (0 Bft) W-SW 243 ° 0 min 0,000 mm 0,0 UV-I 0 W/m² 8,9 °C 9,8 °C 0,0 km/h (0 Bft)
24.09.2017 03:30 9,8 °C 9,9 °C 94 % 1018,6 hPa 0,0 mm 0,0 km/h (0 Bft) W-SW 243 ° 0 min 0,000 mm 0,0 UV-I 0 W/m² 8,9 °C 9,8 °C 0,0 km/h (0 Bft)
24.09.2017 03:31 9,9 °C 9,9 °C 94 % 1018,5 hPa 0,0 mm 0,0 km/h (0 Bft) W-SW 243 ° 0 min 0,000 mm 0,0 UV-I 0 W/m² 9,0 °C 9,9 °C 0,0 km/h (0 Bft)
24.09.2017 03:32 9,8 °C 9,9 °C 94 % 1018,5 hPa 0,0 mm 0,0 km/h (0 Bft) W-SW 242 ° 0 min 0,000 mm 0,0 UV-I 0 W/m² 8,9 °C 9,8 °C 0,0 km/h (0 Bft)
24.09.2017 03:33 9,9 °C 9,9 °C 94 % 1018,5 hPa 0,0 mm 1,1 km/h (1 Bft) W 266 ° 0 min 0,000 mm 0,0 UV-I 0 W/m² 9,0 °C 9,9 °C 3,2 km/h (1 Bft)
24.09.2017 03:34 10,1 °C 10,1 °C 95 % 1018,5 hPa 0,0 mm 1,1 km/h (1 Bft) W 266 ° 0 min 0,000 mm 0,0 UV-I 0 W/m² 9,3 °C 10,1 °C 1,6 km/h (1 Bft)
24.09.2017 03:35 10,2 °C 10,2 °C 95 % 1018,5 hPa 0,0 mm 0,0 km/h (0 Bft) W 266 ° 0 min 0,000 mm 0,0 UV-I 0 W/m² 9,4 °C 10,2 °C 0,0 km/h (0 Bft)
24.09.2017 03:36 10,3 °C 10,3 °C 95 % 1018,5 hPa 0,0 mm 1,5 km/h (1 Bft) W 266 ° 0 min 0,000 mm 0,0 UV-I 0 W/m² 9,5 °C 10,3 °C 3,2 km/h (1 Bft)
24.09.2017 03:37 10,4 °C 10,4 °C 95 % 1018,5 hPa 0,0 mm 1,3 km/h (1 Bft) W-SW 248 ° 0 min 0,000 mm 0,0 UV-I 0 W/m² 9,6 °C 10,4 °C 4,8 km/h (1 Bft)
24.09.2017 03:38 10,4 °C 10,4 °C 94 % 1018,5 hPa 0,0 mm 3,8 km/h (1 Bft) W 274 ° 0 min 0,000 mm 0,0 UV-I 0 W/m² 9,5 °C 10,4 °C 4,8 km/h (1 Bft)
24.09.2017 03:39 10,6 °C 10,6 °C 94 % 1018,4 hPa 0,0 mm 3,9 km/h (1 Bft) S-SW 196 ° 0 min 0,000 mm 0,0 UV-I 0 W/m² 9,7 °C 10,6 °C 6,4 km/h (2 Bft)
24.09.2017 03:40 10,6 °C 10,6 °C 94 % 1018,4 hPa 0,0 mm 4,4 km/h (1 Bft) S-SW 201 ° 0 min 0,000 mm 0,0 UV-I 0 W/m² 9,7 °C 10,6 °C 6,4 km/h (2 Bft)
24.09.2017 03:41 10,7 °C 10,7 °C 94 % 1018,4 hPa 0,0 mm 4,2 km/h (1 Bft) S 184 ° 0 min 0,000 mm 0,0 UV-I 0 W/m² 9,8 °C 10,7 °C 6,4 km/h (2 Bft)
24.09.2017 03:42 10,6 °C 10,7 °C 94 % 1018,4 hPa 0,0 mm 2,5 km/h (1 Bft) S-SO 157 ° 0 min 0,000 mm 0,0 UV-I 0 W/m² 9,7 °C 10,6 °C 4,8 km/h (1 Bft)
24.09.2017 03:43 10,6 °C 10,7 °C 94 % 1018,4 hPa 0,0 mm 0,7 km/h (0 Bft) S-SO 157 ° 0 min 0,000 mm 0,0 UV-I 0 W/m² 9,7 °C 10,6 °C 3,2 km/h (1 Bft)
24.09.2017 03:44 10,6 °C 10,7 °C 94 % 1018,3 hPa 0,0 mm 0,0 km/h (0 Bft) S-SO 157 ° 0 min 0,000 mm 0,0 UV-I 0 W/m² 9,7 °C 10,6 °C 0,0 km/h (0 Bft)
24.09.2017 03:45 10,6 °C 10,6 °C 94 % 1018,3 hPa 0,0 mm 0,5 km/h (0 Bft) S-SO 157 ° 0 min 0,000 mm 0,0 UV-I 0 W/m² 9,7 °C 10,6 °C 1,6 km/h (1 Bft)
24.09.2017 03:46 10,6 °C 10,6 °C 94 % 1018,3 hPa 0,0 mm 1,3 km/h (1 Bft) S-SO 157 ° 0 min 0,000 mm 0,0 UV-I 0 W/m² 9,7 °C 10,6 °C 3,2 km/h (1 Bft)
24.09.2017 03:47 10,6 °C 10,6 °C 94 % 1018,2 hPa 0,0 mm 1,9 km/h (1 Bft) S-SO 157 ° 0 min 0,000 mm 0,0 UV-I 0 W/m² 9,7 °C 10,6 °C 3,2 km/h (1 Bft)
24.09.2017 03:48 10,6 °C 10,6 °C 94 % 1018,2 hPa 0,0 mm 2,9 km/h (1 Bft) S-SO 157 ° 0 min 0,000 mm 0,0 UV-I 0 W/m² 9,7 °C 10,6 °C 3,2 km/h (1 Bft)
24.09.2017 03:49 10,6 °C 10,6 °C 94 % 1018,2 hPa 0,0 mm 2,3 km/h (1 Bft) S-SO 157 ° 0 min 0,000 mm 0,0 UV-I 0 W/m² 9,7 °C 10,6 °C 3,2 km/h (1 Bft)
24.09.2017 03:50 10,6 °C 10,6 °C 94 % 1018,1 hPa 0,0 mm 2,1 km/h (1 Bft) S-SO 157 ° 0 min 0,000 mm 0,0 UV-I 0 W/m² 9,7 °C 10,6 °C 3,2 km/h (1 Bft)
24.09.2017 03:51 10,6 °C 10,6 °C 94 % 1018,1 hPa 0,0 mm 2,4 km/h (1 Bft) S-SO 157 ° 0 min 0,000 mm 0,0 UV-I 0 W/m² 9,7 °C 10,6 °C 3,2 km/h (1 Bft)
24.09.2017 03:52 10,6 °C 10,6 °C 94 % 1018,1 hPa 0,0 mm 0,6 km/h (0 Bft) S-SO 157 ° 0 min 0,000 mm 0,0 UV-I 0 W/m² 9,7 °C 10,6 °C 3,2 km/h (1 Bft)
24.09.2017 03:53 10,6 °C 10,6 °C 94 % 1018,2 hPa 0,0 mm 0,0 km/h (0 Bft) S-SO 157 ° 0 min 0,000 mm 0,0 UV-I 0 W/m² 9,7 °C 10,6 °C 0,0 km/h (0 Bft)
24.09.2017 03:54 10,6 °C 10,6 °C 94 % 1018,2 hPa 0,0 mm 0,0 km/h (0 Bft) S-SO 157 ° 0 min 0,000 mm 0,0 UV-I 0 W/m² 9,7 °C 10,6 °C 0,0 km/h (0 Bft)
24.09.2017 03:55 10,5 °C 10,6 °C 94 % 1018,2 hPa 0,0 mm 0,0 km/h (0 Bft) S-SO 157 ° 0 min 0,000 mm 0,0 UV-I 0 W/m² 9,6 °C 10,5 °C 0,0 km/h (0 Bft)
24.09.2017 03:56 10,5 °C 10,5 °C 94 % 1018,2 hPa 0,0 mm 0,0 km/h (0 Bft) S-SO 157 ° 0 min 0,000 mm 0,0 UV-I 0 W/m² 9,6 °C 10,5 °C 0,0 km/h (0 Bft)
24.09.2017 03:57 10,4 °C 10,5 °C 94 % 1018,2 hPa 0,0 mm 0,0 km/h (0 Bft) S-SO 157 ° 0 min 0,000 mm 0,0 UV-I 0 W/m² 9,5 °C 10,4 °C 0,0 km/h (0 Bft)
24.09.2017 03:58 10,4 °C 10,4 °C 94 % 1018,1 hPa 0,0 mm 0,8 km/h (0 Bft) S-SO 157 ° 0 min 0,000 mm 0,0 UV-I 0 W/m² 9,5 °C 10,4 °C 3,2 km/h (1 Bft)
24.09.2017 03:59 10,4 °C 10,4 °C 94 % 1018,1 hPa 0,0 mm 2,8 km/h (1 Bft) S-SO 156 ° 0 min 0,000 mm 0,0 UV-I 0 W/m² 9,5 °C 10,4 °C 3,2 km/h (1 Bft)
24.09.2017 04:00 10,4 °C 10,4 °C 94 % 1018,1 hPa 0,0 mm 3,9 km/h (1 Bft) O-SO 121 ° 0 min 0,000 mm 0,0 UV-I 0 W/m² 9,5 °C 10,4 °C 4,8 km/h (1 Bft)
24.09.2017 04:01 10,4 °C 10,4 °C 94 % 1018,1 hPa 0,0 mm 3,0 km/h (1 Bft) O-SO 120 ° 0 min 0,000 mm 0,0 UV-I 0 W/m² 9,5 °C 10,4 °C 3,2 km/h (1 Bft)
24.09.2017 04:02 10,4 °C 10,4 °C 94 % 1018,0 hPa 0,0 mm 2,1 km/h (1 Bft) O-SO 120 ° 0 min 0,000 mm 0,0 UV-I 0 W/m² 9,5 °C 10,4 °C 3,2 km/h (1 Bft)
24.09.2017 04:03 10,4 °C 10,4 °C 94 % 1018,0 hPa 0,0 mm 0,5 km/h (0 Bft) O-SO 120 ° 0 min 0,000 mm 0,0 UV-I 0 W/m² 9,5 °C 10,4 °C 3,2 km/h (1 Bft)
24.09.2017 04:04 10,4 °C 10,4 °C 94 % 1018,0 hPa 0,0 mm 0,0 km/h (0 Bft) O-SO 120 ° 0 min 0,000 mm 0,0 UV-I 0 W/m² 9,5 °C 10,4 °C 0,0 km/h (0 Bft)
24.09.2017 04:05 10,4 °C 10,4 °C 94 % 1018,0 hPa 0,0 mm 0,0 km/h (0 Bft) O-SO 120 ° 0 min 0,000 mm 0,0 UV-I 0 W/m² 9,5 °C 10,4 °C 0,0 km/h (0 Bft)
24.09.2017 04:06 10,4 °C 10,4 °C 94 % 1018,0 hPa 0,0 mm 0,1 km/h (0 Bft) O-SO 121 ° 0 min 0,000 mm 0,0 UV-I 0 W/m² 9,5 °C 10,4 °C 1,6 km/h (1 Bft)
24.09.2017 04:07 10,3 °C 10,4 °C 94 % 1018,0 hPa 0,0 mm 0,7 km/h (0 Bft) O-SO 122 ° 0 min 0,000 mm 0,0 UV-I 0 W/m² 9,4 °C 10,3 °C 1,6 km/h (1 Bft)
24.09.2017 04:08 10,3 °C 10,3 °C 94 % 1018,0 hPa 0,0 mm 1,8 km/h (1 Bft) S 189 ° 0 min 0,000 mm 0,0 UV-I 0 W/m² 9,4 °C 10,3 °C 3,2 km/h (1 Bft)
24.09.2017 04:09 10,3 °C 10,3 °C 94 % 1018,0 hPa 0,0 mm 1,6 km/h (1 Bft) S-SW 196 ° 0 min 0,000 mm 0,0 UV-I 0 W/m² 9,4 °C 10,3 °C 3,2 km/h (1 Bft)
24.09.2017 04:10 10,3 °C 10,3 °C 94 % 1018,0 hPa 0,0 mm 0,9 km/h (0 Bft) S-SW 203 ° 0 min 0,000 mm 0,0 UV-I 0 W/m² 9,4 °C 10,3 °C 3,2 km/h (1 Bft)
24.09.2017 04:11 10,3 °C 10,3 °C 94 % 1018,1 hPa 0,0 mm 1,5 km/h (1 Bft) S-SW 203 ° 0 min 0,000 mm 0,0 UV-I 0 W/m² 9,4 °C 10,3 °C 3,2 km/h (1 Bft)
24.09.2017 04:12 10,3 °C 10,3 °C 94 % 1018,1 hPa 0,0 mm 0,1 km/h (0 Bft) S-SW 203 ° 0 min 0,000 mm 0,0 UV-I 0 W/m² 9,4 °C 10,3 °C 1,6 km/h (1 Bft)
24.09.2017 04:13 10,3 °C 10,3 °C 94 % 1018,1 hPa 0,0 mm 0,0 km/h (0 Bft) S-SW 203 ° 0 min 0,000 mm 0,0 UV-I 0 W/m² 9,4 °C 10,3 °C 0,0 km/h (0 Bft)
24.09.2017 04:14 10,3 °C 10,3 °C 94 % 1018,1 hPa 0,0 mm 0,0 km/h (0 Bft) S-SW 203 ° 0 min 0,000 mm 0,0 UV-I 0 W/m² 9,4 °C 10,3 °C 0,0 km/h (0 Bft)
24.09.2017 04:15 10,3 °C 10,3 °C 94 % 1018,0 hPa 0,0 mm 0,1 km/h (0 Bft) S-SW 202 ° 0 min 0,000 mm 0,0 UV-I 0 W/m² 9,4 °C 10,3 °C 1,6 km/h (1 Bft)
24.09.2017 04:16 10,3 °C 10,3 °C 94 % 1018,1 hPa 0,0 mm 0,0 km/h (0 Bft) S-SW 202 ° 0 min 0,000 mm 0,0 UV-I 0 W/m² 9,4 °C 10,3 °C 0,0 km/h (0 Bft)
24.09.2017 04:17 10,3 °C 10,3 °C 94 % 1018,1 hPa 0,0 mm 0,1 km/h (0 Bft) S-SW 202 ° 0 min 0,000 mm 0,0 UV-I 0 W/m² 9,4 °C 10,3 °C 1,6 km/h (1 Bft)
24.09.2017 04:18 10,3 °C 10,3 °C 94 % 1018,2 hPa 0,0 mm 0,0 km/h (0 Bft) S-SW 202 ° 0 min 0,000 mm 0,0 UV-I 0 W/m² 9,4 °C 10,3 °C 0,0 km/h (0 Bft)
24.09.2017 04:19 10,3 °C 10,3 °C 94 % 1018,2 hPa 0,0 mm 0,0 km/h (0 Bft) S-SW 202 ° 0 min 0,000 mm 0,0 UV-I 0 W/m² 9,4 °C 10,3 °C 0,0 km/h (0 Bft)
24.09.2017 04:20 10,2 °C 10,3 °C 94 % 1018,2 hPa 0,0 mm 0,0 km/h (0 Bft) S-SW 202 ° 0 min 0,000 mm 0,0 UV-I 0 W/m² 9,3 °C 10,2 °C 0,0 km/h (0 Bft)
24.09.2017 04:21 10,2 °C 10,2 °C 94 % 1018,2 hPa 0,0 mm 0,0 km/h (0 Bft) S-SW 202 ° 0 min 0,000 mm 0,0 UV-I 0 W/m² 9,3 °C 10,2 °C 0,0 km/h (0 Bft)
24.09.2017 04:22 10,2 °C 10,2 °C 94 % 1018,2 hPa 0,0 mm 0,0 km/h (0 Bft) S-SW 202 ° 0 min 0,000 mm 0,0 UV-I 0 W/m² 9,3 °C 10,2 °C 0,0 km/h (0 Bft)
24.09.2017 04:23 10,2 °C 10,2 °C 94 % 1018,1 hPa 0,0 mm 0,0 km/h (0 Bft) S-SW 202 ° 0 min 0,000 mm 0,0 UV-I 0 W/m² 9,3 °C 10,2 °C 0,0 km/h (0 Bft)
24.09.2017 04:24 10,2 °C 10,2 °C 94 % 1018,2 hPa 0,0 mm 0,0 km/h (0 Bft) S-SW 202 ° 0 min 0,000 mm 0,0 UV-I 0 W/m² 9,3 °C 10,2 °C 0,0 km/h (0 Bft)
24.09.2017 04:25 10,2 °C 10,2 °C 94 % 1018,2 hPa 0,0 mm 0,0 km/h (0 Bft) S-SW 202 ° 0 min 0,000 mm 0,0 UV-I 0 W/m² 9,3 °C 10,2 °C 0,0 km/h (0 Bft)
24.09.2017 04:26 10,2 °C 10,2 °C 94 % 1018,1 hPa 0,0 mm 0,0 km/h (0 Bft) S-SW 202 ° 0 min 0,000 mm 0,0 UV-I 0 W/m² 9,3 °C 10,2 °C 0,0 km/h (0 Bft)
24.09.2017 04:27 10,2 °C 10,2 °C 94 % 1018,2 hPa 0,0 mm 0,0 km/h (0 Bft) S-SW 202 ° 0 min 0,000 mm 0,0 UV-I 0 W/m² 9,3 °C 10,2 °C 0,0 km/h (0 Bft)
24.09.2017 04:28 10,2 °C 10,2 °C 94 % 1018,2 hPa 0,0 mm 0,0 km/h (0 Bft) S-SW 202 ° 0 min 0,000 mm 0,0 UV-I 0 W/m² 9,3 °C 10,2 °C 0,0 km/h (0 Bft)
24.09.2017 04:29 10,2 °C 10,2 °C 94 % 1018,2 hPa 0,0 mm 0,0 km/h (0 Bft) S-SW 202 ° 0 min 0,000 mm 0,0 UV-I 0 W/m² 9,3 °C 10,2 °C 0,0 km/h (0 Bft)
24.09.2017 04:30 10,2 °C 10,2 °C 94 % 1018,1 hPa 0,0 mm 0,0 km/h (0 Bft) S-SW 202 ° 0 min 0,000 mm 0,0 UV-I 0 W/m² 9,3 °C 10,2 °C 0,0 km/h (0 Bft)
24.09.2017 04:31 10,2 °C 10,2 °C 94 % 1018,2 hPa 0,0 mm 0,0 km/h (0 Bft) S-SW 203 ° 0 min 0,000 mm 0,0 UV-I 0 W/m² 9,3 °C 10,2 °C 0,0 km/h (0 Bft)
24.09.2017 04:32 10,2 °C 10,2 °C 94 % 1018,2 hPa 0,0 mm 0,0 km/h (0 Bft) S-SW 202 ° 0 min 0,000 mm 0,0 UV-I 0 W/m² 9,3 °C 10,2 °C 0,0 km/h (0 Bft)
24.09.2017 04:33 10,1 °C 10,2 °C 94 % 1018,2 hPa 0,0 mm 0,0 km/h (0 Bft) S-SW 202 ° 0 min 0,000 mm 0,0 UV-I 0 W/m² 9,2 °C 10,1 °C 0,0 km/h (0 Bft)
24.09.2017 04:34 10,1 °C 10,2 °C 94 % 1018,2 hPa 0,0 mm 0,0 km/h (0 Bft) S-SW 202 ° 0 min 0,000 mm 0,0 UV-I 0 W/m² 9,2 °C 10,1 °C 0,0 km/h (0 Bft)
24.09.2017 04:35 10,1 °C 10,1 °C 94 % 1018,2 hPa 0,0 mm 0,0 km/h (0 Bft) S-SW 202 ° 0 min 0,000 mm 0,0 UV-I 0 W/m² 9,2 °C 10,1 °C 0,0 km/h (0 Bft)
24.09.2017 04:36 10,1 °C 10,1 °C 94 % 1018,1 hPa 0,0 mm 0,0 km/h (0 Bft) S-SW 202 ° 0 min 0,000 mm 0,0 UV-I 0 W/m² 9,2 °C 10,1 °C 0,0 km/h (0 Bft)
24.09.2017 04:37 10,1 °C 10,1 °C 94 % 1018,1 hPa 0,0 mm 0,0 km/h (0 Bft) S-SW 202 ° 0 min 0,000 mm 0,0 UV-I 0 W/m² 9,2 °C 10,1 °C 0,0 km/h (0 Bft)
24.09.2017 04:38 10,1 °C 10,1 °C 94 % 1018,1 hPa 0,0 mm 0,0 km/h (0 Bft) S-SW 202 ° 0 min 0,000 mm 0,0 UV-I 0 W/m² 9,2 °C 10,1 °C 0,0 km/h (0 Bft)
24.09.2017 04:39 10,0 °C 10,1 °C 94 % 1018,1 hPa 0,0 mm 0,0 km/h (0 Bft) S-SW 202 ° 0 min 0,000 mm 0,0 UV-I 0 W/m² 9,1 °C 10,0 °C 0,0 km/h (0 Bft)
24.09.2017 04:40 9,9 °C 10,0 °C 94 % 1018,1 hPa 0,0 mm 0,0 km/h (0 Bft) S-SW 202 ° 0 min 0,000 mm 0,0 UV-I 0 W/m² 9,0 °C 9,9 °C 0,0 km/h (0 Bft)
24.09.2017 04:41 9,9 °C 10,0 °C 94 % 1018,2 hPa 0,0 mm 0,0 km/h (0 Bft) S-SW 202 ° 0 min 0,000 mm 0,0 UV-I 0 W/m² 9,0 °C 9,9 °C 0,0 km/h (0 Bft)
24.09.2017 04:42 9,9 °C 10,0 °C 94 % 1018,2 hPa 0,0 mm 0,0 km/h (0 Bft) S-SW 202 ° 0 min 0,000 mm 0,0 UV-I 0 W/m² 9,0 °C 9,9 °C 0,0 km/h (0 Bft)
24.09.2017 04:43 10,0 °C 10,0 °C 94 % 1018,2 hPa 0,0 mm 0,7 km/h (0 Bft) O-NO 69 ° 0 min 0,000 mm 0,0 UV-I 0 W/m² 9,1 °C 10,0 °C 3,2 km/h (1 Bft)
24.09.2017 04:44 10,1 °C 10,1 °C 94 % 1018,2 hPa 0,0 mm 0,7 km/h (0 Bft) O-NO 69 ° 0 min 0,000 mm 0,0 UV-I 0 W/m² 9,2 °C 10,1 °C 1,6 km/h (1 Bft)
24.09.2017 04:45 10,0 °C 10,1 °C 94 % 1018,2 hPa 0,0 mm 0,0 km/h (0 Bft) O-NO 69 ° 0 min 0,000 mm 0,0 UV-I 0 W/m² 9,1 °C 10,0 °C 0,0 km/h (0 Bft)
24.09.2017 04:46 10,0 °C 10,0 °C 94 % 1018,2 hPa 0,0 mm 0,0 km/h (0 Bft) O-NO 69 ° 0 min 0,000 mm 0,0 UV-I 0 W/m² 9,1 °C 10,0 °C 0,0 km/h (0 Bft)
24.09.2017 04:47 10,0 °C 10,0 °C 94 % 1018,2 hPa 0,0 mm 0,0 km/h (0 Bft) O-NO 69 ° 0 min 0,000 mm 0,0 UV-I 0 W/m² 9,1 °C 10,0 °C 0,0 km/h (0 Bft)
24.09.2017 04:48 10,0 °C 10,0 °C 94 % 1018,3 hPa 0,0 mm 0,0 km/h (0 Bft) O-NO 69 ° 0 min 0,000 mm 0,0 UV-I 0 W/m² 9,1 °C 10,0 °C 0,0 km/h (0 Bft)
24.09.2017 04:49 9,9 °C 10,0 °C 94 % 1018,3 hPa 0,0 mm 0,0 km/h (0 Bft) O-NO 69 ° 0 min 0,000 mm 0,0 UV-I 0 W/m² 9,0 °C 9,9 °C 0,0 km/h (0 Bft)
24.09.2017 04:50 9,9 °C 9,9 °C 94 % 1018,2 hPa 0,0 mm 0,0 km/h (0 Bft) O-NO 69 ° 0 min 0,000 mm 0,0 UV-I 0 W/m² 9,0 °C 9,9 °C 0,0 km/h (0 Bft)
24.09.2017 04:51 9,9 °C 9,9 °C 94 % 1018,3 hPa 0,0 mm 0,0 km/h (0 Bft) O-NO 69 ° 0 min 0,000 mm 0,0 UV-I 0 W/m² 9,0 °C 9,9 °C 0,0 km/h (0 Bft)
24.09.2017 04:52 9,9 °C 9,9 °C 94 % 1018,3 hPa 0,0 mm 0,0 km/h (0 Bft) O-NO 69 ° 0 min 0,000 mm 0,0 UV-I 0 W/m² 9,0 °C 9,9 °C 0,0 km/h (0 Bft)
24.09.2017 04:53 9,9 °C 9,9 °C 95 % 1018,3 hPa 0,0 mm 0,0 km/h (0 Bft) O-NO 69 ° 0 min 0,000 mm 0,0 UV-I 0 W/m² 9,1 °C 9,9 °C 0,0 km/h (0 Bft)
24.09.2017 04:54 9,9 °C 9,9 °C 95 % 1018,4 hPa 0,0 mm 0,0 km/h (0 Bft) O-NO 69 ° 0 min 0,000 mm 0,0 UV-I 0 W/m² 9,1 °C 9,9 °C 0,0 km/h (0 Bft)
24.09.2017 04:55 10,0 °C 10,0 °C 95 % 1018,3 hPa 0,0 mm 0,0 km/h (0 Bft) O-NO 69 ° 0 min 0,000 mm 0,0 UV-I 0 W/m² 9,2 °C 10,0 °C 0,0 km/h (0 Bft)
24.09.2017 04:56 10,0 °C 10,0 °C 95 % 1018,3 hPa 0,0 mm 0,0 km/h (0 Bft) O-NO 69 ° 0 min 0,000 mm 0,0 UV-I 0 W/m² 9,2 °C 10,0 °C 0,0 km/h (0 Bft)
24.09.2017 04:57 9,9 °C 10,0 °C 95 % 1018,3 hPa 0,0 mm 0,0 km/h (0 Bft) O-NO 69 ° 0 min 0,000 mm 0,0 UV-I 0 W/m² 9,1 °C 9,9 °C 0,0 km/h (0 Bft)
24.09.2017 04:58 9,9 °C 9,9 °C 95 % 1018,3 hPa 0,0 mm 0,0 km/h (0 Bft) O-NO 69 ° 0 min 0,000 mm 0,0 UV-I 0 W/m² 9,1 °C 9,9 °C 0,0 km/h (0 Bft)
24.09.2017 04:59 9,9 °C 9,9 °C 94 % 1018,3 hPa 0,0 mm 0,0 km/h (0 Bft) O-NO 69 ° 0 min 0,000 mm 0,0 UV-I 0 W/m² 9,0 °C 9,9 °C 0,0 km/h (0 Bft)
24.09.2017 05:00 9,9 °C 10,0 °C 95 % 1018,3 hPa 0,0 mm 0,0 km/h (0 Bft) O-NO 69 ° 0 min 0,000 mm 0,0 UV-I 0 W/m² 9,1 °C 9,9 °C 0,0 km/h (0 Bft)
24.09.2017 05:01 10,0 °C 10,0 °C 95 % 1018,3 hPa 0,0 mm 0,0 km/h (0 Bft) O-NO 69 ° 0 min 0,000 mm 0,0 UV-I 0 W/m² 9,2 °C 10,0 °C 0,0 km/h (0 Bft)
24.09.2017 05:02 10,0 °C 10,0 °C 95 % 1018,4 hPa 0,0 mm 0,0 km/h (0 Bft) O-NO 69 ° 0 min 0,000 mm 0,0 UV-I 0 W/m² 9,2 °C 10,0 °C 0,0 km/h (0 Bft)
24.09.2017 05:03 10,0 °C 10,0 °C 95 % 1018,4 hPa 0,0 mm 0,0 km/h (0 Bft) O-NO 69 ° 0 min 0,000 mm 0,0 UV-I 0 W/m² 9,2 °C 10,0 °C 0,0 km/h (0 Bft)
24.09.2017 05:04 10,1 °C 10,1 °C 95 % 1018,3 hPa 0,0 mm 0,0 km/h (0 Bft) O-NO 69 ° 0 min 0,000 mm 0,0 UV-I 0 W/m² 9,3 °C 10,1 °C 0,0 km/h (0 Bft)
24.09.2017 05:05 10,0 °C 10,1 °C 95 % 1018,3 hPa 0,0 mm 0,0 km/h (0 Bft) O-NO 69 ° 0 min 0,000 mm 0,0 UV-I 0 W/m² 9,2 °C 10,0 °C 0,0 km/h (0 Bft)
24.09.2017 05:06 9,9 °C 10,0 °C 95 % 1018,3 hPa 0,0 mm 0,0 km/h (0 Bft) O-NO 69 ° 0 min 0,000 mm 0,0 UV-I 0 W/m² 9,1 °C 9,9 °C 0,0 km/h (0 Bft)
24.09.2017 05:07 9,9 °C 9,9 °C 94 % 1018,3 hPa 0,0 mm 0,0 km/h (0 Bft) O-NO 69 ° 0 min 0,000 mm 0,0 UV-I 0 W/m² 9,0 °C 9,9 °C 0,0 km/h (0 Bft)
24.09.2017 05:08 9,9 °C 9,9 °C 95 % 1018,3 hPa 0,0 mm 0,0 km/h (0 Bft) O-NO 69 ° 0 min 0,000 mm 0,0 UV-I 0 W/m² 9,1 °C 9,9 °C 0,0 km/h (0 Bft)
24.09.2017 05:09 9,9 °C 9,9 °C 95 % 1018,3 hPa 0,0 mm 0,0 km/h (0 Bft) O-NO 69 ° 0 min 0,000 mm 0,0 UV-I 0 W/m² 9,1 °C 9,9 °C 0,0 km/h (0 Bft)
24.09.2017 05:10 9,9 °C 9,9 °C 94 % 1018,3 hPa 0,0 mm 0,0 km/h (0 Bft) O-NO 69 ° 0 min 0,000 mm 0,0 UV-I 0 W/m² 9,0 °C 9,9 °C 0,0 km/h (0 Bft)
24.09.2017 05:11 9,9 °C 9,9 °C 94 % 1018,3 hPa 0,0 mm 0,0 km/h (0 Bft) O-NO 69 ° 0 min 0,000 mm 0,0 UV-I 0 W/m² 9,0 °C 9,9 °C 0,0 km/h (0 Bft)
24.09.2017 05:12 9,9 °C 9,9 °C 95 % 1018,3 hPa 0,0 mm 0,0 km/h (0 Bft) O-NO 69 ° 0 min 0,000 mm 0,0 UV-I 0 W/m² 9,1 °C 9,9 °C 0,0 km/h (0 Bft)
24.09.2017 05:13 9,8 °C 9,9 °C 94 % 1018,3 hPa 0,0 mm 0,0 km/h (0 Bft) O-NO 69 ° 0 min 0,000 mm 0,0 UV-I 0 W/m² 8,9 °C 9,8 °C 0,0 km/h (0 Bft)
24.09.2017 05:14 9,9 °C 9,9 °C 95 % 1018,3 hPa 0,0 mm 0,0 km/h (0 Bft) O-NO 69 ° 0 min 0,000 mm 0,0 UV-I 0 W/m² 9,1 °C 9,9 °C 0,0 km/h (0 Bft)
24.09.2017 05:15 9,9 °C 9,9 °C 95 % 1018,3 hPa 0,0 mm 0,0 km/h (0 Bft) O-NO 69 ° 0 min 0,000 mm 0,0 UV-I 0 W/m² 9,1 °C 9,9 °C 0,0 km/h (0 Bft)
24.09.2017 05:16 9,9 °C 9,9 °C 95 % 1018,3 hPa 0,0 mm 0,0 km/h (0 Bft) O-NO 69 ° 0 min 0,000 mm 0,0 UV-I 0 W/m² 9,1 °C 9,9 °C 0,0 km/h (0 Bft)
24.09.2017 05:17 9,9 °C 9,9 °C 95 % 1018,3 hPa 0,0 mm 0,0 km/h (0 Bft) O-NO 69 ° 0 min 0,000 mm 0,0 UV-I 0 W/m² 9,1 °C 9,9 °C 0,0 km/h (0 Bft)
24.09.2017 05:18 9,9 °C 9,9 °C 95 % 1018,3 hPa 0,0 mm 0,0 km/h (0 Bft) O-NO 69 ° 0 min 0,000 mm 0,0 UV-I 0 W/m² 9,1 °C 9,9 °C 0,0 km/h (0 Bft)
24.09.2017 05:19 9,9 °C 9,9 °C 95 % 1018,3 hPa 0,0 mm 0,0 km/h (0 Bft) O-NO 69 ° 0 min 0,000 mm 0,0 UV-I 0 W/m² 9,1 °C 9,9 °C 0,0 km/h (0 Bft)
24.09.2017 05:20 9,9 °C 9,9 °C 95 % 1018,3 hPa 0,0 mm 0,0 km/h (0 Bft) O-NO 69 ° 0 min 0,000 mm 0,0 UV-I 0 W/m² 9,1 °C 9,9 °C 0,0 km/h (0 Bft)
24.09.2017 05:21 9,8 °C 9,9 °C 94 % 1018,3 hPa 0,0 mm 0,0 km/h (0 Bft) O-NO 69 ° 0 min 0,000 mm 0,0 UV-I 0 W/m² 8,9 °C 9,8 °C 0,0 km/h (0 Bft)
24.09.2017 05:22 9,8 °C 9,8 °C 94 % 1018,3 hPa 0,0 mm 0,0 km/h (0 Bft) O-NO 69 ° 0 min 0,000 mm 0,0 UV-I 0 W/m² 8,9 °C 9,8 °C 0,0 km/h (0 Bft)
24.09.2017 05:23 9,8 °C 9,8 °C 95 % 1018,3 hPa 0,0 mm 0,0 km/h (0 Bft) O-NO 69 ° 0 min 0,000 mm 0,0 UV-I 0 W/m² 9,0 °C 9,8 °C 0,0 km/h (0 Bft)
24.09.2017 05:24 9,8 °C 9,8 °C 95 % 1018,3 hPa 0,0 mm 0,0 km/h (0 Bft) O-NO 69 ° 0 min 0,000 mm 0,0 UV-I 0 W/m² 9,0 °C 9,8 °C 0,0 km/h (0 Bft)
24.09.2017 05:25 9,8 °C 9,8 °C 95 % 1018,3 hPa 0,0 mm 0,0 km/h (0 Bft) O-NO 69 ° 0 min 0,000 mm 0,0 UV-I 0 W/m² 9,0 °C 9,8 °C 0,0 km/h (0 Bft)
24.09.2017 05:26 9,8 °C 9,8 °C 95 % 1018,3 hPa 0,0 mm 0,0 km/h (0 Bft) O-NO 69 ° 0 min 0,000 mm 0,0 UV-I 0 W/m² 9,0 °C 9,8 °C 0,0 km/h (0 Bft)
24.09.2017 05:27 9,7 °C 9,8 °C 95 % 1018,3 hPa 0,0 mm 0,0 km/h (0 Bft) O-NO 69 ° 0 min 0,000 mm 0,0 UV-I 0 W/m² 8,9 °C 9,7 °C 0,0 km/h (0 Bft)
24.09.2017 05:28 9,7 °C 9,7 °C 95 % 1018,3 hPa 0,0 mm 0,0 km/h (0 Bft) O-NO 69 ° 0 min 0,000 mm 0,0 UV-I 0 W/m² 8,9 °C 9,7 °C 0,0 km/h (0 Bft)
24.09.2017 05:29 9,7 °C 9,7 °C 95 % 1018,3 hPa 0,0 mm 0,0 km/h (0 Bft) O-NO 69 ° 0 min 0,000 mm 0,0 UV-I 0 W/m² 8,9 °C 9,7 °C 0,0 km/h (0 Bft)
24.09.2017 05:30 9,8 °C 9,8 °C 95 % 1018,3 hPa 0,0 mm 0,0 km/h (0 Bft) O-NO 69 ° 0 min 0,000 mm 0,0 UV-I 0 W/m² 9,0 °C 9,8 °C 0,0 km/h (0 Bft)
24.09.2017 05:31 9,8 °C 9,8 °C 95 % 1018,3 hPa 0,0 mm 0,0 km/h (0 Bft) O-NO 69 ° 0 min 0,000 mm 0,0 UV-I 0 W/m² 9,0 °C 9,8 °C 0,0 km/h (0 Bft)
24.09.2017 05:32 9,8 °C 9,8 °C 95 % 1018,3 hPa 0,0 mm 0,0 km/h (0 Bft) O-NO 69 ° 0 min 0,000 mm 0,0 UV-I 0 W/m² 9,0 °C 9,8 °C 0,0 km/h (0 Bft)
24.09.2017 05:33 9,8 °C 9,9 °C 95 % 1018,3 hPa 0,0 mm 0,0 km/h (0 Bft) O-NO 69 ° 0 min 0,000 mm 0,0 UV-I 0 W/m² 9,0 °C 9,8 °C 0,0 km/h (0 Bft)
24.09.2017 05:34 9,9 °C 9,9 °C 95 % 1018,3 hPa 0,0 mm 0,0 km/h (0 Bft) O-NO 69 ° 0 min 0,000 mm 0,0 UV-I 0 W/m² 9,1 °C 9,9 °C 0,0 km/h (0 Bft)
24.09.2017 05:35 9,9 °C 9,9 °C 95 % 1018,3 hPa 0,0 mm 0,0 km/h (0 Bft) O-NO 69 ° 0 min 0,000 mm 0,0 UV-I 0 W/m² 9,1 °C 9,9 °C 0,0 km/h (0 Bft)
24.09.2017 05:36 9,9 °C 9,9 °C 95 % 1018,2 hPa 0,0 mm 0,0 km/h (0 Bft) O-NO 69 ° 0 min 0,000 mm 0,0 UV-I 0 W/m² 9,1 °C 9,9 °C 0,0 km/h (0 Bft)
24.09.2017 05:37 9,9 °C 9,9 °C 95 % 1018,2 hPa 0,0 mm 0,0 km/h (0 Bft) O-NO 69 ° 0 min 0,000 mm 0,0 UV-I 0 W/m² 9,1 °C 9,9 °C 0,0 km/h (0 Bft)
24.09.2017 05:38 9,9 °C 9,9 °C 95 % 1018,2 hPa 0,0 mm 0,0 km/h (0 Bft) O-NO 69 ° 0 min 0,000 mm 0,0 UV-I 0 W/m² 9,1 °C 9,9 °C 0,0 km/h (0 Bft)
24.09.2017 05:39 9,9 °C 9,9 °C 95 % 1018,2 hPa 0,0 mm 0,0 km/h (0 Bft) O-NO 69 ° 0 min 0,000 mm 0,0 UV-I 0 W/m² 9,1 °C 9,9 °C 0,0 km/h (0 Bft)
24.09.2017 05:40 9,9 °C 10,0 °C 95 % 1018,1 hPa 0,0 mm 0,0 km/h (0 Bft) O-NO 69 ° 0 min 0,000 mm 0,0 UV-I 0 W/m² 9,1 °C 9,9 °C 0,0 km/h (0 Bft)
24.09.2017 05:41 10,0 °C 10,0 °C 95 % 1018,1 hPa 0,0 mm 0,0 km/h (0 Bft) O-NO 69 ° 0 min 0,000 mm 0,0 UV-I 0 W/m² 9,2 °C 10,0 °C 0,0 km/h (0 Bft)
24.09.2017 05:42 10,0 °C 10,0 °C 95 % 1018,1 hPa 0,0 mm 0,0 km/h (0 Bft) O-NO 69 ° 0 min 0,000 mm 0,0 UV-I 0 W/m² 9,2 °C 10,0 °C 0,0 km/h (0 Bft)
24.09.2017 05:43 9,9 °C 10,0 °C 94 % 1018,1 hPa 0,0 mm 0,0 km/h (0 Bft) O-NO 69 ° 0 min 0,000 mm 0,0 UV-I 0 W/m² 9,0 °C 9,9 °C 0,0 km/h (0 Bft)
24.09.2017 05:44 9,8 °C 9,9 °C 94 % 1018,1 hPa 0,0 mm 0,0 km/h (0 Bft) O-NO 69 ° 0 min 0,000 mm 0,0 UV-I 0 W/m² 8,9 °C 9,8 °C 0,0 km/h (0 Bft)
24.09.2017 05:45 9,8 °C 9,8 °C 94 % 1018,1 hPa 0,0 mm 0,0 km/h (0 Bft) O-NO 69 ° 0 min 0,000 mm 0,0 UV-I 0 W/m² 8,9 °C 9,8 °C 0,0 km/h (0 Bft)
24.09.2017 05:46 9,7 °C 9,8 °C 94 % 1018,1 hPa 0,0 mm 0,0 km/h (0 Bft) O-NO 69 ° 0 min 0,000 mm 0,0 UV-I 0 W/m² 8,8 °C 9,7 °C 0,0 km/h (0 Bft)
24.09.2017 05:47 9,7 °C 9,7 °C 94 % 1018,1 hPa 0,0 mm 0,0 km/h (0 Bft) O-NO 69 ° 0 min 0,000 mm 0,0 UV-I 0 W/m² 8,8 °C 9,7 °C 0,0 km/h (0 Bft)
24.09.2017 05:48 9,6 °C 9,7 °C 94 % 1018,0 hPa 0,0 mm 0,0 km/h (0 Bft) O-NO 69 ° 0 min 0,000 mm 0,0 UV-I 0 W/m² 8,7 °C 9,6 °C 0,0 km/h (0 Bft)
24.09.2017 05:49 9,5 °C 9,6 °C 94 % 1018,1 hPa 0,0 mm 0,0 km/h (0 Bft) O-NO 69 ° 0 min 0,000 mm 0,0 UV-I 0 W/m² 8,6 °C 9,5 °C 0,0 km/h (0 Bft)
24.09.2017 05:50 9,4 °C 9,5 °C 94 % 1018,1 hPa 0,0 mm 0,0 km/h (0 Bft) O-NO 69 ° 0 min 0,000 mm 0,0 UV-I 0 W/m² 8,5 °C 9,4 °C 0,0 km/h (0 Bft)
24.09.2017 05:51 9,4 °C 9,4 °C 94 % 1018,0 hPa 0,0 mm 0,0 km/h (0 Bft) O-NO 69 ° 0 min 0,000 mm 0,0 UV-I 0 W/m² 8,5 °C 9,4 °C 0,0 km/h (0 Bft)
24.09.2017 05:52 9,4 °C 9,4 °C 94 % 1018,0 hPa 0,0 mm 0,0 km/h (0 Bft) O-NO 69 ° 0 min 0,000 mm 0,0 UV-I 0 W/m² 8,5 °C 9,4 °C 0,0 km/h (0 Bft)
24.09.2017 05:53 9,4 °C 9,4 °C 94 % 1018,1 hPa 0,0 mm 0,0 km/h (0 Bft) O-NO 69 ° 0 min 0,000 mm 0,0 UV-I 0 W/m² 8,5 °C 9,4 °C 0,0 km/h (0 Bft)
24.09.2017 05:54 9,5 °C 9,5 °C 95 % 1018,0 hPa 0,0 mm 0,0 km/h (0 Bft) O-NO 69 ° 0 min 0,000 mm 0,0 UV-I 0 W/m² 8,7 °C 9,5 °C 0,0 km/h (0 Bft)
24.09.2017 05:55 9,5 °C 9,5 °C 95 % 1018,0 hPa 0,0 mm 0,0 km/h (0 Bft) O-NO 69 ° 0 min 0,000 mm 0,0 UV-I 0 W/m² 8,7 °C 9,5 °C 0,0 km/h (0 Bft)
24.09.2017 05:56 9,6 °C 9,6 °C 95 % 1018,0 hPa 0,0 mm 0,0 km/h (0 Bft) O-NO 69 ° 0 min 0,000 mm 0,0 UV-I 0 W/m² 8,8 °C 9,6 °C 0,0 km/h (0 Bft)
24.09.2017 05:57 9,6 °C 9,6 °C 95 % 1018,0 hPa 0,0 mm 0,0 km/h (0 Bft) O-NO 69 ° 0 min 0,000 mm 0,0 UV-I 0 W/m² 8,8 °C 9,6 °C 0,0 km/h (0 Bft)
24.09.2017 05:58 9,6 °C 9,6 °C 95 % 1018,0 hPa 0,0 mm 0,0 km/h (0 Bft) O-NO 69 ° 0 min 0,000 mm 0,0 UV-I 0 W/m² 8,8 °C 9,6 °C 0,0 km/h (0 Bft)
24.09.2017 05:59 9,6 °C 9,6 °C 95 % 1018,0 hPa 0,0 mm 0,0 km/h (0 Bft) O-NO 69 ° 0 min 0,000 mm 0,0 UV-I 0 W/m² 8,8 °C 9,6 °C 0,0 km/h (0 Bft)
24.09.2017 06:00 9,5 °C 9,6 °C 95 % 1018,0 hPa 0,0 mm 0,0 km/h (0 Bft) O-NO 69 ° 0 min 0,000 mm 0,0 UV-I 0 W/m² 8,7 °C 9,5 °C 0,0 km/h (0 Bft)
24.09.2017 06:01 9,4 °C 9,5 °C 95 % 1018,1 hPa 0,0 mm 0,0 km/h (0 Bft) O-NO 69 ° 0 min 0,000 mm 0,0 UV-I 0 W/m² 8,6 °C 9,4 °C 0,0 km/h (0 Bft)
24.09.2017 06:02 9,4 °C 9,4 °C 95 % 1018,1 hPa 0,0 mm 0,0 km/h (0 Bft) O-NO 69 ° 0 min 0,000 mm 0,0 UV-I 0 W/m² 8,6 °C 9,4 °C 0,0 km/h (0 Bft)
24.09.2017 06:03 9,3 °C 9,4 °C 95 % 1018,0 hPa 0,0 mm 0,0 km/h (0 Bft) O-NO 69 ° 0 min 0,000 mm 0,0 UV-I 0 W/m² 8,5 °C 9,3 °C 0,0 km/h (0 Bft)
24.09.2017 06:04 9,4 °C 9,4 °C 95 % 1018,0 hPa 0,0 mm 0,0 km/h (0 Bft) O-NO 69 ° 0 min 0,000 mm 0,0 UV-I 0 W/m² 8,6 °C 9,4 °C 0,0 km/h (0 Bft)
24.09.2017 06:05 9,3 °C 9,4 °C 95 % 1018,0 hPa 0,0 mm 0,0 km/h (0 Bft) O-NO 69 ° 0 min 0,000 mm 0,0 UV-I 0 W/m² 8,5 °C 9,3 °C 0,0 km/h (0 Bft)
24.09.2017 06:06 9,3 °C 9,3 °C 95 % 1018,1 hPa 0,0 mm 0,0 km/h (0 Bft) O-NO 69 ° 0 min 0,000 mm 0,0 UV-I 0 W/m² 8,5 °C 9,3 °C 0,0 km/h (0 Bft)
24.09.2017 06:07 9,3 °C 9,3 °C 95 % 1018,1 hPa 0,0 mm 0,0 km/h (0 Bft) O-NO 69 ° 0 min 0,000 mm 0,0 UV-I 0 W/m² 8,5 °C 9,3 °C 0,0 km/h (0 Bft)
24.09.2017 06:08 9,3 °C 9,3 °C 95 % 1018,0 hPa 0,0 mm 0,0 km/h (0 Bft) O-NO 69 ° 0 min 0,000 mm 0,0 UV-I 0 W/m² 8,5 °C 9,3 °C 0,0 km/h (0 Bft)
24.09.2017 06:09 9,3 °C 9,3 °C 95 % 1018,1 hPa 0,0 mm 0,0 km/h (0 Bft) O-NO 69 ° 0 min 0,000 mm 0,0 UV-I 0 W/m² 8,5 °C 9,3 °C 0,0 km/h (0 Bft)
24.09.2017 06:10 9,3 °C 9,3 °C 95 % 1018,1 hPa 0,0 mm 0,0 km/h (0 Bft) O-NO 69 ° 0 min 0,000 mm 0,0 UV-I 0 W/m² 8,5 °C 9,3 °C 0,0 km/h (0 Bft)
24.09.2017 06:11 9,3 °C 9,3 °C 95 % 1018,1 hPa 0,0 mm 0,0 km/h (0 Bft) O-NO 69 ° 0 min 0,000 mm 0,0 UV-I 0 W/m² 8,5 °C 9,3 °C 0,0 km/h (0 Bft)
24.09.2017 06:12 9,3 °C 9,3 °C 95 % 1018,1 hPa 0,0 mm 0,0 km/h (0 Bft) O-NO 69 ° 0 min 0,000 mm 0,0 UV-I 0 W/m² 8,5 °C 9,3 °C 0,0 km/h (0 Bft)
24.09.2017 06:13 9,3 °C 9,3 °C 95 % 1018,2 hPa 0,0 mm 0,0 km/h (0 Bft) O-NO 69 ° 0 min 0,000 mm 0,0 UV-I 0 W/m² 8,5 °C 9,3 °C 0,0 km/h (0 Bft)
24.09.2017 06:14 9,3 °C 9,3 °C 95 % 1018,2 hPa 0,0 mm 0,0 km/h (0 Bft) O-NO 69 ° 0 min 0,000 mm 0,0 UV-I 0 W/m² 8,5 °C 9,3 °C 0,0 km/h (0 Bft)
24.09.2017 06:15 9,3 °C 9,3 °C 95 % 1018,2 hPa 0,0 mm 0,0 km/h (0 Bft) O-NO 69 ° 0 min 0,000 mm 0,0 UV-I 0 W/m² 8,5 °C 9,3 °C 0,0 km/h (0 Bft)
24.09.2017 06:16 9,4 °C 9,4 °C 95 % 1018,2 hPa 0,0 mm 0,0 km/h (0 Bft) O-NO 69 ° 0 min 0,000 mm 0,0 UV-I 0 W/m² 8,6 °C 9,4 °C 0,0 km/h (0 Bft)
24.09.2017 06:17 9,4 °C 9,5 °C 95 % 1018,1 hPa 0,0 mm 0,0 km/h (0 Bft) O-NO 69 ° 0 min 0,000 mm 0,0 UV-I 0 W/m² 8,6 °C 9,4 °C 0,0 km/h (0 Bft)
24.09.2017 06:18 9,4 °C 9,5 °C 95 % 1018,1 hPa 0,0 mm 0,0 km/h (0 Bft) O-NO 69 ° 0 min 0,000 mm 0,0 UV-I 0 W/m² 8,6 °C 9,4 °C 0,0 km/h (0 Bft)
24.09.2017 06:19 9,4 °C 9,4 °C 95 % 1018,1 hPa 0,0 mm 0,0 km/h (0 Bft) O-NO 69 ° 0 min 0,000 mm 0,0 UV-I 0 W/m² 8,6 °C 9,4 °C 0,0 km/h (0 Bft)
24.09.2017 06:20 9,4 °C 9,4 °C 95 % 1018,1 hPa 0,0 mm 0,0 km/h (0 Bft) O-NO 69 ° 0 min 0,000 mm 0,0 UV-I 0 W/m² 8,6 °C 9,4 °C 0,0 km/h (0 Bft)
24.09.2017 06:21 9,3 °C 9,4 °C 95 % 1018,2 hPa 0,0 mm 0,0 km/h (0 Bft) O-NO 69 ° 0 min 0,000 mm 0,0 UV-I 0 W/m² 8,5 °C 9,3 °C 0,0 km/h (0 Bft)
24.09.2017 06:22 9,3 °C 9,3 °C 95 % 1018,2 hPa 0,0 mm 0,0 km/h (0 Bft) O-NO 69 ° 0 min 0,000 mm 0,0 UV-I 0 W/m² 8,5 °C 9,3 °C 0,0 km/h (0 Bft)
24.09.2017 06:23 9,3 °C 9,3 °C 95 % 1018,2 hPa 0,0 mm 0,0 km/h (0 Bft) O-NO 69 ° 0 min 0,000 mm 0,0 UV-I 0 W/m² 8,5 °C 9,3 °C 0,0 km/h (0 Bft)
24.09.2017 06:24 9,3 °C 9,3 °C 95 % 1018,2 hPa 0,0 mm 0,0 km/h (0 Bft) O-NO 69 ° 0 min 0,000 mm 0,0 UV-I 0 W/m² 8,5 °C 9,3 °C 0,0 km/h (0 Bft)
24.09.2017 06:25 9,3 °C 9,3 °C 95 % 1018,2 hPa 0,0 mm 0,0 km/h (0 Bft) O-NO 69 ° 0 min 0,000 mm 0,0 UV-I 0 W/m² 8,5 °C 9,3 °C 0,0 km/h (0 Bft)
24.09.2017 06:26 9,3 °C 9,3 °C 95 % 1018,1 hPa 0,0 mm 0,0 km/h (0 Bft) O-NO 69 ° 0 min 0,000 mm 0,0 UV-I 0 W/m² 8,5 °C 9,3 °C 0,0 km/h (0 Bft)
24.09.2017 06:27 9,2 °C 9,3 °C 95 % 1018,1 hPa 0,0 mm 0,0 km/h (0 Bft) O-NO 69 ° 0 min 0,000 mm 0,0 UV-I 0 W/m² 8,4 °C 9,2 °C 0,0 km/h (0 Bft)
24.09.2017 06:28 9,2 °C 9,2 °C 95 % 1018,2 hPa 0,0 mm 0,0 km/h (0 Bft) O-NO 69 ° 0 min 0,000 mm 0,0 UV-I 0 W/m² 8,4 °C 9,2 °C 0,0 km/h (0 Bft)
24.09.2017 06:29 9,1 °C 9,2 °C 95 % 1018,2 hPa 0,0 mm 0,0 km/h (0 Bft) O-NO 69 ° 0 min 0,000 mm 0,0 UV-I 0 W/m² 8,3 °C 9,1 °C 0,0 km/h (0 Bft)
24.09.2017 06:30 9,1 °C 9,1 °C 95 % 1018,2 hPa 0,0 mm 0,0 km/h (0 Bft) O-NO 69 ° 0 min 0,000 mm 0,0 UV-I 0 W/m² 8,3 °C 9,1 °C 0,0 km/h (0 Bft)
24.09.2017 06:31 9,1 °C 9,1 °C 95 % 1018,2 hPa 0,0 mm 0,0 km/h (0 Bft) O-NO 69 ° 0 min 0,000 mm 0,0 UV-I 0 W/m² 8,3 °C 9,1 °C 0,0 km/h (0 Bft)
24.09.2017 06:32 9,1 °C 9,1 °C 95 % 1018,1 hPa 0,0 mm 0,0 km/h (0 Bft) O-NO 69 ° 0 min 0,000 mm 0,0 UV-I 0 W/m² 8,3 °C 9,1 °C 0,0 km/h (0 Bft)
24.09.2017 06:33 9,1 °C 9,1 °C 95 % 1018,2 hPa 0,0 mm 0,0 km/h (0 Bft) O-NO 69 ° 0 min 0,000 mm 0,0 UV-I 0 W/m² 8,3 °C 9,1 °C 0,0 km/h (0 Bft)
24.09.2017 06:34 9,1 °C 9,1 °C 95 % 1018,2 hPa 0,0 mm 0,0 km/h (0 Bft) O-NO 69 ° 0 min 0,000 mm 0,0 UV-I 0 W/m² 8,3 °C 9,1 °C 0,0 km/h (0 Bft)
24.09.2017 06:35 9,1 °C 9,1 °C 95 % 1018,2 hPa 0,0 mm 0,0 km/h (0 Bft) O-NO 69 ° 0 min 0,000 mm 0,0 UV-I 0 W/m² 8,3 °C 9,1 °C 0,0 km/h (0 Bft)
24.09.2017 06:36 9,1 °C 9,1 °C 95 % 1018,2 hPa 0,0 mm 0,0 km/h (0 Bft) O-NO 69 ° 0 min 0,000 mm 0,0 UV-I 0 W/m² 8,3 °C 9,1 °C 0,0 km/h (0 Bft)
24.09.2017 06:37 9,1 °C 9,1 °C 95 % 1018,2 hPa 0,0 mm 0,0 km/h (0 Bft) O-NO 69 ° 0 min 0,000 mm 0,0 UV-I 0 W/m² 8,3 °C 9,1 °C 0,0 km/h (0 Bft)
24.09.2017 06:38 9,1 °C 9,1 °C 95 % 1018,2 hPa 0,0 mm 0,0 km/h (0 Bft) O-NO 69 ° 0 min 0,000 mm 0,0 UV-I 0 W/m² 8,3 °C 9,1 °C 0,0 km/h (0 Bft)
24.09.2017 06:39 9,1 °C 9,1 °C 95 % 1018,3 hPa 0,0 mm 0,0 km/h (0 Bft) O-NO 69 ° 0 min 0,000 mm 0,0 UV-I 0 W/m² 8,3 °C 9,1 °C 0,0 km/h (0 Bft)
24.09.2017 06:40 9,2 °C 9,2 °C 95 % 1018,2 hPa 0,0 mm 0,0 km/h (0 Bft) O-NO 69 ° 0 min 0,000 mm 0,0 UV-I 0 W/m² 8,4 °C 9,2 °C 0,0 km/h (0 Bft)
24.09.2017 06:41 9,2 °C 9,2 °C 95 % 1018,3 hPa 0,0 mm 0,0 km/h (0 Bft) O-NO 69 ° 0 min 0,000 mm 0,0 UV-I 0 W/m² 8,4 °C 9,2 °C 0,0 km/h (0 Bft)
24.09.2017 06:42 9,2 °C 9,2 °C 95 % 1018,3 hPa 0,0 mm 0,0 km/h (0 Bft) O-NO 69 ° 0 min 0,000 mm 0,0 UV-I 0 W/m² 8,4 °C 9,2 °C 0,0 km/h (0 Bft)
24.09.2017 06:43 9,2 °C 9,2 °C 95 % 1018,2 hPa 0,0 mm 0,0 km/h (0 Bft) O-NO 69 ° 0 min 0,000 mm 0,0 UV-I 0 W/m² 8,4 °C 9,2 °C 0,0 km/h (0 Bft)
24.09.2017 06:44 9,2 °C 9,2 °C 95 % 1018,3 hPa 0,0 mm 0,0 km/h (0 Bft) O-NO 69 ° 0 min 0,000 mm 0,0 UV-I 0 W/m² 8,4 °C 9,2 °C 0,0 km/h (0 Bft)
24.09.2017 06:45 9,2 °C 9,2 °C 95 % 1018,3 hPa 0,0 mm 0,0 km/h (0 Bft) O-NO 69 ° 0 min 0,000 mm 0,0 UV-I 0 W/m² 8,4 °C 9,2 °C 0,0 km/h (0 Bft)
24.09.2017 06:46 9,2 °C 9,2 °C 95 % 1018,3 hPa 0,0 mm 0,0 km/h (0 Bft) O-NO 69 ° 0 min 0,000 mm 0,0 UV-I 0 W/m² 8,4 °C 9,2 °C 0,0 km/h (0 Bft)
24.09.2017 06:47 9,2 °C 9,2 °C 95 % 1018,3 hPa 0,0 mm 0,0 km/h (0 Bft) O-NO 69 ° 0 min 0,000 mm 0,0 UV-I 0 W/m² 8,4 °C 9,2 °C 0,0 km/h (0 Bft)
24.09.2017 06:48 9,3 °C 9,3 °C 95 % 1018,3 hPa 0,0 mm 0,0 km/h (0 Bft) O-NO 69 ° 0 min 0,000 mm 0,0 UV-I 0 W/m² 8,5 °C 9,3 °C 0,0 km/h (0 Bft)
24.09.2017 06:49 9,3 °C 9,3 °C 95 % 1018,3 hPa 0,0 mm 0,0 km/h (0 Bft) O-NO 69 ° 0 min 0,000 mm 0,0 UV-I 0 W/m² 8,5 °C 9,3 °C 0,0 km/h (0 Bft)
24.09.2017 06:50 9,2 °C 9,3 °C 95 % 1018,3 hPa 0,0 mm 0,0 km/h (0 Bft) O-NO 69 ° 0 min 0,000 mm 0,0 UV-I 0 W/m² 8,4 °C 9,2 °C 0,0 km/h (0 Bft)
24.09.2017 06:51 9,2 °C 9,2 °C 95 % 1018,3 hPa 0,0 mm 0,0 km/h (0 Bft) O-NO 69 ° 0 min 0,000 mm 0,0 UV-I 0 W/m² 8,4 °C 9,2 °C 0,0 km/h (0 Bft)
24.09.2017 06:52 9,2 °C 9,2 °C 95 % 1018,3 hPa 0,0 mm 0,0 km/h (0 Bft) O-NO 69 ° 0 min 0,000 mm 0,0 UV-I 0 W/m² 8,4 °C 9,2 °C 0,0 km/h (0 Bft)
24.09.2017 06:53 9,3 °C 9,3 °C 95 % 1018,4 hPa 0,0 mm 0,0 km/h (0 Bft) O-NO 69 ° 0 min 0,000 mm 0,0 UV-I 0 W/m² 8,5 °C 9,3 °C 0,0 km/h (0 Bft)
24.09.2017 06:54 9,3 °C 9,3 °C 95 % 1018,3 hPa 0,0 mm 0,0 km/h (0 Bft) O-NO 69 ° 0 min 0,000 mm 0,0 UV-I 0 W/m² 8,5 °C 9,3 °C 0,0 km/h (0 Bft)
24.09.2017 06:55 9,3 °C 9,3 °C 95 % 1018,4 hPa 0,0 mm 0,0 km/h (0 Bft) O-NO 69 ° 0 min 0,000 mm 0,0 UV-I 0 W/m² 8,5 °C 9,3 °C 0,0 km/h (0 Bft)
24.09.2017 06:56 9,4 °C 9,4 °C 95 % 1018,4 hPa 0,0 mm 0,0 km/h (0 Bft) O-NO 69 ° 0 min 0,000 mm 0,0 UV-I 0 W/m² 8,6 °C 9,4 °C 0,0 km/h (0 Bft)
24.09.2017 06:57 9,4 °C 9,4 °C 95 % 1018,3 hPa 0,0 mm 0,0 km/h (0 Bft) O-NO 69 ° 0 min 0,000 mm 0,0 UV-I 0 W/m² 8,6 °C 9,4 °C 0,0 km/h (0 Bft)
24.09.2017 06:58 9,6 °C 9,6 °C 96 % 1018,4 hPa 0,0 mm 0,0 km/h (0 Bft) O-NO 69 ° 0 min 0,000 mm 0,0 UV-I 0 W/m² 9,0 °C 9,6 °C 0,0 km/h (0 Bft)
24.09.2017 06:59 9,6 °C 9,6 °C 96 % 1018,4 hPa 0,0 mm 0,0 km/h (0 Bft) O-NO 69 ° 0 min 0,000 mm 0,0 UV-I 0 W/m² 9,0 °C 9,6 °C 0,0 km/h (0 Bft)
24.09.2017 07:00 9,6 °C 9,6 °C 96 % 1018,4 hPa 0,0 mm 0,0 km/h (0 Bft) O-NO 69 ° 0 min 0,000 mm 0,0 UV-I 0 W/m² 9,0 °C 9,6 °C 0,0 km/h (0 Bft)
24.09.2017 07:01 9,6 °C 9,6 °C 96 % 1018,4 hPa 0,0 mm 0,0 km/h (0 Bft) O-NO 69 ° 0 min 0,000 mm 0,0 UV-I 0 W/m² 9,0 °C 9,6 °C 0,0 km/h (0 Bft)
24.09.2017 07:02 9,6 °C 9,6 °C 95 % 1018,4 hPa 0,0 mm 0,0 km/h (0 Bft) O-NO 69 ° 0 min 0,000 mm 0,0 UV-I 0 W/m² 8,8 °C 9,6 °C 0,0 km/h (0 Bft)
24.09.2017 07:03 9,6 °C 9,6 °C 95 % 1018,4 hPa 0,0 mm 0,0 km/h (0 Bft) O-NO 69 ° 0 min 0,000 mm 0,0 UV-I 0 W/m² 8,8 °C 9,6 °C 0,0 km/h (0 Bft)
24.09.2017 07:04 9,6 °C 9,6 °C 95 % 1018,4 hPa 0,0 mm 0,0 km/h (0 Bft) O-NO 69 ° 0 min 0,000 mm 0,0 UV-I 0 W/m² 8,8 °C 9,6 °C 0,0 km/h (0 Bft)
24.09.2017 07:05 9,5 °C 9,6 °C 95 % 1018,4 hPa 0,0 mm 0,0 km/h (0 Bft) O-NO 69 ° 0 min 0,000 mm 0,0 UV-I 0 W/m² 8,7 °C 9,5 °C 0,0 km/h (0 Bft)
24.09.2017 07:06 9,4 °C 9,6 °C 95 % 1018,5 hPa 0,0 mm 0,0 km/h (0 Bft) O-NO 69 ° 0 min 0,000 mm 0,0 UV-I 0 W/m² 8,6 °C 9,4 °C 0,0 km/h (0 Bft)
24.09.2017 07:07 9,4 °C 9,4 °C 95 % 1018,4 hPa 0,0 mm 0,0 km/h (0 Bft) O-NO 69 ° 0 min 0,000 mm 0,0 UV-I 0 W/m² 8,6 °C 9,4 °C 0,0 km/h (0 Bft)
24.09.2017 07:08 9,4 °C 9,4 °C 95 % 1018,4 hPa 0,0 mm 0,0 km/h (0 Bft) O-NO 69 ° 0 min 0,000 mm 0,0 UV-I 0 W/m² 8,6 °C 9,4 °C 0,0 km/h (0 Bft)
24.09.2017 07:09 9,3 °C 9,4 °C 95 % 1018,5 hPa 0,0 mm 0,0 km/h (0 Bft) O-NO 69 ° 0 min 0,000 mm 0,0 UV-I 0 W/m² 8,5 °C 9,3 °C 0,0 km/h (0 Bft)
24.09.2017 07:10 9,3 °C 9,4 °C 95 % 1018,5 hPa 0,0 mm 0,0 km/h (0 Bft) O-NO 69 ° 0 min 0,000 mm 0,0 UV-I 0 W/m² 8,5 °C 9,3 °C 0,0 km/h (0 Bft)
24.09.2017 07:11 9,3 °C 9,3 °C 95 % 1018,4 hPa 0,0 mm 0,0 km/h (0 Bft) O-NO 69 ° 0 min 0,000 mm 0,0 UV-I 0 W/m² 8,5 °C 9,3 °C 0,0 km/h (0 Bft)
24.09.2017 07:12 9,3 °C 9,3 °C 95 % 1018,4 hPa 0,0 mm 0,0 km/h (0 Bft) O-NO 69 ° 0 min 0,000 mm 0,0 UV-I 0 W/m² 8,5 °C 9,3 °C 0,0 km/h (0 Bft)
24.09.2017 07:13 9,3 °C 9,3 °C 95 % 1018,5 hPa 0,0 mm 0,0 km/h (0 Bft) O-NO 69 ° 0 min 0,000 mm 0,0 UV-I 0 W/m² 8,5 °C 9,3 °C 0,0 km/h (0 Bft)
24.09.2017 07:14 9,2 °C 9,3 °C 95 % 1018,5 hPa 0,0 mm 0,0 km/h (0 Bft) O-NO 69 ° 0 min 0,000 mm 0,0 UV-I 0 W/m² 8,4 °C 9,2 °C 0,0 km/h (0 Bft)
24.09.2017 07:15 9,2 °C 9,3 °C 95 % 1018,5 hPa 0,0 mm 0,0 km/h (0 Bft) O-NO 69 ° 0 min 0,000 mm 0,0 UV-I 0 W/m² 8,4 °C 9,2 °C 0,0 km/h (0 Bft)
24.09.2017 07:16 9,2 °C 9,2 °C 95 % 1018,5 hPa 0,0 mm 0,0 km/h (0 Bft) O-NO 69 ° 0 min 0,000 mm 0,0 UV-I 5 W/m² 8,4 °C 9,2 °C 0,0 km/h (0 Bft)
24.09.2017 07:17 9,2 °C 9,3 °C 95 % 1018,5 hPa 0,0 mm 0,0 km/h (0 Bft) O-NO 69 ° 0 min 0,000 mm 0,0 UV-I 5 W/m² 8,4 °C 9,2 °C 0,0 km/h (0 Bft)
24.09.2017 07:18 9,2 °C 9,2 °C 95 % 1018,5 hPa 0,0 mm 0,0 km/h (0 Bft) O-NO 69 ° 0 min 0,000 mm 0,0 UV-I 5 W/m² 8,4 °C 9,2 °C 0,0 km/h (0 Bft)
24.09.2017 07:19 9,2 °C 9,2 °C 95 % 1018,5 hPa 0,0 mm 0,0 km/h (0 Bft) O-NO 69 ° 0 min 0,000 mm 0,0 UV-I 7 W/m² 8,4 °C 9,2 °C 0,0 km/h (0 Bft)
24.09.2017 07:20 9,3 °C 9,3 °C 95 % 1018,5 hPa 0,0 mm 0,0 km/h (0 Bft) O-NO 69 ° 0 min 0,000 mm 0,0 UV-I 7 W/m² 8,5 °C 9,3 °C 0,0 km/h (0 Bft)
24.09.2017 07:21 9,3 °C 9,3 °C 95 % 1018,5 hPa 0,0 mm 0,0 km/h (0 Bft) O-NO 69 ° 0 min 0,000 mm 0,0 UV-I 9 W/m² 8,5 °C 9,3 °C 0,0 km/h (0 Bft)
24.09.2017 07:22 9,4 °C 9,4 °C 95 % 1018,5 hPa 0,0 mm 0,0 km/h (0 Bft) O-NO 69 ° 0 min 0,000 mm 0,0 UV-I 9 W/m² 8,6 °C 9,4 °C 0,0 km/h (0 Bft)
24.09.2017 07:23 9,4 °C 9,4 °C 95 % 1018,5 hPa 0,0 mm 1,0 km/h (0 Bft) O 83 ° 0 min 0,000 mm 0,0 UV-I 11 W/m² 8,6 °C 9,4 °C 3,2 km/h (1 Bft)
24.09.2017 07:24 9,4 °C 9,4 °C 96 % 1018,5 hPa 0,0 mm 0,1 km/h (0 Bft) O 83 ° 0 min 0,000 mm 0,0 UV-I 11 W/m² 8,8 °C 9,4 °C 1,6 km/h (1 Bft)
24.09.2017 07:25 9,6 °C 9,6 °C 96 % 1018,5 hPa 0,0 mm 0,0 km/h (0 Bft) O 83 ° 0 min 0,000 mm 0,0 UV-I 11 W/m² 9,0 °C 9,6 °C 0,0 km/h (0 Bft)
24.09.2017 07:26 9,6 °C 9,6 °C 95 % 1018,6 hPa 0,0 mm 0,0 km/h (0 Bft) O 83 ° 0 min 0,000 mm 0,0 UV-I 12 W/m² 8,8 °C 9,6 °C 0,0 km/h (0 Bft)
24.09.2017 07:27 9,6 °C 9,6 °C 95 % 1018,6 hPa 0,0 mm 0,0 km/h (0 Bft) O 83 ° 0 min 0,000 mm 0,0 UV-I 12 W/m² 8,8 °C 9,6 °C 0,0 km/h (0 Bft)
24.09.2017 07:28 9,6 °C 9,6 °C 95 % 1018,5 hPa 0,0 mm 0,0 km/h (0 Bft) O 83 ° 0 min 0,000 mm 0,0 UV-I 14 W/m² 8,8 °C 9,6 °C 0,0 km/h (0 Bft)
24.09.2017 07:29 9,6 °C 9,6 °C 95 % 1018,6 hPa 0,0 mm 1,8 km/h (1 Bft) O 83 ° 0 min 0,000 mm 0,0 UV-I 14 W/m² 8,8 °C 9,6 °C 3,2 km/h (1 Bft)
24.09.2017 07:30 9,6 °C 9,6 °C 95 % 1018,5 hPa 0,0 mm 0,6 km/h (0 Bft) O 83 ° 0 min 0,000 mm 0,0 UV-I 16 W/m² 8,8 °C 9,6 °C 1,6 km/h (1 Bft)
24.09.2017 07:31 9,6 °C 9,6 °C 95 % 1018,5 hPa 0,0 mm 0,0 km/h (0 Bft) O 83 ° 0 min 0,000 mm 0,0 UV-I 16 W/m² 8,8 °C 9,6 °C 0,0 km/h (0 Bft)
24.09.2017 07:32 9,6 °C 9,6 °C 95 % 1018,6 hPa 0,0 mm 0,0 km/h (0 Bft) O 83 ° 0 min 0,000 mm 0,0 UV-I 18 W/m² 8,8 °C 9,6 °C 0,0 km/h (0 Bft)
24.09.2017 07:33 9,5 °C 9,6 °C 95 % 1018,5 hPa 0,0 mm 0,0 km/h (0 Bft) O 83 ° 0 min 0,000 mm 0,0 UV-I 18 W/m² 8,7 °C 9,5 °C 0,0 km/h (0 Bft)
24.09.2017 07:34 9,5 °C 9,5 °C 95 % 1018,5 hPa 0,0 mm 0,0 km/h (0 Bft) O 83 ° 0 min 0,000 mm 0,0 UV-I 19 W/m² 8,7 °C 9,5 °C 0,0 km/h (0 Bft)
24.09.2017 07:35 9,5 °C 9,5 °C 95 % 1018,6 hPa 0,0 mm 0,0 km/h (0 Bft) O 83 ° 0 min 0,000 mm 0,0 UV-I 19 W/m² 8,7 °C 9,5 °C 0,0 km/h (0 Bft)
24.09.2017 07:36 9,5 °C 9,5 °C 95 % 1018,6 hPa 0,0 mm 0,0 km/h (0 Bft) O 83 ° 0 min 0,000 mm 0,0 UV-I 21 W/m² 8,7 °C 9,5 °C 0,0 km/h (0 Bft)
24.09.2017 07:37 9,4 °C 9,5 °C 95 % 1018,5 hPa 0,0 mm 0,0 km/h (0 Bft) O 83 ° 0 min 0,000 mm 0,0 UV-I 21 W/m² 8,6 °C 9,4 °C 0,0 km/h (0 Bft)
24.09.2017 07:38 9,5 °C 9,5 °C 95 % 1018,5 hPa 0,0 mm 0,0 km/h (0 Bft) O 83 ° 0 min 0,000 mm 0,0 UV-I 23 W/m² 8,7 °C 9,5 °C 0,0 km/h (0 Bft)
24.09.2017 07:39 9,4 °C 9,5 °C 95 % 1018,6 hPa 0,0 mm 0,0 km/h (0 Bft) O 83 ° 0 min 0,000 mm 0,0 UV-I 25 W/m² 8,6 °C 9,4 °C 0,0 km/h (0 Bft)
24.09.2017 07:40 9,4 °C 9,5 °C 95 % 1018,6 hPa 0,0 mm 0,0 km/h (0 Bft) O 83 ° 0 min 0,000 mm 0,0 UV-I 25 W/m² 8,6 °C 9,4 °C 0,0 km/h (0 Bft)
24.09.2017 07:41 9,5 °C 9,5 °C 95 % 1018,5 hPa 0,0 mm 0,0 km/h (0 Bft) O 83 ° 0 min 0,000 mm 0,0 UV-I 25 W/m² 8,7 °C 9,5 °C 0,0 km/h (0 Bft)
24.09.2017 07:42 9,5 °C 9,5 °C 95 % 1018,6 hPa 0,0 mm 0,0 km/h (0 Bft) O 83 ° 0 min 0,000 mm 0,0 UV-I 25 W/m² 8,7 °C 9,5 °C 0,0 km/h (0 Bft)
24.09.2017 07:43 9,4 °C 9,5 °C 95 % 1018,6 hPa 0,0 mm 0,0 km/h (0 Bft) O 83 ° 0 min 0,000 mm 0,0 UV-I 26 W/m² 8,6 °C 9,4 °C 0,0 km/h (0 Bft)
24.09.2017 07:44 9,4 °C 9,4 °C 95 % 1018,6 hPa 0,0 mm 0,0 km/h (0 Bft) O 83 ° 0 min 0,000 mm 0,0 UV-I 26 W/m² 8,6 °C 9,4 °C 0,0 km/h (0 Bft)
24.09.2017 07:45 9,5 °C 9,5 °C 95 % 1018,6 hPa 0,0 mm 0,0 km/h (0 Bft) O 83 ° 0 min 0,000 mm 0,0 UV-I 26 W/m² 8,7 °C 9,5 °C 0,0 km/h (0 Bft)
24.09.2017 07:46 9,4 °C 9,5 °C 95 % 1018,6 hPa 0,0 mm 0,0 km/h (0 Bft) O 83 ° 0 min 0,000 mm 0,0 UV-I 26 W/m² 8,6 °C 9,4 °C 0,0 km/h (0 Bft)
24.09.2017 07:47 9,4 °C 9,5 °C 95 % 1018,6 hPa 0,0 mm 0,0 km/h (0 Bft) O 83 ° 0 min 0,000 mm 0,0 UV-I 26 W/m² 8,6 °C 9,4 °C 0,0 km/h (0 Bft)
24.09.2017 07:48 9,4 °C 9,5 °C 95 % 1018,6 hPa 0,0 mm 0,0 km/h (0 Bft) O 83 ° 0 min 0,000 mm 0,0 UV-I 26 W/m² 8,6 °C 9,4 °C 0,0 km/h (0 Bft)
24.09.2017 07:49 9,4 °C 9,4 °C 95 % 1018,6 hPa 0,0 mm 0,0 km/h (0 Bft) O 83 ° 0 min 0,000 mm 0,0 UV-I 26 W/m² 8,6 °C 9,4 °C 0,0 km/h (0 Bft)
24.09.2017 07:50 9,5 °C 9,5 °C 95 % 1018,6 hPa 0,0 mm 0,0 km/h (0 Bft) O 83 ° 0 min 0,000 mm 0,0 UV-I 26 W/m² 8,7 °C 9,5 °C 0,0 km/h (0 Bft)
24.09.2017 07:51 9,5 °C 9,5 °C 95 % 1018,6 hPa 0,0 mm 0,0 km/h (0 Bft) O 83 ° 0 min 0,000 mm 0,0 UV-I 26 W/m² 8,7 °C 9,5 °C 0,0 km/h (0 Bft)
24.09.2017 07:52 9,5 °C 9,5 °C 95 % 1018,6 hPa 0,0 mm 0,0 km/h (0 Bft) O 83 ° 0 min 0,000 mm 0,0 UV-I 26 W/m² 8,7 °C 9,5 °C 0,0 km/h (0 Bft)
24.09.2017 07:53 9,5 °C 9,5 °C 95 % 1018,6 hPa 0,0 mm 0,0 km/h (0 Bft) O 83 ° 0 min 0,000 mm 0,0 UV-I 26 W/m² 8,7 °C 9,5 °C 0,0 km/h (0 Bft)
24.09.2017 07:54 9,5 °C 9,6 °C 95 % 1018,6 hPa 0,0 mm 0,0 km/h (0 Bft) O 83 ° 0 min 0,000 mm 0,0 UV-I 26 W/m² 8,7 °C 9,5 °C 0,0 km/h (0 Bft)
24.09.2017 07:55 9,6 °C 9,6 °C 95 % 1018,6 hPa 0,0 mm 0,0 km/h (0 Bft) O 83 ° 0 min 0,000 mm 0,0 UV-I 26 W/m² 8,8 °C 9,6 °C 0,0 km/h (0 Bft)
24.09.2017 07:56 9,6 °C 9,6 °C 95 % 1018,6 hPa 0,0 mm 0,0 km/h (0 Bft) O 83 ° 0 min 0,000 mm 0,0 UV-I 26 W/m² 8,8 °C 9,6 °C 0,0 km/h (0 Bft)
24.09.2017 07:57 9,5 °C 9,6 °C 95 % 1018,7 hPa 0,0 mm 0,0 km/h (0 Bft) O 83 ° 0 min 0,000 mm 0,0 UV-I 28 W/m² 8,7 °C 9,5 °C 0,0 km/h (0 Bft)
24.09.2017 07:58 9,6 °C 9,6 °C 95 % 1018,6 hPa 0,0 mm 0,0 km/h (0 Bft) O 83 ° 0 min 0,000 mm 0,0 UV-I 26 W/m² 8,8 °C 9,6 °C 0,0 km/h (0 Bft)
24.09.2017 07:59 9,6 °C 9,6 °C 95 % 1018,7 hPa 0,0 mm 0,0 km/h (0 Bft) O 83 ° 0 min 0,000 mm 0,0 UV-I 26 W/m² 8,8 °C 9,6 °C 0,0 km/h (0 Bft)
24.09.2017 08:00 9,6 °C 9,6 °C 95 % 1018,7 hPa 0,0 mm 0,0 km/h (0 Bft) O 83 ° 0 min 0,000 mm 0,0 UV-I 26 W/m² 8,8 °C 9,6 °C 0,0 km/h (0 Bft)
24.09.2017 08:01 9,6 °C 9,6 °C 95 % 1018,7 hPa 0,0 mm 0,0 km/h (0 Bft) O 83 ° 0 min 0,000 mm 0,0 UV-I 28 W/m² 8,8 °C 9,6 °C 0,0 km/h (0 Bft)
24.09.2017 08:02 9,6 °C 9,6 °C 95 % 1018,7 hPa 0,0 mm 0,0 km/h (0 Bft) O 83 ° 0 min 0,000 mm 0,0 UV-I 28 W/m² 8,8 °C 9,6 °C 0,0 km/h (0 Bft)
24.09.2017 08:03 9,6 °C 9,6 °C 95 % 1018,7 hPa 0,0 mm 0,0 km/h (0 Bft) O 83 ° 0 min 0,000 mm 0,0 UV-I 30 W/m² 8,8 °C 9,6 °C 0,0 km/h (0 Bft)
24.09.2017 08:04 9,6 °C 9,6 °C 95 % 1018,7 hPa 0,0 mm 0,0 km/h (0 Bft) O 83 ° 0 min 0,000 mm 0,0 UV-I 30 W/m² 8,8 °C 9,6 °C 0,0 km/h (0 Bft)
24.09.2017 08:05 9,6 °C 9,6 °C 95 % 1018,7 hPa 0,0 mm 0,0 km/h (0 Bft) O 83 ° 0 min 0,000 mm 0,0 UV-I 30 W/m² 8,8 °C 9,6 °C 0,0 km/h (0 Bft)
24.09.2017 08:06 9,6 °C 9,6 °C 95 % 1018,8 hPa 0,0 mm 0,0 km/h (0 Bft) O 83 ° 0 min 0,000 mm 0,0 UV-I 30 W/m² 8,8 °C 9,6 °C 0,0 km/h (0 Bft)
24.09.2017 08:07 9,6 °C 9,6 °C 95 % 1018,8 hPa 0,0 mm 0,0 km/h (0 Bft) O 83 ° 0 min 0,000 mm 0,0 UV-I 30 W/m² 8,8 °C 9,6 °C 0,0 km/h (0 Bft)
24.09.2017 08:08 9,6 °C 9,6 °C 95 % 1018,8 hPa 0,0 mm 0,0 km/h (0 Bft) O 83 ° 0 min 0,000 mm 0,0 UV-I 28 W/m² 8,8 °C 9,6 °C 0,0 km/h (0 Bft)
24.09.2017 08:09 9,6 °C 9,6 °C 95 % 1018,7 hPa 0,0 mm 0,0 km/h (0 Bft) O 83 ° 0 min 0,000 mm 0,0 UV-I 28 W/m² 8,8 °C 9,6 °C 0,0 km/h (0 Bft)
24.09.2017 08:10 9,6 °C 9,6 °C 95 % 1018,7 hPa 0,0 mm 0,0 km/h (0 Bft) O 83 ° 0 min 0,000 mm 0,0 UV-I 26 W/m² 8,8 °C 9,6 °C 0,0 km/h (0 Bft)
24.09.2017 08:11 9,6 °C 9,7 °C 95 % 1018,7 hPa 0,0 mm 0,0 km/h (0 Bft) O 83 ° 0 min 0,000 mm 0,0 UV-I 26 W/m² 8,8 °C 9,6 °C 0,0 km/h (0 Bft)
24.09.2017 08:12 9,7 °C 9,7 °C 95 % 1018,7 hPa 0,0 mm 0,0 km/h (0 Bft) O 83 ° 0 min 0,000 mm 0,0 UV-I 26 W/m² 8,9 °C 9,7 °C 0,0 km/h (0 Bft)
24.09.2017 08:13 9,7 °C 9,7 °C 95 % 1018,7 hPa 0,0 mm 0,0 km/h (0 Bft) O 83 ° 0 min 0,000 mm 0,0 UV-I 26 W/m² 8,9 °C 9,7 °C 0,0 km/h (0 Bft)
24.09.2017 08:14 9,7 °C 9,7 °C 95 % 1018,7 hPa 0,0 mm 0,0 km/h (0 Bft) O 83 ° 0 min 0,000 mm 0,0 UV-I 26 W/m² 8,9 °C 9,7 °C 0,0 km/h (0 Bft)
24.09.2017 08:15 9,7 °C 9,7 °C 95 % 1018,7 hPa 0,0 mm 0,0 km/h (0 Bft) O 83 ° 0 min 0,000 mm 0,0 UV-I 28 W/m² 8,9 °C 9,7 °C 0,0 km/h (0 Bft)
24.09.2017 08:16 9,7 °C 9,7 °C 95 % 1018,7 hPa 0,0 mm 0,0 km/h (0 Bft) O 83 ° 0 min 0,000 mm 0,0 UV-I 28 W/m² 8,9 °C 9,7 °C 0,0 km/h (0 Bft)
24.09.2017 08:17 9,7 °C 9,7 °C 95 % 1018,7 hPa 0,0 mm 0,0 km/h (0 Bft) O 83 ° 0 min 0,000 mm 0,0 UV-I 32 W/m² 8,9 °C 9,7 °C 0,0 km/h (0 Bft)
24.09.2017 08:18 9,7 °C 9,7 °C 95 % 1018,7 hPa 0,0 mm 0,0 km/h (0 Bft) O 83 ° 0 min 0,000 mm 0,0 UV-I 33 W/m² 8,9 °C 9,7 °C 0,0 km/h (0 Bft)
24.09.2017 08:19 9,7 °C 9,7 °C 95 % 1018,7 hPa 0,0 mm 0,0 km/h (0 Bft) O 83 ° 0 min 0,000 mm 0,0 UV-I 35 W/m² 8,9 °C 9,7 °C 0,0 km/h (0 Bft)
24.09.2017 08:20 9,8 °C 9,8 °C 95 % 1018,7 hPa 0,0 mm 0,0 km/h (0 Bft) O 83 ° 0 min 0,000 mm 0,0 UV-I 40 W/m² 9,0 °C 9,8 °C 0,0 km/h (0 Bft)
24.09.2017 08:21 9,7 °C 9,8 °C 95 % 1018,7 hPa 0,0 mm 0,0 km/h (0 Bft) O 83 ° 0 min 0,000 mm 0,0 UV-I 44 W/m² 8,9 °C 9,7 °C 0,0 km/h (0 Bft)
24.09.2017 08:22 9,8 °C 9,8 °C 95 % 1018,7 hPa 0,0 mm 0,0 km/h (0 Bft) O 83 ° 0 min 0,000 mm 0,0 UV-I 47 W/m² 9,0 °C 9,8 °C 0,0 km/h (0 Bft)
24.09.2017 08:23 9,8 °C 9,8 °C 95 % 1018,7 hPa 0,0 mm 0,0 km/h (0 Bft) O 83 ° 0 min 0,000 mm 0,0 UV-I 51 W/m² 9,0 °C 9,8 °C 0,0 km/h (0 Bft)
24.09.2017 08:24 9,8 °C 9,8 °C 95 % 1018,8 hPa 0,0 mm 0,0 km/h (0 Bft) O 83 ° 0 min 0,000 mm 0,0 UV-I 54 W/m² 9,0 °C 9,8 °C 0,0 km/h (0 Bft)
24.09.2017 08:25 9,8 °C 9,8 °C 95 % 1018,8 hPa 0,0 mm 0,0 km/h (0 Bft) O 83 ° 0 min 0,000 mm 0,0 UV-I 58 W/m² 9,0 °C 9,8 °C 0,0 km/h (0 Bft)
24.09.2017 08:26 9,8 °C 9,8 °C 95 % 1018,8 hPa 0,0 mm 0,9 km/h (0 Bft) O 82 ° 0 min 0,000 mm 0,0 UV-I 62 W/m² 9,0 °C 9,8 °C 3,2 km/h (1 Bft)
24.09.2017 08:27 9,8 °C 9,8 °C 95 % 1018,8 hPa 0,0 mm 2,2 km/h (1 Bft) NO 39 ° 0 min 0,000 mm 0,0 UV-I 62 W/m² 9,0 °C 9,8 °C 3,2 km/h (1 Bft)
24.09.2017 08:28 9,8 °C 9,8 °C 95 % 1018,8 hPa 0,0 mm 1,6 km/h (1 Bft) NO 39 ° 0 min 0,000 mm 0,0 UV-I 62 W/m² 9,0 °C 9,8 °C 3,2 km/h (1 Bft)
24.09.2017 08:29 9,8 °C 9,8 °C 95 % 1018,9 hPa 0,0 mm 0,1 km/h (0 Bft) NO 39 ° 0 min 0,000 mm 0,0 UV-I 62 W/m² 9,0 °C 9,8 °C 1,6 km/h (1 Bft)
24.09.2017 08:30 9,8 °C 9,8 °C 95 % 1018,8 hPa 0,0 mm 0,0 km/h (0 Bft) NO 39 ° 0 min 0,000 mm 0,0 UV-I 62 W/m² 9,0 °C 9,8 °C 0,0 km/h (0 Bft)
24.09.2017 08:31 9,8 °C 9,8 °C 95 % 1018,8 hPa 0,0 mm 0,0 km/h (0 Bft) NO 39 ° 0 min 0,000 mm 0,0 UV-I 62 W/m² 9,0 °C 9,8 °C 0,0 km/h (0 Bft)
24.09.2017 08:32 9,8 °C 9,8 °C 95 % 1018,9 hPa 0,0 mm 0,0 km/h (0 Bft) NO 39 ° 0 min 0,000 mm 0,0 UV-I 62 W/m² 9,0 °C 9,8 °C 0,0 km/h (0 Bft)
24.09.2017 08:33 9,8 °C 9,8 °C 95 % 1018,8 hPa 0,0 mm 0,0 km/h (0 Bft) NO 39 ° 0 min 0,000 mm 0,5 UV-I 62 W/m² 9,0 °C 9,8 °C 0,0 km/h (0 Bft)
24.09.2017 08:34 9,8 °C 9,8 °C 95 % 1018,8 hPa 0,0 mm 0,0 km/h (0 Bft) NO 39 ° 0 min 0,000 mm 0,5 UV-I 62 W/m² 9,0 °C 9,8 °C 0,0 km/h (0 Bft)
24.09.2017 08:35 9,7 °C 9,8 °C 95 % 1018,9 hPa 0,0 mm 0,0 km/h (0 Bft) NO 39 ° 0 min 0,000 mm 0,5 UV-I 62 W/m² 8,9 °C 9,7 °C 0,0 km/h (0 Bft)
24.09.2017 08:36 9,7 °C 9,7 °C 95 % 1018,9 hPa 0,0 mm 0,0 km/h (0 Bft) NO 39 ° 0 min 0,000 mm 0,5 UV-I 63 W/m² 8,9 °C 9,7 °C 0,0 km/h (0 Bft)
24.09.2017 08:37 9,8 °C 9,8 °C 95 % 1018,9 hPa 0,0 mm 0,0 km/h (0 Bft) NO 39 ° 0 min 0,000 mm 0,5 UV-I 63 W/m² 9,0 °C 9,8 °C 0,0 km/h (0 Bft)
24.09.2017 08:38 9,8 °C 9,8 °C 95 % 1018,8 hPa 0,0 mm 0,0 km/h (0 Bft) NO 39 ° 0 min 0,000 mm 0,5 UV-I 67 W/m² 9,0 °C 9,8 °C 0,0 km/h (0 Bft)
24.09.2017 08:39 9,8 °C 9,8 °C 95 % 1018,9 hPa 0,0 mm 0,0 km/h (0 Bft) NO 39 ° 0 min 0,000 mm 0,5 UV-I 70 W/m² 9,0 °C 9,8 °C 0,0 km/h (0 Bft)
24.09.2017 08:40 9,8 °C 9,8 °C 95 % 1019,0 hPa 0,0 mm 0,0 km/h (0 Bft) NO 39 ° 0 min 0,000 mm 0,5 UV-I 76 W/m² 9,0 °C 9,8 °C 0,0 km/h (0 Bft)
24.09.2017 08:41 9,8 °C 9,8 °C 95 % 1019,0 hPa 0,0 mm 0,0 km/h (0 Bft) NO 39 ° 0 min 0,000 mm 0,6 UV-I 79 W/m² 9,0 °C 9,8 °C 0,0 km/h (0 Bft)
24.09.2017 08:42 9,8 °C 9,8 °C 95 % 1018,9 hPa 0,0 mm 0,0 km/h (0 Bft) NO 39 ° 0 min 0,000 mm 0,6 UV-I 84 W/m² 9,0 °C 9,8 °C 0,0 km/h (0 Bft)
24.09.2017 08:43 9,8 °C 9,8 °C 95 % 1018,9 hPa 0,0 mm 0,0 km/h (0 Bft) NO 39 ° 0 min 0,000 mm 0,6 UV-I 93 W/m² 9,0 °C 9,8 °C 0,0 km/h (0 Bft)
24.09.2017 08:44 9,8 °C 9,8 °C 95 % 1019,0 hPa 0,0 mm 0,0 km/h (0 Bft) NO 39 ° 0 min 0,000 mm 0,6 UV-I 98 W/m² 9,0 °C 9,8 °C 0,0 km/h (0 Bft)
24.09.2017 08:45 9,8 °C 9,8 °C 95 % 1019,0 hPa 0,0 mm 0,0 km/h (0 Bft) NO 39 ° 0 min 0,000 mm 0,6 UV-I 104 W/m² 9,0 °C 9,8 °C 0,0 km/h (0 Bft)
24.09.2017 08:46 9,9 °C 9,9 °C 95 % 1018,9 hPa 0,0 mm 0,0 km/h (0 Bft) NO 39 ° 0 min 0,000 mm 0,6 UV-I 111 W/m² 9,1 °C 9,9 °C 0,0 km/h (0 Bft)
24.09.2017 08:47 9,9 °C 9,9 °C 95 % 1018,9 hPa 0,0 mm 0,0 km/h (0 Bft) NO 39 ° 0 min 0,000 mm 0,6 UV-I 116 W/m² 9,1 °C 9,9 °C 0,0 km/h (0 Bft)
24.09.2017 08:48 9,9 °C 9,9 °C 95 % 1019,0 hPa 0,0 mm 0,0 km/h (0 Bft) NO 39 ° 0 min 0,000 mm 0,6 UV-I 123 W/m² 9,1 °C 9,9 °C 0,0 km/h (0 Bft)
24.09.2017 08:49 10,0 °C 10,0 °C 95 % 1018,9 hPa 0,0 mm 0,0 km/h (0 Bft) NO 39 ° 0 min 0,000 mm 0,7 UV-I 127 W/m² 9,2 °C 10,0 °C 0,0 km/h (0 Bft)
24.09.2017 08:50 10,1 °C 10,1 °C 95 % 1018,9 hPa 0,0 mm 0,0 km/h (0 Bft) NO 39 ° 0 min 0,000 mm 0,7 UV-I 130 W/m² 9,3 °C 10,1 °C 0,0 km/h (0 Bft)
24.09.2017 08:51 10,1 °C 10,1 °C 95 % 1018,9 hPa 0,0 mm 0,0 km/h (0 Bft) NO 39 ° 0 min 0,000 mm 0,7 UV-I 132 W/m² 9,3 °C 10,1 °C 0,0 km/h (0 Bft)
24.09.2017 08:52 10,2 °C 10,2 °C 95 % 1019,0 hPa 0,0 mm 0,0 km/h (0 Bft) NO 39 ° 0 min 0,000 mm 0,7 UV-I 134 W/m² 9,4 °C 10,2 °C 0,0 km/h (0 Bft)
24.09.2017 08:53 10,2 °C 10,2 °C 95 % 1018,9 hPa 0,0 mm 0,0 km/h (0 Bft) NO 39 ° 0 min 0,000 mm 0,7 UV-I 134 W/m² 9,4 °C 10,2 °C 0,0 km/h (0 Bft)
24.09.2017 08:54 10,3 °C 10,3 °C 95 % 1018,9 hPa 0,0 mm 0,1 km/h (0 Bft) NO 39 ° 0 min 0,000 mm 0,7 UV-I 137 W/m² 9,5 °C 10,3 °C 1,6 km/h (1 Bft)
24.09.2017 08:55 10,3 °C 10,3 °C 95 % 1019,0 hPa 0,0 mm 0,1 km/h (0 Bft) NO 39 ° 0 min 0,000 mm 0,7 UV-I 149 W/m² 9,5 °C 10,3 °C 1,6 km/h (1 Bft)
24.09.2017 08:56 10,4 °C 10,4 °C 95 % 1019,0 hPa 0,0 mm 0,0 km/h (0 Bft) NO 39 ° 0 min 0,000 mm 0,8 UV-I 156 W/m² 9,6 °C 10,4 °C 0,0 km/h (0 Bft)
24.09.2017 08:57 10,4 °C 10,4 °C 95 % 1019,0 hPa 0,0 mm 0,0 km/h (0 Bft) NO 39 ° 0 min 0,000 mm 0,8 UV-I 158 W/m² 9,6 °C 10,4 °C 0,0 km/h (0 Bft)
24.09.2017 08:58 10,4 °C 10,4 °C 94 % 1018,9 hPa 0,0 mm 0,0 km/h (0 Bft) NO 39 ° 0 min 0,000 mm 0,8 UV-I 158 W/m² 9,5 °C 10,4 °C 0,0 km/h (0 Bft)
24.09.2017 08:59 10,5 °C 10,5 °C 94 % 1018,9 hPa 0,0 mm 0,0 km/h (0 Bft) NO 39 ° 0 min 0,000 mm 0,8 UV-I 155 W/m² 9,6 °C 10,5 °C 0,0 km/h (0 Bft)
24.09.2017 09:00 10,6 °C 10,6 °C 94 % 1018,9 hPa 0,0 mm 0,0 km/h (0 Bft) NO 39 ° 0 min 0,000 mm 0,8 UV-I 155 W/m² 9,7 °C 10,6 °C 0,0 km/h (0 Bft)
24.09.2017 09:01 10,6 °C 10,6 °C 94 % 1018,9 hPa 0,0 mm 0,0 km/h (0 Bft) NO 39 ° 0 min 0,025 mm 0,8 UV-I 162 W/m² 9,7 °C 10,6 °C 0,0 km/h (0 Bft)
24.09.2017 09:02 10,7 °C 10,7 °C 93 % 1018,9 hPa 0,0 mm 0,0 km/h (0 Bft) NO 39 ° 0 min 0,000 mm 0,8 UV-I 169 W/m² 9,6 °C 10,7 °C 0,0 km/h (0 Bft)
24.09.2017 09:03 10,8 °C 10,8 °C 94 % 1018,9 hPa 0,0 mm 0,0 km/h (0 Bft) NO 39 ° 0 min 0,000 mm 0,8 UV-I 169 W/m² 9,9 °C 10,8 °C 0,0 km/h (0 Bft)
24.09.2017 09:04 10,8 °C 10,8 °C 93 % 1019,0 hPa 0,0 mm 0,0 km/h (0 Bft) NO 39 ° 0 min 0,000 mm 0,9 UV-I 174 W/m² 9,7 °C 10,8 °C 0,0 km/h (0 Bft)
24.09.2017 09:05 10,9 °C 10,9 °C 93 % 1019,0 hPa 0,0 mm 0,0 km/h (0 Bft) NO 39 ° 0 min 0,000 mm 0,9 UV-I 183 W/m² 9,8 °C 10,9 °C 0,0 km/h (0 Bft)
24.09.2017 09:06 11,1 °C 11,1 °C 93 % 1019,0 hPa 0,0 mm 0,0 km/h (0 Bft) NO 39 ° 0 min 0,000 mm 0,9 UV-I 195 W/m² 10,0 °C 11,1 °C 0,0 km/h (0 Bft)
24.09.2017 09:07 11,2 °C 11,2 °C 93 % 1019,0 hPa 0,0 mm 0,0 km/h (0 Bft) NO 39 ° 0 min 0,000 mm 0,9 UV-I 186 W/m² 10,1 °C 11,2 °C 0,0 km/h (0 Bft)
24.09.2017 09:08 11,2 °C 11,2 °C 93 % 1019,0 hPa 0,0 mm 0,1 km/h (0 Bft) NO 39 ° 0 min 0,000 mm 0,9 UV-I 185 W/m² 10,1 °C 11,2 °C 1,6 km/h (1 Bft)
24.09.2017 09:09 11,3 °C 11,3 °C 93 % 1019,0 hPa 0,0 mm 0,8 km/h (0 Bft) NO 38 ° 0 min 0,000 mm 0,9 UV-I 193 W/m² 10,2 °C 11,3 °C 1,6 km/h (1 Bft)
24.09.2017 09:10 11,3 °C 11,3 °C 93 % 1019,0 hPa 0,0 mm 0,0 km/h (0 Bft) NO 38 ° 0 min 0,000 mm 0,9 UV-I 199 W/m² 10,2 °C 11,3 °C 0,0 km/h (0 Bft)
24.09.2017 09:11 11,4 °C 11,4 °C 92 % 1019,0 hPa 0,0 mm 0,0 km/h (0 Bft) NO 38 ° 0 min 0,000 mm 0,9 UV-I 200 W/m² 10,1 °C 11,4 °C 0,0 km/h (0 Bft)
24.09.2017 09:12 11,4 °C 11,4 °C 92 % 1019,0 hPa 0,0 mm 0,0 km/h (0 Bft) NO 38 ° 0 min 0,000 mm 0,9 UV-I 211 W/m² 10,1 °C 11,4 °C 0,0 km/h (0 Bft)
24.09.2017 09:13 11,4 °C 11,4 °C 92 % 1018,9 hPa 0,0 mm 0,0 km/h (0 Bft) NO 38 ° 0 min 0,000 mm 1,0 UV-I 257 W/m² 10,1 °C 11,4 °C 0,0 km/h (0 Bft)
24.09.2017 09:14 11,4 °C 11,5 °C 91 % 1019,0 hPa 0,0 mm 0,0 km/h (0 Bft) NO 38 ° 0 min 0,000 mm 1,0 UV-I 288 W/m² 10,0 °C 11,4 °C 0,0 km/h (0 Bft)
24.09.2017 09:15 11,5 °C 11,5 °C 91 % 1018,9 hPa 0,0 mm 0,3 km/h (0 Bft) NO 38 ° 0 min 0,000 mm 1,0 UV-I 246 W/m² 10,1 °C 11,5 °C 1,6 km/h (1 Bft)
24.09.2017 09:16 11,6 °C 11,6 °C 92 % 1018,9 hPa 0,0 mm 0,0 km/h (0 Bft) NO 38 ° 0 min 0,000 mm 1,0 UV-I 193 W/m² 10,3 °C 11,6 °C 0,0 km/h (0 Bft)
24.09.2017 09:17 11,6 °C 11,6 °C 92 % 1018,9 hPa 0,0 mm 0,0 km/h (0 Bft) NO 38 ° 0 min 0,000 mm 1,0 UV-I 188 W/m² 10,3 °C 11,6 °C 0,0 km/h (0 Bft)
24.09.2017 09:18 11,6 °C 11,6 °C 91 % 1019,0 hPa 0,0 mm 0,0 km/h (0 Bft) NO 38 ° 0 min 0,000 mm 1,0 UV-I 185 W/m² 10,2 °C 11,6 °C 0,0 km/h (0 Bft)
24.09.2017 09:19 11,7 °C 11,7 °C 92 % 1018,9 hPa 0,0 mm 0,0 km/h (0 Bft) NO 38 ° 0 min 0,000 mm 1,0 UV-I 193 W/m² 10,4 °C 11,7 °C 0,0 km/h (0 Bft)
24.09.2017 09:20 11,8 °C 11,8 °C 92 % 1018,9 hPa 0,0 mm 0,0 km/h (0 Bft) NO 38 ° 0 min 0,000 mm 1,1 UV-I 195 W/m² 10,5 °C 11,8 °C 0,0 km/h (0 Bft)
24.09.2017 09:21 11,8 °C 11,8 °C 91 % 1019,0 hPa 0,0 mm 0,0 km/h (0 Bft) NO 38 ° 0 min 0,000 mm 1,1 UV-I 221 W/m² 10,4 °C 11,8 °C 0,0 km/h (0 Bft)
24.09.2017 09:22 11,9 °C 11,9 °C 91 % 1019,0 hPa 0,0 mm 1,3 km/h (1 Bft) NO 38 ° 0 min 0,000 mm 1,1 UV-I 211 W/m² 10,5 °C 11,9 °C 3,2 km/h (1 Bft)
24.09.2017 09:23 12,1 °C 12,1 °C 91 % 1019,0 hPa 0,0 mm 1,1 km/h (1 Bft) NO 38 ° 0 min 0,000 mm 1,0 UV-I 179 W/m² 10,7 °C 12,1 °C 3,2 km/h (1 Bft)
24.09.2017 09:24 12,1 °C 12,1 °C 90 % 1019,0 hPa 0,0 mm 1,7 km/h (1 Bft) NO 38 ° 0 min 0,000 mm 1,0 UV-I 169 W/m² 10,5 °C 12,1 °C 3,2 km/h (1 Bft)
24.09.2017 09:25 12,1 °C 12,1 °C 90 % 1019,0 hPa 0,0 mm 1,0 km/h (0 Bft) NO 38 ° 0 min 0,000 mm 1,0 UV-I 160 W/m² 10,5 °C 12,1 °C 1,6 km/h (1 Bft)
24.09.2017 09:26 12,0 °C 12,1 °C 90 % 1019,0 hPa 0,0 mm 0,1 km/h (0 Bft) NO 38 ° 0 min 0,000 mm 1,1 UV-I 155 W/m² 10,4 °C 12,0 °C 1,6 km/h (1 Bft)
24.09.2017 09:27 12,0 °C 12,1 °C 90 % 1019,0 hPa 0,0 mm 0,0 km/h (0 Bft) NO 38 ° 0 min 0,000 mm 1,1 UV-I 151 W/m² 10,4 °C 12,0 °C 0,0 km/h (0 Bft)
24.09.2017 09:28 12,1 °C 12,1 °C 90 % 1019,0 hPa 0,0 mm 0,5 km/h (0 Bft) NO 38 ° 0 min 0,000 mm 1,1 UV-I 142 W/m² 10,5 °C 12,1 °C 1,6 km/h (1 Bft)
24.09.2017 09:29 12,0 °C 12,1 °C 90 % 1019,0 hPa 0,0 mm 0,1 km/h (0 Bft) NO 38 ° 0 min 0,000 mm 1,1 UV-I 135 W/m² 10,4 °C 12,0 °C 1,6 km/h (1 Bft)
24.09.2017 09:30 12,1 °C 12,1 °C 90 % 1019,0 hPa 0,0 mm 1,3 km/h (1 Bft) NO 38 ° 0 min 0,000 mm 1,1 UV-I 132 W/m² 10,5 °C 12,1 °C 3,2 km/h (1 Bft)
24.09.2017 09:31 12,1 °C 12,1 °C 90 % 1019,0 hPa 0,0 mm 1,7 km/h (1 Bft) NO 38 ° 0 min 0,000 mm 1,1 UV-I 130 W/m² 10,5 °C 12,1 °C 3,2 km/h (1 Bft)
24.09.2017 09:32 12,1 °C 12,1 °C 90 % 1019,0 hPa 0,0 mm 0,1 km/h (0 Bft) NO 38 ° 0 min 0,000 mm 1,1 UV-I 134 W/m² 10,5 °C 12,1 °C 1,6 km/h (1 Bft)
24.09.2017 09:33 12,1 °C 12,1 °C 90 % 1019,0 hPa 0,0 mm 0,2 km/h (0 Bft) NO 38 ° 0 min 0,000 mm 1,2 UV-I 141 W/m² 10,5 °C 12,1 °C 1,6 km/h (1 Bft)
24.09.2017 09:34 12,1 °C 12,1 °C 90 % 1019,1 hPa 0,0 mm 2,3 km/h (1 Bft) NO 36 ° 0 min 0,000 mm 1,2 UV-I 151 W/m² 10,5 °C 12,1 °C 3,2 km/h (1 Bft)
24.09.2017 09:35 12,1 °C 12,1 °C 90 % 1019,1 hPa 0,0 mm 1,7 km/h (1 Bft) NO 36 ° 0 min 0,000 mm 1,2 UV-I 163 W/m² 10,5 °C 12,1 °C 3,2 km/h (1 Bft)
24.09.2017 09:36 12,1 °C 12,1 °C 90 % 1019,1 hPa 0,0 mm 3,1 km/h (1 Bft) N 9 ° 0 min 0,000 mm 1,2 UV-I 188 W/m² 10,5 °C 12,1 °C 3,2 km/h (1 Bft)
24.09.2017 09:37 12,1 °C 12,1 °C 90 % 1019,1 hPa 0,0 mm 2,1 km/h (1 Bft) N 9 ° 0 min 0,000 mm 1,2 UV-I 220 W/m² 10,5 °C 12,1 °C 3,2 km/h (1 Bft)
24.09.2017 09:38 12,1 °C 12,1 °C 90 % 1019,1 hPa 0,0 mm 2,7 km/h (1 Bft) N-NW 331 ° 0 min 0,000 mm 1,2 UV-I 197 W/m² 10,5 °C 12,1 °C 4,8 km/h (1 Bft)
24.09.2017 09:39 12,1 °C 12,1 °C 90 % 1019,1 hPa 0,0 mm 2,6 km/h (1 Bft) N-NW 329 ° 0 min 0,000 mm 1,2 UV-I 171 W/m² 10,5 °C 12,1 °C 3,2 km/h (1 Bft)
24.09.2017 09:40 12,1 °C 12,1 °C 90 % 1019,0 hPa 0,0 mm 2,5 km/h (1 Bft) N-NW 329 ° 0 min 0,000 mm 1,2 UV-I 171 W/m² 10,5 °C 12,1 °C 3,2 km/h (1 Bft)
24.09.2017 09:41 12,1 °C 12,1 °C 90 % 1019,1 hPa 0,0 mm 0,8 km/h (0 Bft) N-NW 329 ° 0 min 0,000 mm 1,3 UV-I 179 W/m² 10,5 °C 12,1 °C 1,6 km/h (1 Bft)
24.09.2017 09:42 12,1 °C 12,1 °C 89 % 1019,1 hPa 0,0 mm 0,6 km/h (0 Bft) N-NW 329 ° 0 min 0,000 mm 1,3 UV-I 197 W/m² 10,3 °C 12,1 °C 1,6 km/h (1 Bft)
24.09.2017 09:43 12,2 °C 12,2 °C 90 % 1019,0 hPa 0,0 mm 0,5 km/h (0 Bft) N-NW 329 ° 0 min 0,000 mm 1,3 UV-I 204 W/m² 10,6 °C 12,2 °C 1,6 km/h (1 Bft)
24.09.2017 09:44 12,2 °C 12,2 °C 90 % 1019,0 hPa 0,0 mm 0,1 km/h (0 Bft) N-NW 329 ° 0 min 0,000 mm 1,3 UV-I 209 W/m² 10,6 °C 12,2 °C 1,6 km/h (1 Bft)
24.09.2017 09:45 12,2 °C 12,2 °C 90 % 1019,0 hPa 0,0 mm 1,1 km/h (1 Bft) N-NW 329 ° 0 min 0,000 mm 1,3 UV-I 220 W/m² 10,6 °C 12,2 °C 1,6 km/h (1 Bft)
24.09.2017 09:46 12,2 °C 12,2 °C 89 % 1019,1 hPa 0,0 mm 0,7 km/h (0 Bft) N-NW 329 ° 0 min 0,000 mm 1,3 UV-I 216 W/m² 10,4 °C 12,2 °C 1,6 km/h (1 Bft)
24.09.2017 09:47 12,2 °C 12,3 °C 90 % 1019,0 hPa 0,0 mm 1,5 km/h (1 Bft) N-NW 329 ° 0 min 0,000 mm 1,3 UV-I 218 W/m² 10,6 °C 12,2 °C 3,2 km/h (1 Bft)
24.09.2017 09:48 12,3 °C 12,3 °C 90 % 1019,0 hPa 0,0 mm 1,2 km/h (1 Bft) N-NW 329 ° 1 min 0,000 mm 1,4 UV-I 332 W/m² 10,7 °C 12,3 °C 3,2 km/h (1 Bft)
24.09.2017 09:49 12,3 °C 12,3 °C 90 % 1019,1 hPa 0,0 mm 1,4 km/h (1 Bft) N-NW 329 ° 0 min 0,000 mm 1,3 UV-I 269 W/m² 10,7 °C 12,3 °C 3,2 km/h (1 Bft)
24.09.2017 09:50 12,3 °C 12,3 °C 90 % 1019,0 hPa 0,0 mm 1,6 km/h (1 Bft) N-NW 336 ° 0 min 0,000 mm 1,3 UV-I 214 W/m² 10,7 °C 12,3 °C 3,2 km/h (1 Bft)
24.09.2017 09:51 12,3 °C 12,4 °C 90 % 1019,1 hPa 0,0 mm 2,5 km/h (1 Bft) N-NW 336 ° 0 min 0,000 mm 1,3 UV-I 223 W/m² 10,7 °C 12,3 °C 3,2 km/h (1 Bft)
24.09.2017 09:52 12,4 °C 12,4 °C 89 % 1019,1 hPa 0,0 mm 1,7 km/h (1 Bft) N-NW 336 ° 0 min 0,000 mm 1,3 UV-I 193 W/m² 10,6 °C 12,4 °C 3,2 km/h (1 Bft)
24.09.2017 09:53 12,4 °C 12,4 °C 89 % 1019,1 hPa 0,0 mm 0,2 km/h (0 Bft) N-NW 336 ° 0 min 0,000 mm 1,3 UV-I 186 W/m² 10,6 °C 12,4 °C 1,6 km/h (1 Bft)
24.09.2017 09:54 12,4 °C 12,4 °C 89 % 1019,1 hPa 0,0 mm 1,2 km/h (1 Bft) N-NW 336 ° 0 min 0,000 mm 1,3 UV-I 186 W/m² 10,6 °C 12,4 °C 3,2 km/h (1 Bft)
24.09.2017 09:55 12,4 °C 12,4 °C 90 % 1019,1 hPa 0,0 mm 2,2 km/h (1 Bft) N-NW 336 ° 0 min 0,000 mm 1,3 UV-I 190 W/m² 10,8 °C 12,4 °C 3,2 km/h (1 Bft)
24.09.2017 09:56 12,4 °C 12,4 °C 89 % 1019,1 hPa 0,0 mm 2,2 km/h (1 Bft) N-NW 336 ° 0 min 0,000 mm 1,3 UV-I 190 W/m² 10,6 °C 12,4 °C 4,8 km/h (1 Bft)
24.09.2017 09:57 12,4 °C 12,4 °C 88 % 1019,1 hPa 0,0 mm 2,0 km/h (1 Bft) N-NW 336 ° 0 min 0,000 mm 1,3 UV-I 192 W/m² 10,5 °C 12,4 °C 3,2 km/h (1 Bft)
24.09.2017 09:58 12,4 °C 12,4 °C 89 % 1019,1 hPa 0,0 mm 2,3 km/h (1 Bft) N-NW 336 ° 0 min 0,000 mm 1,3 UV-I 197 W/m² 10,6 °C 12,4 °C 4,8 km/h (1 Bft)
24.09.2017 09:59 12,3 °C 12,4 °C 88 % 1019,1 hPa 0,0 mm 0,3 km/h (0 Bft) N-NW 336 ° 0 min 0,000 mm 1,3 UV-I 204 W/m² 10,4 °C 12,3 °C 1,6 km/h (1 Bft)
24.09.2017 10:00 12,3 °C 12,3 °C 88 % 1019,1 hPa 0,0 mm 0,1 km/h (0 Bft) N-NW 336 ° 0 min 0,000 mm 1,3 UV-I 220 W/m² 10,4 °C 12,3 °C 1,6 km/h (1 Bft)
24.09.2017 10:01 12,3 °C 12,3 °C 89 % 1019,1 hPa 0,0 mm 0,2 km/h (0 Bft) N-NW 336 ° 0 min 0,102 mm 1,4 UV-I 230 W/m² 10,5 °C 12,3 °C 1,6 km/h (1 Bft)
24.09.2017 10:02 12,3 °C 12,4 °C 89 % 1019,1 hPa 0,0 mm 1,1 km/h (1 Bft) N-NW 336 ° 0 min 0,000 mm 1,4 UV-I 241 W/m² 10,5 °C 12,3 °C 1,6 km/h (1 Bft)
24.09.2017 10:03 12,4 °C 12,4 °C 89 % 1019,1 hPa 0,0 mm 0,0 km/h (0 Bft) N-NW 336 ° 0 min 0,000 mm 1,5 UV-I 246 W/m² 10,6 °C 12,4 °C 0,0 km/h (0 Bft)
24.09.2017 10:04 12,4 °C 12,4 °C 89 % 1019,2 hPa 0,0 mm 0,0 km/h (0 Bft) N-NW 336 ° 0 min 0,000 mm 1,5 UV-I 244 W/m² 10,6 °C 12,4 °C 0,0 km/h (0 Bft)
24.09.2017 10:05 12,5 °C 12,5 °C 90 % 1019,1 hPa 0,0 mm 0,0 km/h (0 Bft) N-NW 336 ° 0 min 0,000 mm 1,4 UV-I 237 W/m² 10,9 °C 12,5 °C 0,0 km/h (0 Bft)
24.09.2017 10:06 12,5 °C 12,5 °C 89 % 1019,2 hPa 0,0 mm 0,4 km/h (0 Bft) N-NW 336 ° 0 min 0,000 mm 1,4 UV-I 237 W/m² 10,7 °C 12,5 °C 1,6 km/h (1 Bft)
24.09.2017 10:07 12,4 °C 12,5 °C 88 % 1019,2 hPa 0,0 mm 0,0 km/h (0 Bft) N-NW 336 ° 0 min 0,000 mm 1,4 UV-I 241 W/m² 10,5 °C 12,4 °C 0,0 km/h (0 Bft)
24.09.2017 10:08 12,4 °C 12,4 °C 88 % 1019,2 hPa 0,0 mm 0,1 km/h (0 Bft) N-NW 336 ° 0 min 0,000 mm 1,4 UV-I 246 W/m² 10,5 °C 12,4 °C 1,6 km/h (1 Bft)
24.09.2017 10:09 12,4 °C 12,4 °C 88 % 1019,2 hPa 0,0 mm 0,0 km/h (0 Bft) N-NW 336 ° 0 min 0,000 mm 1,5 UV-I 274 W/m² 10,5 °C 12,4 °C 0,0 km/h (0 Bft)
24.09.2017 10:10 12,4 °C 12,4 °C 89 % 1019,2 hPa 0,0 mm 0,0 km/h (0 Bft) N-NW 336 ° 0 min 0,000 mm 1,4 UV-I 262 W/m² 10,6 °C 12,4 °C 0,0 km/h (0 Bft)
24.09.2017 10:11 12,5 °C 12,5 °C 89 % 1019,2 hPa 0,0 mm 0,9 km/h (0 Bft) N-NW 336 ° 0 min 0,000 mm 1,4 UV-I 278 W/m² 10,7 °C 12,5 °C 3,2 km/h (1 Bft)
24.09.2017 10:12 12,6 °C 12,6 °C 89 % 1019,2 hPa 0,0 mm 1,7 km/h (1 Bft) N-NW 336 ° 1 min 0,000 mm 1,5 UV-I 290 W/m² 10,8 °C 12,6 °C 4,8 km/h (1 Bft)
24.09.2017 10:13 12,7 °C 12,7 °C 89 % 1019,2 hPa 0,0 mm 2,8 km/h (1 Bft) N-NW 336 ° 0 min 0,000 mm 1,2 UV-I 244 W/m² 10,9 °C 12,7 °C 3,2 km/h (1 Bft)
24.09.2017 10:14 12,7 °C 12,7 °C 88 % 1019,2 hPa 0,0 mm 1,2 km/h (1 Bft) N-NW 336 ° 0 min 0,000 mm 1,3 UV-I 244 W/m² 10,8 °C 12,7 °C 3,2 km/h (1 Bft)
24.09.2017 10:15 12,8 °C 12,8 °C 88 % 1019,2 hPa 0,0 mm 2,0 km/h (1 Bft) N-NW 336 ° 0 min 0,000 mm 1,0 UV-I 244 W/m² 10,9 °C 12,8 °C 3,2 km/h (1 Bft)
24.09.2017 10:16 12,8 °C 12,8 °C 88 % 1019,2 hPa 0,0 mm 0,7 km/h (0 Bft) N-NW 336 ° 0 min 0,000 mm 0,9 UV-I 244 W/m² 10,9 °C 12,8 °C 3,2 km/h (1 Bft)
24.09.2017 10:17 12,8 °C 12,8 °C 88 % 1019,2 hPa 0,0 mm 0,5 km/h (0 Bft) N-NW 340 ° 0 min 0,000 mm 0,9 UV-I 130 W/m² 10,9 °C 12,8 °C 3,2 km/h (1 Bft)
24.09.2017 10:18 12,8 °C 12,8 °C 89 % 1019,2 hPa 0,0 mm 2,7 km/h (1 Bft) N-NW 341 ° 0 min 0,000 mm 0,8 UV-I 121 W/m² 11,0 °C 12,8 °C 3,2 km/h (1 Bft)
24.09.2017 10:19 12,8 °C 12,8 °C 89 % 1019,3 hPa 0,0 mm 1,4 km/h (1 Bft) N-NW 341 ° 0 min 0,000 mm 0,8 UV-I 116 W/m² 11,0 °C 12,8 °C 3,2 km/h (1 Bft)
24.09.2017 10:20 12,8 °C 12,8 °C 88 % 1019,3 hPa 0,0 mm 3,8 km/h (1 Bft) N 360 ° 0 min 0,000 mm 0,8 UV-I 114 W/m² 10,9 °C 12,8 °C 6,4 km/h (2 Bft)
24.09.2017 10:21 12,8 °C 12,8 °C 88 % 1019,2 hPa 0,0 mm 2,3 km/h (1 Bft) N 360 ° 0 min 0,000 mm 0,7 UV-I 114 W/m² 10,9 °C 12,8 °C 3,2 km/h (1 Bft)
24.09.2017 10:22 12,8 °C 12,8 °C 89 % 1019,2 hPa 0,0 mm 1,5 km/h (1 Bft) N 351 ° 0 min 0,000 mm 0,7 UV-I 107 W/m² 11,0 °C 12,8 °C 3,2 km/h (1 Bft)
24.09.2017 10:23 12,7 °C 12,8 °C 88 % 1019,3 hPa 0,0 mm 0,1 km/h (0 Bft) N 351 ° 0 min 0,000 mm 0,7 UV-I 98 W/m² 10,8 °C 12,7 °C 1,6 km/h (1 Bft)
24.09.2017 10:24 12,7 °C 12,7 °C 88 % 1019,2 hPa 0,0 mm 2,0 km/h (1 Bft) N 351 ° 0 min 0,000 mm 0,7 UV-I 98 W/m² 10,8 °C 12,7 °C 3,2 km/h (1 Bft)
24.09.2017 10:25 12,6 °C 12,7 °C 88 % 1019,3 hPa 0,0 mm 0,2 km/h (0 Bft) N 351 ° 0 min 0,000 mm 0,6 UV-I 93 W/m² 10,7 °C 12,6 °C 1,6 km/h (1 Bft)
24.09.2017 10:26 12,6 °C 12,6 °C 89 % 1019,3 hPa 0,0 mm 0,1 km/h (0 Bft) N 351 ° 0 min 0,000 mm 0,6 UV-I 91 W/m² 10,8 °C 12,6 °C 1,6 km/h (1 Bft)
24.09.2017 10:27 12,6 °C 12,6 °C 89 % 1019,3 hPa 0,0 mm 0,2 km/h (0 Bft) N 351 ° 0 min 0,000 mm 0,6 UV-I 88 W/m² 10,8 °C 12,6 °C 1,6 km/h (1 Bft)
24.09.2017 10:28 12,6 °C 12,6 °C 89 % 1019,3 hPa 0,0 mm 0,9 km/h (0 Bft) N 351 ° 0 min 0,000 mm 0,6 UV-I 86 W/m² 10,8 °C 12,6 °C 3,2 km/h (1 Bft)
24.09.2017 10:29 12,5 °C 12,6 °C 89 % 1019,2 hPa 0,0 mm 0,1 km/h (0 Bft) N 351 ° 0 min 0,000 mm 0,6 UV-I 86 W/m² 10,7 °C 12,5 °C 1,6 km/h (1 Bft)
24.09.2017 10:30 12,5 °C 12,5 °C 89 % 1019,2 hPa 0,0 mm 0,4 km/h (0 Bft) N 351 ° 0 min 0,000 mm 0,6 UV-I 86 W/m² 10,7 °C 12,5 °C 1,6 km/h (1 Bft)
24.09.2017 10:31 12,5 °C 12,5 °C 89 % 1019,2 hPa 0,0 mm 0,2 km/h (0 Bft) N 351 ° 0 min 0,000 mm 0,6 UV-I 86 W/m² 10,7 °C 12,5 °C 1,6 km/h (1 Bft)
24.09.2017 10:32 12,5 °C 12,5 °C 89 % 1019,3 hPa 0,0 mm 0,0 km/h (0 Bft) N 351 ° 0 min 0,000 mm 0,6 UV-I 84 W/m² 10,7 °C 12,5 °C 0,0 km/h (0 Bft)
24.09.2017 10:33 12,5 °C 12,5 °C 89 % 1019,2 hPa 0,0 mm 0,0 km/h (0 Bft) N 351 ° 0 min 0,000 mm 0,6 UV-I 84 W/m² 10,7 °C 12,5 °C 0,0 km/h (0 Bft)
24.09.2017 10:34 12,6 °C 12,6 °C 90 % 1019,3 hPa 0,0 mm 0,0 km/h (0 Bft) N 351 ° 0 min 0,000 mm 0,6 UV-I 86 W/m² 11,0 °C 12,6 °C 0,0 km/h (0 Bft)
24.09.2017 10:35 12,6 °C 12,6 °C 89 % 1019,3 hPa 0,0 mm 1,6 km/h (1 Bft) N 351 ° 0 min 0,000 mm 0,6 UV-I 86 W/m² 10,8 °C 12,6 °C 4,8 km/h (1 Bft)
24.09.2017 10:36 12,6 °C 12,6 °C 89 % 1019,3 hPa 0,0 mm 1,5 km/h (1 Bft) N 351 ° 0 min 0,000 mm 0,6 UV-I 88 W/m² 10,8 °C 12,6 °C 3,2 km/h (1 Bft)
24.09.2017 10:37 12,6 °C 12,6 °C 89 % 1019,3 hPa 0,0 mm 0,0 km/h (0 Bft) N 351 ° 0 min 0,000 mm 0,7 UV-I 90 W/m² 10,8 °C 12,6 °C 0,0 km/h (0 Bft)
24.09.2017 10:38 12,6 °C 12,6 °C 89 % 1019,3 hPa 0,0 mm 0,0 km/h (0 Bft) N 351 ° 0 min 0,000 mm 0,7 UV-I 91 W/m² 10,8 °C 12,6 °C 0,0 km/h (0 Bft)
24.09.2017 10:39 12,6 °C 12,6 °C 89 % 1019,3 hPa 0,0 mm 0,0 km/h (0 Bft) N 351 ° 0 min 0,000 mm 0,7 UV-I 93 W/m² 10,8 °C 12,6 °C 0,0 km/h (0 Bft)
24.09.2017 10:40 12,6 °C 12,6 °C 89 % 1019,3 hPa 0,0 mm 0,0 km/h (0 Bft) N 351 ° 0 min 0,000 mm 0,7 UV-I 100 W/m² 10,8 °C 12,6 °C 0,0 km/h (0 Bft)
24.09.2017 10:41 12,6 °C 12,6 °C 89 % 1019,3 hPa 0,0 mm 0,4 km/h (0 Bft) N 351 ° 0 min 0,000 mm 0,8 UV-I 104 W/m² 10,8 °C 12,6 °C 1,6 km/h (1 Bft)
24.09.2017 10:42 12,6 °C 12,6 °C 89 % 1019,3 hPa 0,0 mm 0,1 km/h (0 Bft) N 351 ° 0 min 0,000 mm 0,8 UV-I 107 W/m² 10,8 °C 12,6 °C 1,6 km/h (1 Bft)
24.09.2017 10:43 12,6 °C 12,6 °C 89 % 1019,4 hPa 0,0 mm 0,0 km/h (0 Bft) N 351 ° 0 min 0,000 mm 0,9 UV-I 111 W/m² 10,8 °C 12,6 °C 0,0 km/h (0 Bft)
24.09.2017 10:44 12,6 °C 12,6 °C 89 % 1019,4 hPa 0,0 mm 0,0 km/h (0 Bft) N 351 ° 0 min 0,000 mm 0,9 UV-I 116 W/m² 10,8 °C 12,6 °C 0,0 km/h (0 Bft)
24.09.2017 10:45 12,6 °C 12,6 °C 89 % 1019,3 hPa 0,0 mm 0,0 km/h (0 Bft) N 351 ° 0 min 0,000 mm 0,9 UV-I 120 W/m² 10,8 °C 12,6 °C 0,0 km/h (0 Bft)
24.09.2017 10:46 12,6 °C 12,6 °C 88 % 1019,3 hPa 0,0 mm 0,0 km/h (0 Bft) N 351 ° 0 min 0,000 mm 1,0 UV-I 125 W/m² 10,7 °C 12,6 °C 0,0 km/h (0 Bft)
24.09.2017 10:47 12,6 °C 12,6 °C 89 % 1019,3 hPa 0,0 mm 0,0 km/h (0 Bft) N 351 ° 0 min 0,000 mm 1,0 UV-I 132 W/m² 10,8 °C 12,6 °C 0,0 km/h (0 Bft)
24.09.2017 10:48 12,7 °C 12,7 °C 89 % 1019,4 hPa 0,0 mm 0,0 km/h (0 Bft) N 351 ° 0 min 0,000 mm 1,0 UV-I 135 W/m² 10,9 °C 12,7 °C 0,0 km/h (0 Bft)
24.09.2017 10:49 12,7 °C 12,7 °C 89 % 1019,4 hPa 0,0 mm 0,0 km/h (0 Bft) N 351 ° 0 min 0,000 mm 1,0 UV-I 137 W/m² 10,9 °C 12,7 °C 0,0 km/h (0 Bft)
24.09.2017 10:50 12,7 °C 12,7 °C 88 % 1019,4 hPa 0,0 mm 0,1 km/h (0 Bft) N 351 ° 0 min 0,000 mm 1,1 UV-I 139 W/m² 10,8 °C 12,7 °C 1,6 km/h (1 Bft)
24.09.2017 10:51 12,7 °C 12,7 °C 88 % 1019,4 hPa 0,0 mm 0,8 km/h (0 Bft) N 351 ° 0 min 0,000 mm 1,1 UV-I 141 W/m² 10,8 °C 12,7 °C 3,2 km/h (1 Bft)
24.09.2017 10:52 12,7 °C 12,7 °C 88 % 1019,4 hPa 0,0 mm 1,6 km/h (1 Bft) N 351 ° 0 min 0,000 mm 1,1 UV-I 148 W/m² 10,8 °C 12,7 °C 3,2 km/h (1 Bft)
24.09.2017 10:53 12,6 °C 12,7 °C 88 % 1019,4 hPa 0,0 mm 0,0 km/h (0 Bft) N 351 ° 0 min 0,000 mm 1,1 UV-I 151 W/m² 10,7 °C 12,6 °C 0,0 km/h (0 Bft)
24.09.2017 10:54 12,6 °C 12,6 °C 88 % 1019,4 hPa 0,0 mm 0,0 km/h (0 Bft) N 351 ° 0 min 0,000 mm 1,2 UV-I 156 W/m² 10,7 °C 12,6 °C 0,0 km/h (0 Bft)
24.09.2017 10:55 12,6 °C 12,6 °C 88 % 1019,4 hPa 0,0 mm 0,0 km/h (0 Bft) N 351 ° 0 min 0,000 mm 1,2 UV-I 160 W/m² 10,7 °C 12,6 °C 0,0 km/h (0 Bft)
24.09.2017 10:56 12,6 °C 12,6 °C 88 % 1019,4 hPa 0,0 mm 0,0 km/h (0 Bft) N 351 ° 0 min 0,000 mm 1,3 UV-I 165 W/m² 10,7 °C 12,6 °C 0,0 km/h (0 Bft)
24.09.2017 10:57 12,6 °C 12,6 °C 88 % 1019,4 hPa 0,0 mm 0,0 km/h (0 Bft) N 351 ° 0 min 0,000 mm 1,3 UV-I 169 W/m² 10,7 °C 12,6 °C 0,0 km/h (0 Bft)
24.09.2017 10:58 12,7 °C 12,7 °C 89 % 1019,4 hPa 0,0 mm 0,0 km/h (0 Bft) N 351 ° 0 min 0,000 mm 1,3 UV-I 172 W/m² 10,9 °C 12,7 °C 0,0 km/h (0 Bft)
24.09.2017 10:59 12,7 °C 12,7 °C 88 % 1019,4 hPa 0,0 mm 0,5 km/h (0 Bft) N 351 ° 0 min 0,000 mm 1,3 UV-I 174 W/m² 10,8 °C 12,7 °C 1,6 km/h (1 Bft)
24.09.2017 11:00 12,7 °C 12,7 °C 88 % 1019,4 hPa 0,0 mm 0,1 km/h (0 Bft) N 351 ° 0 min 0,000 mm 1,3 UV-I 174 W/m² 10,8 °C 12,7 °C 1,6 km/h (1 Bft)
24.09.2017 11:01 12,7 °C 12,7 °C 88 % 1019,4 hPa 0,0 mm 0,0 km/h (0 Bft) N 351 ° 0 min 0,076 mm 1,3 UV-I 172 W/m² 10,8 °C 12,7 °C 0,0 km/h (0 Bft)
24.09.2017 11:02 12,7 °C 12,7 °C 88 % 1019,4 hPa 0,0 mm 0,0 km/h (0 Bft) N 351 ° 0 min 0,000 mm 1,3 UV-I 172 W/m² 10,8 °C 12,7 °C 0,0 km/h (0 Bft)
24.09.2017 11:03 12,8 °C 12,8 °C 88 % 1019,4 hPa 0,0 mm 0,0 km/h (0 Bft) N 351 ° 0 min 0,000 mm 1,3 UV-I 169 W/m² 10,9 °C 12,8 °C 0,0 km/h (0 Bft)
24.09.2017 11:04 12,8 °C 12,8 °C 88 % 1019,4 hPa 0,0 mm 0,0 km/h (0 Bft) N 351 ° 0 min 0,000 mm 1,3 UV-I 169 W/m² 10,9 °C 12,8 °C 0,0 km/h (0 Bft)
24.09.2017 11:05 12,9 °C 12,9 °C 88 % 1019,4 hPa 0,0 mm 0,0 km/h (0 Bft) N 351 ° 0 min 0,000 mm 1,2 UV-I 169 W/m² 11,0 °C 12,9 °C 0,0 km/h (0 Bft)
24.09.2017 11:06 12,9 °C 12,9 °C 87 % 1019,4 hPa 0,0 mm 0,0 km/h (0 Bft) N 351 ° 0 min 0,000 mm 1,2 UV-I 169 W/m² 10,8 °C 12,9 °C 0,0 km/h (0 Bft)
24.09.2017 11:07 12,9 °C 12,9 °C 87 % 1019,4 hPa 0,0 mm 0,0 km/h (0 Bft) N 351 ° 0 min 0,000 mm 1,2 UV-I 169 W/m² 10,8 °C 12,9 °C 0,0 km/h (0 Bft)
24.09.2017 11:08 12,9 °C 12,9 °C 87 % 1019,4 hPa 0,0 mm 0,0 km/h (0 Bft) N 351 ° 0 min 0,000 mm 1,2 UV-I 167 W/m² 10,8 °C 12,9 °C 0,0 km/h (0 Bft)
24.09.2017 11:09 12,9 °C 12,9 °C 88 % 1019,4 hPa 0,0 mm 0,1 km/h (0 Bft) N 351 ° 0 min 0,000 mm 1,2 UV-I 167 W/m² 11,0 °C 12,9 °C 1,6 km/h (1 Bft)
24.09.2017 11:10 12,9 °C 12,9 °C 86 % 1019,4 hPa 0,0 mm 0,0 km/h (0 Bft) N 351 ° 0 min 0,000 mm 1,2 UV-I 165 W/m² 10,6 °C 12,9 °C 0,0 km/h (0 Bft)
24.09.2017 11:11 12,9 °C 12,9 °C 87 % 1019,4 hPa 0,0 mm 1,0 km/h (0 Bft) N 351 ° 0 min 0,000 mm 1,3 UV-I 169 W/m² 10,8 °C 12,9 °C 1,6 km/h (1 Bft)
24.09.2017 11:12 12,8 °C 12,9 °C 86 % 1019,4 hPa 0,0 mm 0,1 km/h (0 Bft) N 351 ° 0 min 0,000 mm 1,3 UV-I 169 W/m² 10,5 °C 12,8 °C 1,6 km/h (1 Bft)
24.09.2017 11:13 12,8 °C 12,8 °C 86 % 1019,4 hPa 0,0 mm 1,5 km/h (1 Bft) N 355 ° 0 min 0,000 mm 1,3 UV-I 171 W/m² 10,5 °C 12,8 °C 3,2 km/h (1 Bft)
24.09.2017 11:14 12,8 °C 12,8 °C 87 % 1019,4 hPa 0,0 mm 1,5 km/h (1 Bft) N 355 ° 0 min 0,000 mm 1,3 UV-I 174 W/m² 10,7 °C 12,8 °C 3,2 km/h (1 Bft)
24.09.2017 11:15 12,8 °C 12,9 °C 86 % 1019,5 hPa 0,0 mm 1,7 km/h (1 Bft) N 355 ° 0 min 0,000 mm 1,4 UV-I 181 W/m² 10,5 °C 12,8 °C 3,2 km/h (1 Bft)
24.09.2017 11:16 12,8 °C 12,8 °C 85 % 1019,4 hPa 0,0 mm 0,1 km/h (0 Bft) N 355 ° 0 min 0,000 mm 1,4 UV-I 190 W/m² 10,3 °C 12,8 °C 1,6 km/h (1 Bft)
24.09.2017 11:17 12,8 °C 12,8 °C 85 % 1019,4 hPa 0,0 mm 0,0 km/h (0 Bft) N 355 ° 0 min 0,000 mm 1,5 UV-I 195 W/m² 10,3 °C 12,8 °C 0,0 km/h (0 Bft)
24.09.2017 11:18 12,8 °C 12,8 °C 85 % 1019,4 hPa 0,0 mm 0,6 km/h (0 Bft) N 355 ° 0 min 0,000 mm 1,5 UV-I 197 W/m² 10,3 °C 12,8 °C 1,6 km/h (1 Bft)
24.09.2017 11:19 12,8 °C 12,8 °C 84 % 1019,5 hPa 0,0 mm 0,0 km/h (0 Bft) N 355 ° 0 min 0,000 mm 1,5 UV-I 199 W/m² 10,2 °C 12,8 °C 0,0 km/h (0 Bft)
24.09.2017 11:20 12,8 °C 12,9 °C 84 % 1019,5 hPa 0,0 mm 0,0 km/h (0 Bft) N 355 ° 0 min 0,000 mm 1,5 UV-I 200 W/m² 10,2 °C 12,8 °C 0,0 km/h (0 Bft)
24.09.2017 11:21 12,9 °C 12,9 °C 85 % 1019,5 hPa 0,0 mm 0,9 km/h (0 Bft) N 355 ° 0 min 0,000 mm 1,5 UV-I 202 W/m² 10,4 °C 12,9 °C 3,2 km/h (1 Bft)
24.09.2017 11:22 12,9 °C 12,9 °C 85 % 1019,4 hPa 0,0 mm 0,0 km/h (0 Bft) N 355 ° 0 min 0,000 mm 1,6 UV-I 206 W/m² 10,4 °C 12,9 °C 0,0 km/h (0 Bft)
24.09.2017 11:23 13,0 °C 13,0 °C 84 % 1019,5 hPa 0,0 mm 2,9 km/h (1 Bft) N 360 ° 0 min 0,000 mm 1,6 UV-I 214 W/m² 10,4 °C 13,0 °C 3,2 km/h (1 Bft)
24.09.2017 11:24 13,0 °C 13,0 °C 84 % 1019,4 hPa 0,0 mm 1,7 km/h (1 Bft) N 360 ° 0 min 0,000 mm 1,7 UV-I 220 W/m² 10,4 °C 13,0 °C 3,2 km/h (1 Bft)
24.09.2017 11:25 13,0 °C 13,1 °C 84 % 1019,5 hPa 0,0 mm 2,2 km/h (1 Bft) N-NO 30 ° 0 min 0,000 mm 1,7 UV-I 221 W/m² 10,4 °C 13,0 °C 4,8 km/h (1 Bft)
24.09.2017 11:26 13,0 °C 13,0 °C 83 % 1019,4 hPa 0,0 mm 2,3 km/h (1 Bft) O-NO 61 ° 0 min 0,000 mm 1,7 UV-I 225 W/m² 10,2 °C 13,0 °C 3,2 km/h (1 Bft)
24.09.2017 11:27 12,9 °C 13,0 °C 83 % 1019,4 hPa 0,0 mm 1,8 km/h (1 Bft) O-NO 61 ° 0 min 0,000 mm 1,7 UV-I 229 W/m² 10,1 °C 12,9 °C 3,2 km/h (1 Bft)
24.09.2017 11:28 13,0 °C 13,0 °C 84 % 1019,5 hPa 0,0 mm 0,3 km/h (0 Bft) O-NO 61 ° 0 min 0,000 mm 1,7 UV-I 230 W/m² 10,4 °C 13,0 °C 1,6 km/h (1 Bft)
24.09.2017 11:29 12,9 °C 13,0 °C 83 % 1019,4 hPa 0,0 mm 0,7 km/h (0 Bft) O-NO 61 ° 0 min 0,000 mm 1,7 UV-I 232 W/m² 10,1 °C 12,9 °C 1,6 km/h (1 Bft)
24.09.2017 11:30 13,0 °C 13,0 °C 82 % 1019,4 hPa 0,0 mm 0,0 km/h (0 Bft) O-NO 61 ° 0 min 0,000 mm 1,7 UV-I 234 W/m² 10,0 °C 13,0 °C 0,0 km/h (0 Bft)
24.09.2017 11:31 13,1 °C 13,1 °C 84 % 1019,4 hPa 0,0 mm 0,0 km/h (0 Bft) O-NO 61 ° 0 min 0,000 mm 1,7 UV-I 236 W/m² 10,5 °C 13,1 °C 0,0 km/h (0 Bft)
24.09.2017 11:32 13,1 °C 13,1 °C 84 % 1019,4 hPa 0,0 mm 0,0 km/h (0 Bft) O-NO 61 ° 0 min 0,000 mm 1,7 UV-I 237 W/m² 10,5 °C 13,1 °C 0,0 km/h (0 Bft)
24.09.2017 11:33 13,1 °C 13,1 °C 84 % 1019,4 hPa 0,0 mm 2,7 km/h (1 Bft) O-NO 59 ° 0 min 0,000 mm 1,7 UV-I 243 W/m² 10,5 °C 13,1 °C 3,2 km/h (1 Bft)
24.09.2017 11:34 13,2 °C 13,2 °C 85 % 1019,4 hPa 0,0 mm 2,5 km/h (1 Bft) O-NO 59 ° 0 min 0,000 mm 1,7 UV-I 246 W/m² 10,7 °C 13,2 °C 4,8 km/h (1 Bft)
24.09.2017 11:35 13,3 °C 13,3 °C 85 % 1019,4 hPa 0,0 mm 1,5 km/h (1 Bft) O-NO 59 ° 0 min 0,000 mm 1,8 UV-I 251 W/m² 10,8 °C 13,3 °C 3,2 km/h (1 Bft)
24.09.2017 11:36 13,3 °C 13,3 °C 85 % 1019,4 hPa 0,0 mm 0,0 km/h (0 Bft) O-NO 59 ° 0 min 0,000 mm 1,8 UV-I 257 W/m² 10,8 °C 13,3 °C 0,0 km/h (0 Bft)
24.09.2017 11:37 13,3 °C 13,3 °C 84 % 1019,4 hPa 0,0 mm 1,5 km/h (1 Bft) O-NO 59 ° 0 min 0,000 mm 1,8 UV-I 260 W/m² 10,7 °C 13,3 °C 3,2 km/h (1 Bft)
24.09.2017 11:38 13,3 °C 13,3 °C 84 % 1019,3 hPa 0,0 mm 2,4 km/h (1 Bft) O-NO 59 ° 0 min 0,000 mm 1,9 UV-I 267 W/m² 10,7 °C 13,3 °C 3,2 km/h (1 Bft)
24.09.2017 11:39 13,3 °C 13,3 °C 85 % 1019,4 hPa 0,0 mm 1,4 km/h (1 Bft) O-NO 59 ° 0 min 0,000 mm 1,9 UV-I 281 W/m² 10,8 °C 13,3 °C 3,2 km/h (1 Bft)
24.09.2017 11:40 13,3 °C 13,3 °C 84 % 1019,3 hPa 0,0 mm 0,3 km/h (0 Bft) O-NO 59 ° 0 min 0,000 mm 1,9 UV-I 283 W/m² 10,7 °C 13,3 °C 1,6 km/h (1 Bft)
24.09.2017 11:41 13,4 °C 13,4 °C 85 % 1019,4 hPa 0,0 mm 0,3 km/h (0 Bft) O-NO 59 ° 0 min 0,000 mm 1,8 UV-I 272 W/m² 10,9 °C 13,4 °C 1,6 km/h (1 Bft)
24.09.2017 11:42 13,4 °C 13,4 °C 84 % 1019,4 hPa 0,0 mm 1,3 km/h (1 Bft) O-NO 59 ° 0 min 0,000 mm 1,7 UV-I 265 W/m² 10,8 °C 13,4 °C 3,2 km/h (1 Bft)
24.09.2017 11:43 13,4 °C 13,4 °C 84 % 1019,3 hPa 0,0 mm 2,3 km/h (1 Bft) NO 52 ° 0 min 0,000 mm 1,7 UV-I 257 W/m² 10,8 °C 13,4 °C 4,8 km/h (1 Bft)
24.09.2017 11:44 13,4 °C 13,5 °C 84 % 1019,4 hPa 0,0 mm 1,0 km/h (0 Bft) NO 52 ° 0 min 0,000 mm 1,5 UV-I 230 W/m² 10,8 °C 13,4 °C 3,2 km/h (1 Bft)
24.09.2017 11:45 13,4 °C 13,4 °C 84 % 1019,4 hPa 0,0 mm 1,3 km/h (1 Bft) NO 52 ° 0 min 0,000 mm 1,4 UV-I 192 W/m² 10,8 °C 13,4 °C 3,2 km/h (1 Bft)
24.09.2017 11:46 13,4 °C 13,4 °C 83 % 1019,4 hPa 0,0 mm 0,3 km/h (0 Bft) NO 52 ° 0 min 0,000 mm 1,3 UV-I 181 W/m² 10,6 °C 13,4 °C 1,6 km/h (1 Bft)
24.09.2017 11:47 13,4 °C 13,4 °C 84 % 1019,4 hPa 0,0 mm 0,0 km/h (0 Bft) NO 52 ° 0 min 0,000 mm 1,2 UV-I 174 W/m² 10,8 °C 13,4 °C 0,0 km/h (0 Bft)
24.09.2017 11:48 13,4 °C 13,4 °C 84 % 1019,4 hPa 0,0 mm 1,5 km/h (1 Bft) NO 51 ° 0 min 0,000 mm 1,2 UV-I 167 W/m² 10,8 °C 13,4 °C 3,2 km/h (1 Bft)
24.09.2017 11:49 13,4 °C 13,4 °C 84 % 1019,4 hPa 0,0 mm 0,0 km/h (0 Bft) NO 51 ° 0 min 0,000 mm 1,2 UV-I 163 W/m² 10,8 °C 13,4 °C 0,0 km/h (0 Bft)
24.09.2017 11:50 13,4 °C 13,4 °C 84 % 1019,4 hPa 0,0 mm 0,1 km/h (0 Bft) NO 51 ° 0 min 0,000 mm 1,1 UV-I 162 W/m² 10,8 °C 13,4 °C 1,6 km/h (1 Bft)
24.09.2017 11:51 13,3 °C 13,4 °C 84 % 1019,4 hPa 0,0 mm 0,0 km/h (0 Bft) NO 51 ° 0 min 0,000 mm 1,1 UV-I 160 W/m² 10,7 °C 13,3 °C 0,0 km/h (0 Bft)
24.09.2017 11:52 13,4 °C 13,4 °C 84 % 1019,4 hPa 0,0 mm 3,0 km/h (1 Bft) NO 51 ° 0 min 0,000 mm 1,1 UV-I 155 W/m² 10,8 °C 13,4 °C 4,8 km/h (1 Bft)
24.09.2017 11:53 13,4 °C 13,4 °C 84 % 1019,4 hPa 0,0 mm 2,1 km/h (1 Bft) NO 51 ° 0 min 0,000 mm 1,0 UV-I 149 W/m² 10,8 °C 13,4 °C 4,8 km/h (1 Bft)
24.09.2017 11:54 13,4 °C 13,4 °C 82 % 1019,4 hPa 0,0 mm 2,9 km/h (1 Bft) O-NO 75 ° 0 min 0,000 mm 0,9 UV-I 141 W/m² 10,4 °C 13,4 °C 4,8 km/h (1 Bft)
24.09.2017 11:55 13,4 °C 13,4 °C 82 % 1019,4 hPa 0,0 mm 4,8 km/h (1 Bft) N 355 ° 0 min 0,000 mm 0,9 UV-I 127 W/m² 10,4 °C 13,4 °C 8,0 km/h (2 Bft)
24.09.2017 11:56 13,4 °C 13,4 °C 82 % 1019,4 hPa 0,0 mm 5,2 km/h (1 Bft) N 360 ° 0 min 0,000 mm 0,8 UV-I 114 W/m² 10,4 °C 13,4 °C 6,4 km/h (2 Bft)
24.09.2017 11:57 13,4 °C 13,4 °C 81 % 1019,4 hPa 0,0 mm 5,4 km/h (1 Bft) N-NO 33 ° 0 min 0,000 mm 0,7 UV-I 100 W/m² 10,2 °C 13,4 °C 6,4 km/h (2 Bft)
24.09.2017 11:58 13,3 °C 13,4 °C 82 % 1019,4 hPa 0,0 mm 2,3 km/h (1 Bft) NO 46 ° 0 min 0,000 mm 0,7 UV-I 95 W/m² 10,3 °C 13,3 °C 6,4 km/h (2 Bft)
24.09.2017 11:59 13,3 °C 13,3 °C 82 % 1019,4 hPa 0,0 mm 2,9 km/h (1 Bft) NO 44 ° 0 min 0,000 mm 0,6 UV-I 90 W/m² 10,3 °C 13,3 °C 4,8 km/h (1 Bft)
24.09.2017 12:00 13,3 °C 13,3 °C 81 % 1019,4 hPa 0,0 mm 2,3 km/h (1 Bft) NO 44 ° 0 min 0,000 mm 0,7 UV-I 90 W/m² 10,1 °C 13,3 °C 3,2 km/h (1 Bft)
24.09.2017 12:01 13,3 °C 13,3 °C 82 % 1019,4 hPa 0,0 mm 2,0 km/h (1 Bft) NO 44 ° 0 min 0,102 mm 0,7 UV-I 91 W/m² 10,3 °C 13,3 °C 4,8 km/h (1 Bft)
24.09.2017 12:03 13,2 °C 13,3 °C 84 % 1019,4 hPa 0,0 mm 3,8 km/h (1 Bft) NO 38 ° 0 min 0,000 mm 0,7 UV-I 100 W/m² 10,6 °C 13,2 °C 6,4 km/h (2 Bft)
24.09.2017 12:04 13,2 °C 13,3 °C 84 % 1019,4 hPa 0,0 mm 3,6 km/h (1 Bft) N-NO 28 ° 0 min 0,000 mm 0,8 UV-I 105 W/m² 10,6 °C 13,2 °C 6,4 km/h (2 Bft)
24.09.2017 12:05 13,2 °C 13,2 °C 84 % 1019,4 hPa 0,0 mm 1,8 km/h (1 Bft) N-NO 28 ° 0 min 0,000 mm 0,9 UV-I 111 W/m² 10,6 °C 13,2 °C 3,2 km/h (1 Bft)
24.09.2017 12:06 13,1 °C 13,2 °C 85 % 1019,4 hPa 0,0 mm 1,9 km/h (1 Bft) N-NO 28 ° 0 min 0,000 mm 0,9 UV-I 114 W/m² 10,6 °C 13,1 °C 3,2 km/h (1 Bft)
24.09.2017 12:07 13,0 °C 13,1 °C 85 % 1019,4 hPa 0,0 mm 3,2 km/h (1 Bft) N-NO 28 ° 0 min 0,000 mm 1,0 UV-I 116 W/m² 10,5 °C 13,0 °C 4,8 km/h (1 Bft)
24.09.2017 12:08 12,9 °C 13,0 °C 85 % 1019,4 hPa 0,0 mm 1,5 km/h (1 Bft) N-NO 28 ° 0 min 0,000 mm 1,0 UV-I 118 W/m² 10,4 °C 12,9 °C 3,2 km/h (1 Bft)
24.09.2017 12:09 12,9 °C 12,9 °C 85 % 1019,3 hPa 0,0 mm 1,5 km/h (1 Bft) N-NO 28 ° 0 min 0,000 mm 1,0 UV-I 123 W/m² 10,4 °C 12,9 °C 4,8 km/h (1 Bft)
24.09.2017 12:10 12,8 °C 12,9 °C 85 % 1019,4 hPa 0,0 mm 0,9 km/h (0 Bft) N-NO 28 ° 0 min 0,000 mm 1,1 UV-I 127 W/m² 10,3 °C 12,8 °C 3,2 km/h (1 Bft)
24.09.2017 12:11 12,8 °C 12,8 °C 86 % 1019,4 hPa 0,0 mm 0,2 km/h (0 Bft) N-NO 28 ° 0 min 0,000 mm 1,2 UV-I 132 W/m² 10,5 °C 12,8 °C 1,6 km/h (1 Bft)
24.09.2017 12:12 12,8 °C 12,8 °C 85 % 1019,4 hPa 0,0 mm 0,3 km/h (0 Bft) N-NO 28 ° 0 min 0,000 mm 1,2 UV-I 139 W/m² 10,3 °C 12,8 °C 1,6 km/h (1 Bft)
24.09.2017 12:13 12,7 °C 12,8 °C 84 % 1019,3 hPa 0,0 mm 0,9 km/h (0 Bft) N-NO 28 ° 0 min 0,000 mm 1,3 UV-I 146 W/m² 10,1 °C 12,7 °C 3,2 km/h (1 Bft)
24.09.2017 12:14 12,7 °C 12,7 °C 85 % 1019,4 hPa 0,0 mm 1,1 km/h (1 Bft) NO 38 ° 0 min 0,000 mm 1,3 UV-I 158 W/m² 10,2 °C 12,7 °C 3,2 km/h (1 Bft)
24.09.2017 12:15 12,7 °C 12,7 °C 85 % 1019,4 hPa 0,0 mm 1,0 km/h (0 Bft) NO 37 ° 0 min 0,000 mm 1,3 UV-I 167 W/m² 10,2 °C 12,7 °C 3,2 km/h (1 Bft)
24.09.2017 12:16 12,7 °C 12,7 °C 84 % 1019,4 hPa 0,0 mm 0,3 km/h (0 Bft) NO 37 ° 0 min 0,000 mm 1,4 UV-I 172 W/m² 10,1 °C 12,7 °C 1,6 km/h (1 Bft)
24.09.2017 12:17 12,7 °C 12,7 °C 85 % 1019,4 hPa 0,0 mm 0,0 km/h (0 Bft) NO 37 ° 0 min 0,000 mm 1,5 UV-I 179 W/m² 10,2 °C 12,7 °C 0,0 km/h (0 Bft)
24.09.2017 12:18 12,7 °C 12,7 °C 85 % 1019,4 hPa 0,0 mm 0,4 km/h (0 Bft) NO 37 ° 0 min 0,000 mm 1,6 UV-I 186 W/m² 10,2 °C 12,7 °C 1,6 km/h (1 Bft)
24.09.2017 12:19 12,7 °C 12,7 °C 85 % 1019,3 hPa 0,0 mm 0,0 km/h (0 Bft) NO 37 ° 0 min 0,000 mm 1,6 UV-I 195 W/m² 10,2 °C 12,7 °C 0,0 km/h (0 Bft)
24.09.2017 12:20 12,7 °C 12,7 °C 86 % 1019,4 hPa 0,0 mm 0,1 km/h (0 Bft) NO 37 ° 0 min 0,000 mm 1,7 UV-I 221 W/m² 10,4 °C 12,7 °C 1,6 km/h (1 Bft)
24.09.2017 12:21 12,8 °C 12,8 °C 87 % 1019,3 hPa 0,0 mm 0,0 km/h (0 Bft) NO 37 ° 0 min 0,000 mm 1,9 UV-I 229 W/m² 10,7 °C 12,8 °C 0,0 km/h (0 Bft)
24.09.2017 12:22 12,8 °C 12,8 °C 85 % 1019,3 hPa 0,0 mm 0,1 km/h (0 Bft) NO 37 ° 0 min 0,000 mm 1,9 UV-I 237 W/m² 10,3 °C 12,8 °C 1,6 km/h (1 Bft)
24.09.2017 12:23 12,8 °C 12,8 °C 85 % 1019,4 hPa 0,0 mm 0,1 km/h (0 Bft) NO 37 ° 0 min 0,000 mm 2,0 UV-I 250 W/m² 10,3 °C 12,8 °C 1,6 km/h (1 Bft)
24.09.2017 12:24 12,8 °C 12,8 °C 85 % 1019,4 hPa 0,0 mm 0,0 km/h (0 Bft) NO 37 ° 1 min 0,000 mm 2,2 UV-I 299 W/m² 10,3 °C 12,8 °C 0,0 km/h (0 Bft)
24.09.2017 12:25 12,8 °C 12,8 °C 86 % 1019,4 hPa 0,0 mm 0,0 km/h (0 Bft) NO 37 ° 1 min 0,000 mm 2,3 UV-I 308 W/m² 10,5 °C 12,8 °C 0,0 km/h (0 Bft)
24.09.2017 12:26 12,9 °C 12,9 °C 88 % 1019,3 hPa 0,0 mm 0,2 km/h (0 Bft) NO 37 ° 0 min 0,000 mm 2,3 UV-I 281 W/m² 11,0 °C 12,9 °C 1,6 km/h (1 Bft)
24.09.2017 12:27 12,9 °C 12,9 °C 86 % 1019,3 hPa 0,0 mm 0,9 km/h (0 Bft) NO 37 ° 0 min 0,000 mm 2,4 UV-I 285 W/m² 10,6 °C 12,9 °C 3,2 km/h (1 Bft)
24.09.2017 12:28 12,9 °C 12,9 °C 86 % 1019,3 hPa 0,0 mm 3,2 km/h (1 Bft) NO 37 ° 0 min 0,000 mm 2,4 UV-I 276 W/m² 10,6 °C 12,9 °C 4,8 km/h (1 Bft)
24.09.2017 12:29 12,9 °C 12,9 °C 87 % 1019,3 hPa 0,0 mm 1,5 km/h (1 Bft) NO 37 ° 0 min 0,000 mm 2,6 UV-I 288 W/m² 10,8 °C 12,9 °C 4,8 km/h (1 Bft)
24.09.2017 12:30 12,9 °C 12,9 °C 86 % 1019,3 hPa 0,0 mm 0,1 km/h (0 Bft) NO 37 ° 0 min 0,000 mm 3,5 UV-I 288 W/m² 10,6 °C 12,9 °C 1,6 km/h (1 Bft)
24.09.2017 12:31 13,1 °C 13,1 °C 87 % 1019,3 hPa 0,0 mm 1,9 km/h (1 Bft) NO 37 ° 1 min 0,000 mm 3,7 UV-I 707 W/m² 11,0 °C 13,1 °C 3,2 km/h (1 Bft)
24.09.2017 12:32 13,2 °C 13,2 °C 86 % 1019,3 hPa 0,0 mm 0,2 km/h (0 Bft) NO 37 ° 1 min 0,000 mm 3,6 UV-I 656 W/m² 10,9 °C 13,2 °C 1,6 km/h (1 Bft)
24.09.2017 12:33 13,2 °C 13,2 °C 85 % 1019,3 hPa 0,0 mm 1,6 km/h (1 Bft) NO 38 ° 1 min 0,000 mm 3,7 UV-I 656 W/m² 10,7 °C 13,2 °C 3,2 km/h (1 Bft)
24.09.2017 12:34 13,3 °C 13,3 °C 87 % 1019,3 hPa 0,0 mm 2,1 km/h (1 Bft) NO 38 ° 1 min 0,000 mm 3,3 UV-I 656 W/m² 11,2 °C 13,3 °C 3,2 km/h (1 Bft)
24.09.2017 12:35 13,3 °C 13,3 °C 86 % 1019,3 hPa 0,0 mm 1,3 km/h (1 Bft) NO 38 ° 1 min 0,000 mm 3,3 UV-I 656 W/m² 11,0 °C 13,3 °C 3,2 km/h (1 Bft)
24.09.2017 12:36 13,3 °C 13,3 °C 86 % 1019,3 hPa 0,0 mm 0,2 km/h (0 Bft) NO 38 ° 1 min 0,000 mm 2,5 UV-I 656 W/m² 11,0 °C 13,3 °C 1,6 km/h (1 Bft)
24.09.2017 12:37 13,3 °C 13,3 °C 87 % 1019,4 hPa 0,0 mm 2,1 km/h (1 Bft) NO 38 ° 0 min 0,000 mm 2,5 UV-I 276 W/m² 11,2 °C 13,3 °C 3,2 km/h (1 Bft)
24.09.2017 12:38 13,3 °C 13,4 °C 86 % 1019,4 hPa 0,0 mm 0,5 km/h (0 Bft) NO 38 ° 1 min 0,000 mm 2,6 UV-I 302 W/m² 11,0 °C 13,3 °C 3,2 km/h (1 Bft)
24.09.2017 12:39 13,3 °C 13,3 °C 86 % 1019,4 hPa 0,0 mm 0,6 km/h (0 Bft) NO 38 ° 1 min 0,000 mm 2,6 UV-I 299 W/m² 11,0 °C 13,3 °C 1,6 km/h (1 Bft)
24.09.2017 12:40 13,3 °C 13,3 °C 87 % 1019,3 hPa 0,0 mm 1,1 km/h (1 Bft) NO 38 ° 1 min 0,000 mm 2,5 UV-I 290 W/m² 11,2 °C 13,3 °C 3,2 km/h (1 Bft)
24.09.2017 12:41 13,2 °C 13,3 °C 86 % 1019,3 hPa 0,0 mm 0,2 km/h (0 Bft) NO 38 ° 0 min 0,000 mm 2,4 UV-I 285 W/m² 10,9 °C 13,2 °C 1,6 km/h (1 Bft)
24.09.2017 12:42 13,2 °C 13,3 °C 86 % 1019,4 hPa 0,0 mm 1,6 km/h (1 Bft) NO 37 ° 0 min 0,000 mm 2,3 UV-I 257 W/m² 10,9 °C 13,2 °C 3,2 km/h (1 Bft)
24.09.2017 12:43 13,3 °C 13,3 °C 87 % 1019,4 hPa 0,0 mm 3,8 km/h (1 Bft) NO 37 ° 0 min 0,000 mm 2,2 UV-I 211 W/m² 11,2 °C 13,3 °C 4,8 km/h (1 Bft)
24.09.2017 12:44 13,3 °C 13,3 °C 87 % 1019,3 hPa 0,0 mm 3,8 km/h (1 Bft) N-NO 29 ° 0 min 0,000 mm 2,0 UV-I 193 W/m² 11,2 °C 13,3 °C 4,8 km/h (1 Bft)
24.09.2017 12:45 13,3 °C 13,4 °C 86 % 1019,4 hPa 0,0 mm 1,0 km/h (0 Bft) N-NO 29 ° 0 min 0,000 mm 1,9 UV-I 183 W/m² 11,0 °C 13,3 °C 3,2 km/h (1 Bft)
24.09.2017 12:46 13,2 °C 13,3 °C 85 % 1019,3 hPa 0,0 mm 0,0 km/h (0 Bft) N-NO 29 ° 0 min 0,000 mm 1,8 UV-I 174 W/m² 10,7 °C 13,2 °C 0,0 km/h (0 Bft)
24.09.2017 12:47 13,2 °C 13,2 °C 85 % 1019,3 hPa 0,0 mm 0,0 km/h (0 Bft) N-NO 29 ° 0 min 0,000 mm 1,8 UV-I 169 W/m² 10,7 °C 13,2 °C 0,0 km/h (0 Bft)
24.09.2017 12:48 13,1 °C 13,2 °C 84 % 1019,3 hPa 0,0 mm 0,0 km/h (0 Bft) N-NO 29 ° 0 min 0,000 mm 1,8 UV-I 162 W/m² 10,5 °C 13,1 °C 0,0 km/h (0 Bft)
24.09.2017 12:49 13,2 °C 13,2 °C 84 % 1019,3 hPa 0,0 mm 0,0 km/h (0 Bft) N-NO 29 ° 0 min 0,000 mm 1,8 UV-I 153 W/m² 10,6 °C 13,2 °C 0,0 km/h (0 Bft)
24.09.2017 12:50 13,1 °C 13,2 °C 84 % 1019,3 hPa 0,0 mm 0,0 km/h (0 Bft) N-NO 29 ° 0 min 0,000 mm 1,7 UV-I 149 W/m² 10,5 °C 13,1 °C 0,0 km/h (0 Bft)
24.09.2017 12:51 13,2 °C 13,2 °C 84 % 1019,3 hPa 0,0 mm 0,0 km/h (0 Bft) N-NO 29 ° 0 min 0,000 mm 1,7 UV-I 142 W/m² 10,6 °C 13,2 °C 0,0 km/h (0 Bft)
24.09.2017 12:52 13,2 °C 13,2 °C 84 % 1019,3 hPa 0,0 mm 0,0 km/h (0 Bft) N-NO 29 ° 0 min 0,000 mm 1,7 UV-I 141 W/m² 10,6 °C 13,2 °C 0,0 km/h (0 Bft)
24.09.2017 12:53 13,2 °C 13,2 °C 84 % 1019,3 hPa 0,0 mm 0,2 km/h (0 Bft) N-NO 29 ° 0 min 0,000 mm 1,7 UV-I 137 W/m² 10,6 °C 13,2 °C 1,6 km/h (1 Bft)
24.09.2017 12:54 13,2 °C 13,2 °C 85 % 1019,3 hPa 0,0 mm 0,0 km/h (0 Bft) N-NO 29 ° 0 min 0,000 mm 1,7 UV-I 134 W/m² 10,7 °C 13,2 °C 0,0 km/h (0 Bft)
24.09.2017 12:55 13,3 °C 13,3 °C 86 % 1019,3 hPa 0,0 mm 0,0 km/h (0 Bft) N-NO 29 ° 0 min 0,000 mm 1,6 UV-I 128 W/m² 11,0 °C 13,3 °C 0,0 km/h (0 Bft)
24.09.2017 12:56 13,2 °C 13,3 °C 85 % 1019,3 hPa 0,0 mm 1,2 km/h (1 Bft) N-NO 29 ° 0 min 0,000 mm 1,6 UV-I 121 W/m² 10,7 °C 13,2 °C 1,6 km/h (1 Bft)
24.09.2017 12:57 13,3 °C 13,3 °C 85 % 1019,3 hPa 0,0 mm 1,3 km/h (1 Bft) N-NO 29 ° 0 min 0,000 mm 1,6 UV-I 120 W/m² 10,8 °C 13,3 °C 1,6 km/h (1 Bft)
24.09.2017 12:58 13,2 °C 13,3 °C 86 % 1019,3 hPa 0,0 mm 2,5 km/h (1 Bft) N-NO 17 ° 0 min 0,000 mm 1,6 UV-I 120 W/m² 10,9 °C 13,2 °C 3,2 km/h (1 Bft)
24.09.2017 12:59 13,2 °C 13,2 °C 85 % 1019,3 hPa 0,0 mm 2,0 km/h (1 Bft) N 350 ° 0 min 0,000 mm 1,6 UV-I 118 W/m² 10,7 °C 13,2 °C 3,2 km/h (1 Bft)
24.09.2017 13:00 13,2 °C 13,2 °C 86 % 1019,3 hPa 0,0 mm 2,5 km/h (1 Bft) N 350 ° 0 min 0,000 mm 1,6 UV-I 116 W/m² 10,9 °C 13,2 °C 3,2 km/h (1 Bft)
24.09.2017 13:01 13,2 °C 13,2 °C 86 % 1019,3 hPa 0,0 mm 0,4 km/h (0 Bft) N 350 ° 0 min 0,127 mm 1,5 UV-I 107 W/m² 10,9 °C 13,2 °C 1,6 km/h (1 Bft)
24.09.2017 13:02 13,2 °C 13,2 °C 86 % 1019,4 hPa 0,0 mm 0,0 km/h (0 Bft) N 350 ° 0 min 0,000 mm 1,5 UV-I 107 W/m² 10,9 °C 13,2 °C 0,0 km/h (0 Bft)
24.09.2017 13:03 13,2 °C 13,2 °C 86 % 1019,4 hPa 0,0 mm 1,5 km/h (1 Bft) N-NW 327 ° 0 min 0,000 mm 1,4 UV-I 105 W/m² 10,9 °C 13,2 °C 4,8 km/h (1 Bft)
24.09.2017 13:04 13,2 °C 13,2 °C 86 % 1019,4 hPa 0,0 mm 3,2 km/h (1 Bft) NW 315 ° 0 min 0,000 mm 1,4 UV-I 104 W/m² 10,9 °C 13,2 °C 4,8 km/h (1 Bft)
24.09.2017 13:05 13,2 °C 13,2 °C 84 % 1019,4 hPa 0,0 mm 5,0 km/h (1 Bft) W-NW 294 ° 0 min 0,000 mm 1,4 UV-I 104 W/m² 10,6 °C 13,2 °C 8,0 km/h (2 Bft)
24.09.2017 13:06 13,1 °C 13,2 °C 84 % 1019,5 hPa 0,0 mm 4,8 km/h (1 Bft) W-NW 289 ° 0 min 0,000 mm 1,3 UV-I 104 W/m² 10,5 °C 13,1 °C 9,7 km/h (2 Bft)
24.09.2017 13:07 13,1 °C 13,2 °C 85 % 1019,4 hPa 0,0 mm 3,7 km/h (1 Bft) W 271 ° 0 min 0,000 mm 1,3 UV-I 105 W/m² 10,6 °C 13,1 °C 6,4 km/h (2 Bft)
24.09.2017 13:08 13,1 °C 13,2 °C 84 % 1019,4 hPa 0,0 mm 4,0 km/h (1 Bft) W 267 ° 0 min 0,000 mm 1,3 UV-I 107 W/m² 10,5 °C 13,1 °C 6,4 km/h (2 Bft)
24.09.2017 13:09 13,0 °C 13,1 °C 83 % 1019,4 hPa 0,0 mm 6,1 km/h (2 Bft) W 263 ° 0 min 0,000 mm 1,3 UV-I 113 W/m² 10,2 °C 13,0 °C 9,7 km/h (2 Bft)
24.09.2017 13:10 12,9 °C 13,0 °C 84 % 1019,4 hPa 0,0 mm 3,0 km/h (1 Bft) W 280 ° 0 min 0,000 mm 1,4 UV-I 120 W/m² 10,3 °C 12,9 °C 4,8 km/h (1 Bft)
24.09.2017 13:11 12,9 °C 12,9 °C 85 % 1019,4 hPa 0,0 mm 4,2 km/h (1 Bft) W-SW 258 ° 0 min 0,000 mm 1,4 UV-I 125 W/m² 10,4 °C 12,9 °C 4,8 km/h (1 Bft)
24.09.2017 13:12 12,9 °C 12,9 °C 84 % 1019,4 hPa 0,0 mm 1,8 km/h (1 Bft) W 263 ° 0 min 0,000 mm 1,4 UV-I 132 W/m² 10,3 °C 12,9 °C 3,2 km/h (1 Bft)
24.09.2017 13:13 12,8 °C 12,9 °C 84 % 1019,4 hPa 0,0 mm 0,4 km/h (0 Bft) W 259 ° 0 min 0,000 mm 1,5 UV-I 146 W/m² 10,2 °C 12,8 °C 3,2 km/h (1 Bft)
24.09.2017 13:14 12,8 °C 12,8 °C 83 % 1019,3 hPa 0,0 mm 1,6 km/h (1 Bft) W 259 ° 0 min 0,000 mm 1,5 UV-I 149 W/m² 10,0 °C 12,8 °C 3,2 km/h (1 Bft)
24.09.2017 13:15 12,8 °C 12,8 °C 84 % 1019,3 hPa 0,0 mm 2,5 km/h (1 Bft) W-SW 257 ° 0 min 0,000 mm 1,5 UV-I 148 W/m² 10,2 °C 12,8 °C 4,8 km/h (1 Bft)
24.09.2017 13:16 12,8 °C 12,8 °C 84 % 1019,4 hPa 0,0 mm 1,7 km/h (1 Bft) W-SW 244 ° 0 min 0,000 mm 1,5 UV-I 148 W/m² 10,2 °C 12,8 °C 3,2 km/h (1 Bft)
24.09.2017 13:17 12,8 °C 12,8 °C 82 % 1019,3 hPa 0,0 mm 3,4 km/h (1 Bft) S 190 ° 0 min 0,000 mm 1,5 UV-I 149 W/m² 9,8 °C 12,8 °C 6,4 km/h (2 Bft)
24.09.2017 13:18 12,8 °C 12,8 °C 83 % 1019,3 hPa 0,0 mm 0,0 km/h (0 Bft) S 190 ° 0 min 0,000 mm 1,5 UV-I 151 W/m² 10,0 °C 12,8 °C 0,0 km/h (0 Bft)
24.09.2017 13:19 12,8 °C 12,8 °C 83 % 1019,3 hPa 0,0 mm 1,3 km/h (1 Bft) S 190 ° 0 min 0,000 mm 1,6 UV-I 155 W/m² 10,0 °C 12,8 °C 3,2 km/h (1 Bft)
24.09.2017 13:20 12,8 °C 12,8 °C 83 % 1019,2 hPa 0,0 mm 2,1 km/h (1 Bft) W-SW 250 ° 0 min 0,000 mm 1,6 UV-I 158 W/m² 10,0 °C 12,8 °C 3,2 km/h (1 Bft)
24.09.2017 13:21 12,8 °C 12,8 °C 84 % 1019,3 hPa 0,0 mm 3,6 km/h (1 Bft) W-SW 250 ° 0 min 0,000 mm 1,6 UV-I 160 W/m² 10,2 °C 12,8 °C 4,8 km/h (1 Bft)
24.09.2017 13:22 12,8 °C 12,8 °C 84 % 1019,3 hPa 0,0 mm 3,2 km/h (1 Bft) W-SW 250 ° 0 min 0,000 mm 1,7 UV-I 165 W/m² 10,2 °C 12,8 °C 4,8 km/h (1 Bft)
24.09.2017 13:23 12,8 °C 12,8 °C 84 % 1019,3 hPa 0,0 mm 1,9 km/h (1 Bft) W-SW 250 ° 0 min 0,000 mm 1,7 UV-I 171 W/m² 10,2 °C 12,8 °C 3,2 km/h (1 Bft)
24.09.2017 13:24 12,8 °C 12,8 °C 84 % 1019,2 hPa 0,0 mm 0,9 km/h (0 Bft) SW 227 ° 0 min 0,000 mm 1,8 UV-I 178 W/m² 10,2 °C 12,8 °C 3,2 km/h (1 Bft)
24.09.2017 13:25 12,9 °C 12,9 °C 84 % 1019,2 hPa 0,0 mm 0,4 km/h (0 Bft) SW 227 ° 0 min 0,000 mm 1,8 UV-I 190 W/m² 10,3 °C 12,9 °C 1,6 km/h (1 Bft)
24.09.2017 13:26 12,9 °C 12,9 °C 84 % 1019,3 hPa 0,0 mm 0,4 km/h (0 Bft) SW 227 ° 0 min 0,000 mm 1,8 UV-I 195 W/m² 10,3 °C 12,9 °C 1,6 km/h (1 Bft)
24.09.2017 13:27 12,9 °C 12,9 °C 85 % 1019,3 hPa 0,0 mm 2,0 km/h (1 Bft) W 261 ° 0 min 0,000 mm 1,9 UV-I 204 W/m² 10,4 °C 12,9 °C 3,2 km/h (1 Bft)
24.09.2017 13:28 13,1 °C 13,1 °C 84 % 1019,3 hPa 0,0 mm 2,2 km/h (1 Bft) W-SW 246 ° 0 min 0,000 mm 2,0 UV-I 213 W/m² 10,5 °C 13,1 °C 3,2 km/h (1 Bft)
24.09.2017 13:29 13,1 °C 13,1 °C 83 % 1019,3 hPa 0,0 mm 2,2 km/h (1 Bft) W-SW 243 ° 0 min 0,000 mm 2,0 UV-I 221 W/m² 10,3 °C 13,1 °C 3,2 km/h (1 Bft)
24.09.2017 13:30 13,1 °C 13,1 °C 84 % 1019,2 hPa 0,0 mm 2,9 km/h (1 Bft) W 272 ° 0 min 0,000 mm 2,1 UV-I 230 W/m² 10,5 °C 13,1 °C 4,8 km/h (1 Bft)
24.09.2017 13:31 13,1 °C 13,1 °C 84 % 1019,2 hPa 0,0 mm 3,4 km/h (1 Bft) S-SW 198 ° 0 min 0,000 mm 2,1 UV-I 230 W/m² 10,5 °C 13,1 °C 4,8 km/h (1 Bft)
24.09.2017 13:32 13,1 °C 13,1 °C 83 % 1019,3 hPa 0,0 mm 2,3 km/h (1 Bft) W 268 ° 0 min 0,000 mm 2,1 UV-I 227 W/m² 10,3 °C 13,1 °C 4,8 km/h (1 Bft)
24.09.2017 13:33 13,1 °C 13,1 °C 83 % 1019,2 hPa 0,0 mm 2,5 km/h (1 Bft) S-SW 206 ° 0 min 0,000 mm 2,1 UV-I 227 W/m² 10,3 °C 13,1 °C 6,4 km/h (2 Bft)
24.09.2017 13:34 13,0 °C 13,1 °C 83 % 1019,2 hPa 0,0 mm 4,2 km/h (1 Bft) W 259 ° 0 min 0,000 mm 2,2 UV-I 236 W/m² 10,2 °C 13,0 °C 6,4 km/h (2 Bft)
24.09.2017 13:35 13,1 °C 13,1 °C 84 % 1019,2 hPa 0,0 mm 2,7 km/h (1 Bft) W-NW 296 ° 0 min 0,000 mm 2,3 UV-I 269 W/m² 10,5 °C 13,1 °C 6,4 km/h (2 Bft)
24.09.2017 13:36 13,1 °C 13,1 °C 84 % 1019,1 hPa 0,0 mm 3,4 km/h (1 Bft) SW 236 ° 1 min 0,000 mm 2,4 UV-I 299 W/m² 10,5 °C 13,1 °C 4,8 km/h (1 Bft)
24.09.2017 13:37 13,2 °C 13,2 °C 85 % 1019,1 hPa 0,0 mm 1,3 km/h (1 Bft) W-SW 240 ° 1 min 0,000 mm 2,6 UV-I 350 W/m² 10,7 °C 13,2 °C 3,2 km/h (1 Bft)
24.09.2017 13:38 13,2 °C 13,2 °C 83 % 1019,2 hPa 0,0 mm 4,5 km/h (1 Bft) W 278 ° 1 min 0,000 mm 2,7 UV-I 350 W/m² 10,4 °C 13,2 °C 6,4 km/h (2 Bft)
24.09.2017 13:39 13,3 °C 13,3 °C 82 % 1019,1 hPa 0,0 mm 5,1 km/h (1 Bft) S-SW 213 ° 1 min 0,000 mm 2,5 UV-I 431 W/m² 10,3 °C 13,3 °C 8,0 km/h (2 Bft)
24.09.2017 13:40 13,2 °C 13,3 °C 80 % 1019,1 hPa 0,0 mm 3,8 km/h (1 Bft) S-SW 197 ° 1 min 0,000 mm 2,4 UV-I 431 W/m² 9,8 °C 13,2 °C 6,4 km/h (2 Bft)
24.09.2017 13:41 13,2 °C 13,2 °C 79 % 1019,1 hPa 0,0 mm 2,2 km/h (1 Bft) W-SW 243 ° 0 min 0,000 mm 2,4 UV-I 272 W/m² 9,6 °C 13,2 °C 4,8 km/h (1 Bft)
24.09.2017 13:42 13,2 °C 13,2 °C 80 % 1019,1 hPa 0,0 mm 2,5 km/h (1 Bft) W 259 ° 0 min 0,000 mm 2,4 UV-I 250 W/m² 9,8 °C 13,2 °C 4,8 km/h (1 Bft)
24.09.2017 13:43 13,3 °C 13,3 °C 81 % 1019,1 hPa 0,0 mm 2,4 km/h (1 Bft) W-SW 257 ° 0 min 0,000 mm 2,4 UV-I 241 W/m² 10,1 °C 13,3 °C 4,8 km/h (1 Bft)
24.09.2017 13:44 13,3 °C 13,3 °C 79 % 1019,1 hPa 0,0 mm 2,2 km/h (1 Bft) W 265 ° 0 min 0,000 mm 2,8 UV-I 265 W/m² 9,7 °C 13,3 °C 3,2 km/h (1 Bft)
24.09.2017 13:45 13,3 °C 13,3 °C 81 % 1019,1 hPa 0,0 mm 2,5 km/h (1 Bft) W 265 ° 0 min 0,000 mm 2,4 UV-I 250 W/m² 10,1 °C 13,3 °C 4,8 km/h (1 Bft)
24.09.2017 13:46 13,4 °C 13,4 °C 80 % 1019,0 hPa 0,0 mm 2,7 km/h (1 Bft) W 260 ° 0 min 0,000 mm 2,5 UV-I 253 W/m² 10,0 °C 13,4 °C 4,8 km/h (1 Bft)
24.09.2017 13:47 13,4 °C 13,4 °C 78 % 1019,1 hPa 0,0 mm 3,1 km/h (1 Bft) S-SW 204 ° 0 min 0,000 mm 2,4 UV-I 248 W/m² 9,6 °C 13,4 °C 4,8 km/h (1 Bft)
24.09.2017 13:48 13,4 °C 13,4 °C 77 % 1019,1 hPa 0,0 mm 1,5 km/h (1 Bft) W 259 ° 1 min 0,000 mm 2,5 UV-I 299 W/m² 9,5 °C 13,4 °C 3,2 km/h (1 Bft)
24.09.2017 13:49 13,4 °C 13,4 °C 77 % 1019,2 hPa 0,0 mm 1,9 km/h (1 Bft) W-SW 255 ° 1 min 0,000 mm 2,5 UV-I 294 W/m² 9,5 °C 13,4 °C 4,8 km/h (1 Bft)
24.09.2017 13:50 13,4 °C 13,4 °C 78 % 1019,1 hPa 0,0 mm 3,4 km/h (1 Bft) SW 223 ° 0 min 0,000 mm 2,4 UV-I 264 W/m² 9,6 °C 13,4 °C 4,8 km/h (1 Bft)
24.09.2017 13:51 13,4 °C 13,4 °C 76 % 1019,2 hPa 0,0 mm 2,5 km/h (1 Bft) W 265 ° 0 min 0,000 mm 2,4 UV-I 253 W/m² 9,3 °C 13,4 °C 4,8 km/h (1 Bft)
24.09.2017 13:52 13,4 °C 13,4 °C 75 % 1019,2 hPa 0,0 mm 3,9 km/h (1 Bft) S 187 ° 0 min 0,000 mm 2,4 UV-I 258 W/m² 9,1 °C 13,4 °C 6,4 km/h (2 Bft)
24.09.2017 13:53 13,3 °C 13,4 °C 75 % 1019,3 hPa 0,0 mm 1,9 km/h (1 Bft) S-SW 207 ° 0 min 0,000 mm 2,5 UV-I 269 W/m² 9,0 °C 13,3 °C 4,8 km/h (1 Bft)
24.09.2017 13:54 13,3 °C 13,3 °C 75 % 1019,3 hPa 0,0 mm 1,0 km/h (0 Bft) S-SW 206 ° 1 min 0,000 mm 2,5 UV-I 311 W/m² 9,0 °C 13,3 °C 3,2 km/h (1 Bft)
24.09.2017 13:55 13,3 °C 13,3 °C 76 % 1019,3 hPa 0,0 mm 1,7 km/h (1 Bft) SW 228 ° 1 min 0,000 mm 2,6 UV-I 332 W/m² 9,2 °C 13,3 °C 4,8 km/h (1 Bft)
24.09.2017 13:56 13,4 °C 13,4 °C 77 % 1019,3 hPa 0,0 mm 0,4 km/h (0 Bft) SW 228 ° 1 min 0,000 mm 2,8 UV-I 378 W/m² 9,5 °C 13,4 °C 1,6 km/h (1 Bft)
24.09.2017 13:57 13,4 °C 13,4 °C 76 % 1019,3 hPa 0,0 mm 4,4 km/h (1 Bft) S 186 ° 1 min 0,000 mm 2,5 UV-I 323 W/m² 9,3 °C 13,4 °C 6,4 km/h (2 Bft)
24.09.2017 13:58 13,4 °C 13,4 °C 77 % 1019,3 hPa 0,0 mm 2,0 km/h (1 Bft) S 187 ° 1 min 0,000 mm 2,4 UV-I 290 W/m² 9,5 °C 13,4 °C 4,8 km/h (1 Bft)
24.09.2017 13:59 13,5 °C 13,5 °C 79 % 1019,3 hPa 0,0 mm 3,1 km/h (1 Bft) W-SW 252 ° 0 min 0,000 mm 2,4 UV-I 285 W/m² 9,9 °C 13,5 °C 3,2 km/h (1 Bft)
24.09.2017 14:00 13,6 °C 13,6 °C 79 % 1019,4 hPa 0,0 mm 2,5 km/h (1 Bft) W 271 ° 0 min 0,000 mm 2,4 UV-I 287 W/m² 10,0 °C 13,6 °C 3,2 km/h (1 Bft)
24.09.2017 14:01 13,6 °C 13,6 °C 77 % 1019,3 hPa 0,0 mm 3,6 km/h (1 Bft) W 263 ° 1 min 0,127 mm 2,5 UV-I 301 W/m² 9,6 °C 13,6 °C 4,8 km/h (1 Bft)
24.09.2017 14:02 13,7 °C 13,7 °C 79 % 1019,3 hPa 0,0 mm 0,5 km/h (0 Bft) W 263 ° 1 min 0,000 mm 3,1 UV-I 301 W/m² 10,1 °C 13,7 °C 3,2 km/h (1 Bft)
24.09.2017 14:04 13,8 °C 13,8 °C 78 % 1019,4 hPa 0,0 mm 3,4 km/h (1 Bft) W 265 ° 2 min 0,000 mm 3,8 UV-I 729 W/m² 10,0 °C 13,8 °C 6,4 km/h (2 Bft)
24.09.2017 14:05 13,9 °C 13,9 °C 77 % 1019,3 hPa 0,0 mm 2,3 km/h (1 Bft) W 265 ° 1 min 0,000 mm 3,8 UV-I 728 W/m² 9,9 °C 13,9 °C 3,2 km/h (1 Bft)
24.09.2017 14:06 14,1 °C 14,1 °C 76 % 1019,3 hPa 0,0 mm 3,0 km/h (1 Bft) W-NW 284 ° 1 min 0,000 mm 3,9 UV-I 721 W/m² 9,9 °C 14,1 °C 4,8 km/h (1 Bft)
24.09.2017 14:07 14,2 °C 14,2 °C 77 % 1019,3 hPa 0,0 mm 3,9 km/h (1 Bft) W-NW 294 ° 1 min 0,000 mm 3,9 UV-I 717 W/m² 10,2 °C 14,2 °C 4,8 km/h (1 Bft)
24.09.2017 14:08 14,4 °C 14,4 °C 76 % 1019,3 hPa 0,0 mm 2,0 km/h (1 Bft) W 260 ° 1 min 0,000 mm 3,9 UV-I 715 W/m² 10,2 °C 14,4 °C 6,4 km/h (2 Bft)
24.09.2017 14:09 14,4 °C 14,4 °C 77 % 1019,3 hPa 0,0 mm 2,1 km/h (1 Bft) W 261 ° 1 min 0,000 mm 3,9 UV-I 703 W/m² 10,4 °C 14,4 °C 4,8 km/h (1 Bft)
24.09.2017 14:10 14,6 °C 14,6 °C 74 % 1019,3 hPa 0,0 mm 1,5 km/h (1 Bft) W 261 ° 1 min 0,000 mm 3,9 UV-I 710 W/m² 10,0 °C 14,6 °C 3,2 km/h (1 Bft)
24.09.2017 14:11 14,6 °C 14,6 °C 75 % 1019,2 hPa 0,0 mm 0,9 km/h (0 Bft) W 261 ° 1 min 0,000 mm 3,9 UV-I 747 W/m² 10,2 °C 14,6 °C 1,6 km/h (1 Bft)
24.09.2017 14:12 14,7 °C 14,7 °C 78 % 1019,3 hPa 0,0 mm 5,3 km/h (1 Bft) W-SW 249 ° 1 min 0,000 mm 3,9 UV-I 763 W/m² 10,9 °C 14,7 °C 6,4 km/h (2 Bft)
24.09.2017 14:13 14,4 °C 14,7 °C 75 % 1019,3 hPa 0,0 mm 3,2 km/h (1 Bft) W-NW 288 ° 1 min 0,000 mm 3,9 UV-I 754 W/m² 10,0 °C 14,4 °C 6,4 km/h (2 Bft)
24.09.2017 14:14 14,4 °C 14,4 °C 76 % 1019,3 hPa 0,0 mm 0,0 km/h (0 Bft) W-NW 288 ° 1 min 0,000 mm 3,7 UV-I 694 W/m² 10,2 °C 14,4 °C 0,0 km/h (0 Bft)
24.09.2017 14:15 14,4 °C 14,4 °C 77 % 1019,3 hPa 0,0 mm 2,4 km/h (1 Bft) W 261 ° 1 min 0,000 mm 4,0 UV-I 696 W/m² 10,4 °C 14,4 °C 3,2 km/h (1 Bft)
24.09.2017 14:16 14,4 °C 14,4 °C 77 % 1019,3 hPa 0,0 mm 2,8 km/h (1 Bft) W 261 ° 1 min 0,000 mm 3,9 UV-I 758 W/m² 10,4 °C 14,4 °C 3,2 km/h (1 Bft)
24.09.2017 14:17 14,4 °C 14,4 °C 77 % 1019,3 hPa 0,0 mm 5,5 km/h (1 Bft) W-NW 303 ° 1 min 0,000 mm 4,0 UV-I 773 W/m² 10,4 °C 14,4 °C 8,0 km/h (2 Bft)
24.09.2017 14:18 14,4 °C 14,4 °C 78 % 1019,3 hPa 0,0 mm 4,0 km/h (1 Bft) W-NW 294 ° 1 min 0,000 mm 4,0 UV-I 773 W/m² 10,6 °C 14,4 °C 6,4 km/h (2 Bft)
24.09.2017 14:19 14,4 °C 14,4 °C 75 % 1019,3 hPa 0,0 mm 1,9 km/h (1 Bft) W-NW 294 ° 1 min 0,000 mm 3,9 UV-I 773 W/m² 10,0 °C 14,4 °C 3,2 km/h (1 Bft)
24.09.2017 14:20 14,4 °C 14,4 °C 76 % 1019,3 hPa 0,0 mm 2,7 km/h (1 Bft) W-NW 294 ° 1 min 0,000 mm 3,8 UV-I 756 W/m² 10,2 °C 14,4 °C 3,2 km/h (1 Bft)
24.09.2017 14:21 14,6 °C 14,6 °C 78 % 1019,3 hPa 0,0 mm 4,3 km/h (1 Bft) NW 317 ° 1 min 0,000 mm 3,7 UV-I 737 W/m² 10,8 °C 14,6 °C 8,0 km/h (2 Bft)
24.09.2017 14:22 14,7 °C 14,7 °C 76 % 1019,3 hPa 0,0 mm 9,3 km/h (2 Bft) NW 321 ° 1 min 0,000 mm 3,5 UV-I 737 W/m² 10,5 °C 14,7 °C 12,9 km/h (3 Bft)
24.09.2017 14:23 14,8 °C 14,8 °C 73 % 1019,3 hPa 0,0 mm 11,2 km/h (2 Bft) NW 319 ° 1 min 0,000 mm 3,1 UV-I 737 W/m² 10,0 °C 14,8 °C 14,5 km/h (3 Bft)
24.09.2017 14:24 14,9 °C 14,9 °C 73 % 1019,3 hPa 0,0 mm 8,4 km/h (2 Bft) NW 319 ° 1 min 0,000 mm 2,9 UV-I 392 W/m² 10,1 °C 14,9 °C 12,9 km/h (3 Bft)
24.09.2017 14:25 14,8 °C 14,9 °C 69 % 1019,3 hPa 0,0 mm 4,3 km/h (1 Bft) W-NW 294 ° 1 min 0,000 mm 2,7 UV-I 369 W/m² 9,2 °C 14,8 °C 11,3 km/h (2 Bft)
24.09.2017 14:26 14,7 °C 14,8 °C 69 % 1019,3 hPa 0,0 mm 6,0 km/h (2 Bft) NW 323 ° 1 min 0,000 mm 2,8 UV-I 364 W/m² 9,1 °C 14,7 °C 11,3 km/h (2 Bft)
24.09.2017 14:27 14,7 °C 14,8 °C 70 % 1019,3 hPa 0,0 mm 6,6 km/h (2 Bft) N-NW 333 ° 1 min 0,000 mm 2,9 UV-I 381 W/m² 9,3 °C 14,7 °C 14,5 km/h (3 Bft)
24.09.2017 14:28 14,7 °C 14,7 °C 70 % 1019,3 hPa 0,0 mm 7,2 km/h (2 Bft) NW 324 ° 1 min 0,000 mm 3,2 UV-I 466 W/m² 9,3 °C 14,7 °C 9,7 km/h (2 Bft)
24.09.2017 14:29 14,7 °C 14,7 °C 71 % 1019,3 hPa 0,0 mm 6,1 km/h (2 Bft) N-NW 330 ° 1 min 0,000 mm 3,1 UV-I 469 W/m² 9,5 °C 14,7 °C 9,7 km/h (2 Bft)
24.09.2017 14:30 14,7 °C 14,7 °C 71 % 1019,3 hPa 0,0 mm 5,5 km/h (1 Bft) NW 304 ° 1 min 0,000 mm 2,9 UV-I 373 W/m² 9,5 °C 14,7 °C 8,0 km/h (2 Bft)
24.09.2017 14:31 14,7 °C 14,7 °C 69 % 1019,3 hPa 0,0 mm 6,4 km/h (2 Bft) W-NW 302 ° 1 min 0,000 mm 2,9 UV-I 366 W/m² 9,1 °C 14,7 °C 12,9 km/h (3 Bft)
24.09.2017 14:32 14,6 °C 14,7 °C 68 % 1019,3 hPa 0,0 mm 10,1 km/h (2 Bft) W-NW 296 ° 1 min 0,000 mm 3,6 UV-I 366 W/m² 8,8 °C 14,6 °C 12,9 km/h (3 Bft)
24.09.2017 14:33 14,7 °C 14,7 °C 71 % 1019,3 hPa 0,0 mm 9,7 km/h (2 Bft) W 274 ° 1 min 0,000 mm 3,7 UV-I 366 W/m² 9,5 °C 14,7 °C 14,5 km/h (3 Bft)
24.09.2017 14:34 14,7 °C 14,7 °C 69 % 1019,2 hPa 0,0 mm 7,4 km/h (2 Bft) W 279 ° 1 min 0,000 mm 3,7 UV-I 717 W/m² 9,1 °C 14,7 °C 12,9 km/h (3 Bft)
24.09.2017 14:35 14,7 °C 14,7 °C 71 % 1019,2 hPa 0,0 mm 9,5 km/h (2 Bft) W-SW 255 ° 1 min 0,000 mm 3,5 UV-I 568 W/m² 9,5 °C 14,7 °C 12,9 km/h (3 Bft)
24.09.2017 14:36 14,7 °C 14,7 °C 70 % 1019,2 hPa 0,0 mm 6,6 km/h (2 Bft) W 275 ° 1 min 0,000 mm 3,6 UV-I 568 W/m² 9,3 °C 14,7 °C 11,3 km/h (2 Bft)
24.09.2017 14:37 14,8 °C 14,8 °C 70 % 1019,2 hPa 0,0 mm 9,2 km/h (2 Bft) W-SW 246 ° 1 min 0,000 mm 3,4 UV-I 568 W/m² 9,4 °C 14,8 °C 14,5 km/h (3 Bft)
24.09.2017 14:38 14,8 °C 14,8 °C 71 % 1019,2 hPa 0,0 mm 6,4 km/h (2 Bft) W-SW 248 ° 1 min 0,000 mm 3,5 UV-I 679 W/m² 9,6 °C 14,8 °C 11,3 km/h (2 Bft)
24.09.2017 14:39 14,8 °C 14,8 °C 70 % 1019,2 hPa 0,0 mm 5,6 km/h (1 Bft) W-NW 290 ° 1 min 0,000 mm 3,7 UV-I 682 W/m² 9,4 °C 14,8 °C 9,7 km/h (2 Bft)
24.09.2017 14:40 14,7 °C 14,8 °C 67 % 1019,2 hPa 0,0 mm 4,6 km/h (1 Bft) NW 311 ° 1 min 0,000 mm 3,7 UV-I 684 W/m² 8,6 °C 14,7 °C 6,4 km/h (2 Bft)
24.09.2017 14:41 14,8 °C 14,8 °C 69 % 1019,1 hPa 0,0 mm 4,1 km/h (1 Bft) SW 230 ° 1 min 0,000 mm 3,7 UV-I 675 W/m² 9,2 °C 14,8 °C 6,4 km/h (2 Bft)
24.09.2017 14:42 14,8 °C 14,8 °C 68 % 1019,1 hPa 0,0 mm 4,1 km/h (1 Bft) W 266 ° 1 min 0,000 mm 3,7 UV-I 677 W/m² 9,0 °C 14,8 °C 6,4 km/h (2 Bft)
24.09.2017 14:43 14,9 °C 14,9 °C 69 % 1019,1 hPa 0,0 mm 8,7 km/h (2 Bft) W 261 ° 1 min 0,000 mm 3,7 UV-I 675 W/m² 9,3 °C 14,9 °C 14,5 km/h (3 Bft)
24.09.2017 14:44 14,9 °C 15,0 °C 69 % 1019,1 hPa 0,0 mm 6,5 km/h (2 Bft) NW 322 ° 1 min 0,000 mm 3,7 UV-I 671 W/m² 9,3 °C 14,9 °C 11,3 km/h (2 Bft)
24.09.2017 14:45 14,9 °C 14,9 °C 71 % 1019,1 hPa 0,0 mm 5,3 km/h (1 Bft) W 259 ° 1 min 0,000 mm 3,7 UV-I 673 W/m² 9,7 °C 14,9 °C 9,7 km/h (2 Bft)
24.09.2017 14:46 15,1 °C 15,1 °C 73 % 1019,1 hPa 0,0 mm 8,0 km/h (2 Bft) W-SW 254 ° 1 min 0,000 mm 3,7 UV-I 682 W/m² 10,3 °C 15,1 °C 12,9 km/h (3 Bft)
24.09.2017 14:47 15,2 °C 15,2 °C 71 % 1019,1 hPa 0,0 mm 4,4 km/h (1 Bft) S-SW 194 ° 1 min 0,000 mm 3,7 UV-I 693 W/m² 10,0 °C 15,2 °C 9,7 km/h (2 Bft)
24.09.2017 14:49 15,2 °C 15,2 °C 69 % 1019,0 hPa 0,0 mm 6,8 km/h (2 Bft) W 271 ° 2 min 0,000 mm 3,7 UV-I 724 W/m² 9,6 °C 15,2 °C 12,9 km/h (3 Bft)
24.09.2017 14:50 15,2 °C 15,2 °C 69 % 1019,0 hPa 0,0 mm 10,3 km/h (2 Bft) W-NW 299 ° 1 min 0,000 mm 3,7 UV-I 740 W/m² 9,6 °C 15,2 °C 14,5 km/h (3 Bft)
24.09.2017 14:51 15,1 °C 15,2 °C 69 % 1019,0 hPa 0,0 mm 9,0 km/h (2 Bft) W-NW 282 ° 1 min 0,000 mm 3,7 UV-I 751 W/m² 9,5 °C 15,1 °C 12,9 km/h (3 Bft)
24.09.2017 14:52 15,2 °C 15,2 °C 70 % 1019,0 hPa 0,0 mm 8,7 km/h (2 Bft) W-SW 246 ° 1 min 0,000 mm 3,1 UV-I 751 W/m² 9,8 °C 15,2 °C 12,9 km/h (3 Bft)
24.09.2017 14:53 15,2 °C 15,2 °C 72 % 1018,9 hPa 0,0 mm 8,5 km/h (2 Bft) W-SW 258 ° 1 min 0,000 mm 3,6 UV-I 751 W/m² 10,2 °C 15,2 °C 12,9 km/h (3 Bft)
24.09.2017 14:54 15,4 °C 15,4 °C 71 % 1019,0 hPa 0,0 mm 7,0 km/h (2 Bft) W 273 ° 1 min 0,000 mm 3,6 UV-I 751 W/m² 10,2 °C 15,4 °C 12,9 km/h (3 Bft)
24.09.2017 14:55 15,4 °C 15,4 °C 69 % 1018,9 hPa 0,0 mm 9,6 km/h (2 Bft) W 273 ° 1 min 0,000 mm 3,5 UV-I 752 W/m² 9,7 °C 15,4 °C 14,5 km/h (3 Bft)
24.09.2017 14:56 15,4 °C 15,4 °C 70 % 1019,0 hPa 0,0 mm 7,5 km/h (2 Bft) S-SW 213 ° 1 min 0,000 mm 3,5 UV-I 756 W/m² 10,0 °C 15,4 °C 9,7 km/h (2 Bft)
24.09.2017 14:57 15,6 °C 15,6 °C 69 % 1018,8 hPa 0,0 mm 5,8 km/h (2 Bft) W-SW 253 ° 1 min 0,000 mm 3,5 UV-I 740 W/m² 9,9 °C 15,6 °C 8,0 km/h (2 Bft)
24.09.2017 14:58 15,7 °C 15,7 °C 71 % 1018,9 hPa 0,0 mm 9,7 km/h (2 Bft) W 261 ° 1 min 0,000 mm 3,4 UV-I 749 W/m² 10,5 °C 15,7 °C 14,5 km/h (3 Bft)
24.09.2017 14:59 15,7 °C 15,7 °C 68 % 1018,9 hPa 0,0 mm 9,7 km/h (2 Bft) W 263 ° 1 min 0,000 mm 2,4 UV-I 749 W/m² 9,8 °C 15,7 °C 12,9 km/h (3 Bft)
24.09.2017 15:00 15,6 °C 15,7 °C 68 % 1018,9 hPa 0,0 mm 7,8 km/h (2 Bft) W 275 ° 1 min 0,000 mm 2,3 UV-I 299 W/m² 9,7 °C 15,6 °C 11,3 km/h (2 Bft)
24.09.2017 15:01 15,4 °C 15,6 °C 65 % 1019,0 hPa 0,0 mm 7,4 km/h (2 Bft) W-NW 294 ° 1 min 0,330 mm 3,0 UV-I 299 W/m² 8,9 °C 15,4 °C 11,3 km/h (2 Bft)
24.09.2017 15:02 15,2 °C 15,4 °C 68 % 1018,9 hPa 0,0 mm 4,4 km/h (1 Bft) W-NW 286 ° 1 min 0,000 mm 2,9 UV-I 490 W/m² 9,3 °C 15,2 °C 4,8 km/h (1 Bft)
24.09.2017 15:03 15,2 °C 15,2 °C 69 % 1018,9 hPa 0,0 mm 3,1 km/h (1 Bft) SW 233 ° 1 min 0,000 mm 2,9 UV-I 490 W/m² 9,6 °C 15,2 °C 8,0 km/h (2 Bft)
24.09.2017 15:04 15,2 °C 15,3 °C 70 % 1018,9 hPa 0,0 mm 9,2 km/h (2 Bft) W 267 ° 1 min 0,000 mm 2,9 UV-I 490 W/m² 9,8 °C 15,2 °C 12,9 km/h (3 Bft)
24.09.2017 15:05 15,3 °C 15,3 °C 69 % 1018,8 hPa 0,0 mm 6,4 km/h (2 Bft) W 276 ° 1 min 0,000 mm 3,4 UV-I 712 W/m² 9,6 °C 15,3 °C 11,3 km/h (2 Bft)
24.09.2017 15:06 15,3 °C 15,3 °C 69 % 1018,9 hPa 0,0 mm 9,4 km/h (2 Bft) W-NW 303 ° 1 min 0,000 mm 2,7 UV-I 712 W/m² 9,6 °C 15,3 °C 12,9 km/h (3 Bft)
24.09.2017 15:07 15,3 °C 15,3 °C 66 % 1018,8 hPa 0,0 mm 5,9 km/h (2 Bft) NW 306 ° 1 min 0,000 mm 2,6 UV-I 712 W/m² 9,0 °C 15,3 °C 8,0 km/h (2 Bft)
24.09.2017 15:09 15,2 °C 15,3 °C 68 % 1018,9 hPa 0,0 mm 5,2 km/h (1 Bft) W-SW 249 ° 0 min 0,000 mm 2,4 UV-I 253 W/m² 9,3 °C 15,2 °C 12,9 km/h (3 Bft)
24.09.2017 15:10 15,1 °C 15,2 °C 69 % 1018,9 hPa 0,0 mm 7,8 km/h (2 Bft) W-SW 244 ° 0 min 0,000 mm 2,3 UV-I 246 W/m² 9,5 °C 15,1 °C 9,7 km/h (2 Bft)
24.09.2017 15:11 15,1 °C 15,1 °C 67 % 1018,8 hPa 0,0 mm 5,2 km/h (1 Bft) W-NW 284 ° 0 min 0,000 mm 2,3 UV-I 241 W/m² 9,0 °C 15,1 °C 6,4 km/h (2 Bft)
24.09.2017 15:12 15,0 °C 15,1 °C 68 % 1018,9 hPa 0,0 mm 2,9 km/h (1 Bft) W-NW 284 ° 0 min 0,000 mm 2,8 UV-I 241 W/m² 9,1 °C 15,0 °C 4,8 km/h (1 Bft)
24.09.2017 15:13 14,9 °C 15,0 °C 68 % 1018,9 hPa 0,0 mm 5,6 km/h (1 Bft) NW 304 ° 1 min 0,000 mm 2,7 UV-I 439 W/m² 9,0 °C 14,9 °C 9,7 km/h (2 Bft)
24.09.2017 15:14 14,9 °C 14,9 °C 70 % 1018,8 hPa 0,0 mm 6,5 km/h (2 Bft) S-SW 213 ° 1 min 0,000 mm 2,7 UV-I 448 W/m² 9,5 °C 14,9 °C 9,7 km/h (2 Bft)
24.09.2017 15:15 15,0 °C 15,0 °C 70 % 1018,9 hPa 0,0 mm 4,9 km/h (1 Bft) W 261 ° 1 min 0,000 mm 2,4 UV-I 448 W/m² 9,6 °C 15,0 °C 6,4 km/h (2 Bft)
24.09.2017 15:16 15,1 °C 15,1 °C 69 % 1018,9 hPa 0,0 mm 4,0 km/h (1 Bft) W 264 ° 0 min 0,000 mm 2,2 UV-I 178 W/m² 9,5 °C 15,1 °C 6,4 km/h (2 Bft)
24.09.2017 15:17 15,0 °C 15,1 °C 66 % 1018,9 hPa 0,0 mm 4,3 km/h (1 Bft) W 271 ° 0 min 0,000 mm 2,1 UV-I 162 W/m² 8,7 °C 15,0 °C 4,8 km/h (1 Bft)
24.09.2017 15:18 14,9 °C 15,0 °C 67 % 1018,9 hPa 0,0 mm 4,3 km/h (1 Bft) W 270 ° 0 min 0,000 mm 2,0 UV-I 151 W/m² 8,8 °C 14,9 °C 6,4 km/h (2 Bft)
24.09.2017 15:19 14,8 °C 14,9 °C 67 % 1018,9 hPa 0,0 mm 3,4 km/h (1 Bft) W 270 ° 0 min 0,000 mm 2,0 UV-I 146 W/m² 8,7 °C 14,8 °C 4,8 km/h (1 Bft)
24.09.2017 15:20 14,7 °C 14,8 °C 65 % 1018,9 hPa 0,0 mm 0,4 km/h (0 Bft) W 270 ° 0 min 0,000 mm 2,0 UV-I 144 W/m² 8,2 °C 14,7 °C 1,6 km/h (1 Bft)
24.09.2017 15:21 14,7 °C 14,7 °C 66 % 1018,9 hPa 0,0 mm 2,2 km/h (1 Bft) W 270 ° 0 min 0,000 mm 2,0 UV-I 146 W/m² 8,4 °C 14,7 °C 4,8 km/h (1 Bft)
24.09.2017 15:22 14,6 °C 14,7 °C 67 % 1018,9 hPa 0,0 mm 4,1 km/h (1 Bft) W-SW 244 ° 0 min 0,000 mm 2,0 UV-I 151 W/m² 8,5 °C 14,6 °C 6,4 km/h (2 Bft)
24.09.2017 15:23 14,6 °C 14,6 °C 67 % 1018,9 hPa 0,0 mm 1,8 km/h (1 Bft) W-SW 244 ° 0 min 0,000 mm 2,1 UV-I 156 W/m² 8,5 °C 14,6 °C 3,2 km/h (1 Bft)
24.09.2017 15:24 14,5 °C 14,6 °C 67 % 1018,9 hPa 0,0 mm 1,4 km/h (1 Bft) W-SW 244 ° 0 min 0,000 mm 2,2 UV-I 156 W/m² 8,4 °C 14,5 °C 1,6 km/h (1 Bft)
24.09.2017 15:25 14,6 °C 14,6 °C 68 % 1018,9 hPa 0,0 mm 0,5 km/h (0 Bft) W-SW 244 ° 0 min 0,000 mm 2,2 UV-I 156 W/m² 8,8 °C 14,6 °C 1,6 km/h (1 Bft)
24.09.2017 15:26 14,6 °C 14,6 °C 69 % 1018,9 hPa 0,0 mm 0,1 km/h (0 Bft) W-SW 246 ° 0 min 0,000 mm 2,1 UV-I 176 W/m² 9,0 °C 14,6 °C 1,6 km/h (1 Bft)
24.09.2017 15:27 14,6 °C 14,6 °C 71 % 1018,9 hPa 0,0 mm 0,8 km/h (0 Bft) W-SW 246 ° 0 min 0,000 mm 2,1 UV-I 178 W/m² 9,4 °C 14,6 °C 1,6 km/h (1 Bft)
24.09.2017 15:28 14,6 °C 14,6 °C 68 % 1018,9 hPa 0,0 mm 0,0 km/h (0 Bft) W-SW 246 ° 0 min 0,000 mm 2,1 UV-I 174 W/m² 8,8 °C 14,6 °C 0,0 km/h (0 Bft)
24.09.2017 15:29 14,6 °C 14,6 °C 69 % 1018,9 hPa 0,0 mm 0,0 km/h (0 Bft) W-SW 246 ° 0 min 0,000 mm 2,0 UV-I 186 W/m² 9,0 °C 14,6 °C 0,0 km/h (0 Bft)
24.09.2017 15:30 14,7 °C 14,7 °C 71 % 1018,9 hPa 0,0 mm 0,0 km/h (0 Bft) W-SW 246 ° 0 min 0,000 mm 2,1 UV-I 213 W/m² 9,5 °C 14,7 °C 0,0 km/h (0 Bft)
24.09.2017 15:31 14,7 °C 14,7 °C 70 % 1019,0 hPa 0,0 mm 0,0 km/h (0 Bft) W-SW 246 ° 0 min 0,000 mm 2,1 UV-I 232 W/m² 9,3 °C 14,7 °C 0,0 km/h (0 Bft)
24.09.2017 15:32 14,8 °C 14,8 °C 75 % 1019,0 hPa 0,0 mm 0,0 km/h (0 Bft) W-SW 246 ° 0 min 0,000 mm 2,1 UV-I 241 W/m² 10,4 °C 14,8 °C 0,0 km/h (0 Bft)
24.09.2017 15:33 14,8 °C 14,8 °C 75 % 1019,0 hPa 0,0 mm 0,0 km/h (0 Bft) W-SW 246 ° 0 min 0,000 mm 2,0 UV-I 241 W/m² 10,4 °C 14,8 °C 0,0 km/h (0 Bft)
24.09.2017 15:34 14,7 °C 14,8 °C 68 % 1019,0 hPa 0,0 mm 0,0 km/h (0 Bft) W-SW 246 ° 0 min 0,000 mm 2,0 UV-I 248 W/m² 8,9 °C 14,7 °C 0,0 km/h (0 Bft)
24.09.2017 15:35 14,7 °C 14,7 °C 67 % 1019,0 hPa 0,0 mm 0,0 km/h (0 Bft) W-SW 246 ° 0 min 0,000 mm 2,0 UV-I 253 W/m² 8,6 °C 14,7 °C 0,0 km/h (0 Bft)
24.09.2017 15:36 14,7 °C 14,7 °C 68 % 1019,1 hPa 0,0 mm 0,0 km/h (0 Bft) W-SW 246 ° 0 min 0,000 mm 2,0 UV-I 255 W/m² 8,9 °C 14,7 °C 0,0 km/h (0 Bft)
24.09.2017 15:37 14,7 °C 14,7 °C 68 % 1019,1 hPa 0,0 mm 0,0 km/h (0 Bft) W-SW 246 ° 0 min 0,000 mm 2,0 UV-I 255 W/m² 8,9 °C 14,7 °C 0,0 km/h (0 Bft)
24.09.2017 15:38 14,7 °C 14,7 °C 68 % 1019,1 hPa 0,0 mm 0,0 km/h (0 Bft) W-SW 246 ° 0 min 0,000 mm 2,0 UV-I 255 W/m² 8,9 °C 14,7 °C 0,0 km/h (0 Bft)
24.09.2017 15:39 14,7 °C 14,7 °C 69 % 1019,1 hPa 0,0 mm 0,6 km/h (0 Bft) W-SW 246 ° 1 min 0,000 mm 2,1 UV-I 390 W/m² 9,1 °C 14,7 °C 3,2 km/h (1 Bft)
24.09.2017 15:40 14,7 °C 14,7 °C 68 % 1019,1 hPa 0,0 mm 2,5 km/h (1 Bft) W-SW 246 ° 1 min 0,000 mm 2,2 UV-I 434 W/m² 8,9 °C 14,7 °C 3,2 km/h (1 Bft)
24.09.2017 15:41 14,8 °C 14,8 °C 66 % 1019,1 hPa 0,0 mm 1,3 km/h (1 Bft) W-SW 246 ° 1 min 0,000 mm 2,3 UV-I 501 W/m² 8,5 °C 14,8 °C 3,2 km/h (1 Bft)
24.09.2017 15:42 14,9 °C 14,9 °C 67 % 1019,0 hPa 0,0 mm 0,2 km/h (0 Bft) W-SW 246 ° 1 min 0,000 mm 2,2 UV-I 501 W/m² 8,8 °C 14,9 °C 1,6 km/h (1 Bft)
24.09.2017 15:43 14,9 °C 14,9 °C 64 % 1019,0 hPa 0,0 mm 0,7 km/h (0 Bft) W-SW 246 ° 1 min 0,000 mm 2,1 UV-I 371 W/m² 8,2 °C 14,9 °C 3,2 km/h (1 Bft)
24.09.2017 15:44 14,9 °C 14,9 °C 65 % 1019,0 hPa 0,0 mm 1,4 km/h (1 Bft) W-SW 246 ° 1 min 0,000 mm 2,2 UV-I 413 W/m² 8,4 °C 14,9 °C 3,2 km/h (1 Bft)
24.09.2017 15:45 15,0 °C 15,0 °C 69 % 1019,0 hPa 0,0 mm 1,9 km/h (1 Bft) W-SW 246 ° 1 min 0,000 mm 2,0 UV-I 301 W/m² 9,4 °C 15,0 °C 3,2 km/h (1 Bft)
24.09.2017 15:46 14,9 °C 15,0 °C 65 % 1019,0 hPa 0,0 mm 0,5 km/h (0 Bft) W-SW 246 ° 1 min 0,000 mm 2,0 UV-I 332 W/m² 8,4 °C 14,9 °C 1,6 km/h (1 Bft)
24.09.2017 15:47 15,0 °C 15,0 °C 65 % 1019,0 hPa 0,0 mm 0,0 km/h (0 Bft) W-SW 246 ° 1 min 0,000 mm 2,1 UV-I 350 W/m² 8,5 °C 15,0 °C 0,0 km/h (0 Bft)
24.09.2017 15:48 15,0 °C 15,0 °C 67 % 1019,0 hPa 0,0 mm 0,1 km/h (0 Bft) W-SW 246 ° 1 min 0,000 mm 1,9 UV-I 352 W/m² 8,9 °C 15,0 °C 1,6 km/h (1 Bft)
24.09.2017 15:49 15,0 °C 15,0 °C 65 % 1019,0 hPa 0,0 mm 0,0 km/h (0 Bft) W-SW 246 ° 0 min 0,000 mm 1,9 UV-I 287 W/m² 8,5 °C 15,0 °C 0,0 km/h (0 Bft)
24.09.2017 15:50 15,0 °C 15,0 °C 65 % 1019,0 hPa 0,0 mm 0,0 km/h (0 Bft) W-SW 246 ° 0 min 0,000 mm 1,8 UV-I 279 W/m² 8,5 °C 15,0 °C 0,0 km/h (0 Bft)
24.09.2017 15:51 15,1 °C 15,1 °C 66 % 1019,0 hPa 0,0 mm 0,0 km/h (0 Bft) W-SW 246 ° 0 min 0,000 mm 1,6 UV-I 190 W/m² 8,8 °C 15,1 °C 0,0 km/h (0 Bft)
24.09.2017 15:52 15,1 °C 15,1 °C 66 % 1019,0 hPa 0,0 mm 0,6 km/h (0 Bft) W-SW 245 ° 0 min 0,000 mm 1,6 UV-I 183 W/m² 8,8 °C 15,1 °C 3,2 km/h (1 Bft)
24.09.2017 15:53 15,1 °C 15,1 °C 66 % 1019,0 hPa 0,0 mm 4,2 km/h (1 Bft) O-NO 71 ° 0 min 0,000 mm 1,6 UV-I 179 W/m² 8,8 °C 15,1 °C 4,8 km/h (1 Bft)
24.09.2017 15:54 14,9 °C 15,1 °C 72 % 1019,0 hPa 0,0 mm 3,3 km/h (1 Bft) O-NO 71 ° 0 min 0,000 mm 1,6 UV-I 176 W/m² 9,9 °C 14,9 °C 4,8 km/h (1 Bft)
24.09.2017 15:55 14,9 °C 14,9 °C 67 % 1019,0 hPa 0,0 mm 4,0 km/h (1 Bft) O-NO 76 ° 0 min 0,000 mm 1,5 UV-I 171 W/m² 8,8 °C 14,9 °C 4,8 km/h (1 Bft)
24.09.2017 15:56 14,7 °C 14,9 °C 74 % 1019,0 hPa 0,0 mm 2,7 km/h (1 Bft) O-NO 74 ° 0 min 0,000 mm 1,5 UV-I 163 W/m² 10,1 °C 14,7 °C 6,4 km/h (2 Bft)
24.09.2017 15:57 14,7 °C 14,7 °C 74 % 1019,0 hPa 0,0 mm 2,4 km/h (1 Bft) O-NO 74 ° 0 min 0,000 mm 1,5 UV-I 160 W/m² 10,1 °C 14,7 °C 4,8 km/h (1 Bft)
24.09.2017 15:58 14,6 °C 14,7 °C 69 % 1019,0 hPa 0,0 mm 4,0 km/h (1 Bft) O 95 ° 0 min 0,000 mm 1,5 UV-I 163 W/m² 9,0 °C 14,6 °C 4,8 km/h (1 Bft)
24.09.2017 15:59 14,6 °C 14,6 °C 68 % 1019,0 hPa 0,0 mm 2,6 km/h (1 Bft) O 95 ° 0 min 0,000 mm 1,6 UV-I 174 W/m² 8,8 °C 14,6 °C 4,8 km/h (1 Bft)
24.09.2017 16:00 14,6 °C 14,6 °C 69 % 1019,1 hPa 0,0 mm 3,1 km/h (1 Bft) O 95 ° 0 min 0,000 mm 1,6 UV-I 192 W/m² 9,0 °C 14,6 °C 4,8 km/h (1 Bft)
24.09.2017 16:01 14,6 °C 14,6 °C 73 % 1019,0 hPa 0,0 mm 3,5 km/h (1 Bft) O 95 ° 0 min 0,152 mm 1,5 UV-I 185 W/m² 9,8 °C 14,6 °C 4,8 km/h (1 Bft)
24.09.2017 16:02 14,5 °C 14,6 °C 71 % 1019,1 hPa 0,0 mm 9,4 km/h (2 Bft) N-NO 22 ° 0 min 0,000 mm 1,5 UV-I 153 W/m² 9,3 °C 14,5 °C 14,5 km/h (3 Bft)
24.09.2017 16:03 14,4 °C 14,5 °C 71 % 1019,1 hPa 0,0 mm 8,3 km/h (2 Bft) O 89 ° 0 min 0,000 mm 1,4 UV-I 144 W/m² 9,2 °C 14,4 °C 12,9 km/h (3 Bft)
24.09.2017 16:04 14,3 °C 14,4 °C 71 % 1019,1 hPa 0,0 mm 10,1 km/h (2 Bft) O-NO 71 ° 0 min 0,000 mm 1,4 UV-I 134 W/m² 9,1 °C 14,3 °C 14,5 km/h (3 Bft)
24.09.2017 16:05 14,2 °C 14,3 °C 72 % 1019,1 hPa 0,0 mm 8,2 km/h (2 Bft) NO 50 ° 0 min 0,000 mm 1,3 UV-I 128 W/m² 9,2 °C 14,2 °C 11,3 km/h (2 Bft)
24.09.2017 16:06 14,1 °C 14,2 °C 72 % 1019,1 hPa 0,0 mm 10,8 km/h (2 Bft) NO 42 ° 0 min 0,000 mm 1,3 UV-I 120 W/m² 9,1 °C 14,1 °C 16,1 km/h (3 Bft)
24.09.2017 16:07 14,0 °C 14,1 °C 74 % 1019,2 hPa 0,0 mm 5,7 km/h (1 Bft) NO 53 ° 0 min 0,000 mm 1,3 UV-I 118 W/m² 9,4 °C 14,0 °C 9,7 km/h (2 Bft)
24.09.2017 16:08 14,0 °C 14,0 °C 74 % 1019,2 hPa 0,0 mm 3,6 km/h (1 Bft) O-NO 75 ° 0 min 0,000 mm 1,2 UV-I 109 W/m² 9,4 °C 14,0 °C 6,4 km/h (2 Bft)
24.09.2017 16:09 13,9 °C 14,0 °C 76 % 1019,2 hPa 0,0 mm 4,9 km/h (1 Bft) NO 34 ° 0 min 0,000 mm 1,2 UV-I 113 W/m² 9,7 °C 13,9 °C 9,7 km/h (2 Bft)
24.09.2017 16:10 13,8 °C 13,9 °C 73 % 1019,2 hPa 0,0 mm 6,4 km/h (2 Bft) O-SO 104 ° 0 min 0,000 mm 1,2 UV-I 113 W/m² 9,0 °C 13,8 °C 8,0 km/h (2 Bft)
24.09.2017 16:11 13,8 °C 13,8 °C 74 % 1019,3 hPa 0,0 mm 9,0 km/h (2 Bft) O 84 ° 0 min 0,000 mm 1,2 UV-I 111 W/m² 9,2 °C 13,8 °C 16,1 km/h (3 Bft)
24.09.2017 16:12 13,7 °C 13,8 °C 73 % 1019,3 hPa 0,0 mm 8,3 km/h (2 Bft) O-NO 64 ° 0 min 0,000 mm 1,2 UV-I 107 W/m² 8,9 °C 13,7 °C 14,5 km/h (3 Bft)
24.09.2017 16:13 13,7 °C 13,7 °C 75 % 1019,3 hPa 0,0 mm 4,8 km/h (1 Bft) O-NO 73 ° 0 min 0,000 mm 1,2 UV-I 102 W/m² 9,3 °C 13,7 °C 6,4 km/h (2 Bft)
24.09.2017 16:14 13,6 °C 13,7 °C 74 % 1019,4 hPa 0,0 mm 6,1 km/h (2 Bft) O-NO 63 ° 0 min 0,000 mm 1,2 UV-I 97 W/m² 9,1 °C 13,6 °C 8,0 km/h (2 Bft)
24.09.2017 16:15 13,6 °C 13,6 °C 74 % 1019,4 hPa 0,0 mm 4,9 km/h (1 Bft) O 95 ° 0 min 0,000 mm 1,2 UV-I 98 W/m² 9,1 °C 13,6 °C 6,4 km/h (2 Bft)
24.09.2017 16:16 13,5 °C 13,6 °C 75 % 1019,4 hPa 0,0 mm 5,1 km/h (1 Bft) O-NO 59 ° 0 min 0,000 mm 1,2 UV-I 107 W/m² 9,2 °C 13,5 °C 8,0 km/h (2 Bft)
24.09.2017 16:17 13,4 °C 13,5 °C 75 % 1019,4 hPa 0,0 mm 3,2 km/h (1 Bft) O-NO 61 ° 0 min 0,000 mm 1,3 UV-I 130 W/m² 9,1 °C 13,4 °C 4,8 km/h (1 Bft)
24.09.2017 16:18 13,4 °C 13,4 °C 75 % 1019,4 hPa 0,0 mm 3,1 km/h (1 Bft) O-NO 61 ° 0 min 0,000 mm 1,5 UV-I 130 W/m² 9,1 °C 13,4 °C 4,8 km/h (1 Bft)
24.09.2017 16:19 13,3 °C 13,4 °C 76 % 1019,4 hPa 0,0 mm 2,5 km/h (1 Bft) O-NO 61 ° 0 min 0,000 mm 1,4 UV-I 195 W/m² 9,2 °C 13,3 °C 4,8 km/h (1 Bft)
24.09.2017 16:20 13,3 °C 13,3 °C 75 % 1019,4 hPa 0,0 mm 5,4 km/h (1 Bft) O 80 ° 0 min 0,000 mm 1,5 UV-I 244 W/m² 9,0 °C 13,3 °C 11,3 km/h (2 Bft)
24.09.2017 16:21 13,3 °C 13,3 °C 74 % 1019,3 hPa 0,0 mm 5,7 km/h (1 Bft) O 88 ° 0 min 0,000 mm 1,5 UV-I 181 W/m² 8,8 °C 13,3 °C 8,0 km/h (2 Bft)
24.09.2017 16:22 13,3 °C 13,3 °C 74 % 1019,4 hPa 0,0 mm 2,2 km/h (1 Bft) O 88 ° 0 min 0,000 mm 1,4 UV-I 148 W/m² 8,8 °C 13,3 °C 4,8 km/h (1 Bft)
24.09.2017 16:23 13,3 °C 13,3 °C 74 % 1019,3 hPa 0,0 mm 0,7 km/h (0 Bft) O 88 ° 0 min 0,000 mm 1,3 UV-I 148 W/m² 8,8 °C 13,3 °C 3,2 km/h (1 Bft)
24.09.2017 16:24 13,3 °C 13,3 °C 74 % 1019,3 hPa 0,0 mm 0,7 km/h (0 Bft) O 88 ° 0 min 0,000 mm 1,3 UV-I 149 W/m² 8,8 °C 13,3 °C 3,2 km/h (1 Bft)
24.09.2017 16:25 13,3 °C 13,3 °C 75 % 1019,3 hPa 0,0 mm 3,3 km/h (1 Bft) O-NO 65 ° 0 min 0,000 mm 1,3 UV-I 151 W/m² 9,0 °C 13,3 °C 6,4 km/h (2 Bft)
24.09.2017 16:26 13,3 °C 13,3 °C 75 % 1019,3 hPa 0,0 mm 3,6 km/h (1 Bft) O-NO 65 ° 0 min 0,000 mm 1,3 UV-I 148 W/m² 9,0 °C 13,3 °C 4,8 km/h (1 Bft)
24.09.2017 16:27 13,3 °C 13,3 °C 75 % 1019,3 hPa 0,0 mm 1,5 km/h (1 Bft) O-NO 65 ° 0 min 0,000 mm 1,2 UV-I 146 W/m² 9,0 °C 13,3 °C 3,2 km/h (1 Bft)
24.09.2017 16:28 13,3 °C 13,3 °C 74 % 1019,3 hPa 0,0 mm 0,7 km/h (0 Bft) NO 51 ° 0 min 0,000 mm 1,3 UV-I 165 W/m² 8,8 °C 13,3 °C 4,8 km/h (1 Bft)
24.09.2017 16:29 13,3 °C 13,3 °C 75 % 1019,3 hPa 0,0 mm 4,4 km/h (1 Bft) O-NO 74 ° 0 min 0,000 mm 1,2 UV-I 148 W/m² 9,0 °C 13,3 °C 6,4 km/h (2 Bft)
24.09.2017 16:30 13,3 °C 13,3 °C 74 % 1019,3 hPa 0,0 mm 1,0 km/h (0 Bft) O-NO 74 ° 0 min 0,000 mm 1,2 UV-I 146 W/m² 8,8 °C 13,3 °C 3,2 km/h (1 Bft)
24.09.2017 16:31 13,3 °C 13,3 °C 75 % 1019,3 hPa 0,0 mm 6,0 km/h (2 Bft) O 101 ° 0 min 0,000 mm 1,2 UV-I 139 W/m² 9,0 °C 13,3 °C 9,7 km/h (2 Bft)
24.09.2017 16:32 13,2 °C 13,3 °C 75 % 1019,2 hPa 0,0 mm 6,2 km/h (2 Bft) O 97 ° 0 min 0,000 mm 1,2 UV-I 128 W/m² 8,9 °C 13,2 °C 11,3 km/h (2 Bft)
24.09.2017 16:33 13,2 °C 13,2 °C 74 % 1019,3 hPa 0,0 mm 3,9 km/h (1 Bft) O-NO 65 ° 0 min 0,000 mm 1,1 UV-I 128 W/m² 8,7 °C 13,2 °C 6,4 km/h (2 Bft)
24.09.2017 16:34 13,2 °C 13,2 °C 74 % 1019,3 hPa 0,0 mm 3,0 km/h (1 Bft) O 96 ° 0 min 0,000 mm 1,1 UV-I 134 W/m² 8,7 °C 13,2 °C 9,7 km/h (2 Bft)
24.09.2017 16:35 13,2 °C 13,2 °C 75 % 1019,2 hPa 0,0 mm 3,5 km/h (1 Bft) SO 133 ° 0 min 0,000 mm 1,2 UV-I 142 W/m² 8,9 °C 13,2 °C 6,4 km/h (2 Bft)
24.09.2017 16:36 13,2 °C 13,2 °C 75 % 1019,3 hPa 0,0 mm 3,5 km/h (1 Bft) O 97 ° 0 min 0,000 mm 1,2 UV-I 153 W/m² 8,9 °C 13,2 °C 11,3 km/h (2 Bft)
24.09.2017 16:37 13,2 °C 13,2 °C 74 % 1019,3 hPa 0,0 mm 4,3 km/h (1 Bft) O-SO 102 ° 0 min 0,000 mm 1,2 UV-I 162 W/m² 8,7 °C 13,2 °C 6,4 km/h (2 Bft)
24.09.2017 16:38 13,2 °C 13,2 °C 75 % 1019,3 hPa 0,0 mm 7,9 km/h (2 Bft) O-NO 78 ° 0 min 0,000 mm 1,2 UV-I 179 W/m² 8,9 °C 13,2 °C 11,3 km/h (2 Bft)
24.09.2017 16:39 13,2 °C 13,2 °C 74 % 1019,3 hPa 0,0 mm 5,1 km/h (1 Bft) O 99 ° 0 min 0,000 mm 1,2 UV-I 176 W/m² 8,7 °C 13,2 °C 6,4 km/h (2 Bft)
24.09.2017 16:40 13,1 °C 13,2 °C 73 % 1019,3 hPa 0,0 mm 5,6 km/h (1 Bft) O 79 ° 0 min 0,000 mm 1,2 UV-I 171 W/m² 8,4 °C 13,1 °C 11,3 km/h (2 Bft)
24.09.2017 16:41 13,2 °C 13,2 °C 72 % 1019,3 hPa 0,0 mm 5,0 km/h (1 Bft) O 84 ° 0 min 0,000 mm 1,2 UV-I 156 W/m² 8,3 °C 13,2 °C 9,7 km/h (2 Bft)
24.09.2017 16:42 13,2 °C 13,2 °C 73 % 1019,2 hPa 0,0 mm 6,1 km/h (2 Bft) O 90 ° 0 min 0,000 mm 1,1 UV-I 151 W/m² 8,5 °C 13,2 °C 9,7 km/h (2 Bft)
24.09.2017 16:43 13,2 °C 13,2 °C 72 % 1019,3 hPa 0,0 mm 5,4 km/h (1 Bft) NO 51 ° 0 min 0,000 mm 1,1 UV-I 142 W/m² 8,3 °C 13,2 °C 11,3 km/h (2 Bft)
24.09.2017 16:44 13,2 °C 13,3 °C 72 % 1019,2 hPa 0,0 mm 4,7 km/h (1 Bft) NO 39 ° 0 min 0,000 mm 1,1 UV-I 141 W/m² 8,3 °C 13,2 °C 6,4 km/h (2 Bft)
24.09.2017 16:45 13,3 °C 13,3 °C 72 % 1019,3 hPa 0,0 mm 3,8 km/h (1 Bft) NO 42 ° 0 min 0,000 mm 1,2 UV-I 155 W/m² 8,4 °C 13,3 °C 6,4 km/h (2 Bft)
24.09.2017 16:46 13,3 °C 13,3 °C 72 % 1019,3 hPa 0,0 mm 6,5 km/h (2 Bft) O 82 ° 0 min 0,000 mm 1,2 UV-I 165 W/m² 8,4 °C 13,3 °C 11,3 km/h (2 Bft)
24.09.2017 16:47 13,3 °C 13,4 °C 74 % 1019,3 hPa 0,0 mm 2,1 km/h (1 Bft) NO 54 ° 0 min 0,000 mm 1,2 UV-I 178 W/m² 8,8 °C 13,3 °C 3,2 km/h (1 Bft)
24.09.2017 16:48 13,4 °C 13,4 °C 72 % 1019,3 hPa 0,0 mm 4,7 km/h (1 Bft) O-NO 66 ° 0 min 0,000 mm 1,2 UV-I 195 W/m² 8,5 °C 13,4 °C 6,4 km/h (2 Bft)
24.09.2017 16:49 13,3 °C 13,4 °C 72 % 1019,3 hPa 0,0 mm 3,6 km/h (1 Bft) O-NO 77 ° 0 min 0,000 mm 1,2 UV-I 213 W/m² 8,4 °C 13,3 °C 6,4 km/h (2 Bft)
24.09.2017 16:50 13,3 °C 13,4 °C 72 % 1019,3 hPa 0,0 mm 3,0 km/h (1 Bft) O-NO 67 ° 0 min 0,000 mm 1,3 UV-I 211 W/m² 8,4 °C 13,3 °C 4,8 km/h (1 Bft)
24.09.2017 16:51 13,4 °C 13,4 °C 72 % 1019,3 hPa 0,0 mm 5,1 km/h (1 Bft) O-NO 69 ° 0 min 0,000 mm 1,3 UV-I 209 W/m² 8,5 °C 13,4 °C 8,0 km/h (2 Bft)
24.09.2017 16:52 13,5 °C 13,5 °C 72 % 1019,3 hPa 0,0 mm 5,4 km/h (1 Bft) NO 46 ° 0 min 0,000 mm 1,3 UV-I 206 W/m² 8,6 °C 13,5 °C 8,0 km/h (2 Bft)
24.09.2017 16:53 13,6 °C 13,6 °C 73 % 1019,3 hPa 0,0 mm 4,1 km/h (1 Bft) O-NO 67 ° 0 min 0,000 mm 1,3 UV-I 202 W/m² 8,9 °C 13,6 °C 4,8 km/h (1 Bft)
24.09.2017 16:54 13,6 °C 13,6 °C 71 % 1019,2 hPa 0,0 mm 6,9 km/h (2 Bft) NO 56 ° 0 min 0,000 mm 1,3 UV-I 197 W/m² 8,4 °C 13,6 °C 9,7 km/h (2 Bft)
24.09.2017 16:55 13,7 °C 13,7 °C 70 % 1019,3 hPa 0,0 mm 7,5 km/h (2 Bft) NO 54 ° 0 min 0,000 mm 1,3 UV-I 190 W/m² 8,3 °C 13,7 °C 11,3 km/h (2 Bft)
24.09.2017 16:56 13,7 °C 13,8 °C 72 % 1019,3 hPa 0,0 mm 5,2 km/h (1 Bft) O-NO 78 ° 0 min 0,000 mm 1,2 UV-I 186 W/m² 8,7 °C 13,7 °C 11,3 km/h (2 Bft)
24.09.2017 16:57 13,8 °C 13,8 °C 70 % 1019,3 hPa 0,0 mm 3,5 km/h (1 Bft) N 355 ° 0 min 0,000 mm 1,2 UV-I 186 W/m² 8,4 °C 13,8 °C 6,4 km/h (2 Bft)
24.09.2017 16:58 13,7 °C 13,8 °C 70 % 1019,3 hPa 0,0 mm 6,4 km/h (2 Bft) O 88 ° 0 min 0,000 mm 1,2 UV-I 185 W/m² 8,3 °C 13,7 °C 11,3 km/h (2 Bft)
24.09.2017 16:59 13,7 °C 13,8 °C 70 % 1019,3 hPa 0,0 mm 6,9 km/h (2 Bft) O-NO 65 ° 0 min 0,000 mm 1,2 UV-I 185 W/m² 8,3 °C 13,7 °C 9,7 km/h (2 Bft)
24.09.2017 17:00 13,7 °C 13,8 °C 68 % 1019,3 hPa 0,0 mm 5,4 km/h (1 Bft) O-NO 59 ° 0 min 0,000 mm 1,2 UV-I 183 W/m² 7,9 °C 13,7 °C 8,0 km/h (2 Bft)
24.09.2017 17:01 13,8 °C 13,8 °C 69 % 1019,2 hPa 0,0 mm 8,0 km/h (2 Bft) O 84 ° 0 min 0,102 mm 1,2 UV-I 188 W/m² 8,2 °C 13,8 °C 12,9 km/h (3 Bft)
24.09.2017 17:02 13,8 °C 13,8 °C 70 % 1019,2 hPa 0,0 mm 6,4 km/h (2 Bft) O-NO 71 ° 0 min 0,000 mm 1,2 UV-I 207 W/m² 8,4 °C 13,8 °C 6,4 km/h (2 Bft)
24.09.2017 17:03 13,8 °C 13,8 °C 69 % 1019,2 hPa 0,0 mm 4,1 km/h (1 Bft) O-NO 71 ° 0 min 0,000 mm 1,2 UV-I 207 W/m² 8,2 °C 13,8 °C 6,4 km/h (2 Bft)
24.09.2017 17:04 13,8 °C 13,9 °C 70 % 1019,2 hPa 0,0 mm 7,1 km/h (2 Bft) O 94 ° 0 min 0,000 mm 1,2 UV-I 185 W/m² 8,4 °C 13,8 °C 11,3 km/h (2 Bft)
24.09.2017 17:05 13,8 °C 13,8 °C 68 % 1019,2 hPa 0,0 mm 3,2 km/h (1 Bft) O-NO 62 ° 0 min 0,000 mm 1,2 UV-I 174 W/m² 8,0 °C 13,8 °C 4,8 km/h (1 Bft)
24.09.2017 17:06 13,8 °C 13,9 °C 69 % 1019,3 hPa 0,0 mm 2,7 km/h (1 Bft) O-NO 62 ° 0 min 0,000 mm 1,2 UV-I 169 W/m² 8,2 °C 13,8 °C 4,8 km/h (1 Bft)
24.09.2017 17:07 13,9 °C 13,9 °C 69 % 1019,2 hPa 0,0 mm 1,9 km/h (1 Bft) O-NO 65 ° 0 min 0,000 mm 1,1 UV-I 156 W/m² 8,3 °C 13,9 °C 8,0 km/h (2 Bft)
24.09.2017 17:08 13,9 °C 13,9 °C 69 % 1019,2 hPa 0,0 mm 6,8 km/h (2 Bft) O-NO 58 ° 0 min 0,000 mm 1,1 UV-I 153 W/m² 8,3 °C 13,9 °C 8,0 km/h (2 Bft)
24.09.2017 17:09 14,0 °C 14,0 °C 68 % 1019,2 hPa 0,0 mm 5,3 km/h (1 Bft) O-SO 109 ° 0 min 0,000 mm 1,1 UV-I 156 W/m² 8,2 °C 14,0 °C 6,4 km/h (2 Bft)
24.09.2017 17:10 14,0 °C 14,0 °C 71 % 1019,3 hPa 0,0 mm 2,5 km/h (1 Bft) O-NO 67 ° 0 min 0,000 mm 1,1 UV-I 156 W/m² 8,8 °C 14,0 °C 4,8 km/h (1 Bft)
24.09.2017 17:11 13,9 °C 14,0 °C 68 % 1019,2 hPa 0,0 mm 2,2 km/h (1 Bft) O-NO 67 ° 0 min 0,000 mm 1,1 UV-I 151 W/m² 8,1 °C 13,9 °C 4,8 km/h (1 Bft)
24.09.2017 17:12 13,9 °C 13,9 °C 68 % 1019,3 hPa 0,0 mm 4,3 km/h (1 Bft) O-SO 106 ° 0 min 0,000 mm 1,0 UV-I 142 W/m² 8,1 °C 13,9 °C 6,4 km/h (2 Bft)
24.09.2017 17:13 13,9 °C 13,9 °C 68 % 1019,3 hPa 0,0 mm 0,7 km/h (0 Bft) O-SO 106 ° 0 min 0,000 mm 1,0 UV-I 132 W/m² 8,1 °C 13,9 °C 3,2 km/h (1 Bft)
24.09.2017 17:14 13,9 °C 13,9 °C 70 % 1019,3 hPa 0,0 mm 0,1 km/h (0 Bft) O-SO 106 ° 0 min 0,000 mm 1,0 UV-I 130 W/m² 8,5 °C 13,9 °C 1,6 km/h (1 Bft)
24.09.2017 17:15 13,8 °C 13,9 °C 69 % 1019,3 hPa 0,0 mm 0,9 km/h (0 Bft) O-NO 71 ° 0 min 0,000 mm 0,9 UV-I 128 W/m² 8,2 °C 13,8 °C 3,2 km/h (1 Bft)
24.09.2017 17:16 13,8 °C 13,8 °C 72 % 1019,3 hPa 0,0 mm 0,7 km/h (0 Bft) O-NO 71 ° 0 min 0,000 mm 0,9 UV-I 130 W/m² 8,8 °C 13,8 °C 1,6 km/h (1 Bft)
24.09.2017 17:17 13,8 °C 13,8 °C 69 % 1019,4 hPa 0,0 mm 0,3 km/h (0 Bft) O-NO 71 ° 0 min 0,000 mm 0,9 UV-I 132 W/m² 8,2 °C 13,8 °C 1,6 km/h (1 Bft)
24.09.2017 17:18 13,8 °C 13,8 °C 68 % 1019,4 hPa 0,0 mm 2,5 km/h (1 Bft) NO 54 ° 0 min 0,000 mm 0,9 UV-I 128 W/m² 8,0 °C 13,8 °C 6,4 km/h (2 Bft)
24.09.2017 17:19 13,8 °C 13,8 °C 71 % 1019,3 hPa 0,0 mm 2,7 km/h (1 Bft) O-SO 109 ° 0 min 0,000 mm 0,9 UV-I 118 W/m² 8,6 °C 13,8 °C 3,2 km/h (1 Bft)
24.09.2017 17:20 13,8 °C 13,8 °C 67 % 1019,4 hPa 0,0 mm 2,4 km/h (1 Bft) O-SO 111 ° 0 min 0,000 mm 0,8 UV-I 109 W/m² 7,8 °C 13,8 °C 3,2 km/h (1 Bft)
24.09.2017 17:21 13,8 °C 13,8 °C 67 % 1019,3 hPa 0,0 mm 3,0 km/h (1 Bft) O-SO 111 ° 0 min 0,000 mm 0,8 UV-I 100 W/m² 7,8 °C 13,8 °C 4,8 km/h (1 Bft)
24.09.2017 17:22 13,7 °C 13,8 °C 69 % 1019,3 hPa 0,0 mm 2,1 km/h (1 Bft) O-SO 110 ° 0 min 0,000 mm 0,8 UV-I 95 W/m² 8,1 °C 13,7 °C 3,2 km/h (1 Bft)
24.09.2017 17:23 13,7 °C 13,7 °C 73 % 1019,3 hPa 0,0 mm 2,3 km/h (1 Bft) O 88 ° 0 min 0,000 mm 0,8 UV-I 88 W/m² 8,9 °C 13,7 °C 4,8 km/h (1 Bft)
24.09.2017 17:24 13,6 °C 13,7 °C 71 % 1019,4 hPa 0,0 mm 1,8 km/h (1 Bft) O 89 ° 0 min 0,000 mm 0,8 UV-I 84 W/m² 8,4 °C 13,6 °C 4,8 km/h (1 Bft)
24.09.2017 17:25 13,6 °C 13,6 °C 72 % 1019,3 hPa 0,0 mm 3,0 km/h (1 Bft) O 89 ° 0 min 0,000 mm 0,8 UV-I 77 W/m² 8,6 °C 13,6 °C 4,8 km/h (1 Bft)
24.09.2017 17:26 13,6 °C 13,6 °C 70 % 1019,3 hPa 0,0 mm 3,8 km/h (1 Bft) O 89 ° 0 min 0,000 mm 0,8 UV-I 72 W/m² 8,2 °C 13,6 °C 4,8 km/h (1 Bft)
24.09.2017 17:27 13,5 °C 13,6 °C 72 % 1019,3 hPa 0,0 mm 2,2 km/h (1 Bft) O 89 ° 0 min 0,000 mm 0,7 UV-I 70 W/m² 8,6 °C 13,5 °C 4,8 km/h (1 Bft)
24.09.2017 17:28 13,4 °C 13,5 °C 75 % 1019,3 hPa 0,0 mm 2,5 km/h (1 Bft) O-NO 62 ° 0 min 0,000 mm 0,7 UV-I 67 W/m² 9,1 °C 13,4 °C 4,8 km/h (1 Bft)
24.09.2017 17:29 13,3 °C 13,4 °C 73 % 1019,3 hPa 0,0 mm 2,2 km/h (1 Bft) O-NO 62 ° 0 min 0,000 mm 0,7 UV-I 65 W/m² 8,6 °C 13,3 °C 3,2 km/h (1 Bft)
24.09.2017 17:30 13,3 °C 13,3 °C 73 % 1019,3 hPa 0,0 mm 1,7 km/h (1 Bft) O-NO 62 ° 0 min 0,000 mm 0,7 UV-I 58 W/m² 8,6 °C 13,3 °C 3,2 km/h (1 Bft)
24.09.2017 17:31 13,2 °C 13,3 °C 73 % 1019,3 hPa 0,0 mm 0,2 km/h (0 Bft) O-NO 62 ° 0 min 0,000 mm 0,0 UV-I 54 W/m² 8,5 °C 13,2 °C 1,6 km/h (1 Bft)
24.09.2017 17:32 13,2 °C 13,2 °C 73 % 1019,3 hPa 0,0 mm 0,7 km/h (0 Bft) O-NO 62 ° 0 min 0,000 mm 0,0 UV-I 54 W/m² 8,5 °C 13,2 °C 1,6 km/h (1 Bft)
24.09.2017 17:33 13,2 °C 13,2 °C 72 % 1019,2 hPa 0,0 mm 0,0 km/h (0 Bft) O-NO 62 ° 0 min 0,000 mm 0,0 UV-I 54 W/m² 8,3 °C 13,2 °C 0,0 km/h (0 Bft)
24.09.2017 17:34 13,1 °C 13,2 °C 71 % 1019,3 hPa 0,0 mm 0,2 km/h (0 Bft) O-NO 62 ° 0 min 0,000 mm 0,0 UV-I 54 W/m² 8,0 °C 13,1 °C 1,6 km/h (1 Bft)
24.09.2017 17:35 13,1 °C 13,1 °C 71 % 1019,2 hPa 0,0 mm 0,6 km/h (0 Bft) O-NO 62 ° 0 min 0,000 mm 0,0 UV-I 53 W/m² 8,0 °C 13,1 °C 1,6 km/h (1 Bft)
24.09.2017 17:36 13,1 °C 13,1 °C 71 % 1019,3 hPa 0,0 mm 1,7 km/h (1 Bft) SO 140 ° 0 min 0,000 mm 0,0 UV-I 51 W/m² 8,0 °C 13,1 °C 3,2 km/h (1 Bft)
24.09.2017 17:37 13,2 °C 13,2 °C 68 % 1019,3 hPa 0,0 mm 2,7 km/h (1 Bft) SO 136 ° 0 min 0,000 mm 0,0 UV-I 51 W/m² 7,4 °C 13,2 °C 4,8 km/h (1 Bft)
24.09.2017 17:39 13,1 °C 13,2 °C 71 % 1019,2 hPa 0,0 mm 3,0 km/h (1 Bft) O-SO 105 ° 0 min 0,000 mm 0,0 UV-I 53 W/m² 8,0 °C 13,1 °C 8,0 km/h (2 Bft)
24.09.2017 17:40 13,1 °C 13,1 °C 70 % 1019,2 hPa 0,0 mm 2,7 km/h (1 Bft) O-SO 109 ° 0 min 0,000 mm 0,0 UV-I 51 W/m² 7,8 °C 13,1 °C 6,4 km/h (2 Bft)
24.09.2017 17:41 13,0 °C 13,1 °C 70 % 1019,2 hPa 0,0 mm 2,2 km/h (1 Bft) SO 135 ° 0 min 0,000 mm 0,0 UV-I 53 W/m² 7,7 °C 13,0 °C 3,2 km/h (1 Bft)
24.09.2017 17:42 12,9 °C 13,1 °C 70 % 1019,2 hPa 0,0 mm 1,2 km/h (1 Bft) SO 135 ° 0 min 0,000 mm 0,0 UV-I 51 W/m² 7,6 °C 12,9 °C 1,6 km/h (1 Bft)
24.09.2017 17:43 12,9 °C 12,9 °C 71 % 1019,1 hPa 0,0 mm 1,5 km/h (1 Bft) SO 134 ° 0 min 0,000 mm 0,0 UV-I 49 W/m² 7,8 °C 12,9 °C 1,6 km/h (1 Bft)
24.09.2017 17:44 12,8 °C 12,9 °C 73 % 1019,2 hPa 0,0 mm 0,5 km/h (0 Bft) SO 134 ° 0 min 0,000 mm 0,0 UV-I 49 W/m² 8,1 °C 12,8 °C 1,6 km/h (1 Bft)
24.09.2017 17:45 12,8 °C 12,8 °C 72 % 1019,2 hPa 0,0 mm 0,3 km/h (0 Bft) SO 134 ° 0 min 0,000 mm 0,0 UV-I 47 W/m² 7,9 °C 12,8 °C 1,6 km/h (1 Bft)
24.09.2017 17:46 12,7 °C 12,8 °C 73 % 1019,2 hPa 0,0 mm 0,9 km/h (0 Bft) SO 134 ° 0 min 0,000 mm 0,0 UV-I 47 W/m² 8,0 °C 12,7 °C 3,2 km/h (1 Bft)
24.09.2017 17:47 12,7 °C 12,8 °C 70 % 1019,2 hPa 0,0 mm 3,1 km/h (1 Bft) SO 132 ° 0 min 0,000 mm 0,0 UV-I 46 W/m² 7,4 °C 12,7 °C 4,8 km/h (1 Bft)
24.09.2017 17:48 12,8 °C 12,8 °C 73 % 1019,2 hPa 0,0 mm 3,1 km/h (1 Bft) SO 142 ° 0 min 0,000 mm 0,0 UV-I 42 W/m² 8,1 °C 12,8 °C 4,8 km/h (1 Bft)
24.09.2017 17:49 12,7 °C 12,8 °C 73 % 1019,2 hPa 0,0 mm 3,9 km/h (1 Bft) SO 130 ° 0 min 0,000 mm 0,0 UV-I 40 W/m² 8,0 °C 12,7 °C 8,0 km/h (2 Bft)
24.09.2017 17:50 12,7 °C 12,7 °C 73 % 1019,2 hPa 0,0 mm 3,9 km/h (1 Bft) SO 141 ° 0 min 0,000 mm 0,0 UV-I 40 W/m² 8,0 °C 12,7 °C 6,4 km/h (2 Bft)
24.09.2017 17:51 12,7 °C 12,7 °C 73 % 1019,2 hPa 0,0 mm 2,1 km/h (1 Bft) SO 141 ° 0 min 0,000 mm 0,0 UV-I 39 W/m² 8,0 °C 12,7 °C 3,2 km/h (1 Bft)
24.09.2017 17:52 12,7 °C 12,7 °C 73 % 1019,2 hPa 0,0 mm 1,1 km/h (1 Bft) SO 141 ° 0 min 0,000 mm 0,0 UV-I 39 W/m² 8,0 °C 12,7 °C 1,6 km/h (1 Bft)
24.09.2017 17:53 12,6 °C 12,7 °C 72 % 1019,2 hPa 0,0 mm 0,5 km/h (0 Bft) SO 141 ° 0 min 0,000 mm 0,0 UV-I 35 W/m² 7,7 °C 12,6 °C 3,2 km/h (1 Bft)
24.09.2017 17:54 12,6 °C 12,6 °C 72 % 1019,2 hPa 0,0 mm 0,0 km/h (0 Bft) SO 141 ° 0 min 0,000 mm 0,0 UV-I 33 W/m² 7,7 °C 12,6 °C 0,0 km/h (0 Bft)
24.09.2017 17:55 12,6 °C 12,6 °C 72 % 1019,2 hPa 0,0 mm 0,0 km/h (0 Bft) SO 141 ° 0 min 0,000 mm 0,0 UV-I 32 W/m² 7,7 °C 12,6 °C 0,0 km/h (0 Bft)
24.09.2017 17:56 12,6 °C 12,6 °C 72 % 1019,2 hPa 0,0 mm 0,0 km/h (0 Bft) SO 141 ° 0 min 0,000 mm 0,0 UV-I 30 W/m² 7,7 °C 12,6 °C 0,0 km/h (0 Bft)
24.09.2017 17:57 12,6 °C 12,6 °C 71 % 1019,2 hPa 0,0 mm 0,0 km/h (0 Bft) SO 141 ° 0 min 0,000 mm 0,0 UV-I 30 W/m² 7,5 °C 12,6 °C 0,0 km/h (0 Bft)
24.09.2017 17:58 12,6 °C 12,6 °C 72 % 1019,2 hPa 0,0 mm 0,6 km/h (0 Bft) SO 141 ° 0 min 0,000 mm 0,0 UV-I 28 W/m² 7,7 °C 12,6 °C 1,6 km/h (1 Bft)
24.09.2017 17:59 12,6 °C 12,6 °C 72 % 1019,2 hPa 0,0 mm 0,9 km/h (0 Bft) SO 141 ° 0 min 0,000 mm 0,0 UV-I 28 W/m² 7,7 °C 12,6 °C 1,6 km/h (1 Bft)
24.09.2017 18:00 12,6 °C 12,6 °C 72 % 1019,2 hPa 0,0 mm 0,1 km/h (0 Bft) SO 141 ° 0 min 0,000 mm 0,0 UV-I 26 W/m² 7,7 °C 12,6 °C 1,6 km/h (1 Bft)
24.09.2017 18:01 12,5 °C 12,6 °C 73 % 1019,2 hPa 0,0 mm 0,0 km/h (0 Bft) SO 141 ° 0 min 0,051 mm 0,0 UV-I 25 W/m² 7,8 °C 12,5 °C 0,0 km/h (0 Bft)
24.09.2017 18:02 12,4 °C 12,5 °C 73 % 1019,3 hPa 0,0 mm 0,0 km/h (0 Bft) SO 141 ° 0 min 0,000 mm 0,0 UV-I 25 W/m² 7,7 °C 12,4 °C 0,0 km/h (0 Bft)
24.09.2017 18:03 12,4 °C 12,4 °C 74 % 1019,3 hPa 0,0 mm 0,0 km/h (0 Bft) SO 141 ° 0 min 0,000 mm 0,0 UV-I 25 W/m² 7,9 °C 12,4 °C 0,0 km/h (0 Bft)
24.09.2017 18:04 12,3 °C 12,4 °C 76 % 1019,3 hPa 0,0 mm 0,0 km/h (0 Bft) SO 141 ° 0 min 0,000 mm 0,0 UV-I 25 W/m² 8,2 °C 12,3 °C 0,0 km/h (0 Bft)
24.09.2017 18:05 12,2 °C 12,3 °C 76 % 1019,3 hPa 0,0 mm 0,0 km/h (0 Bft) SO 141 ° 0 min 0,000 mm 0,0 UV-I 25 W/m² 8,1 °C 12,2 °C 0,0 km/h (0 Bft)
24.09.2017 18:06 12,2 °C 12,2 °C 76 % 1019,3 hPa 0,0 mm 0,0 km/h (0 Bft) SO 141 ° 0 min 0,000 mm 0,0 UV-I 25 W/m² 8,1 °C 12,2 °C 0,0 km/h (0 Bft)
24.09.2017 18:07 12,1 °C 12,2 °C 77 % 1019,3 hPa 0,0 mm 0,2 km/h (0 Bft) SO 141 ° 0 min 0,000 mm 0,0 UV-I 25 W/m² 8,2 °C 12,1 °C 1,6 km/h (1 Bft)
24.09.2017 18:08 12,1 °C 12,1 °C 77 % 1019,3 hPa 0,0 mm 0,0 km/h (0 Bft) SO 141 ° 0 min 0,000 mm 0,0 UV-I 26 W/m² 8,2 °C 12,1 °C 0,0 km/h (0 Bft)
24.09.2017 18:09 12,0 °C 12,1 °C 78 % 1019,3 hPa 0,0 mm 0,0 km/h (0 Bft) SO 141 ° 0 min 0,000 mm 0,0 UV-I 26 W/m² 8,3 °C 12,0 °C 0,0 km/h (0 Bft)
24.09.2017 18:10 11,9 °C 12,0 °C 78 % 1019,3 hPa 0,0 mm 0,1 km/h (0 Bft) SO 141 ° 0 min 0,000 mm 0,0 UV-I 26 W/m² 8,2 °C 11,9 °C 1,6 km/h (1 Bft)
24.09.2017 18:11 11,9 °C 11,9 °C 78 % 1019,3 hPa 0,0 mm 0,5 km/h (0 Bft) SO 141 ° 0 min 0,000 mm 0,0 UV-I 26 W/m² 8,2 °C 11,9 °C 1,6 km/h (1 Bft)
24.09.2017 18:12 11,9 °C 11,9 °C 78 % 1019,3 hPa 0,0 mm 0,1 km/h (0 Bft) SO 141 ° 0 min 0,000 mm 0,0 UV-I 26 W/m² 8,2 °C 11,9 °C 1,6 km/h (1 Bft)
24.09.2017 18:13 11,8 °C 11,9 °C 78 % 1019,3 hPa 0,0 mm 0,3 km/h (0 Bft) SO 141 ° 0 min 0,000 mm 0,0 UV-I 26 W/m² 8,1 °C 11,8 °C 1,6 km/h (1 Bft)
24.09.2017 18:14 11,8 °C 11,8 °C 79 % 1019,3 hPa 0,0 mm 0,0 km/h (0 Bft) SO 141 ° 0 min 0,000 mm 0,0 UV-I 26 W/m² 8,3 °C 11,8 °C 0,0 km/h (0 Bft)
24.09.2017 18:15 11,8 °C 11,8 °C 78 % 1019,3 hPa 0,0 mm 0,2 km/h (0 Bft) SO 141 ° 0 min 0,000 mm 0,0 UV-I 26 W/m² 8,1 °C 11,8 °C 1,6 km/h (1 Bft)
24.09.2017 18:16 11,8 °C 11,8 °C 78 % 1019,3 hPa 0,0 mm 0,0 km/h (0 Bft) SO 141 ° 0 min 0,000 mm 0,0 UV-I 26 W/m² 8,1 °C 11,8 °C 0,0 km/h (0 Bft)
24.09.2017 18:17 11,8 °C 11,8 °C 79 % 1019,3 hPa 0,0 mm 0,0 km/h (0 Bft) SO 141 ° 0 min 0,000 mm 0,0 UV-I 26 W/m² 8,3 °C 11,8 °C 0,0 km/h (0 Bft)
24.09.2017 18:18 11,7 °C 11,8 °C 79 % 1019,3 hPa 0,0 mm 0,1 km/h (0 Bft) SO 141 ° 0 min 0,000 mm 0,0 UV-I 25 W/m² 8,2 °C 11,7 °C 1,6 km/h (1 Bft)
24.09.2017 18:19 11,7 °C 11,7 °C 80 % 1019,3 hPa 0,0 mm 0,2 km/h (0 Bft) SO 141 ° 0 min 0,000 mm 0,0 UV-I 25 W/m² 8,4 °C 11,7 °C 1,6 km/h (1 Bft)
24.09.2017 18:20 11,7 °C 11,7 °C 79 % 1019,3 hPa 0,0 mm 2,7 km/h (1 Bft) S-SO 154 ° 0 min 0,000 mm 0,0 UV-I 25 W/m² 8,2 °C 11,7 °C 4,8 km/h (1 Bft)
24.09.2017 18:21 11,6 °C 11,7 °C 80 % 1019,3 hPa 0,0 mm 4,2 km/h (1 Bft) S-SO 154 ° 0 min 0,000 mm 0,0 UV-I 23 W/m² 8,3 °C 11,6 °C 4,8 km/h (1 Bft)
24.09.2017 18:22 11,4 °C 11,6 °C 81 % 1019,3 hPa 0,0 mm 3,3 km/h (1 Bft) S-SO 154 ° 0 min 0,000 mm 0,0 UV-I 23 W/m² 8,3 °C 11,4 °C 4,8 km/h (1 Bft)
24.09.2017 18:23 11,4 °C 11,4 °C 81 % 1019,3 hPa 0,0 mm 2,9 km/h (1 Bft) S-SO 154 ° 0 min 0,000 mm 0,0 UV-I 21 W/m² 8,3 °C 11,4 °C 4,8 km/h (1 Bft)
24.09.2017 18:24 11,4 °C 11,4 °C 81 % 1019,3 hPa 0,0 mm 1,5 km/h (1 Bft) S-SO 154 ° 0 min 0,000 mm 0,0 UV-I 21 W/m² 8,3 °C 11,4 °C 3,2 km/h (1 Bft)
24.09.2017 18:25 11,3 °C 11,4 °C 81 % 1019,3 hPa 0,0 mm 0,9 km/h (0 Bft) S-SO 154 ° 0 min 0,000 mm 0,0 UV-I 19 W/m² 8,2 °C 11,3 °C 1,6 km/h (1 Bft)
24.09.2017 18:26 11,3 °C 11,3 °C 82 % 1019,3 hPa 0,0 mm 0,0 km/h (0 Bft) S-SO 154 ° 0 min 0,000 mm 0,0 UV-I 19 W/m² 8,3 °C 11,3 °C 0,0 km/h (0 Bft)
24.09.2017 18:27 11,3 °C 11,3 °C 82 % 1019,4 hPa 0,0 mm 0,0 km/h (0 Bft) S-SO 154 ° 0 min 0,000 mm 0,0 UV-I 19 W/m² 8,3 °C 11,3 °C 0,0 km/h (0 Bft)
24.09.2017 18:28 11,2 °C 11,3 °C 82 % 1019,3 hPa 0,0 mm 0,0 km/h (0 Bft) S-SO 154 ° 0 min 0,000 mm 0,0 UV-I 18 W/m² 8,2 °C 11,2 °C 0,0 km/h (0 Bft)
24.09.2017 18:29 11,2 °C 11,2 °C 82 % 1019,3 hPa 0,0 mm 0,8 km/h (0 Bft) S-SO 154 ° 0 min 0,000 mm 0,0 UV-I 18 W/m² 8,2 °C 11,2 °C 3,2 km/h (1 Bft)
24.09.2017 18:30 11,2 °C 11,2 °C 82 % 1019,3 hPa 0,0 mm 2,1 km/h (1 Bft) S-SO 154 ° 0 min 0,000 mm 0,0 UV-I 16 W/m² 8,2 °C 11,2 °C 3,2 km/h (1 Bft)
24.09.2017 18:31 11,2 °C 11,2 °C 82 % 1019,4 hPa 0,0 mm 0,6 km/h (0 Bft) S-SO 154 ° 0 min 0,000 mm 0,0 UV-I 16 W/m² 8,2 °C 11,2 °C 1,6 km/h (1 Bft)
24.09.2017 18:32 11,2 °C 11,2 °C 82 % 1019,4 hPa 0,0 mm 0,0 km/h (0 Bft) S-SO 154 ° 0 min 0,000 mm 0,0 UV-I 16 W/m² 8,2 °C 11,2 °C 0,0 km/h (0 Bft)
24.09.2017 18:33 11,2 °C 11,2 °C 84 % 1019,4 hPa 0,0 mm 0,0 km/h (0 Bft) S-SO 154 ° 0 min 0,000 mm 0,0 UV-I 14 W/m² 8,6 °C 11,2 °C 0,0 km/h (0 Bft)
24.09.2017 18:34 11,1 °C 11,2 °C 83 % 1019,4 hPa 0,0 mm 0,1 km/h (0 Bft) S-SO 154 ° 0 min 0,000 mm 0,0 UV-I 14 W/m² 8,3 °C 11,1 °C 1,6 km/h (1 Bft)
24.09.2017 18:35 11,1 °C 11,1 °C 83 % 1019,4 hPa 0,0 mm 0,0 km/h (0 Bft) S-SO 154 ° 0 min 0,000 mm 0,0 UV-I 14 W/m² 8,3 °C 11,1 °C 0,0 km/h (0 Bft)
24.09.2017 18:36 11,1 °C 11,1 °C 83 % 1019,5 hPa 0,0 mm 0,0 km/h (0 Bft) S-SO 154 ° 0 min 0,000 mm 0,0 UV-I 12 W/m² 8,3 °C 11,1 °C 0,0 km/h (0 Bft)
24.09.2017 18:37 11,1 °C 11,1 °C 82 % 1019,5 hPa 0,0 mm 0,0 km/h (0 Bft) S-SO 154 ° 0 min 0,000 mm 0,0 UV-I 12 W/m² 8,1 °C 11,1 °C 0,0 km/h (0 Bft)
24.09.2017 18:38 11,0 °C 11,1 °C 83 % 1019,4 hPa 0,0 mm 0,0 km/h (0 Bft) S-SO 154 ° 0 min 0,000 mm 0,0 UV-I 12 W/m² 8,2 °C 11,0 °C 0,0 km/h (0 Bft)
24.09.2017 18:39 10,9 °C 11,0 °C 83 % 1019,5 hPa 0,0 mm 0,0 km/h (0 Bft) S-SO 154 ° 0 min 0,000 mm 0,0 UV-I 12 W/m² 8,1 °C 10,9 °C 0,0 km/h (0 Bft)
24.09.2017 18:40 10,9 °C 10,9 °C 84 % 1019,4 hPa 0,0 mm 0,0 km/h (0 Bft) S-SO 154 ° 0 min 0,000 mm 0,0 UV-I 12 W/m² 8,3 °C 10,9 °C 0,0 km/h (0 Bft)
24.09.2017 18:41 10,8 °C 10,9 °C 84 % 1019,4 hPa 0,0 mm 0,0 km/h (0 Bft) S-SO 154 ° 0 min 0,000 mm 0,0 UV-I 11 W/m² 8,2 °C 10,8 °C 0,0 km/h (0 Bft)
24.09.2017 18:42 10,8 °C 10,8 °C 84 % 1019,4 hPa 0,0 mm 0,0 km/h (0 Bft) S-SO 154 ° 0 min 0,000 mm 0,0 UV-I 11 W/m² 8,2 °C 10,8 °C 0,0 km/h (0 Bft)
24.09.2017 18:43 10,7 °C 10,8 °C 84 % 1019,4 hPa 0,0 mm 0,0 km/h (0 Bft) S-SO 154 ° 0 min 0,000 mm 0,0 UV-I 11 W/m² 8,1 °C 10,7 °C 0,0 km/h (0 Bft)
24.09.2017 18:44 10,6 °C 10,7 °C 84 % 1019,4 hPa 0,0 mm 0,0 km/h (0 Bft) S-SO 154 ° 0 min 0,000 mm 0,0 UV-I 11 W/m² 8,0 °C 10,6 °C 0,0 km/h (0 Bft)
24.09.2017 18:45 10,3 °C 10,6 °C 85 % 1019,4 hPa 0,0 mm 0,0 km/h (0 Bft) S-SO 154 ° 0 min 0,000 mm 0,0 UV-I 9 W/m² 7,9 °C 10,3 °C 0,0 km/h (0 Bft)
24.09.2017 18:46 10,3 °C 10,3 °C 85 % 1019,4 hPa 0,0 mm 0,0 km/h (0 Bft) S-SO 154 ° 0 min 0,000 mm 0,0 UV-I 9 W/m² 7,9 °C 10,3 °C 0,0 km/h (0 Bft)
24.09.2017 18:47 10,2 °C 10,3 °C 86 % 1019,4 hPa 0,0 mm 0,0 km/h (0 Bft) S-SO 154 ° 0 min 0,000 mm 0,0 UV-I 9 W/m² 8,0 °C 10,2 °C 0,0 km/h (0 Bft)
24.09.2017 18:48 10,3 °C 10,3 °C 86 % 1019,4 hPa 0,0 mm 0,0 km/h (0 Bft) S-SO 154 ° 0 min 0,000 mm 0,0 UV-I 7 W/m² 8,1 °C 10,3 °C 0,0 km/h (0 Bft)
24.09.2017 18:49 10,3 °C 10,3 °C 86 % 1019,5 hPa 0,0 mm 0,0 km/h (0 Bft) S-SO 154 ° 0 min 0,000 mm 0,0 UV-I 7 W/m² 8,1 °C 10,3 °C 0,0 km/h (0 Bft)
24.09.2017 18:50 10,3 °C 10,3 °C 86 % 1019,5 hPa 0,0 mm 0,0 km/h (0 Bft) S-SO 154 ° 0 min 0,000 mm 0,0 UV-I 7 W/m² 8,1 °C 10,3 °C 0,0 km/h (0 Bft)
24.09.2017 18:51 10,3 °C 10,3 °C 86 % 1019,5 hPa 0,0 mm 0,0 km/h (0 Bft) S-SO 154 ° 0 min 0,000 mm 0,0 UV-I 7 W/m² 8,1 °C 10,3 °C 0,0 km/h (0 Bft)
24.09.2017 18:52 10,3 °C 10,4 °C 86 % 1019,5 hPa 0,0 mm 0,0 km/h (0 Bft) S-SO 154 ° 0 min 0,000 mm 0,0 UV-I 7 W/m² 8,1 °C 10,3 °C 0,0 km/h (0 Bft)
24.09.2017 18:53 10,3 °C 10,3 °C 86 % 1019,5 hPa 0,0 mm 0,0 km/h (0 Bft) S-SO 154 ° 0 min 0,000 mm 0,0 UV-I 7 W/m² 8,1 °C 10,3 °C 0,0 km/h (0 Bft)
24.09.2017 18:54 10,3 °C 10,3 °C 86 % 1019,5 hPa 0,0 mm 0,0 km/h (0 Bft) S-SO 154 ° 0 min 0,000 mm 0,0 UV-I 5 W/m² 8,1 °C 10,3 °C 0,0 km/h (0 Bft)
24.09.2017 18:55 10,3 °C 10,3 °C 86 % 1019,5 hPa 0,0 mm 0,0 km/h (0 Bft) S-SO 154 ° 0 min 0,000 mm 0,0 UV-I 5 W/m² 8,1 °C 10,3 °C 0,0 km/h (0 Bft)
24.09.2017 18:57 10,2 °C 10,3 °C 86 % 1019,5 hPa 0,0 mm 0,0 km/h (0 Bft) S-SO 154 ° 0 min 0,000 mm 0,0 UV-I 5 W/m² 8,0 °C 10,2 °C 0,0 km/h (0 Bft)
24.09.2017 18:58 10,2 °C 10,2 °C 86 % 1019,5 hPa 0,0 mm 0,7 km/h (0 Bft) S-SO 154 ° 0 min 0,000 mm 0,0 UV-I 5 W/m² 8,0 °C 10,2 °C 3,2 km/h (1 Bft)
24.09.2017 18:59 10,1 °C 10,2 °C 86 % 1019,5 hPa 0,0 mm 3,9 km/h (1 Bft) S 171 ° 0 min 0,000 mm 0,0 UV-I 5 W/m² 7,9 °C 10,1 °C 6,4 km/h (2 Bft)
24.09.2017 19:00 9,9 °C 10,1 °C 86 % 1019,5 hPa 0,0 mm 5,2 km/h (1 Bft) S 171 ° 0 min 0,000 mm 0,0 UV-I 5 W/m² 7,7 °C 9,6 °C 6,4 km/h (2 Bft)
24.09.2017 19:01 9,8 °C 9,9 °C 87 % 1019,4 hPa 0,0 mm 5,5 km/h (1 Bft) S 171 ° 0 min 0,000 mm 0,0 UV-I 5 W/m² 7,7 °C 9,4 °C 6,4 km/h (2 Bft)
24.09.2017 19:02 9,7 °C 9,8 °C 87 % 1019,5 hPa 0,0 mm 6,4 km/h (2 Bft) S 171 ° 0 min 0,000 mm 0,0 UV-I 0 W/m² 7,6 °C 9,0 °C 8,0 km/h (2 Bft)
24.09.2017 19:03 9,7 °C 9,7 °C 88 % 1019,5 hPa 0,0 mm 5,6 km/h (1 Bft) S 171 ° 0 min 0,000 mm 0,0 UV-I 0 W/m² 7,8 °C 9,2 °C 8,0 km/h (2 Bft)
24.09.2017 19:04 9,7 °C 9,7 °C 88 % 1019,4 hPa 0,0 mm 4,1 km/h (1 Bft) S 171 ° 0 min 0,000 mm 0,0 UV-I 0 W/m² 7,8 °C 9,7 °C 6,4 km/h (2 Bft)
24.09.2017 19:05 9,7 °C 9,7 °C 88 % 1019,4 hPa 0,0 mm 5,4 km/h (1 Bft) S 171 ° 0 min 0,000 mm 0,0 UV-I 0 W/m² 7,8 °C 9,3 °C 6,4 km/h (2 Bft)
24.09.2017 19:06 9,7 °C 9,7 °C 88 % 1019,4 hPa 0,0 mm 4,2 km/h (1 Bft) S 171 ° 0 min 0,000 mm 0,0 UV-I 0 W/m² 7,8 °C 9,7 °C 6,4 km/h (2 Bft)
24.09.2017 19:07 9,8 °C 9,8 °C 88 % 1019,5 hPa 0,0 mm 4,5 km/h (1 Bft) S 171 ° 0 min 0,000 mm 0,0 UV-I 0 W/m² 7,9 °C 9,8 °C 6,4 km/h (2 Bft)
24.09.2017 19:08 9,7 °C 9,8 °C 88 % 1019,5 hPa 0,0 mm 4,6 km/h (1 Bft) S 171 ° 0 min 0,000 mm 0,0 UV-I 0 W/m² 7,8 °C 9,5 °C 6,4 km/h (2 Bft)
24.09.2017 19:09 9,7 °C 9,7 °C 88 % 1019,5 hPa 0,0 mm 3,4 km/h (1 Bft) S 171 ° 0 min 0,000 mm 0,0 UV-I 0 W/m² 7,8 °C 9,7 °C 6,4 km/h (2 Bft)
24.09.2017 19:10 9,7 °C 9,7 °C 88 % 1019,5 hPa 0,0 mm 2,7 km/h (1 Bft) S 171 ° 0 min 0,000 mm 0,0 UV-I 0 W/m² 7,8 °C 9,7 °C 3,2 km/h (1 Bft)
24.09.2017 19:11 9,7 °C 9,7 °C 88 % 1019,5 hPa 0,0 mm 2,3 km/h (1 Bft) S 171 ° 0 min 0,000 mm 0,0 UV-I 0 W/m² 7,8 °C 9,7 °C 3,2 km/h (1 Bft)
24.09.2017 19:12 9,7 °C 9,7 °C 88 % 1019,5 hPa 0,0 mm 1,4 km/h (1 Bft) S 171 ° 0 min 0,000 mm 0,0 UV-I 0 W/m² 7,8 °C 9,7 °C 1,6 km/h (1 Bft)
24.09.2017 19:13 9,7 °C 9,8 °C 88 % 1019,5 hPa 0,0 mm 1,0 km/h (0 Bft) S 171 ° 0 min 0,000 mm 0,0 UV-I 0 W/m² 7,8 °C 9,7 °C 1,6 km/h (1 Bft)
24.09.2017 19:14 9,8 °C 9,8 °C 88 % 1019,5 hPa 0,0 mm 1,2 km/h (1 Bft) S 171 ° 0 min 0,000 mm 0,0 UV-I 0 W/m² 7,9 °C 9,8 °C 1,6 km/h (1 Bft)
24.09.2017 19:15 9,8 °C 9,8 °C 88 % 1019,5 hPa 0,0 mm 1,1 km/h (1 Bft) S 171 ° 0 min 0,000 mm 0,0 UV-I 0 W/m² 7,9 °C 9,8 °C 1,6 km/h (1 Bft)
24.09.2017 19:16 9,8 °C 9,8 °C 88 % 1019,5 hPa 0,0 mm 0,9 km/h (0 Bft) S 171 ° 0 min 0,000 mm 0,0 UV-I 0 W/m² 7,9 °C 9,8 °C 3,2 km/h (1 Bft)
24.09.2017 19:17 9,8 °C 9,8 °C 88 % 1019,5 hPa 0,0 mm 1,5 km/h (1 Bft) S 171 ° 0 min 0,000 mm 0,0 UV-I 0 W/m² 7,9 °C 9,8 °C 3,2 km/h (1 Bft)
24.09.2017 19:19 9,9 °C 9,9 °C 88 % 1019,4 hPa 0,0 mm 0,6 km/h (0 Bft) S 171 ° 0 min 0,000 mm 0,0 UV-I 0 W/m² 8,0 °C 9,9 °C 1,6 km/h (1 Bft)
24.09.2017 19:20 9,8 °C 9,9 °C 88 % 1019,4 hPa 0,0 mm 0,1 km/h (0 Bft) S 171 ° 0 min 0,000 mm 0,0 UV-I 0 W/m² 7,9 °C 9,8 °C 1,6 km/h (1 Bft)
24.09.2017 19:21 9,8 °C 9,8 °C 87 % 1019,5 hPa 0,0 mm 1,0 km/h (0 Bft) S 171 ° 0 min 0,000 mm 0,0 UV-I 0 W/m² 7,7 °C 9,8 °C 1,6 km/h (1 Bft)
24.09.2017 19:22 9,7 °C 9,8 °C 87 % 1019,4 hPa 0,0 mm 2,0 km/h (1 Bft) S 171 ° 0 min 0,000 mm 0,0 UV-I 0 W/m² 7,6 °C 9,7 °C 3,2 km/h (1 Bft)
24.09.2017 19:24 9,4 °C 9,7 °C 87 % 1019,5 hPa 0,0 mm 0,7 km/h (0 Bft) S 171 ° 0 min 0,000 mm 0,0 UV-I 0 W/m² 7,3 °C 9,4 °C 1,6 km/h (1 Bft)
24.09.2017 19:25 9,3 °C 9,4 °C 88 % 1019,5 hPa 0,0 mm 0,0 km/h (0 Bft) S 171 ° 0 min 0,000 mm 0,0 UV-I 0 W/m² 7,4 °C 9,3 °C 0,0 km/h (0 Bft)
24.09.2017 19:26 9,2 °C 9,3 °C 88 % 1019,5 hPa 0,0 mm 0,0 km/h (0 Bft) S 171 ° 0 min 0,000 mm 0,0 UV-I 0 W/m² 7,3 °C 9,2 °C 0,0 km/h (0 Bft)
24.09.2017 19:27 9,2 °C 9,2 °C 89 % 1019,5 hPa 0,0 mm 0,0 km/h (0 Bft) S 171 ° 0 min 0,000 mm 0,0 UV-I 0 W/m² 7,5 °C 9,2 °C 0,0 km/h (0 Bft)
24.09.2017 19:28 9,1 °C 9,2 °C 89 % 1019,5 hPa 0,0 mm 0,0 km/h (0 Bft) S 171 ° 0 min 0,000 mm 0,0 UV-I 0 W/m² 7,4 °C 9,1 °C 0,0 km/h (0 Bft)
24.09.2017 19:29 9,1 °C 9,1 °C 89 % 1019,5 hPa 0,0 mm 0,0 km/h (0 Bft) S 171 ° 0 min 0,000 mm 0,0 UV-I 0 W/m² 7,4 °C 9,1 °C 0,0 km/h (0 Bft)
24.09.2017 19:31 9,2 °C 9,2 °C 90 % 1019,5 hPa 0,0 mm 0,0 km/h (0 Bft) S 171 ° 0 min 0,000 mm 0,0 UV-I 0 W/m² 7,6 °C 9,2 °C 0,0 km/h (0 Bft)
24.09.2017 19:32 9,3 °C 9,3 °C 90 % 1019,5 hPa 0,0 mm 0,0 km/h (0 Bft) S 171 ° 0 min 0,000 mm 0,0 UV-I 0 W/m² 7,7 °C 9,3 °C 0,0 km/h (0 Bft)
24.09.2017 19:33 9,3 °C 9,3 °C 90 % 1019,5 hPa 0,0 mm 0,0 km/h (0 Bft) S 171 ° 0 min 0,000 mm 0,0 UV-I 0 W/m² 7,7 °C 9,3 °C 0,0 km/h (0 Bft)
24.09.2017 19:34 9,4 °C 9,4 °C 90 % 1019,6 hPa 0,0 mm 0,0 km/h (0 Bft) S 171 ° 0 min 0,000 mm 0,0 UV-I 0 W/m² 7,8 °C 9,4 °C 0,0 km/h (0 Bft)
24.09.2017 19:35 9,4 °C 9,4 °C 90 % 1019,6 hPa 0,0 mm 0,0 km/h (0 Bft) S 171 ° 0 min 0,000 mm 0,0 UV-I 0 W/m² 7,8 °C 9,4 °C 0,0 km/h (0 Bft)
24.09.2017 19:36 9,4 °C 9,4 °C 90 % 1019,6 hPa 0,0 mm 0,0 km/h (0 Bft) S 171 ° 0 min 0,000 mm 0,0 UV-I 0 W/m² 7,8 °C 9,4 °C 0,0 km/h (0 Bft)
24.09.2017 19:37 9,4 °C 9,4 °C 89 % 1019,6 hPa 0,0 mm 0,0 km/h (0 Bft) S 171 ° 0 min 0,000 mm 0,0 UV-I 0 W/m² 7,7 °C 9,4 °C 0,0 km/h (0 Bft)
24.09.2017 19:39 9,3 °C 9,4 °C 89 % 1019,6 hPa 0,0 mm 0,0 km/h (0 Bft) S 171 ° 0 min 0,000 mm 0,0 UV-I 0 W/m² 7,6 °C 9,3 °C 0,0 km/h (0 Bft)
24.09.2017 19:40 9,2 °C 9,3 °C 89 % 1019,6 hPa 0,0 mm 0,0 km/h (0 Bft) S 171 ° 0 min 0,000 mm 0,0 UV-I 0 W/m² 7,5 °C 9,2 °C 0,0 km/h (0 Bft)
24.09.2017 19:41 9,2 °C 9,2 °C 90 % 1019,6 hPa 0,0 mm 0,0 km/h (0 Bft) S 171 ° 0 min 0,000 mm 0,0 UV-I 0 W/m² 7,6 °C 9,2 °C 0,0 km/h (0 Bft)
24.09.2017 19:42 9,3 °C 9,3 °C 90 % 1019,6 hPa 0,0 mm 0,0 km/h (0 Bft) S 171 ° 0 min 0,000 mm 0,0 UV-I 0 W/m² 7,7 °C 9,3 °C 0,0 km/h (0 Bft)
24.09.2017 19:44 9,3 °C 9,3 °C 90 % 1019,6 hPa 0,0 mm 0,0 km/h (0 Bft) S 171 ° 0 min 0,000 mm 0,0 UV-I 0 W/m² 7,7 °C 9,3 °C 0,0 km/h (0 Bft)
24.09.2017 19:45 9,3 °C 9,3 °C 90 % 1019,6 hPa 0,0 mm 0,0 km/h (0 Bft) S 171 ° 0 min 0,000 mm 0,0 UV-I 0 W/m² 7,7 °C 9,3 °C 0,0 km/h (0 Bft)
24.09.2017 19:46 9,4 °C 9,4 °C 90 % 1019,6 hPa 0,0 mm 0,0 km/h (0 Bft) S 171 ° 0 min 0,000 mm 0,0 UV-I 0 W/m² 7,8 °C 9,4 °C 0,0 km/h (0 Bft)
24.09.2017 19:47 9,4 °C 9,4 °C 90 % 1019,7 hPa 0,0 mm 0,0 km/h (0 Bft) S 171 ° 0 min 0,000 mm 0,0 UV-I 0 W/m² 7,8 °C 9,4 °C 0,0 km/h (0 Bft)
24.09.2017 19:48 9,3 °C 9,4 °C 90 % 1019,7 hPa 0,0 mm 0,0 km/h (0 Bft) S 171 ° 0 min 0,000 mm 0,0 UV-I 0 W/m² 7,7 °C 9,3 °C 0,0 km/h (0 Bft)
24.09.2017 19:49 9,3 °C 9,3 °C 90 % 1019,7 hPa 0,0 mm 0,0 km/h (0 Bft) S 171 ° 0 min 0,000 mm 0,0 UV-I 0 W/m² 7,7 °C 9,3 °C 0,0 km/h (0 Bft)
24.09.2017 19:50 9,2 °C 9,3 °C 90 % 1019,7 hPa 0,0 mm 0,0 km/h (0 Bft) S 171 ° 0 min 0,000 mm 0,0 UV-I 0 W/m² 7,6 °C 9,2 °C 0,0 km/h (0 Bft)
24.09.2017 19:51 9,2 °C 9,3 °C 90 % 1019,7 hPa 0,0 mm 0,0 km/h (0 Bft) S 171 ° 0 min 0,000 mm 0,0 UV-I 0 W/m² 7,6 °C 9,2 °C 0,0 km/h (0 Bft)
24.09.2017 19:52 9,3 °C 9,3 °C 90 % 1019,7 hPa 0,0 mm 0,0 km/h (0 Bft) S 171 ° 0 min 0,000 mm 0,0 UV-I 0 W/m² 7,7 °C 9,3 °C 0,0 km/h (0 Bft)
24.09.2017 19:53 9,3 °C 9,3 °C 90 % 1019,8 hPa 0,0 mm 0,0 km/h (0 Bft) S 171 ° 0 min 0,000 mm 0,0 UV-I 0 W/m² 7,7 °C 9,3 °C 0,0 km/h (0 Bft)
24.09.2017 19:54 9,3 °C 9,3 °C 90 % 1019,8 hPa 0,0 mm 0,0 km/h (0 Bft) S 171 ° 0 min 0,000 mm 0,0 UV-I 0 W/m² 7,7 °C 9,3 °C 0,0 km/h (0 Bft)
24.09.2017 19:55 9,4 °C 9,4 °C 90 % 1019,8 hPa 0,0 mm 0,0 km/h (0 Bft) S 171 ° 0 min 0,000 mm 0,0 UV-I 0 W/m² 7,8 °C 9,4 °C 0,0 km/h (0 Bft)
24.09.2017 19:56 9,4 °C 9,4 °C 90 % 1019,7 hPa 0,0 mm 0,0 km/h (0 Bft) S 171 ° 0 min 0,000 mm 0,0 UV-I 0 W/m² 7,8 °C 9,4 °C 0,0 km/h (0 Bft)
24.09.2017 19:57 9,4 °C 9,4 °C 90 % 1019,8 hPa 0,0 mm 0,0 km/h (0 Bft) S 171 ° 0 min 0,000 mm 0,0 UV-I 0 W/m² 7,8 °C 9,4 °C 0,0 km/h (0 Bft)
24.09.2017 19:59 9,4 °C 9,5 °C 90 % 1019,8 hPa 0,0 mm 0,0 km/h (0 Bft) S 171 ° 0 min 0,000 mm 0,0 UV-I 0 W/m² 7,8 °C 9,4 °C 0,0 km/h (0 Bft)
24.09.2017 20:00 9,4 °C 9,5 °C 90 % 1019,8 hPa 0,0 mm 0,0 km/h (0 Bft) S 171 ° 0 min 0,000 mm 0,0 UV-I 0 W/m² 7,8 °C 9,4 °C 0,0 km/h (0 Bft)
24.09.2017 20:01 9,4 °C 9,4 °C 90 % 1019,9 hPa 0,0 mm 0,0 km/h (0 Bft) S 171 ° 0 min 0,000 mm 0,0 UV-I 0 W/m² 7,8 °C 9,4 °C 0,0 km/h (0 Bft)
24.09.2017 20:03 9,3 °C 9,4 °C 90 % 1019,8 hPa 0,0 mm 0,0 km/h (0 Bft) S 171 ° 0 min 0,000 mm 0,0 UV-I 0 W/m² 7,7 °C 9,3 °C 0,0 km/h (0 Bft)
24.09.2017 20:04 9,2 °C 9,3 °C 90 % 1019,8 hPa 0,0 mm 0,0 km/h (0 Bft) S 171 ° 0 min 0,000 mm 0,0 UV-I 0 W/m² 7,6 °C 9,2 °C 0,0 km/h (0 Bft)
24.09.2017 20:05 9,2 °C 9,2 °C 90 % 1019,8 hPa 0,0 mm 0,0 km/h (0 Bft) S 171 ° 0 min 0,000 mm 0,0 UV-I 0 W/m² 7,6 °C 9,2 °C 0,0 km/h (0 Bft)
24.09.2017 20:06 9,2 °C 9,2 °C 90 % 1019,8 hPa 0,0 mm 0,0 km/h (0 Bft) S 171 ° 0 min 0,000 mm 0,0 UV-I 0 W/m² 7,6 °C 9,2 °C 0,0 km/h (0 Bft)
24.09.2017 20:07 9,2 °C 9,2 °C 90 % 1019,8 hPa 0,0 mm 0,0 km/h (0 Bft) S 171 ° 0 min 0,000 mm 0,0 UV-I 0 W/m² 7,6 °C 9,2 °C 0,0 km/h (0 Bft)
24.09.2017 20:08 9,1 °C 9,2 °C 90 % 1019,8 hPa 0,0 mm 0,0 km/h (0 Bft) S 171 ° 0 min 0,000 mm 0,0 UV-I 0 W/m² 7,5 °C 9,1 °C 0,0 km/h (0 Bft)
24.09.2017 20:09 9,1 °C 9,1 °C 91 % 1019,8 hPa 0,0 mm 0,0 km/h (0 Bft) S 171 ° 0 min 0,000 mm 0,0 UV-I 0 W/m² 7,7 °C 9,1 °C 0,0 km/h (0 Bft)
24.09.2017 20:10 9,1 °C 9,1 °C 91 % 1019,8 hPa 0,0 mm 0,0 km/h (0 Bft) S 171 ° 0 min 0,000 mm 0,0 UV-I 0 W/m² 7,7 °C 9,1 °C 0,0 km/h (0 Bft)
24.09.2017 20:11 9,1 °C 9,1 °C 91 % 1019,9 hPa 0,0 mm 0,0 km/h (0 Bft) S 171 ° 0 min 0,000 mm 0,0 UV-I 0 W/m² 7,7 °C 9,1 °C 0,0 km/h (0 Bft)
24.09.2017 20:12 9,1 °C 9,1 °C 91 % 1019,9 hPa 0,0 mm 0,0 km/h (0 Bft) S 171 ° 0 min 0,000 mm 0,0 UV-I 0 W/m² 7,7 °C 9,1 °C 0,0 km/h (0 Bft)
24.09.2017 20:13 9,1 °C 9,1 °C 91 % 1019,9 hPa 0,0 mm 0,0 km/h (0 Bft) S 171 ° 0 min 0,000 mm 0,0 UV-I 0 W/m² 7,7 °C 9,1 °C 0,0 km/h (0 Bft)
24.09.2017 20:14 9,1 °C 9,1 °C 91 % 1019,9 hPa 0,0 mm 0,0 km/h (0 Bft) S 171 ° 0 min 0,000 mm 0,0 UV-I 0 W/m² 7,7 °C 9,1 °C 0,0 km/h (0 Bft)
24.09.2017 20:15 9,1 °C 9,1 °C 91 % 1019,9 hPa 0,0 mm 0,0 km/h (0 Bft) S 171 ° 0 min 0,000 mm 0,0 UV-I 0 W/m² 7,7 °C 9,1 °C 0,0 km/h (0 Bft)
24.09.2017 20:16 9,1 °C 9,1 °C 91 % 1019,9 hPa 0,0 mm 0,0 km/h (0 Bft) S 171 ° 0 min 0,000 mm 0,0 UV-I 0 W/m² 7,7 °C 9,1 °C 0,0 km/h (0 Bft)
24.09.2017 20:17 9,1 °C 9,1 °C 91 % 1019,9 hPa 0,0 mm 0,0 km/h (0 Bft) S 171 ° 0 min 0,000 mm 0,0 UV-I 0 W/m² 7,7 °C 9,1 °C 0,0 km/h (0 Bft)
24.09.2017 20:18 9,1 °C 9,1 °C 91 % 1019,9 hPa 0,0 mm 0,0 km/h (0 Bft) S 171 ° 0 min 0,000 mm 0,0 UV-I 0 W/m² 7,7 °C 9,1 °C 0,0 km/h (0 Bft)
24.09.2017 20:19 9,2 °C 9,2 °C 91 % 1019,9 hPa 0,0 mm 0,0 km/h (0 Bft) S 171 ° 0 min 0,000 mm 0,0 UV-I 0 W/m² 7,8 °C 9,2 °C 0,0 km/h (0 Bft)
24.09.2017 20:20 9,2 °C 9,2 °C 91 % 1019,9 hPa 0,0 mm 0,0 km/h (0 Bft) S 171 ° 0 min 0,000 mm 0,0 UV-I 0 W/m² 7,8 °C 9,2 °C 0,0 km/h (0 Bft)
24.09.2017 20:21 9,3 °C 9,3 °C 91 % 1019,9 hPa 0,0 mm 0,0 km/h (0 Bft) S 171 ° 0 min 0,000 mm 0,0 UV-I 0 W/m² 7,9 °C 9,3 °C 0,0 km/h (0 Bft)
24.09.2017 20:22 9,3 °C 9,3 °C 91 % 1019,9 hPa 0,0 mm 0,0 km/h (0 Bft) S 171 ° 0 min 0,000 mm 0,0 UV-I 0 W/m² 7,9 °C 9,3 °C 0,0 km/h (0 Bft)
24.09.2017 20:23 9,4 °C 9,4 °C 91 % 1019,9 hPa 0,0 mm 0,0 km/h (0 Bft) S 171 ° 0 min 0,000 mm 0,0 UV-I 0 W/m² 8,0 °C 9,4 °C 0,0 km/h (0 Bft)
24.09.2017 20:24 9,4 °C 9,4 °C 91 % 1019,9 hPa 0,0 mm 0,0 km/h (0 Bft) S 171 ° 0 min 0,000 mm 0,0 UV-I 0 W/m² 8,0 °C 9,4 °C 0,0 km/h (0 Bft)
24.09.2017 20:25 9,4 °C 9,4 °C 91 % 1019,9 hPa 0,0 mm 0,0 km/h (0 Bft) S 171 ° 0 min 0,000 mm 0,0 UV-I 0 W/m² 8,0 °C 9,4 °C 0,0 km/h (0 Bft)
24.09.2017 20:26 9,4 °C 9,4 °C 91 % 1019,9 hPa 0,0 mm 0,0 km/h (0 Bft) S 171 ° 0 min 0,000 mm 0,0 UV-I 0 W/m² 8,0 °C 9,4 °C 0,0 km/h (0 Bft)
24.09.2017 20:27 9,4 °C 9,4 °C 91 % 1020,0 hPa 0,0 mm 0,0 km/h (0 Bft) S 171 ° 0 min 0,000 mm 0,0 UV-I 0 W/m² 8,0 °C 9,4 °C 0,0 km/h (0 Bft)
24.09.2017 20:28 9,4 °C 9,4 °C 91 % 1020,0 hPa 0,0 mm 0,0 km/h (0 Bft) S 171 ° 0 min 0,000 mm 0,0 UV-I 0 W/m² 8,0 °C 9,4 °C 0,0 km/h (0 Bft)
24.09.2017 20:29 9,4 °C 9,4 °C 91 % 1020,0 hPa 0,0 mm 0,0 km/h (0 Bft) S 171 ° 0 min 0,000 mm 0,0 UV-I 0 W/m² 8,0 °C 9,4 °C 0,0 km/h (0 Bft)
24.09.2017 20:30 9,4 °C 9,4 °C 91 % 1020,0 hPa 0,0 mm 0,0 km/h (0 Bft) S 171 ° 0 min 0,000 mm 0,0 UV-I 0 W/m² 8,0 °C 9,4 °C 0,0 km/h (0 Bft)
24.09.2017 20:31 9,4 °C 9,4 °C 91 % 1020,0 hPa 0,0 mm 0,0 km/h (0 Bft) S 171 ° 0 min 0,000 mm 0,0 UV-I 0 W/m² 8,0 °C 9,4 °C 0,0 km/h (0 Bft)
24.09.2017 20:32 9,4 °C 9,4 °C 91 % 1019,9 hPa 0,0 mm 0,0 km/h (0 Bft) S 171 ° 0 min 0,000 mm 0,0 UV-I 0 W/m² 8,0 °C 9,4 °C 0,0 km/h (0 Bft)
24.09.2017 20:33 9,4 °C 9,4 °C 91 % 1020,0 hPa 0,0 mm 0,0 km/h (0 Bft) S 171 ° 0 min 0,000 mm 0,0 UV-I 0 W/m² 8,0 °C 9,4 °C 0,0 km/h (0 Bft)
24.09.2017 20:34 9,4 °C 9,4 °C 91 % 1020,0 hPa 0,0 mm 0,0 km/h (0 Bft) S 171 ° 0 min 0,000 mm 0,0 UV-I 0 W/m² 8,0 °C 9,4 °C 0,0 km/h (0 Bft)
24.09.2017 20:35 9,4 °C 9,4 °C 91 % 1020,0 hPa 0,0 mm 0,0 km/h (0 Bft) S 171 ° 0 min 0,000 mm 0,0 UV-I 0 W/m² 8,0 °C 9,4 °C 0,0 km/h (0 Bft)
24.09.2017 20:36 9,4 °C 9,4 °C 91 % 1020,0 hPa 0,0 mm 0,0 km/h (0 Bft) S 171 ° 0 min 0,000 mm 0,0 UV-I 0 W/m² 8,0 °C 9,4 °C 0,0 km/h (0 Bft)
24.09.2017 20:37 9,4 °C 9,4 °C 91 % 1020,0 hPa 0,0 mm 0,0 km/h (0 Bft) S 171 ° 0 min 0,000 mm 0,0 UV-I 0 W/m² 8,0 °C 9,4 °C 0,0 km/h (0 Bft)
24.09.2017 20:38 9,4 °C 9,4 °C 91 % 1020,1 hPa 0,0 mm 0,0 km/h (0 Bft) S 171 ° 0 min 0,000 mm 0,0 UV-I 0 W/m² 8,0 °C 9,4 °C 0,0 km/h (0 Bft)
24.09.2017 20:39 9,4 °C 9,4 °C 91 % 1020,0 hPa 0,0 mm 0,0 km/h (0 Bft) S 171 ° 0 min 0,000 mm 0,0 UV-I 0 W/m² 8,0 °C 9,4 °C 0,0 km/h (0 Bft)
24.09.2017 20:40 9,4 °C 9,4 °C 91 % 1020,0 hPa 0,0 mm 0,0 km/h (0 Bft) S 171 ° 0 min 0,000 mm 0,0 UV-I 0 W/m² 8,0 °C 9,4 °C 0,0 km/h (0 Bft)
24.09.2017 20:41 9,4 °C 9,4 °C 91 % 1020,1 hPa 0,0 mm 0,0 km/h (0 Bft) S 171 ° 0 min 0,000 mm 0,0 UV-I 0 W/m² 8,0 °C 9,4 °C 0,0 km/h (0 Bft)
24.09.2017 20:42 9,4 °C 9,4 °C 91 % 1020,1 hPa 0,0 mm 0,0 km/h (0 Bft) S 171 ° 0 min 0,000 mm 0,0 UV-I 0 W/m² 8,0 °C 9,4 °C 0,0 km/h (0 Bft)
24.09.2017 20:43 9,4 °C 9,4 °C 91 % 1020,1 hPa 0,0 mm 0,0 km/h (0 Bft) S 171 ° 0 min 0,000 mm 0,0 UV-I 0 W/m² 8,0 °C 9,4 °C 0,0 km/h (0 Bft)
24.09.2017 20:44 9,4 °C 9,4 °C 91 % 1020,1 hPa 0,0 mm 0,0 km/h (0 Bft) S 171 ° 0 min 0,000 mm 0,0 UV-I 0 W/m² 8,0 °C 9,4 °C 0,0 km/h (0 Bft)
24.09.2017 20:45 9,4 °C 9,4 °C 91 % 1020,0 hPa 0,0 mm 0,0 km/h (0 Bft) S 171 ° 0 min 0,000 mm 0,0 UV-I 0 W/m² 8,0 °C 9,4 °C 0,0 km/h (0 Bft)
24.09.2017 20:46 9,4 °C 9,4 °C 91 % 1020,1 hPa 0,0 mm 0,0 km/h (0 Bft) S 171 ° 0 min 0,000 mm 0,0 UV-I 0 W/m² 8,0 °C 9,4 °C 0,0 km/h (0 Bft)
24.09.2017 20:47 9,4 °C 9,4 °C 91 % 1020,1 hPa 0,0 mm 0,0 km/h (0 Bft) S 171 ° 0 min 0,000 mm 0,0 UV-I 0 W/m² 8,0 °C 9,4 °C 0,0 km/h (0 Bft)
24.09.2017 20:48 9,4 °C 9,4 °C 91 % 1020,0 hPa 0,0 mm 0,0 km/h (0 Bft) S 171 ° 0 min 0,000 mm 0,0 UV-I 0 W/m² 8,0 °C 9,4 °C 0,0 km/h (0 Bft)
24.09.2017 20:49 9,4 °C 9,4 °C 91 % 1020,0 hPa 0,0 mm 0,0 km/h (0 Bft) S 171 ° 0 min 0,000 mm 0,0 UV-I 0 W/m² 8,0 °C 9,4 °C 0,0 km/h (0 Bft)
24.09.2017 20:50 9,4 °C 9,4 °C 91 % 1020,0 hPa 0,0 mm 0,0 km/h (0 Bft) S 171 ° 0 min 0,000 mm 0,0 UV-I 0 W/m² 8,0 °C 9,4 °C 0,0 km/h (0 Bft)
24.09.2017 20:51 9,4 °C 9,4 °C 91 % 1020,0 hPa 0,0 mm 0,0 km/h (0 Bft) S 171 ° 0 min 0,000 mm 0,0 UV-I 0 W/m² 8,0 °C 9,4 °C 0,0 km/h (0 Bft)
24.09.2017 20:52 9,4 °C 9,4 °C 91 % 1019,9 hPa 0,0 mm 0,0 km/h (0 Bft) S 171 ° 0 min 0,000 mm 0,0 UV-I 0 W/m² 8,0 °C 9,4 °C 0,0 km/h (0 Bft)
24.09.2017 20:53 9,4 °C 9,4 °C 91 % 1020,0 hPa 0,0 mm 0,0 km/h (0 Bft) S 171 ° 0 min 0,000 mm 0,0 UV-I 0 W/m² 8,0 °C 9,4 °C 0,0 km/h (0 Bft)
24.09.2017 20:54 9,4 °C 9,5 °C 91 % 1019,9 hPa 0,0 mm 0,0 km/h (0 Bft) S 171 ° 0 min 0,000 mm 0,0 UV-I 0 W/m² 8,0 °C 9,4 °C 0,0 km/h (0 Bft)
24.09.2017 20:55 9,4 °C 9,4 °C 91 % 1019,9 hPa 0,0 mm 0,0 km/h (0 Bft) S 171 ° 0 min 0,000 mm 0,0 UV-I 0 W/m² 8,0 °C 9,4 °C 0,0 km/h (0 Bft)
24.09.2017 20:56 9,4 °C 9,4 °C 91 % 1020,0 hPa 0,0 mm 0,0 km/h (0 Bft) S 171 ° 0 min 0,000 mm 0,0 UV-I 0 W/m² 8,0 °C 9,4 °C 0,0 km/h (0 Bft)
24.09.2017 20:57 9,4 °C 9,4 °C 91 % 1020,0 hPa 0,0 mm 0,0 km/h (0 Bft) S 171 ° 0 min 0,000 mm 0,0 UV-I 0 W/m² 8,0 °C 9,4 °C 0,0 km/h (0 Bft)
24.09.2017 20:58 9,4 °C 9,4 °C 91 % 1020,0 hPa 0,0 mm 0,0 km/h (0 Bft) S 171 ° 0 min 0,000 mm 0,0 UV-I 0 W/m² 8,0 °C 9,4 °C 0,0 km/h (0 Bft)
24.09.2017 20:59 9,4 °C 9,4 °C 91 % 1020,0 hPa 0,0 mm 0,0 km/h (0 Bft) S 171 ° 0 min 0,000 mm 0,0 UV-I 0 W/m² 8,0 °C 9,4 °C 0,0 km/h (0 Bft)
24.09.2017 21:00 9,3 °C 9,4 °C 92 % 1020,0 hPa 0,0 mm 0,0 km/h (0 Bft) S 171 ° 0 min 0,000 mm 0,0 UV-I 0 W/m² 8,1 °C 9,3 °C 0,0 km/h (0 Bft)
24.09.2017 21:01 9,3 °C 9,4 °C 92 % 1020,0 hPa 0,0 mm 0,0 km/h (0 Bft) S 171 ° 0 min 0,000 mm 0,0 UV-I 0 W/m² 8,1 °C 9,3 °C 0,0 km/h (0 Bft)
24.09.2017 21:02 9,3 °C 9,3 °C 92 % 1020,0 hPa 0,0 mm 0,0 km/h (0 Bft) S 171 ° 0 min 0,000 mm 0,0 UV-I 0 W/m² 8,1 °C 9,3 °C 0,0 km/h (0 Bft)
24.09.2017 21:03 9,4 °C 9,4 °C 92 % 1020,0 hPa 0,0 mm 0,0 km/h (0 Bft) S 171 ° 0 min 0,000 mm 0,0 UV-I 0 W/m² 8,2 °C 9,4 °C 0,0 km/h (0 Bft)
24.09.2017 21:04 9,4 °C 9,4 °C 92 % 1019,9 hPa 0,0 mm 0,0 km/h (0 Bft) S 171 ° 0 min 0,000 mm 0,0 UV-I 0 W/m² 8,2 °C 9,4 °C 0,0 km/h (0 Bft)
24.09.2017 21:05 9,4 °C 9,4 °C 92 % 1020,0 hPa 0,0 mm 0,0 km/h (0 Bft) S 171 ° 0 min 0,000 mm 0,0 UV-I 0 W/m² 8,2 °C 9,4 °C 0,0 km/h (0 Bft)
24.09.2017 21:06 9,4 °C 9,4 °C 92 % 1019,9 hPa 0,0 mm 0,0 km/h (0 Bft) S 171 ° 0 min 0,000 mm 0,0 UV-I 0 W/m² 8,2 °C 9,4 °C 0,0 km/h (0 Bft)
24.09.2017 21:07 9,4 °C 9,4 °C 92 % 1019,9 hPa 0,0 mm 0,0 km/h (0 Bft) S 171 ° 0 min 0,000 mm 0,0 UV-I 0 W/m² 8,2 °C 9,4 °C 0,0 km/h (0 Bft)
24.09.2017 21:08 9,4 °C 9,4 °C 92 % 1019,9 hPa 0,0 mm 0,0 km/h (0 Bft) S 171 ° 0 min 0,000 mm 0,0 UV-I 0 W/m² 8,2 °C 9,4 °C 0,0 km/h (0 Bft)
24.09.2017 21:09 9,4 °C 9,4 °C 92 % 1019,9 hPa 0,0 mm 0,0 km/h (0 Bft) S 171 ° 0 min 0,000 mm 0,0 UV-I 0 W/m² 8,2 °C 9,4 °C 0,0 km/h (0 Bft)
24.09.2017 21:10 9,4 °C 9,4 °C 92 % 1019,9 hPa 0,0 mm 0,0 km/h (0 Bft) S 171 ° 0 min 0,000 mm 0,0 UV-I 0 W/m² 8,2 °C 9,4 °C 0,0 km/h (0 Bft)
24.09.2017 21:11 9,3 °C 9,4 °C 92 % 1020,0 hPa 0,0 mm 0,0 km/h (0 Bft) S 171 ° 0 min 0,000 mm 0,0 UV-I 0 W/m² 8,1 °C 9,3 °C 0,0 km/h (0 Bft)
24.09.2017 21:12 9,3 °C 9,4 °C 92 % 1019,9 hPa 0,0 mm 0,0 km/h (0 Bft) S 171 ° 0 min 0,000 mm 0,0 UV-I 0 W/m² 8,1 °C 9,3 °C 0,0 km/h (0 Bft)
24.09.2017 21:13 9,3 °C 9,3 °C 92 % 1020,0 hPa 0,0 mm 0,0 km/h (0 Bft) S 171 ° 0 min 0,000 mm 0,0 UV-I 0 W/m² 8,1 °C 9,3 °C 0,0 km/h (0 Bft)
24.09.2017 21:14 9,3 °C 9,3 °C 91 % 1020,0 hPa 0,0 mm 0,0 km/h (0 Bft) S 171 ° 0 min 0,000 mm 0,0 UV-I 0 W/m² 7,9 °C 9,3 °C 0,0 km/h (0 Bft)
24.09.2017 21:15 9,3 °C 9,3 °C 92 % 1020,0 hPa 0,0 mm 0,0 km/h (0 Bft) S 171 ° 0 min 0,000 mm 0,0 UV-I 0 W/m² 8,1 °C 9,3 °C 0,0 km/h (0 Bft)
24.09.2017 21:16 9,2 °C 9,3 °C 92 % 1020,0 hPa 0,0 mm 0,0 km/h (0 Bft) S 171 ° 0 min 0,000 mm 0,0 UV-I 0 W/m² 8,0 °C 9,2 °C 0,0 km/h (0 Bft)
24.09.2017 21:17 9,2 °C 9,3 °C 92 % 1020,0 hPa 0,0 mm 0,0 km/h (0 Bft) S 171 ° 0 min 0,000 mm 0,0 UV-I 0 W/m² 8,0 °C 9,2 °C 0,0 km/h (0 Bft)
24.09.2017 21:18 9,2 °C 9,2 °C 92 % 1020,0 hPa 0,0 mm 0,0 km/h (0 Bft) S 171 ° 0 min 0,000 mm 0,0 UV-I 0 W/m² 8,0 °C 9,2 °C 0,0 km/h (0 Bft)
24.09.2017 21:19 9,2 °C 9,2 °C 92 % 1020,0 hPa 0,0 mm 0,0 km/h (0 Bft) S 171 ° 0 min 0,000 mm 0,0 UV-I 0 W/m² 8,0 °C 9,2 °C 0,0 km/h (0 Bft)
24.09.2017 21:20 9,1 °C 9,2 °C 92 % 1020,0 hPa 0,0 mm 0,0 km/h (0 Bft) S 171 ° 0 min 0,000 mm 0,0 UV-I 0 W/m² 7,9 °C 9,1 °C 0,0 km/h (0 Bft)
24.09.2017 21:21 9,1 °C 9,1 °C 92 % 1020,0 hPa 0,0 mm 0,0 km/h (0 Bft) S 171 ° 0 min 0,000 mm 0,0 UV-I 0 W/m² 7,9 °C 9,1 °C 0,0 km/h (0 Bft)
24.09.2017 21:22 9,1 °C 9,1 °C 92 % 1020,0 hPa 0,0 mm 0,0 km/h (0 Bft) S 171 ° 0 min 0,000 mm 0,0 UV-I 0 W/m² 7,9 °C 9,1 °C 0,0 km/h (0 Bft)
24.09.2017 21:23 9,1 °C 9,1 °C 92 % 1020,0 hPa 0,0 mm 0,0 km/h (0 Bft) S 171 ° 0 min 0,000 mm 0,0 UV-I 0 W/m² 7,9 °C 9,1 °C 0,0 km/h (0 Bft)
24.09.2017 21:24 9,1 °C 9,1 °C 92 % 1020,0 hPa 0,0 mm 0,0 km/h (0 Bft) S 171 ° 0 min 0,000 mm 0,0 UV-I 0 W/m² 7,9 °C 9,1 °C 0,0 km/h (0 Bft)
24.09.2017 21:25 9,1 °C 9,1 °C 92 % 1020,1 hPa 0,0 mm 0,2 km/h (0 Bft) S 171 ° 0 min 0,000 mm 0,0 UV-I 0 W/m² 7,9 °C 9,1 °C 1,6 km/h (1 Bft)
24.09.2017 21:26 9,0 °C 9,1 °C 92 % 1020,1 hPa 0,0 mm 1,5 km/h (1 Bft) S-SO 149 ° 0 min 0,000 mm 0,0 UV-I 0 W/m² 7,8 °C 9,0 °C 3,2 km/h (1 Bft)
24.09.2017 21:27 9,0 °C 9,1 °C 92 % 1020,1 hPa 0,0 mm 0,1 km/h (0 Bft) S-SO 149 ° 0 min 0,000 mm 0,0 UV-I 0 W/m² 7,8 °C 9,0 °C 1,6 km/h (1 Bft)
24.09.2017 21:28 9,0 °C 9,0 °C 92 % 1020,1 hPa 0,0 mm 0,0 km/h (0 Bft) S-SO 149 ° 0 min 0,000 mm 0,0 UV-I 0 W/m² 7,8 °C 9,0 °C 0,0 km/h (0 Bft)
24.09.2017 21:29 9,0 °C 9,0 °C 92 % 1020,1 hPa 0,0 mm 0,0 km/h (0 Bft) S-SO 149 ° 0 min 0,000 mm 0,0 UV-I 0 W/m² 7,8 °C 9,0 °C 0,0 km/h (0 Bft)
24.09.2017 21:30 9,1 °C 9,1 °C 92 % 1020,1 hPa 0,0 mm 0,2 km/h (0 Bft) S-SO 149 ° 0 min 0,000 mm 0,0 UV-I 0 W/m² 7,9 °C 9,1 °C 1,6 km/h (1 Bft)
24.09.2017 21:31 9,1 °C 9,1 °C 93 % 1020,0 hPa 0,0 mm 0,2 km/h (0 Bft) S-SO 149 ° 0 min 0,000 mm 0,0 UV-I 0 W/m² 8,0 °C 9,1 °C 1,6 km/h (1 Bft)
24.09.2017 21:32 9,2 °C 9,2 °C 93 % 1020,1 hPa 0,0 mm 0,0 km/h (0 Bft) S-SO 149 ° 0 min 0,000 mm 0,0 UV-I 0 W/m² 8,1 °C 9,2 °C 0,0 km/h (0 Bft)
24.09.2017 21:33 9,2 °C 9,2 °C 93 % 1020,1 hPa 0,0 mm 0,0 km/h (0 Bft) S-SO 149 ° 0 min 0,000 mm 0,0 UV-I 0 W/m² 8,1 °C 9,2 °C 0,0 km/h (0 Bft)
24.09.2017 21:34 9,2 °C 9,2 °C 92 % 1020,1 hPa 0,0 mm 0,1 km/h (0 Bft) S-SO 149 ° 0 min 0,000 mm 0,0 UV-I 0 W/m² 8,0 °C 9,2 °C 1,6 km/h (1 Bft)
24.09.2017 21:35 9,2 °C 9,2 °C 92 % 1020,1 hPa 0,0 mm 1,1 km/h (1 Bft) S-SO 149 ° 0 min 0,000 mm 0,0 UV-I 0 W/m² 8,0 °C 9,2 °C 3,2 km/h (1 Bft)
24.09.2017 21:36 9,2 °C 9,2 °C 92 % 1020,2 hPa 0,0 mm 1,8 km/h (1 Bft) S-SO 149 ° 0 min 0,000 mm 0,0 UV-I 0 W/m² 8,0 °C 9,2 °C 3,2 km/h (1 Bft)
24.09.2017 21:37 9,2 °C 9,2 °C 92 % 1020,2 hPa 0,0 mm 1,5 km/h (1 Bft) S-SO 149 ° 0 min 0,000 mm 0,0 UV-I 0 W/m² 8,0 °C 9,2 °C 3,2 km/h (1 Bft)
24.09.2017 21:38 9,2 °C 9,2 °C 92 % 1020,2 hPa 0,0 mm 1,2 km/h (1 Bft) S-SO 149 ° 0 min 0,000 mm 0,0 UV-I 0 W/m² 8,0 °C 9,2 °C 3,2 km/h (1 Bft)
24.09.2017 21:39 9,2 °C 9,2 °C 92 % 1020,2 hPa 0,0 mm 1,3 km/h (1 Bft) S-SO 149 ° 0 min 0,000 mm 0,0 UV-I 0 W/m² 8,0 °C 9,2 °C 1,6 km/h (1 Bft)
24.09.2017 21:40 9,2 °C 9,2 °C 92 % 1020,1 hPa 0,0 mm 2,0 km/h (1 Bft) S-SO 149 ° 0 min 0,000 mm 0,0 UV-I 0 W/m² 8,0 °C 9,2 °C 3,2 km/h (1 Bft)
24.09.2017 21:41 9,2 °C 9,2 °C 92 % 1020,1 hPa 0,0 mm 2,2 km/h (1 Bft) S-SO 149 ° 0 min 0,000 mm 0,0 UV-I 0 W/m² 8,0 °C 9,2 °C 3,2 km/h (1 Bft)
24.09.2017 21:42 9,1 °C 9,2 °C 92 % 1020,1 hPa 0,0 mm 0,0 km/h (0 Bft) S-SO 149 ° 0 min 0,000 mm 0,0 UV-I 0 W/m² 7,9 °C 9,1 °C 0,0 km/h (0 Bft)
24.09.2017 21:43 9,2 °C 9,2 °C 92 % 1020,2 hPa 0,0 mm 0,0 km/h (0 Bft) S-SO 149 ° 0 min 0,000 mm 0,0 UV-I 0 W/m² 8,0 °C 9,2 °C 0,0 km/h (0 Bft)
24.09.2017 21:44 9,2 °C 9,2 °C 92 % 1020,2 hPa 0,0 mm 0,0 km/h (0 Bft) S-SO 149 ° 0 min 0,000 mm 0,0 UV-I 0 W/m² 8,0 °C 9,2 °C 0,0 km/h (0 Bft)
24.09.2017 21:45 9,2 °C 9,2 °C 92 % 1020,2 hPa 0,0 mm 0,0 km/h (0 Bft) S-SO 149 ° 0 min 0,000 mm 0,0 UV-I 0 W/m² 8,0 °C 9,2 °C 0,0 km/h (0 Bft)
24.09.2017 21:46 9,2 °C 9,2 °C 92 % 1020,3 hPa 0,0 mm 0,0 km/h (0 Bft) S-SO 149 ° 0 min 0,000 mm 0,0 UV-I 0 W/m² 8,0 °C 9,2 °C 0,0 km/h (0 Bft)
24.09.2017 21:47 9,2 °C 9,2 °C 92 % 1020,2 hPa 0,0 mm 0,0 km/h (0 Bft) S-SO 149 ° 0 min 0,000 mm 0,0 UV-I 0 W/m² 8,0 °C 9,2 °C 0,0 km/h (0 Bft)
24.09.2017 21:48 9,2 °C 9,2 °C 92 % 1020,2 hPa 0,0 mm 0,0 km/h (0 Bft) S-SO 149 ° 0 min 0,000 mm 0,0 UV-I 0 W/m² 8,0 °C 9,2 °C 0,0 km/h (0 Bft)
24.09.2017 21:49 9,2 °C 9,2 °C 92 % 1020,2 hPa 0,0 mm 0,0 km/h (0 Bft) S-SO 149 ° 0 min 0,000 mm 0,0 UV-I 0 W/m² 8,0 °C 9,2 °C 0,0 km/h (0 Bft)
24.09.2017 21:50 9,2 °C 9,2 °C 92 % 1020,1 hPa 0,0 mm 0,0 km/h (0 Bft) S-SO 149 ° 0 min 0,000 mm 0,0 UV-I 0 W/m² 8,0 °C 9,2 °C 0,0 km/h (0 Bft)
24.09.2017 21:51 9,2 °C 9,2 °C 92 % 1020,1 hPa 0,0 mm 0,0 km/h (0 Bft) S-SO 149 ° 0 min 0,000 mm 0,0 UV-I 0 W/m² 8,0 °C 9,2 °C 0,0 km/h (0 Bft)
24.09.2017 21:52 9,2 °C 9,2 °C 91 % 1020,2 hPa 0,0 mm 0,0 km/h (0 Bft) S-SO 149 ° 0 min 0,000 mm 0,0 UV-I 0 W/m² 7,8 °C 9,2 °C 0,0 km/h (0 Bft)
24.09.2017 21:53 9,2 °C 9,2 °C 91 % 1020,1 hPa 0,0 mm 0,0 km/h (0 Bft) S-SO 149 ° 0 min 0,000 mm 0,0 UV-I 0 W/m² 7,8 °C 9,2 °C 0,0 km/h (0 Bft)
24.09.2017 21:54 9,2 °C 9,3 °C 91 % 1020,1 hPa 0,0 mm 0,0 km/h (0 Bft) S-SO 149 ° 0 min 0,000 mm 0,0 UV-I 0 W/m² 7,8 °C 9,2 °C 0,0 km/h (0 Bft)
24.09.2017 21:55 9,2 °C 9,3 °C 91 % 1020,1 hPa 0,0 mm 0,0 km/h (0 Bft) S-SO 149 ° 0 min 0,000 mm 0,0 UV-I 0 W/m² 7,8 °C 9,2 °C 0,0 km/h (0 Bft)
24.09.2017 21:56 9,2 °C 9,3 °C 91 % 1020,0 hPa 0,0 mm 0,0 km/h (0 Bft) S-SO 149 ° 0 min 0,000 mm 0,0 UV-I 0 W/m² 7,8 °C 9,2 °C 0,0 km/h (0 Bft)
24.09.2017 21:57 9,3 °C 9,3 °C 91 % 1020,0 hPa 0,0 mm 0,0 km/h (0 Bft) S-SO 149 ° 0 min 0,000 mm 0,0 UV-I 0 W/m² 7,9 °C 9,3 °C 0,0 km/h (0 Bft)
24.09.2017 21:58 9,2 °C 9,3 °C 91 % 1020,0 hPa 0,0 mm 0,0 km/h (0 Bft) S-SO 149 ° 0 min 0,000 mm 0,0 UV-I 0 W/m² 7,8 °C 9,2 °C 0,0 km/h (0 Bft)
24.09.2017 21:59 9,2 °C 9,2 °C 91 % 1020,0 hPa 0,0 mm 0,0 km/h (0 Bft) S-SO 149 ° 0 min 0,000 mm 0,0 UV-I 0 W/m² 7,8 °C 9,2 °C 0,0 km/h (0 Bft)
24.09.2017 22:00 9,2 °C 9,2 °C 91 % 1020,0 hPa 0,0 mm 0,0 km/h (0 Bft) S-SO 149 ° 0 min 0,000 mm 0,0 UV-I 0 W/m² 7,8 °C 9,2 °C 0,0 km/h (0 Bft)
24.09.2017 22:01 9,1 °C 9,2 °C 91 % 1020,0 hPa 0,0 mm 0,0 km/h (0 Bft) S-SO 149 ° 0 min 0,000 mm 0,0 UV-I 0 W/m² 7,7 °C 9,1 °C 0,0 km/h (0 Bft)
24.09.2017 22:02 9,1 °C 9,1 °C 91 % 1020,0 hPa 0,0 mm 0,0 km/h (0 Bft) S-SO 149 ° 0 min 0,000 mm 0,0 UV-I 0 W/m² 7,7 °C 9,1 °C 0,0 km/h (0 Bft)
24.09.2017 22:04 9,1 °C 9,1 °C 91 % 1020,1 hPa 0,0 mm 0,0 km/h (0 Bft) S-SO 149 ° 0 min 0,000 mm 0,0 UV-I 0 W/m² 7,7 °C 9,1 °C 0,0 km/h (0 Bft)
24.09.2017 22:05 8,9 °C 9,1 °C 91 % 1020,1 hPa 0,0 mm 0,0 km/h (0 Bft) S-SO 149 ° 0 min 0,000 mm 0,0 UV-I 0 W/m² 7,5 °C 8,9 °C 0,0 km/h (0 Bft)
24.09.2017 22:06 8,9 °C 9,0 °C 91 % 1020,1 hPa 0,0 mm 0,0 km/h (0 Bft) S-SO 149 ° 0 min 0,000 mm 0,0 UV-I 0 W/m² 7,5 °C 8,9 °C 0,0 km/h (0 Bft)
24.09.2017 22:07 8,9 °C 8,9 °C 91 % 1020,1 hPa 0,0 mm 0,0 km/h (0 Bft) S-SO 149 ° 0 min 0,000 mm 0,0 UV-I 0 W/m² 7,5 °C 8,9 °C 0,0 km/h (0 Bft)
24.09.2017 22:08 8,8 °C 8,9 °C 91 % 1020,1 hPa 0,0 mm 0,0 km/h (0 Bft) S-SO 149 ° 0 min 0,000 mm 0,0 UV-I 0 W/m² 7,4 °C 8,8 °C 0,0 km/h (0 Bft)
24.09.2017 22:09 8,8 °C 8,8 °C 92 % 1020,1 hPa 0,0 mm 0,0 km/h (0 Bft) S-SO 149 ° 0 min 0,000 mm 0,0 UV-I 0 W/m² 7,6 °C 8,8 °C 0,0 km/h (0 Bft)
24.09.2017 22:10 8,8 °C 8,8 °C 92 % 1020,1 hPa 0,0 mm 0,0 km/h (0 Bft) S-SO 149 ° 0 min 0,000 mm 0,0 UV-I 0 W/m² 7,6 °C 8,8 °C 0,0 km/h (0 Bft)
24.09.2017 22:11 8,8 °C 8,8 °C 92 % 1020,1 hPa 0,0 mm 0,0 km/h (0 Bft) S-SO 149 ° 0 min 0,000 mm 0,0 UV-I 0 W/m² 7,6 °C 8,8 °C 0,0 km/h (0 Bft)
24.09.2017 22:12 8,8 °C 8,8 °C 92 % 1020,1 hPa 0,0 mm 0,0 km/h (0 Bft) S-SO 149 ° 0 min 0,000 mm 0,0 UV-I 0 W/m² 7,6 °C 8,8 °C 0,0 km/h (0 Bft)
24.09.2017 22:13 8,7 °C 8,8 °C 92 % 1020,1 hPa 0,0 mm 0,0 km/h (0 Bft) S-SO 149 ° 0 min 0,000 mm 0,0 UV-I 0 W/m² 7,5 °C 8,7 °C 0,0 km/h (0 Bft)
24.09.2017 22:14 8,7 °C 8,8 °C 92 % 1020,2 hPa 0,0 mm 0,0 km/h (0 Bft) S-SO 149 ° 0 min 0,000 mm 0,0 UV-I 0 W/m² 7,5 °C 8,7 °C 0,0 km/h (0 Bft)
24.09.2017 22:15 8,7 °C 8,7 °C 92 % 1020,2 hPa 0,0 mm 0,0 km/h (0 Bft) S-SO 149 ° 0 min 0,000 mm 0,0 UV-I 0 W/m² 7,5 °C 8,7 °C 0,0 km/h (0 Bft)
24.09.2017 22:16 8,7 °C 8,7 °C 92 % 1020,1 hPa 0,0 mm 0,0 km/h (0 Bft) S-SO 149 ° 0 min 0,000 mm 0,0 UV-I 0 W/m² 7,5 °C 8,7 °C 0,0 km/h (0 Bft)
24.09.2017 22:17 8,7 °C 8,7 °C 92 % 1020,1 hPa 0,0 mm 0,0 km/h (0 Bft) S-SO 149 ° 0 min 0,000 mm 0,0 UV-I 0 W/m² 7,5 °C 8,7 °C 0,0 km/h (0 Bft)
24.09.2017 22:18 8,7 °C 8,7 °C 92 % 1020,1 hPa 0,0 mm 0,0 km/h (0 Bft) S-SO 149 ° 0 min 0,000 mm 0,0 UV-I 0 W/m² 7,5 °C 8,7 °C 0,0 km/h (0 Bft)
24.09.2017 22:19 8,6 °C 8,7 °C 92 % 1020,1 hPa 0,0 mm 0,0 km/h (0 Bft) S-SO 149 ° 0 min 0,000 mm 0,0 UV-I 0 W/m² 7,4 °C 8,6 °C 0,0 km/h (0 Bft)
24.09.2017 22:20 8,6 °C 8,6 °C 92 % 1020,1 hPa 0,0 mm 0,0 km/h (0 Bft) S-SO 149 ° 0 min 0,000 mm 0,0 UV-I 0 W/m² 7,4 °C 8,6 °C 0,0 km/h (0 Bft)
24.09.2017 22:21 8,6 °C 8,6 °C 92 % 1020,1 hPa 0,0 mm 0,0 km/h (0 Bft) S-SO 149 ° 0 min 0,000 mm 0,0 UV-I 0 W/m² 7,4 °C 8,6 °C 0,0 km/h (0 Bft)
24.09.2017 22:22 8,6 °C 8,6 °C 92 % 1020,1 hPa 0,0 mm 0,0 km/h (0 Bft) S-SO 149 ° 0 min 0,000 mm 0,0 UV-I 0 W/m² 7,4 °C 8,6 °C 0,0 km/h (0 Bft)
24.09.2017 22:23 8,6 °C 8,6 °C 92 % 1020,1 hPa 0,0 mm 0,0 km/h (0 Bft) S-SO 149 ° 0 min 0,000 mm 0,0 UV-I 0 W/m² 7,4 °C 8,6 °C 0,0 km/h (0 Bft)
24.09.2017 22:24 8,5 °C 8,6 °C 93 % 1020,1 hPa 0,0 mm 0,0 km/h (0 Bft) S-SO 149 ° 0 min 0,000 mm 0,0 UV-I 0 W/m² 7,4 °C 8,5 °C 0,0 km/h (0 Bft)
24.09.2017 22:25 8,6 °C 8,6 °C 93 % 1020,1 hPa 0,0 mm 0,0 km/h (0 Bft) S-SO 149 ° 0 min 0,000 mm 0,0 UV-I 0 W/m² 7,5 °C 8,6 °C 0,0 km/h (0 Bft)
24.09.2017 22:26 8,6 °C 8,6 °C 93 % 1020,0 hPa 0,0 mm 0,0 km/h (0 Bft) S-SO 149 ° 0 min 0,000 mm 0,0 UV-I 0 W/m² 7,5 °C 8,6 °C 0,0 km/h (0 Bft)
24.09.2017 22:27 8,6 °C 8,6 °C 93 % 1020,0 hPa 0,0 mm 0,0 km/h (0 Bft) S-SO 149 ° 0 min 0,000 mm 0,0 UV-I 0 W/m² 7,5 °C 8,6 °C 0,0 km/h (0 Bft)
24.09.2017 22:28 8,5 °C 8,6 °C 93 % 1020,1 hPa 0,0 mm 0,0 km/h (0 Bft) S-SO 149 ° 0 min 0,000 mm 0,0 UV-I 0 W/m² 7,4 °C 8,5 °C 0,0 km/h (0 Bft)
24.09.2017 22:29 8,5 °C 8,5 °C 93 % 1020,0 hPa 0,0 mm 0,0 km/h (0 Bft) S-SO 149 ° 0 min 0,000 mm 0,0 UV-I 0 W/m² 7,4 °C 8,5 °C 0,0 km/h (0 Bft)
24.09.2017 22:30 8,6 °C 8,6 °C 93 % 1020,1 hPa 0,0 mm 0,0 km/h (0 Bft) S-SO 149 ° 0 min 0,000 mm 0,0 UV-I 0 W/m² 7,5 °C 8,6 °C 0,0 km/h (0 Bft)
24.09.2017 22:31 8,6 °C 8,6 °C 93 % 1020,0 hPa 0,0 mm 0,0 km/h (0 Bft) S-SO 149 ° 0 min 0,000 mm 0,0 UV-I 0 W/m² 7,5 °C 8,6 °C 0,0 km/h (0 Bft)
24.09.2017 22:32 8,6 °C 8,6 °C 93 % 1020,0 hPa 0,0 mm 0,0 km/h (0 Bft) S-SO 149 ° 0 min 0,000 mm 0,0 UV-I 0 W/m² 7,5 °C 8,6 °C 0,0 km/h (0 Bft)
24.09.2017 22:33 8,6 °C 8,6 °C 93 % 1020,1 hPa 0,0 mm 0,0 km/h (0 Bft) S-SO 149 ° 0 min 0,000 mm 0,0 UV-I 0 W/m² 7,5 °C 8,6 °C 0,0 km/h (0 Bft)
24.09.2017 22:34 8,6 °C 8,6 °C 93 % 1020,1 hPa 0,0 mm 0,0 km/h (0 Bft) S-SO 149 ° 0 min 0,000 mm 0,0 UV-I 0 W/m² 7,5 °C 8,6 °C 0,0 km/h (0 Bft)
24.09.2017 22:35 8,6 °C 8,6 °C 93 % 1020,1 hPa 0,0 mm 0,0 km/h (0 Bft) S-SO 149 ° 0 min 0,000 mm 0,0 UV-I 0 W/m² 7,5 °C 8,6 °C 0,0 km/h (0 Bft)
24.09.2017 22:36 8,6 °C 8,6 °C 93 % 1020,1 hPa 0,0 mm 0,0 km/h (0 Bft) S-SO 149 ° 0 min 0,000 mm 0,0 UV-I 0 W/m² 7,5 °C 8,6 °C 0,0 km/h (0 Bft)
24.09.2017 22:37 8,6 °C 8,6 °C 93 % 1020,1 hPa 0,0 mm 0,0 km/h (0 Bft) S-SO 149 ° 0 min 0,000 mm 0,0 UV-I 0 W/m² 7,5 °C 8,6 °C 0,0 km/h (0 Bft)
24.09.2017 22:38 8,5 °C 8,6 °C 93 % 1020,1 hPa 0,0 mm 0,0 km/h (0 Bft) S-SO 149 ° 0 min 0,000 mm 0,0 UV-I 0 W/m² 7,4 °C 8,5 °C 0,0 km/h (0 Bft)
24.09.2017 22:39 8,6 °C 8,6 °C 93 % 1020,1 hPa 0,0 mm 0,0 km/h (0 Bft) S-SO 149 ° 0 min 0,000 mm 0,0 UV-I 0 W/m² 7,5 °C 8,6 °C 0,0 km/h (0 Bft)
24.09.2017 22:40 8,5 °C 8,6 °C 93 % 1020,1 hPa 0,0 mm 0,0 km/h (0 Bft) S-SO 149 ° 0 min 0,000 mm 0,0 UV-I 0 W/m² 7,4 °C 8,5 °C 0,0 km/h (0 Bft)
24.09.2017 22:41 8,6 °C 8,6 °C 93 % 1020,1 hPa 0,0 mm 0,0 km/h (0 Bft) S-SO 149 ° 0 min 0,000 mm 0,0 UV-I 0 W/m² 7,5 °C 8,6 °C 0,0 km/h (0 Bft)
24.09.2017 22:42 8,6 °C 8,6 °C 93 % 1020,1 hPa 0,0 mm 0,0 km/h (0 Bft) S-SO 149 ° 0 min 0,000 mm 0,0 UV-I 0 W/m² 7,5 °C 8,6 °C 0,0 km/h (0 Bft)
24.09.2017 22:43 8,6 °C 8,6 °C 93 % 1020,1 hPa 0,0 mm 0,0 km/h (0 Bft) S-SO 149 ° 0 min 0,000 mm 0,0 UV-I 0 W/m² 7,5 °C 8,6 °C 0,0 km/h (0 Bft)
24.09.2017 22:44 8,7 °C 8,7 °C 93 % 1020,1 hPa 0,0 mm 0,0 km/h (0 Bft) S-SO 149 ° 0 min 0,000 mm 0,0 UV-I 0 W/m² 7,6 °C 8,7 °C 0,0 km/h (0 Bft)
24.09.2017 22:45 8,7 °C 8,7 °C 93 % 1020,1 hPa 0,0 mm 0,0 km/h (0 Bft) S-SO 149 ° 0 min 0,000 mm 0,0 UV-I 0 W/m² 7,6 °C 8,7 °C 0,0 km/h (0 Bft)
24.09.2017 22:46 8,8 °C 8,8 °C 93 % 1020,1 hPa 0,0 mm 0,0 km/h (0 Bft) S-SO 149 ° 0 min 0,000 mm 0,0 UV-I 0 W/m² 7,7 °C 8,8 °C 0,0 km/h (0 Bft)
24.09.2017 22:47 8,8 °C 8,8 °C 93 % 1020,1 hPa 0,0 mm 0,0 km/h (0 Bft) S-SO 149 ° 0 min 0,000 mm 0,0 UV-I 0 W/m² 7,7 °C 8,8 °C 0,0 km/h (0 Bft)
24.09.2017 22:48 8,8 °C 8,8 °C 93 % 1020,1 hPa 0,0 mm 0,0 km/h (0 Bft) S-SO 149 ° 0 min 0,000 mm 0,0 UV-I 0 W/m² 7,7 °C 8,8 °C 0,0 km/h (0 Bft)
24.09.2017 22:49 8,8 °C 8,8 °C 93 % 1020,0 hPa 0,0 mm 0,0 km/h (0 Bft) S-SO 149 ° 0 min 0,000 mm 0,0 UV-I 0 W/m² 7,7 °C 8,8 °C 0,0 km/h (0 Bft)
24.09.2017 22:50 8,8 °C 8,8 °C 93 % 1020,1 hPa 0,0 mm 0,0 km/h (0 Bft) S-SO 149 ° 0 min 0,000 mm 0,0 UV-I 0 W/m² 7,7 °C 8,8 °C 0,0 km/h (0 Bft)
24.09.2017 22:51 8,7 °C 8,8 °C 93 % 1020,1 hPa 0,0 mm 0,0 km/h (0 Bft) S-SO 149 ° 0 min 0,000 mm 0,0 UV-I 0 W/m² 7,6 °C 8,7 °C 0,0 km/h (0 Bft)
24.09.2017 22:52 8,7 °C 8,7 °C 93 % 1020,1 hPa 0,0 mm 0,0 km/h (0 Bft) S-SO 149 ° 0 min 0,000 mm 0,0 UV-I 0 W/m² 7,6 °C 8,7 °C 0,0 km/h (0 Bft)
24.09.2017 22:53 8,7 °C 8,7 °C 93 % 1020,1 hPa 0,0 mm 0,0 km/h (0 Bft) S-SO 149 ° 0 min 0,000 mm 0,0 UV-I 0 W/m² 7,6 °C 8,7 °C 0,0 km/h (0 Bft)
24.09.2017 22:54 8,7 °C 8,7 °C 93 % 1020,0 hPa 0,0 mm 0,0 km/h (0 Bft) S-SO 149 ° 0 min 0,000 mm 0,0 UV-I 0 W/m² 7,6 °C 8,7 °C 0,0 km/h (0 Bft)
24.09.2017 22:55 8,7 °C 8,7 °C 93 % 1020,0 hPa 0,0 mm 0,0 km/h (0 Bft) S-SO 149 ° 0 min 0,000 mm 0,0 UV-I 0 W/m² 7,6 °C 8,7 °C 0,0 km/h (0 Bft)
24.09.2017 22:56 8,7 °C 8,7 °C 93 % 1020,1 hPa 0,0 mm 0,0 km/h (0 Bft) S-SO 149 ° 0 min 0,000 mm 0,0 UV-I 0 W/m² 7,6 °C 8,7 °C 0,0 km/h (0 Bft)
24.09.2017 22:57 8,7 °C 8,7 °C 93 % 1020,1 hPa 0,0 mm 0,0 km/h (0 Bft) S-SO 149 ° 0 min 0,000 mm 0,0 UV-I 0 W/m² 7,6 °C 8,7 °C 0,0 km/h (0 Bft)
24.09.2017 22:58 8,7 °C 8,7 °C 93 % 1020,1 hPa 0,0 mm 0,0 km/h (0 Bft) S-SO 149 ° 0 min 0,000 mm 0,0 UV-I 0 W/m² 7,6 °C 8,7 °C 0,0 km/h (0 Bft)
24.09.2017 22:59 8,7 °C 8,7 °C 93 % 1020,1 hPa 0,0 mm 0,0 km/h (0 Bft) S-SO 149 ° 0 min 0,000 mm 0,0 UV-I 0 W/m² 7,6 °C 8,7 °C 0,0 km/h (0 Bft)
24.09.2017 23:00 8,7 °C 8,7 °C 93 % 1020,1 hPa 0,0 mm 0,0 km/h (0 Bft) S-SO 149 ° 0 min 0,000 mm 0,0 UV-I 0 W/m² 7,6 °C 8,7 °C 0,0 km/h (0 Bft)
24.09.2017 23:01 8,7 °C 8,7 °C 93 % 1020,1 hPa 0,0 mm 0,0 km/h (0 Bft) S-SO 149 ° 0 min 0,000 mm 0,0 UV-I 0 W/m² 7,6 °C 8,7 °C 0,0 km/h (0 Bft)
24.09.2017 23:02 8,6 °C 8,7 °C 93 % 1020,1 hPa 0,0 mm 0,0 km/h (0 Bft) S-SO 149 ° 0 min 0,000 mm 0,0 UV-I 0 W/m² 7,5 °C 8,6 °C 0,0 km/h (0 Bft)
24.09.2017 23:03 8,6 °C 8,6 °C 93 % 1020,0 hPa 0,0 mm 0,0 km/h (0 Bft) S-SO 149 ° 0 min 0,000 mm 0,0 UV-I 0 W/m² 7,5 °C 8,6 °C 0,0 km/h (0 Bft)
24.09.2017 23:04 8,6 °C 8,6 °C 93 % 1020,0 hPa 0,0 mm 0,0 km/h (0 Bft) S-SO 149 ° 0 min 0,000 mm 0,0 UV-I 0 W/m² 7,5 °C 8,6 °C 0,0 km/h (0 Bft)
24.09.2017 23:05 8,6 °C 8,6 °C 93 % 1020,0 hPa 0,0 mm 0,0 km/h (0 Bft) S-SO 149 ° 0 min 0,000 mm 0,0 UV-I 0 W/m² 7,5 °C 8,6 °C 0,0 km/h (0 Bft)
24.09.2017 23:06 8,6 °C 8,6 °C 93 % 1020,0 hPa 0,0 mm 0,0 km/h (0 Bft) S-SO 149 ° 0 min 0,000 mm 0,0 UV-I 0 W/m² 7,5 °C 8,6 °C 0,0 km/h (0 Bft)
24.09.2017 23:07 8,6 °C 8,6 °C 93 % 1020,0 hPa 0,0 mm 0,0 km/h (0 Bft) S-SO 149 ° 0 min 0,000 mm 0,0 UV-I 0 W/m² 7,5 °C 8,6 °C 0,0 km/h (0 Bft)
24.09.2017 23:08 8,6 °C 8,6 °C 93 % 1020,0 hPa 0,0 mm 0,0 km/h (0 Bft) S-SO 149 ° 0 min 0,000 mm 0,0 UV-I 0 W/m² 7,5 °C 8,6 °C 0,0 km/h (0 Bft)
24.09.2017 23:09 8,6 °C 8,6 °C 93 % 1020,0 hPa 0,0 mm 0,0 km/h (0 Bft) S-SO 149 ° 0 min 0,000 mm 0,0 UV-I 0 W/m² 7,5 °C 8,6 °C 0,0 km/h (0 Bft)
24.09.2017 23:10 8,6 °C 8,6 °C 93 % 1020,0 hPa 0,0 mm 0,0 km/h (0 Bft) S-SO 149 ° 0 min 0,000 mm 0,0 UV-I 0 W/m² 7,5 °C 8,6 °C 0,0 km/h (0 Bft)
24.09.2017 23:11 8,6 °C 8,6 °C 93 % 1020,0 hPa 0,0 mm 0,0 km/h (0 Bft) S-SO 149 ° 0 min 0,000 mm 0,0 UV-I 0 W/m² 7,5 °C 8,6 °C 0,0 km/h (0 Bft)
24.09.2017 23:12 8,6 °C 8,6 °C 93 % 1020,0 hPa 0,0 mm 0,0 km/h (0 Bft) S-SO 149 ° 0 min 0,000 mm 0,0 UV-I 0 W/m² 7,5 °C 8,6 °C 0,0 km/h (0 Bft)
24.09.2017 23:13 8,7 °C 8,7 °C 93 % 1020,0 hPa 0,0 mm 0,0 km/h (0 Bft) S-SO 149 ° 0 min 0,000 mm 0,0 UV-I 0 W/m² 7,6 °C 8,7 °C 0,0 km/h (0 Bft)
24.09.2017 23:14 8,7 °C 8,7 °C 93 % 1020,0 hPa 0,0 mm 0,0 km/h (0 Bft) S-SO 149 ° 0 min 0,000 mm 0,0 UV-I 0 W/m² 7,6 °C 8,7 °C 0,0 km/h (0 Bft)
24.09.2017 23:15 8,6 °C 8,7 °C 93 % 1020,0 hPa 0,0 mm 0,0 km/h (0 Bft) S-SO 149 ° 0 min 0,000 mm 0,0 UV-I 0 W/m² 7,5 °C 8,6 °C 0,0 km/h (0 Bft)
24.09.2017 23:16 8,6 °C 8,7 °C 93 % 1020,0 hPa 0,0 mm 0,0 km/h (0 Bft) S-SO 149 ° 0 min 0,000 mm 0,0 UV-I 0 W/m² 7,5 °C 8,6 °C 0,0 km/h (0 Bft)
24.09.2017 23:17 8,6 °C 8,6 °C 93 % 1020,0 hPa 0,0 mm 0,0 km/h (0 Bft) S-SO 149 ° 0 min 0,000 mm 0,0 UV-I 0 W/m² 7,5 °C 8,6 °C 0,0 km/h (0 Bft)
24.09.2017 23:18 8,6 °C 8,6 °C 93 % 1019,9 hPa 0,0 mm 0,0 km/h (0 Bft) S-SO 149 ° 0 min 0,000 mm 0,0 UV-I 0 W/m² 7,5 °C 8,6 °C 0,0 km/h (0 Bft)
24.09.2017 23:19 8,5 °C 8,6 °C 93 % 1019,9 hPa 0,0 mm 0,0 km/h (0 Bft) S-SO 149 ° 0 min 0,000 mm 0,0 UV-I 0 W/m² 7,4 °C 8,5 °C 0,0 km/h (0 Bft)
24.09.2017 23:20 8,6 °C 8,6 °C 93 % 1020,0 hPa 0,0 mm 0,0 km/h (0 Bft) S-SO 149 ° 0 min 0,000 mm 0,0 UV-I 0 W/m² 7,5 °C 8,6 °C 0,0 km/h (0 Bft)
24.09.2017 23:21 8,5 °C 8,6 °C 93 % 1019,9 hPa 0,0 mm 0,0 km/h (0 Bft) S-SO 149 ° 0 min 0,000 mm 0,0 UV-I 0 W/m² 7,4 °C 8,5 °C 0,0 km/h (0 Bft)
24.09.2017 23:22 8,5 °C 8,5 °C 93 % 1019,9 hPa 0,0 mm 0,0 km/h (0 Bft) S-SO 149 ° 0 min 0,000 mm 0,0 UV-I 0 W/m² 7,4 °C 8,5 °C 0,0 km/h (0 Bft)
24.09.2017 23:23 8,4 °C 8,5 °C 93 % 1019,9 hPa 0,0 mm 0,0 km/h (0 Bft) S-SO 149 ° 0 min 0,000 mm 0,0 UV-I 0 W/m² 7,3 °C 8,4 °C 0,0 km/h (0 Bft)
24.09.2017 23:24 8,4 °C 8,4 °C 93 % 1019,9 hPa 0,0 mm 0,0 km/h (0 Bft) S-SO 149 ° 0 min 0,000 mm 0,0 UV-I 0 W/m² 7,3 °C 8,4 °C 0,0 km/h (0 Bft)
24.09.2017 23:25 8,4 °C 8,4 °C 93 % 1019,9 hPa 0,0 mm 0,0 km/h (0 Bft) S-SO 149 ° 0 min 0,000 mm 0,0 UV-I 0 W/m² 7,3 °C 8,4 °C 0,0 km/h (0 Bft)
24.09.2017 23:26 8,4 °C 8,4 °C 93 % 1019,9 hPa 0,0 mm 0,0 km/h (0 Bft) S-SO 149 ° 0 min 0,000 mm 0,0 UV-I 0 W/m² 7,3 °C 8,4 °C 0,0 km/h (0 Bft)
24.09.2017 23:27 8,4 °C 8,4 °C 93 % 1019,9 hPa 0,0 mm 0,0 km/h (0 Bft) S-SO 149 ° 0 min 0,000 mm 0,0 UV-I 0 W/m² 7,3 °C 8,4 °C 0,0 km/h (0 Bft)
24.09.2017 23:28 8,4 °C 8,4 °C 93 % 1019,9 hPa 0,0 mm 0,0 km/h (0 Bft) S-SO 149 ° 0 min 0,000 mm 0,0 UV-I 0 W/m² 7,3 °C 8,4 °C 0,0 km/h (0 Bft)
24.09.2017 23:29 8,4 °C 8,4 °C 93 % 1019,9 hPa 0,0 mm 0,0 km/h (0 Bft) S-SO 149 ° 0 min 0,000 mm 0,0 UV-I 0 W/m² 7,3 °C 8,4 °C 0,0 km/h (0 Bft)
24.09.2017 23:30 8,4 °C 8,4 °C 93 % 1019,9 hPa 0,0 mm 0,0 km/h (0 Bft) S-SO 149 ° 0 min 0,000 mm 0,0 UV-I 0 W/m² 7,3 °C 8,4 °C 0,0 km/h (0 Bft)
24.09.2017 23:31 8,4 °C 8,4 °C 93 % 1019,9 hPa 0,0 mm 0,0 km/h (0 Bft) S-SO 149 ° 0 min 0,000 mm 0,0 UV-I 0 W/m² 7,3 °C 8,4 °C 0,0 km/h (0 Bft)
24.09.2017 23:32 8,5 °C 8,5 °C 93 % 1019,9 hPa 0,0 mm 0,0 km/h (0 Bft) S-SO 149 ° 0 min 0,000 mm 0,0 UV-I 0 W/m² 7,4 °C 8,5 °C 0,0 km/h (0 Bft)
24.09.2017 23:33 8,5 °C 8,5 °C 93 % 1019,9 hPa 0,0 mm 0,0 km/h (0 Bft) S-SO 149 ° 0 min 0,000 mm 0,0 UV-I 0 W/m² 7,4 °C 8,5 °C 0,0 km/h (0 Bft)
24.09.2017 23:34 8,5 °C 8,5 °C 93 % 1019,9 hPa 0,0 mm 0,0 km/h (0 Bft) S-SO 149 ° 0 min 0,000 mm 0,0 UV-I 0 W/m² 7,4 °C 8,5 °C 0,0 km/h (0 Bft)
24.09.2017 23:35 8,5 °C 8,5 °C 93 % 1019,9 hPa 0,0 mm 0,0 km/h (0 Bft) S-SO 149 ° 0 min 0,000 mm 0,0 UV-I 0 W/m² 7,4 °C 8,5 °C 0,0 km/h (0 Bft)
24.09.2017 23:36 8,6 °C 8,6 °C 93 % 1019,9 hPa 0,0 mm 0,0 km/h (0 Bft) S-SO 149 ° 0 min 0,000 mm 0,0 UV-I 0 W/m² 7,5 °C 8,6 °C 0,0 km/h (0 Bft)
24.09.2017 23:37 8,6 °C 8,6 °C 93 % 1019,8 hPa 0,0 mm 0,0 km/h (0 Bft) S-SO 149 ° 0 min 0,000 mm 0,0 UV-I 0 W/m² 7,5 °C 8,6 °C 0,0 km/h (0 Bft)
24.09.2017 23:38 8,6 °C 8,6 °C 93 % 1019,9 hPa 0,0 mm 0,0 km/h (0 Bft) S-SO 149 ° 0 min 0,000 mm 0,0 UV-I 0 W/m² 7,5 °C 8,6 °C 0,0 km/h (0 Bft)
24.09.2017 23:39 8,6 °C 8,6 °C 93 % 1019,9 hPa 0,0 mm 0,0 km/h (0 Bft) S-SO 149 ° 0 min 0,000 mm 0,0 UV-I 0 W/m² 7,5 °C 8,6 °C 0,0 km/h (0 Bft)
24.09.2017 23:40 8,6 °C 8,7 °C 93 % 1019,8 hPa 0,0 mm 0,0 km/h (0 Bft) S-SO 149 ° 0 min 0,000 mm 0,0 UV-I 0 W/m² 7,5 °C 8,6 °C 0,0 km/h (0 Bft)
24.09.2017 23:41 8,7 °C 8,7 °C 94 % 1019,8 hPa 0,0 mm 0,0 km/h (0 Bft) S-SO 149 ° 0 min 0,000 mm 0,0 UV-I 0 W/m² 7,8 °C 8,7 °C 0,0 km/h (0 Bft)
24.09.2017 23:42 8,7 °C 8,7 °C 94 % 1019,8 hPa 0,0 mm 0,0 km/h (0 Bft) S-SO 149 ° 0 min 0,000 mm 0,0 UV-I 0 W/m² 7,8 °C 8,7 °C 0,0 km/h (0 Bft)
24.09.2017 23:43 8,7 °C 8,7 °C 93 % 1019,8 hPa 0,0 mm 0,0 km/h (0 Bft) S-SO 149 ° 0 min 0,000 mm 0,0 UV-I 0 W/m² 7,6 °C 8,7 °C 0,0 km/h (0 Bft)
24.09.2017 23:44 8,7 °C 8,7 °C 93 % 1019,8 hPa 0,0 mm 0,0 km/h (0 Bft) S-SO 149 ° 0 min 0,000 mm 0,0 UV-I 0 W/m² 7,6 °C 8,7 °C 0,0 km/h (0 Bft)
24.09.2017 23:45 8,7 °C 8,8 °C 93 % 1019,8 hPa 0,0 mm 0,0 km/h (0 Bft) S-SO 149 ° 0 min 0,000 mm 0,0 UV-I 0 W/m² 7,6 °C 8,7 °C 0,0 km/h (0 Bft)
24.09.2017 23:46 8,7 °C 8,7 °C 93 % 1019,8 hPa 0,0 mm 0,0 km/h (0 Bft) S-SO 149 ° 0 min 0,000 mm 0,0 UV-I 0 W/m² 7,6 °C 8,7 °C 0,0 km/h (0 Bft)
24.09.2017 23:47 8,8 °C 8,8 °C 93 % 1019,8 hPa 0,0 mm 0,0 km/h (0 Bft) S-SO 149 ° 0 min 0,000 mm 0,0 UV-I 0 W/m² 7,7 °C 8,8 °C 0,0 km/h (0 Bft)
24.09.2017 23:48 8,7 °C 8,8 °C 93 % 1019,8 hPa 0,0 mm 0,0 km/h (0 Bft) S-SO 149 ° 0 min 0,000 mm 0,0 UV-I 0 W/m² 7,6 °C 8,7 °C 0,0 km/h (0 Bft)
24.09.2017 23:49 8,7 °C 8,7 °C 93 % 1019,8 hPa 0,0 mm 0,0 km/h (0 Bft) S-SO 149 ° 0 min 0,000 mm 0,0 UV-I 0 W/m² 7,6 °C 8,7 °C 0,0 km/h (0 Bft)
24.09.2017 23:50 8,7 °C 8,7 °C 93 % 1019,8 hPa 0,0 mm 0,0 km/h (0 Bft) S-SO 149 ° 0 min 0,000 mm 0,0 UV-I 0 W/m² 7,6 °C 8,7 °C 0,0 km/h (0 Bft)
24.09.2017 23:51 8,7 °C 8,7 °C 93 % 1019,7 hPa 0,0 mm 0,0 km/h (0 Bft) S-SO 149 ° 0 min 0,000 mm 0,0 UV-I 0 W/m² 7,6 °C 8,7 °C 0,0 km/h (0 Bft)
24.09.2017 23:52 8,7 °C 8,7 °C 93 % 1019,7 hPa 0,0 mm 0,0 km/h (0 Bft) S-SO 149 ° 0 min 0,000 mm 0,0 UV-I 0 W/m² 7,6 °C 8,7 °C 0,0 km/h (0 Bft)
24.09.2017 23:53 8,6 °C 8,7 °C 93 % 1019,7 hPa 0,0 mm 0,0 km/h (0 Bft) S-SO 149 ° 0 min 0,000 mm 0,0 UV-I 0 W/m² 7,5 °C 8,6 °C 0,0 km/h (0 Bft)
24.09.2017 23:54 8,6 °C 8,6 °C 93 % 1019,7 hPa 0,0 mm 0,0 km/h (0 Bft) S-SO 149 ° 0 min 0,000 mm 0,0 UV-I 0 W/m² 7,5 °C 8,6 °C 0,0 km/h (0 Bft)
24.09.2017 23:55 8,6 °C 8,6 °C 93 % 1019,7 hPa 0,0 mm 0,0 km/h (0 Bft) S-SO 149 ° 0 min 0,000 mm 0,0 UV-I 0 W/m² 7,5 °C 8,6 °C 0,0 km/h (0 Bft)
24.09.2017 23:56 8,6 °C 8,6 °C 93 % 1019,7 hPa 0,0 mm 0,0 km/h (0 Bft) S-SO 149 ° 0 min 0,000 mm 0,0 UV-I 0 W/m² 7,5 °C 8,6 °C 0,0 km/h (0 Bft)
24.09.2017 23:57 8,6 °C 8,6 °C 93 % 1019,7 hPa 0,0 mm 0,0 km/h (0 Bft) S-SO 149 ° 0 min 0,000 mm 0,0 UV-I 0 W/m² 7,5 °C 8,6 °C 0,0 km/h (0 Bft)
24.09.2017 23:58 8,6 °C 8,6 °C 93 % 1019,7 hPa 0,0 mm 0,0 km/h (0 Bft) S-SO 149 ° 0 min 0,000 mm 0,0 UV-I 0 W/m² 7,5 °C 8,6 °C 0,0 km/h (0 Bft)
24.09.2017 23:59 8,6 °C 8,6 °C 93 % 1019,7 hPa 0,0 mm 0,0 km/h (0 Bft) S-SO 149 ° 0 min 0,000 mm 0,0 UV-I 0 W/m² 7,5 °C 8,6 °C 0,0 km/h (0 Bft)
_ Min-Zeit 23:31 23:31 15:43 06:08 - 23:59 - - - - - - 19:26 23:31 23:59
Minimum _ 8,4 °C 8,4 °C 64 % 1018,0 hPa - 0,0 km/h (0 Bft) - - - - - - 7,3 °C 8,4 °C 0,0 km/h (0 Bft)
_ Max-Zeit 14:59 15:00 07:25 21:46 23:59 14:23 - - 14:49 15:01 14:18 14:19 12:44 14:59 16:11
Maximum _ 15,7 °C 15,7 °C 96 % 1020,3 hPa 0,0 mm 11,2 km/h
NW (2 Bft)
- - 2 min 0,330 mm 4,0 UV-I 773 W/m² 11,2 °C 15,7 °C 16,1 km/h
O-NO (3 Bft)
Durchschnitt _ 11,1 °C 11,1 °C 88 % 1019,1 hPa #0,0 mm 1,1 km/h (0 Bft) W-SW - #1:45 h #1,194 mm 1,7 UV-I 94 W/m² 9,0 °C 11,1 °C 1,9 km/h (1 Bft)